# Wetter Temperatur Luftdruck Luftfeuchtigkeit Sichtweite Windgeschwindigkeit Windrichtung Zeit
1 Clouds 27 1011 83 10000 1 0 19:42 17.10.2019
2 Clouds 27 1011 83 10000 1 0 19:21 17.10.2019
3 Clouds 28 1011 74 10000 2.1 120 18:59 17.10.2019
4 Clouds 28 1011 74 10000 2.1 120 18:39 17.10.2019
5 Clouds 28 1011 74 10000 2.1 120 18:21 17.10.2019
6 Clouds 28 1011 74 10000 2.6 140 17:55 17.10.2019
7 Clouds 28 1011 74 10000 2.6 140 17:55 17.10.2019
8 Clouds 28 1011 74 10000 2.6 140 17:36 17.10.2019
9 Clouds 28 1011 74 10000 2.6 140 17:18 17.10.2019
10 Clouds 28 1011 83 10000 2.1 140 16:41 17.10.2019
11 Clouds 28 1011 83 10000 2.1 140 16:19 17.10.2019
12 Clouds 28 1011 83 10000 2.1 140 16:19 17.10.2019
13 Clouds 29 1011 70 10000 2.6 130 15:59 17.10.2019
14 Clouds 29 1011 70 10000 2.6 130 15:40 17.10.2019
15 Clouds 29 1011 70 10000 2.6 130 15:20 17.10.2019
16 Clouds 29 1011 70 10000 3.1 120 14:57 17.10.2019
17 Clouds 29 1011 70 10000 3.1 120 14:38 17.10.2019
18 Clouds 29 1011 70 10000 3.1 120 14:20 17.10.2019
19 Clouds 29 1010 62 10000 3.1 120 13:41 17.10.2019
20 Clouds 30 1010 62 10000 3.1 120 13:21 17.10.2019
21 Clouds 30 1009 55 10000 2.6 80 12:58 17.10.2019
22 Clouds 30 1009 55 10000 2.6 80 12:39 17.10.2019
23 Clouds 31 1009 55 10000 2.6 80 12:19 17.10.2019
24 Clouds 31 1009 59 10000 2.1 320 11:56 17.10.2019
25 Clouds 31 1009 59 10000 2.1 320 11:37 17.10.2019
26 Clouds 32 1009 59 10000 2.1 320 11:18 17.10.2019
27 Clouds 32 1009 59 10000 2.1 260 10:42 17.10.2019
28 Clouds 32 1009 59 10000 2.1 260 10:20 17.10.2019
29 Clouds 32 1008 55 10000 1.5 0 09:57 17.10.2019
30 Clouds 32 1008 55 10000 1.5 0 09:57 17.10.2019
31 Clouds 32 1008 55 10000 1.5 0 09:38 17.10.2019
32 Clouds 32 1008 55 10000 1.5 0 09:20 17.10.2019
33 Clouds 32 1009 55 10000 2.6 0 08:56 17.10.2019
34 Clouds 33 1009 55 10000 2.6 0 08:37 17.10.2019
35 Clouds 33 1009 55 10000 2.6 0 08:18 17.10.2019
36 Clouds 32 1009 62 10000 2.1 310 07:41 17.10.2019
37 Clouds 32 1009 62 10000 2.1 310 07:21 17.10.2019
38 Clouds 33 1010 62 10000 3.1 290 06:55 17.10.2019
39 Clouds 32 1010 62 10000 3.1 290 06:37 17.10.2019
40 Clouds 32 1010 62 10000 3.1 290 06:18 17.10.2019
41 Clouds 32 1011 66 10000 3.6 300 05:40 17.10.2019
42 Clouds 31 1011 66 10000 3.6 300 05:19 17.10.2019
43 Clouds 32 1012 55 10000 2.1 0 04:48 17.10.2019
44 Clouds 31 1012 66 10000 2.6 0 03:46 17.10.2019
45 Clouds 29 1011 74 10000 0.5 0 01:57 17.10.2019
46 Clouds 26 1011 78 10000 0.5 0 00:42 17.10.2019
47 Clouds 26 1011 78 10000 0.5 0 00:21 17.10.2019
48 Clouds 26 1010 78 10000 1.994 27 23:59 16.10.2019
49 Clouds 26 1010 78 10000 1.994 27 23:40 16.10.2019
50 Clouds 26 1010 78 10000 1.994 27 23:18 16.10.2019
51 Clouds 26 1010 78 10000 1.994 27 22:54 16.10.2019
52 Clouds 26 1010 78 10000 1.994 27 22:36 16.10.2019
53 Clouds 26 1010 78 10000 1.994 27 22:18 16.10.2019
54 Clouds 27 1010 74 10000 1 0 21:54 16.10.2019
55 Clouds 27 1010 74 10000 1 0 21:36 16.10.2019
56 Clouds 27 1010 74 10000 1 0 21:18 16.10.2019
57 Clouds 27 1010 78 10000 1 0 20:56 16.10.2019
58 Clouds 27 1010 78 10000 1 0 20:37 16.10.2019
59 Clouds 27 1010 78 10000 1 0 20:37 16.10.2019
60 Clouds 27 1010 78 10000 1 0 20:37 16.10.2019
61 Clouds 27 1010 78 10000 1 0 20:19 16.10.2019
62 Clouds 27 1011 78 10000 1.5 100 19:40 16.10.2019
63 Clouds 27 1011 78 10000 1.5 100 19:40 16.10.2019
64 Clouds 27 1011 78 10000 1.5 100 19:40 16.10.2019
65 Clouds 27 1011 78 10000 1.5 100 19:21 16.10.2019
66 Clouds 27 1011 83 10000 1.5 90 18:58 16.10.2019
67 Clouds 27 1011 83 10000 1.5 90 18:58 16.10.2019
68 Clouds 28 1011 83 10000 1.5 90 18:38 16.10.2019
69 Clouds 28 1011 83 10000 1.5 90 18:18 16.10.2019
70 Clouds 28 1011 74 10000 2.6 100 17:56 16.10.2019
71 Clouds 28 1011 74 10000 2.6 100 17:37 16.10.2019
72 Clouds 28 1011 74 10000 2.6 100 17:19 16.10.2019
73 Clouds 28 1011 70 10000 3.6 110 16:56 16.10.2019
74 Clouds 28 1011 70 10000 3.6 110 16:38 16.10.2019
75 Clouds 29 1011 70 10000 3.6 110 16:19 16.10.2019
76 Clouds 29 1011 66 10000 3.1 120 15:41 16.10.2019
77 Clouds 29 1011 66 10000 3.1 120 15:41 16.10.2019
78 Clouds 29 1011 70 10000 2.6 120 15:19 16.10.2019
79 Clouds 29 1011 70 10000 2.6 120 14:59 16.10.2019
80 Clouds 29 1011 70 10000 2.6 120 14:40 16.10.2019
81 -273 0 0 0 0 0 14:21 16.10.2019
82 Clouds 29 1010 70 10000 3.1 120 13:58 16.10.2019
83 Clouds 29 1010 70 10000 3.1 120 13:58 16.10.2019
84 Clouds 29 1010 70 10000 3.1 120 13:40 16.10.2019
85 Clouds 29 1010 70 10000 3.1 120 13:22 16.10.2019
86 Clouds 29 1009 74 10000 1.5 0 12:44 16.10.2019
87 Clouds 29 1009 74 10000 1.5 0 12:20 16.10.2019
88 Clouds 30 1009 70 10000 2.6 0 11:55 16.10.2019
89 Clouds 30 1009 70 10000 2.6 0 11:37 16.10.2019
90 Clouds 30 1009 70 10000 2.6 0 11:18 16.10.2019
91 Clouds 31 1008 59 10000 3.6 120 10:37 16.10.2019
92 Clouds 32 1008 59 10000 3.6 120 10:18 16.10.2019
93 Clouds 32 1009 66 10000 2.1 140 09:41 16.10.2019
94 Clouds 32 1009 66 10000 2.1 140 09:40 16.10.2019
95 Clouds 32 1009 66 10000 2.1 140 09:40 16.10.2019
96 Clouds 32 1009 66 10000 2.1 140 09:22 16.10.2019
97 Clouds 32 1009 55 10000 3.1 110 08:57 16.10.2019
98 Clouds 32 1009 55 10000 3.1 110 08:38 16.10.2019
99 Clouds 33 1009 55 10000 3.1 110 08:20 16.10.2019
100 Clouds 32 1010 55 10000 4.1 70 07:42 16.10.2019
101 Clouds 32 1010 55 10000 4.1 70 07:23 16.10.2019
102 Clouds 32 1011 62 10000 3.6 70 06:48 16.10.2019
103 Clouds 32 1011 62 10000 3.6 70 06:29 16.10.2019
104 Clouds 30 1012 66 10000 1.5 0 04:31 16.10.2019
105 Clouds 29 1012 74 10000 2.1 260 02:51 16.10.2019
106 Clouds 28 1012 74 10000 2.1 190 01:21 16.10.2019
107 Clouds 27 1011 74 10000 1 0 00:59 16.10.2019
108 Clouds 27 1011 74 10000 1 0 00:40 16.10.2019
109 Clouds 26 1010 78 10000 0.5 0 23:58 15.10.2019
110 Clouds 26 1010 78 10000 0.5 0 23:38 15.10.2019
111 Clouds 26 1010 78 10000 0.5 0 23:19 15.10.2019
112 Clouds 26 1010 74 9000 1 0 22:55 15.10.2019
113 Clouds 26 1010 74 9000 1 0 22:55 15.10.2019
114 Clouds 26 1010 74 9000 1 0 22:37 15.10.2019
115 Clouds 27 1010 74 9000 1 0 22:18 15.10.2019
116 Clouds 27 1010 74 10000 1 0 21:54 15.10.2019
117 Clouds 27 1010 74 10000 1 0 21:36 15.10.2019
118 Clouds 27 1010 74 10000 1 0 21:18 15.10.2019
119 Clouds 27 1011 74 10000 2.1 60 20:54 15.10.2019
120 Clouds 27 1011 74 10000 2.1 60 20:36 15.10.2019
121 Clouds 27 1011 74 10000 2.1 60 20:18 15.10.2019
122 Clouds 27 1011 74 10000 1.5 90 19:41 15.10.2019
123 Clouds 27 1011 74 10000 1.5 90 19:41 15.10.2019
124 Clouds 27 1011 74 10000 1.5 90 19:20 15.10.2019
125 Clouds 27 1011 74 10000 1.5 90 18:57 15.10.2019
126 Clouds 28 1012 74 10000 2.1 110 18:39 15.10.2019
127 Clouds 28 1012 74 10000 2.1 110 18:20 15.10.2019
128 Clouds 28 1012 74 10000 1.5 110 17:43 15.10.2019
129 Clouds 28 1012 74 10000 1.5 110 17:43 15.10.2019
130 Clouds 28 1012 74 10000 1.5 110 17:21 15.10.2019
131 Clouds 28 1012 74 10000 1.5 70 16:59 15.10.2019
132 Clouds 28 1012 74 10000 1.5 70 16:41 15.10.2019
133 Clouds 28 1012 74 10000 1.5 70 16:21 15.10.2019
134 Clouds 29 1012 66 0 2.1 110 15:55 15.10.2019
135 Clouds 29 1012 66 0 2.1 110 15:37 15.10.2019
136 Clouds 29 1012 66 0 2.1 110 15:19 15.10.2019
137 Clouds 29 1011 66 10000 2.6 100 14:54 15.10.2019
138 Clouds 29 1011 66 10000 2.6 100 14:36 15.10.2019
139 Clouds 29 1011 66 10000 2.6 100 14:18 15.10.2019
140 Clouds 29 1011 58 10000 2.6 80 13:43 15.10.2019
141 Clouds 29 1011 58 10000 2.6 80 13:20 15.10.2019
142 Clouds 30 1010 55 10000 3.1 90 12:46 15.10.2019
143 Clouds 30 1010 55 10000 3.1 90 12:23 15.10.2019
144 Clouds 27 1010 100 10000 4.1 100 11:59 15.10.2019
145 Clouds 27 1010 100 10000 4.1 100 11:40 15.10.2019
146 Clouds 28 1010 100 10000 4.1 100 11:20 15.10.2019
147 Clouds 32 1009 49 10000 4.1 100 10:46 15.10.2019
148 Clouds 33 1009 49 10000 4.1 100 10:24 15.10.2019
149 Clouds 33 1009 55 10000 3.6 120 09:59 15.10.2019
150 Clouds 33 1009 55 10000 3.6 120 09:40 15.10.2019
151 Clouds 33 1009 55 10000 3.6 120 09:21 15.10.2019
152 Clouds 33 1009 55 10000 3.6 120 09:21 15.10.2019
153 Clouds 33 1010 55 10000 4.1 0 08:57 15.10.2019
154 Clouds 33 1010 55 10000 4.1 0 08:39 15.10.2019
155 Clouds 33 1010 55 10000 4.1 0 08:18 15.10.2019
156 Clouds 33 1011 55 10000 4.6 110 07:43 15.10.2019
157 Clouds 33 1011 55 10000 4.6 110 07:22 15.10.2019
158 Clouds 33 1012 55 10000 5.1 50 06:55 15.10.2019
159 Clouds 32 1012 55 10000 5.1 50 06:37 15.10.2019
160 Rain 31 1013 66 10000 2.1 360 05:56 15.10.2019
161 Rain 31 1013 66 10000 2.1 360 05:36 15.10.2019
162 Clouds 30 1013 58 10000 2.6 70 04:40 15.10.2019
163 Clouds 31 1013 55 10000 2.1 90 03:59 15.10.2019
164 Clouds 31 1013 55 10000 2.1 90 03:30 15.10.2019
165 Clouds 28 1012 69 9000 1.5 120 01:51 15.10.2019
166 Clouds 28 1012 69 9000 1.5 120 01:24 15.10.2019
167 Clouds 26 1012 78 9000 0.5 0 00:58 15.10.2019
168 Clouds 26 1012 78 9000 0.5 0 00:24 15.10.2019
169 Clouds 26 1011 78 10000 1.5 80 23:55 14.10.2019
170 Clouds 26 1011 78 10000 1.5 80 23:36 14.10.2019
171 Clouds 26 1011 78 10000 1.5 80 23:18 14.10.2019
172 Clouds 26 1011 74 10000 1 80 22:39 14.10.2019
173 Clouds 26 1011 74 10000 1 80 22:19 14.10.2019
174 Clouds 27 1012 69 10000 0.5 0 21:56 14.10.2019
175 Clouds 26 1012 69 10000 0.5 0 21:38 14.10.2019
176 Clouds 26 1012 69 10000 0.5 0 21:20 14.10.2019
177 Clouds 26 1012 69 10000 0.5 0 21:20 14.10.2019
178 -273 0 0 0 0 0 20:56 14.10.2019
179 Clouds 26 1012 74 10000 1 0 20:37 14.10.2019
180 Clouds 26 1012 74 10000 1 0 20:18 14.10.2019
181 Clouds 27 1013 69 10000 1 0 19:42 14.10.2019
182 Clouds 27 1013 69 10000 1 0 19:24 14.10.2019
183 Clouds 27 1013 74 10000 1.5 90 18:59 14.10.2019
184 Clouds 27 1013 74 10000 1.5 90 18:39 14.10.2019
185 Clouds 27 1013 74 10000 1.5 90 18:19 14.10.2019
186 Clouds 27 1013 74 10000 1.5 90 18:19 14.10.2019
187 Clouds 27 1013 74 10000 1.5 90 18:19 14.10.2019
188 Clouds 27 1013 69 10000 1.5 110 17:57 14.10.2019
189 Clouds 27 1013 69 10000 1.5 110 17:39 14.10.2019
190 Clouds 28 1013 69 10000 1.5 110 17:20 14.10.2019
191 Clouds 28 1013 74 10000 3.1 110 16:44 14.10.2019
192 Clouds 28 1013 74 10000 3.1 110 16:21 14.10.2019
193 Clouds 28 1013 70 10000 3.6 100 15:54 14.10.2019
194 Clouds 28 1013 70 10000 3.6 100 15:36 14.10.2019
195 Clouds 29 1013 70 10000 3.6 100 15:18 14.10.2019
196 Clouds 29 1012 70 10000 3.6 110 14:43 14.10.2019
197 Clouds 29 1012 70 10000 3.6 110 14:23 14.10.2019
198 Clouds 29 1011 66 10000 3.1 110 13:45 14.10.2019
199 Clouds 29 1011 66 10000 3.1 110 13:22 14.10.2019
200 Clouds 30 1011 55 10000 3.1 90 12:59 14.10.2019
201 Clouds 30 1011 55 10000 3.1 90 12:40 14.10.2019
202 Clouds 30 1011 55 10000 3.1 90 12:19 14.10.2019
203 Clouds 31 1010 49 10000 5.1 90 11:46 14.10.2019
204 Clouds 31 1010 49 10000 5.1 90 11:26 14.10.2019
205 Clouds 31 1010 49 10000 5.1 90 11:26 14.10.2019
206 Clouds 32 1010 46 10000 5.1 70 10:58 14.10.2019
207 Clouds 32 1010 46 10000 5.1 70 10:38 14.10.2019
208 Clouds 33 1010 46 10000 5.1 70 10:20 14.10.2019
209 Clouds 33 1010 49 10000 5.7 70 09:55 14.10.2019
210 Clouds 32 1010 49 10000 5.7 70 09:36 14.10.2019
211 Clouds 33 1010 49 10000 5.7 70 09:18 14.10.2019
212 Clouds 33 1010 52 10000 3.6 140 08:43 14.10.2019
213 Clouds 33 1010 52 10000 3.6 140 08:22 14.10.2019
214 -273 0 0 0 0 0 07:42 14.10.2019
215 Clouds 33 1011 55 10000 3.1 120 07:19 14.10.2019
216 Clouds 33 1012 52 10000 2.6 0 06:39 14.10.2019
217 Clouds 33 1012 52 10000 2.6 0 06:20 14.10.2019
218 Clouds 32 1012 62 10000 3.1 90 05:46 14.10.2019
219 Clouds 31 1013 66 10000 2.6 70 04:42 14.10.2019
220 Clouds 30 1012 66 10000 2.1 0 03:27 14.10.2019
221 Clouds 30 1012 66 10000 3.1 90 02:42 14.10.2019
222 Clouds 28 1012 69 9000 1.5 90 01:23 14.10.2019
223 Clouds 26 1011 78 9000 0.5 0 00:56 14.10.2019
224 Clouds 26 1011 78 9000 0.5 0 00:19 14.10.2019
225 Clouds 26 1011 74 10000 1 0 23:45 13.10.2019
226 Clouds 26 1011 74 10000 1 0 23:20 13.10.2019
227 Clouds 26 1011 74 10000 1 0 22:58 13.10.2019
228 Clouds 26 1011 74 10000 1 0 22:40 13.10.2019
229 Clouds 26 1011 74 10000 1 0 22:21 13.10.2019
230 Clouds 26 1011 88 10000 2.1 70 21:58 13.10.2019
231 Clouds 26 1011 88 10000 2.1 70 21:37 13.10.2019
232 Clouds 26 1011 88 10000 2.1 70 21:18 13.10.2019
233 Clouds 27 1011 78 10000 2.6 90 20:57 13.10.2019
234 Clouds 27 1011 78 10000 2.6 90 20:38 13.10.2019
235 Clouds 27 1011 78 10000 2.6 90 20:20 13.10.2019
236 -273 0 0 0 0 0 19:58 13.10.2019
237 Clouds 27 1011 74 10000 2.1 130 19:39 13.10.2019
238 Clouds 27 1011 74 10000 2.1 130 19:39 13.10.2019
239 Clouds 27 1011 74 10000 2.1 130 19:39 13.10.2019
240 Clouds 27 1011 74 10000 2.1 130 19:21 13.10.2019
241 Clouds 27 1011 74 10000 3.1 120 18:56 13.10.2019
242 -273 0 0 0 0 0 18:56 13.10.2019
243 Clouds 27 1011 74 10000 3.1 120 18:36 13.10.2019
244 Clouds 27 1011 74 10000 3.1 120 18:18 13.10.2019
245 Clouds 27 1011 74 10000 3.6 120 17:55 13.10.2019
246 Clouds 27 1011 74 10000 3.6 120 17:36 13.10.2019
247 Clouds 27 1011 74 10000 3.6 120 17:18 13.10.2019
248 Clouds 28 1011 74 10000 3.6 120 16:41 13.10.2019
249 Clouds 28 1011 74 10000 3.6 120 16:18 13.10.2019
250 Clouds 28 1011 66 10000 3.6 100 15:56 13.10.2019
251 Clouds 28 1011 66 10000 3.6 100 15:37 13.10.2019
252 Clouds 28 1011 66 10000 3.6 100 15:37 13.10.2019
253 Clouds 28 1011 66 10000 3.6 100 15:18 13.10.2019
254 Clouds 28 1011 66 10000 2.1 80 14:56 13.10.2019
255 Clouds 29 1011 66 10000 2.1 80 14:38 13.10.2019
256 Clouds 29 1011 66 10000 2.1 80 14:19 13.10.2019
257 Clouds 29 1010 62 10000 3.1 90 13:41 13.10.2019
258 Clouds 29 1010 62 10000 3.1 90 13:22 13.10.2019
259 Clouds 29 1009 62 10000 3.1 110 12:59 13.10.2019
260 Clouds 29 1009 62 10000 3.1 110 12:39 13.10.2019
261 Clouds 30 1009 62 10000 3.1 110 12:20 13.10.2019
262 Clouds 30 1009 58 10000 4.1 110 11:58 13.10.2019
263 Clouds 31 1009 58 10000 4.1 110 11:39 13.10.2019
264 Clouds 31 1009 58 10000 4.1 110 11:20 13.10.2019
265 Clouds 31 1008 52 10000 3.6 120 10:43 13.10.2019
266 Clouds 32 1008 52 10000 3.6 120 10:24 13.10.2019
267 Clouds 32 1008 52 10000 3.1 130 09:59 13.10.2019
268 Clouds 32 1008 52 10000 3.1 130 09:59 13.10.2019
269 Clouds 33 1008 52 10000 3.1 130 09:39 13.10.2019
270 Clouds 33 1008 52 10000 3.1 130 09:20 13.10.2019
271 Clouds 32 1009 55 10000 2.6 140 08:43 13.10.2019
272 -273 0 0 0 0 0 08:25 13.10.2019
273 Clouds 33 1009 55 10000 2.6 140 08:25 13.10.2019
274 Clouds 32 1009 59 10000 1.5 200 07:51 13.10.2019
275 Clouds 32 1009 59 10000 1.5 200 07:32 13.10.2019
276 Clouds 33 1010 49 10000 3.1 90 06:51 13.10.2019
277 Clouds 33 1010 49 10000 3.1 90 06:23 13.10.2019
278 Clouds 32 1012 55 10000 2.6 100 04:59 13.10.2019
279 Clouds 31 1012 55 10000 2.6 100 04:33 13.10.2019
280 Clouds 30 1012 70 10000 2.1 100 02:50 13.10.2019
281 Clouds 29 1012 70 10000 2.1 100 02:27 13.10.2019
282 Clouds 27 1011 78 10000 1.5 70 01:34 13.10.2019
283 Clouds 26 1010 88 10000 2.1 70 00:53 13.10.2019
284 Clouds 26 1010 88 10000 2.1 70 00:23 13.10.2019
285 Clouds 26 1010 83 10000 1 90 23:59 12.10.2019
286 Clouds 26 1010 83 10000 1 90 23:40 12.10.2019
287 Clouds 26 1010 83 10000 1 90 23:22 12.10.2019
288 Clouds 26 1009 78 10000 2.1 70 22:58 12.10.2019
289 Clouds 26 1009 78 10000 2.1 70 22:40 12.10.2019
290 Clouds 27 1009 78 10000 2.1 70 22:21 12.10.2019
291 Clouds 26 1009 83 10000 0.5 0 21:56 12.10.2019
292 Clouds 26 1009 83 10000 0.5 0 21:38 12.10.2019
293 Clouds 26 1009 83 10000 0.5 0 21:20 12.10.2019
294 Clouds 26 1009 88 10000 3.1 70 20:44 12.10.2019
295 Clouds 26 1009 88 10000 3.1 70 20:26 12.10.2019
296 Clouds 27 1009 78 10000 1 0 19:42 12.10.2019
297 Clouds 27 1009 78 10000 1 0 19:23 12.10.2019
298 Clouds 27 1010 83 10000 2.1 80 18:59 12.10.2019
299 Clouds 27 1010 83 10000 2.1 80 18:41 12.10.2019
300 Clouds 27 1010 83 10000 2.1 80 18:23 12.10.2019
301 Clouds 27 1010 78 10000 1 0 17:45 12.10.2019
302 Clouds 27 1010 78 10000 1 0 17:21 12.10.2019
303 Clouds 27 1010 78 10000 1.5 80 16:56 12.10.2019
304 Clouds 27 1010 78 10000 1.5 80 16:38 12.10.2019
305 Clouds 27 1010 78 10000 1.5 80 16:19 12.10.2019
306 Clouds 27 1010 83 10000 0.5 0 15:44 12.10.2019
307 Clouds 27 1010 83 10000 0.5 0 15:25 12.10.2019
308 Clouds 27 1010 83 10000 0.5 0 15:25 12.10.2019
309 -273 0 0 0 0 0 15:25 12.10.2019
310 Clouds 27 1010 83 10000 0.5 0 15:25 12.10.2019
311 Clouds 26 1010 83 10000 2.6 70 14:57 12.10.2019
312 Clouds 26 1010 83 10000 2.6 70 14:38 12.10.2019
313 Clouds 26 1010 83 10000 2.6 70 14:19 12.10.2019
314 Clouds 26 1009 83 10000 2.1 100 13:44 12.10.2019
315 Rain 26 1009 83 10000 2.1 100 13:26 12.10.2019
316 Rain 25 1008 83 8000 4.1 200 12:40 12.10.2019
317 Rain 25 1008 83 8000 4.1 200 12:40 12.10.2019
318 Rain 25 1008 83 8000 4.1 200 12:22 12.10.2019
319 Rain 27 1007 74 10000 3.6 230 11:59 12.10.2019
320 Rain 27 1007 74 10000 3.6 230 11:40 12.10.2019
321 Rain 29 1007 74 10000 4.1 230 11:22 12.10.2019
322 Clouds 31 1007 70 10000 5.1 270 10:45 12.10.2019
323 Clouds 31 1007 70 10000 5.1 270 10:25 12.10.2019
324 Clouds 32 1006 52 10000 3.1 110 09:58 12.10.2019
325 Clouds 33 1006 52 10000 3.1 110 09:40 12.10.2019
326 Clouds 33 1006 52 10000 3.1 110 09:22 12.10.2019
327 -273 0 0 0 0 0 08:58 12.10.2019
328 Clouds 33 1007 55 10000 3.6 120 08:38 12.10.2019
329 Clouds 33 1007 55 10000 3.6 120 08:20 12.10.2019
330 Clouds 33 1007 55 10000 3.6 120 08:20 12.10.2019
331 Clouds 34 1008 46 10000 2.6 120 07:35 12.10.2019
332 Clouds 33 1009 52 10000 2.6 160 06:56 12.10.2019
333 Rain 33 1010 53 0 3.13 120 05:47 12.10.2019
334 Rain 32 1008 67 0 0.89 201 05:23 12.10.2019
335 Clouds 31 1010 62 10000 2.6 0 04:24 12.10.2019
336 Clouds 31 1011 66 10000 3.1 100 03:31 12.10.2019
337 Clouds 28 1010 83 8000 1.5 80 01:45 12.10.2019
338 Clouds 28 1010 83 8000 1.5 80 01:21 12.10.2019
339 Clouds 28 1010 83 8000 1.5 80 01:21 12.10.2019
340 Mist 26 1009 88 5000 1.5 90 00:42 12.10.2019
341 Clouds 26 1009 88 6000 1 0 23:59 11.10.2019
342 Clouds 26 1009 88 6000 1 0 23:40 11.10.2019
343 Clouds 26 1009 88 6000 1 0 23:20 11.10.2019
344 Clouds 26 1008 88 8000 1 0 22:41 11.10.2019
345 Clouds 26 1008 88 8000 1 0 22:41 11.10.2019
346 Clouds 26 1008 88 8000 1 0 22:21 11.10.2019
347 Clouds 26 1008 88 8000 1.5 70 21:57 11.10.2019
348 Clouds 26 1008 88 8000 1.5 70 21:38 11.10.2019
349 Clouds 26 1008 88 8000 1.5 70 21:20 11.10.2019
350 Clouds 26 1009 88 9000 1 50 20:44 11.10.2019
351 Clouds 26 1009 88 9000 1 50 20:26 11.10.2019
352 Clouds 27 1009 88 9000 1 0 19:58 11.10.2019
353 Clouds 27 1009 88 9000 1 0 19:39 11.10.2019
354 Clouds 27 1009 88 9000 1 0 19:18 11.10.2019
355 Clouds 27 1010 83 10000 0.5 0 18:58 11.10.2019
356 Clouds 26 1010 83 10000 0.5 0 18:38 11.10.2019
357 Clouds 26 1010 83 10000 0.5 0 18:19 11.10.2019
358 Clouds 26 1010 83 10000 1 0 17:58 11.10.2019
359 Clouds 26 1010 83 10000 1 0 17:37 11.10.2019
360 Clouds 26 1010 83 10000 1 0 17:19 11.10.2019
361 Thunderstorm 26 1010 88 10000 3.1 20 16:56 11.10.2019
362 Thunderstorm 26 1010 88 10000 3.1 20 16:37 11.10.2019
363 Thunderstorm 26 1010 88 10000 3.1 20 16:18 11.10.2019
364 Rain 27 1010 74 10000 2.1 210 15:39 11.10.2019
365 Rain 27 1010 74 10000 2.1 210 15:19 11.10.2019
366 Rain 27 1010 74 10000 2.1 210 14:49 11.10.2019
367 Rain 27 1010 74 10000 2.1 210 14:30 11.10.2019
368 Clouds 29 1009 79 10000 2.1 210 13:58 11.10.2019
369 Clouds 29 1009 79 10000 2.1 210 13:40 11.10.2019
370 Clouds 29 1009 79 10000 2.1 210 13:22 11.10.2019
371 Clouds 29 1008 74 10000 6.7 230 12:56 11.10.2019
372 Clouds 29 1008 74 10000 6.7 230 12:38 11.10.2019
373 Clouds 29 1008 74 10000 6.7 230 12:19 11.10.2019
374 Clouds 30 1007 74 10000 6.2 260 11:41 11.10.2019
375 Clouds 30 1007 74 10000 6.2 260 11:22 11.10.2019
376 Clouds 30 1007 74 10000 5.7 260 10:59 11.10.2019
377 Clouds 30 1007 74 10000 5.7 260 10:59 11.10.2019
378 Clouds 30 1007 74 10000 5.7 260 10:41 11.10.2019
379 Clouds 31 1007 74 10000 5.7 260 10:23 11.10.2019
380 Clouds 31 1007 70 10000 6.7 226 09:57 11.10.2019
381 Clouds 31 1007 70 10000 6.7 226 09:38 11.10.2019
382 Clouds 31 1007 70 10000 6.7 226 09:20 11.10.2019
383 Clouds 31 1007 70 10000 5.7 270 08:55 11.10.2019
384 Clouds 32 1007 70 10000 5.7 270 08:37 11.10.2019
385 Clouds 31 1007 70 10000 5.7 270 08:19 11.10.2019
386 Clouds 31 1008 70 10000 5.1 290 07:44 11.10.2019
387 Clouds 31 1008 70 10000 5.1 290 07:44 11.10.2019
388 Clouds 31 1008 70 10000 5.1 290 07:25 11.10.2019
389 Clouds 32 1009 70 10000 4.1 280 06:49 11.10.2019
390 Clouds 32 1009 70 10000 4.1 280 06:24 11.10.2019
391 Clouds 31 1010 66 10000 3.6 290 05:41 11.10.2019
392 Clouds 31 1011 74 9000 3.1 260 04:59 11.10.2019
393 Clouds 30 1011 74 9000 3.1 260 04:25 11.10.2019
394 Clouds 29 1011 74 9000 1 0 02:40 11.10.2019
395 Clouds 27 1010 78 9000 1 0 00:51 11.10.2019
396 Clouds 27 1010 78 9000 1 0 00:29 11.10.2019
397 Clouds 26 1009 83 10000 2.89 34.963 23:46 10.10.2019
398 Clouds 26 1009 83 10000 2.89 34.963 23:23 10.10.2019
399 Clouds 27 1009 78 10000 0.5 0 22:58 10.10.2019
400 Clouds 27 1009 78 10000 0.5 0 22:39 10.10.2019
401 Clouds 27 1009 78 10000 0.5 0 22:21 10.10.2019
402 Clouds 27 1009 78 10000 2.89 34.963 21:58 10.10.2019
403 Clouds 27 1009 78 10000 2.89 34.963 21:58 10.10.2019
404 Clouds 27 1009 78 10000 2.89 34.963 21:39 10.10.2019
405 Clouds 27 1009 78 10000 2.26 48.116 21:21 10.10.2019
406 Clouds 27 1009 78 10000 2.26 48.116 21:21 10.10.2019
407 Clouds 26 1009 83 10000 2.07 31.087 20:43 10.10.2019
408 Clouds 26 1009 83 10000 2.07 31.087 20:22 10.10.2019
409 Clouds 27 1010 83 10000 1.5 230 19:59 10.10.2019
410 Clouds 27 1010 83 10000 1.5 230 19:41 10.10.2019
411 Clouds 27 1010 83 10000 1.5 230 19:21 10.10.2019
412 Clouds 27 1010 83 10000 1.5 230 18:59 10.10.2019
413 Clouds 27 1010 83 10000 1.5 230 18:39 10.10.2019
414 Clouds 27 1010 83 10000 1.5 230 18:20 10.10.2019
415 Clouds 27 1011 78 10000 1 0 17:55 10.10.2019
416 Clouds 27 1011 78 10000 1 0 17:55 10.10.2019
417 Clouds 27 1011 78 10000 1 0 17:37 10.10.2019
418 Clouds 27 1011 78 10000 1 0 17:18 10.10.2019
419 Clouds 28 1011 66 10000 1.5 140 16:44 10.10.2019
420 Clouds 28 1011 66 10000 1.5 140 16:26 10.10.2019
421 Clouds 28 1011 70 10000 2.1 150 15:57 10.10.2019
422 Clouds 28 1011 70 10000 2.1 150 15:37 10.10.2019
423 Clouds 28 1011 70 10000 2.1 150 15:19 10.10.2019
424 Clouds 29 1010 70 10000 2.6 140 14:54 10.10.2019
425 Clouds 29 1010 70 10000 2.6 140 14:54 10.10.2019
426 Clouds 29 1010 70 10000 2.6 140 14:36 10.10.2019
427 Clouds 29 1010 70 10000 2.6 140 14:18 10.10.2019
428 Clouds 29 1009 66 10000 3.1 130 13:41 10.10.2019
429 Clouds 30 1009 66 10000 3.1 130 13:23 10.10.2019
430 Clouds 30 1009 66 9000 2.6 140 12:57 10.10.2019
431 Clouds 30 1009 66 9000 2.6 140 12:39 10.10.2019
432 Clouds 30 1009 66 9000 2.6 140 12:20 10.10.2019
433 Clouds 31 1009 62 9000 2.1 160 11:55 10.10.2019
434 Clouds 31 1009 62 9000 2.1 160 11:37 10.10.2019
435 Clouds 31 1009 62 9000 2.1 160 11:18 10.10.2019
436 Clouds 31 1008 62 10000 0.5 0 10:44 10.10.2019
437 Clouds 32 1008 62 10000 0.5 0 10:26 10.10.2019
438 Clouds 32 1008 62 10000 3.1 120 09:56 10.10.2019
439 Clouds 32 1008 62 10000 3.1 120 09:38 10.10.2019
440 Clouds 32 1008 62 10000 3.1 120 09:19 10.10.2019
441 Clouds 33 1008 62 10000 4.1 280 08:41 10.10.2019
442 Clouds 33 1008 62 10000 4.1 280 08:23 10.10.2019
443 Clouds 33 1009 62 10000 3.1 280 07:58 10.10.2019
444 Clouds 33 1009 62 10000 3.1 280 07:40 10.10.2019
445 Clouds 33 1009 62 10000 3.1 280 07:20 10.10.2019
446 Clouds 32 1010 66 10000 3.6 0 06:45 10.10.2019
447 Clouds 32 1010 66 10000 3.6 0 06:22 10.10.2019
448 Clouds 32 1011 66 10000 3.6 280 05:24 10.10.2019
449 Clouds 31 1011 74 10000 3.1 270 04:37 10.10.2019
450 Clouds 29 1011 78 10000 3.6 270 03:27 10.10.2019
451 Clouds 28 1010 74 9000 0.5 0 01:42 10.10.2019
452 Clouds 28 1010 74 9000 0.5 0 01:24 10.10.2019
453 Clouds 26 1010 78 9000 1 0 00:45 10.10.2019
454 Clouds 26 1010 78 9000 1 0 00:20 10.10.2019
455 Clouds 26 1009 83 10000 3.17 53.365 23:39 09.10.2019
456 Clouds 26 1009 83 10000 3.17 53.365 23:20 09.10.2019
457 Clouds 26 1009 83 10000 1 80 22:43 09.10.2019
458 Clouds 26 1009 83 10000 1 80 22:24 09.10.2019
459 Clouds 26 1009 88 10000 1 90 21:59 09.10.2019
460 Clouds 26 1009 88 10000 1 90 21:39 09.10.2019
461 Clouds 26 1009 88 10000 1 90 21:20 09.10.2019
462 Clouds 27 1009 78 10000 1 0 20:56 09.10.2019
463 Clouds 27 1009 78 10000 1 0 20:56 09.10.2019
464 Clouds 27 1009 78 10000 1 0 20:37 09.10.2019
465 Clouds 27 1009 78 10000 1 0 20:18 09.10.2019
466 Clouds 27 1009 78 10000 1 0 19:45 09.10.2019
467 Clouds 27 1010 78 10000 1.5 70 19:24 09.10.2019
468 Clouds 27 1010 78 10000 1.5 70 18:58 09.10.2019
469 Clouds 27 1010 78 10000 1.5 70 18:37 09.10.2019
470 Clouds 27 1010 78 10000 1.5 70 18:18 09.10.2019
471 Clouds 27 1010 74 10000 2.1 120 17:55 09.10.2019
472 Clouds 28 1010 74 10000 2.1 120 17:36 09.10.2019
473 Clouds 28 1010 74 10000 2.1 120 17:18 09.10.2019
474 Clouds 28 1010 66 10000 3.1 110 16:40 09.10.2019
475 Clouds 28 1010 66 10000 3.1 110 16:22 09.10.2019
476 Clouds 28 1011 74 10000 2.6 90 15:58 09.10.2019
477 Clouds 28 1011 74 10000 2.6 90 15:39 09.10.2019
478 Clouds 28 1011 74 10000 2.6 90 15:39 09.10.2019
479 Clouds 28 1011 74 10000 2.6 90 15:20 09.10.2019
480 Clouds 28 1010 70 10000 2.6 90 14:56 09.10.2019
481 Clouds 29 1010 70 10000 2.6 90 14:37 09.10.2019
482 Clouds 29 1010 70 10000 2.6 90 14:18 09.10.2019
483 Clouds 29 1009 74 10000 3.6 100 13:39 09.10.2019
484 Clouds 29 1009 74 10000 3.6 100 13:21 09.10.2019
485 Clouds 29 1008 74 10000 3.6 120 12:58 09.10.2019
486 Clouds 29 1008 74 10000 3.6 120 12:40 09.10.2019
487 Clouds 29 1008 74 10000 3.6 120 12:21 09.10.2019
488 Clouds 29 1008 74 10000 3.6 120 12:21 09.10.2019
489 Clouds 30 1008 62 10000 3.6 12 11:55 09.10.2019
490 Clouds 30 1008 62 10000 3.6 12 11:36 09.10.2019
491 Clouds 31 1008 62 10000 3.6 12 11:18 09.10.2019
492 Clouds 31 1008 62 10000 3.1 140 10:43 09.10.2019
493 Clouds 31 1008 62 10000 3.1 140 10:20 09.10.2019
494 Clouds 31 1008 62 10000 3.1 130 09:57 09.10.2019
495 Clouds 32 1008 62 10000 3.1 130 09:38 09.10.2019
496 Clouds 32 1008 62 10000 3.1 130 09:38 09.10.2019
497 Clouds 32 1008 62 10000 3.1 130 09:38 09.10.2019
498 Clouds 32 1008 62 10000 3.1 130 09:18 09.10.2019
499 Clouds 32 1008 59 10000 3.6 110 08:39 09.10.2019
500 Clouds 32 1008 59 10000 3.6 110 08:21 09.10.2019
501 Clouds 32 1009 59 10000 4.6 120 07:47 09.10.2019
502 Clouds 32 1009 59 10000 4.6 120 07:27 09.10.2019
503 Clouds 32 1009 59 10000 4.6 120 07:27 09.10.2019
504 Clouds 31 1010 66 10000 3.1 90 06:59 09.10.2019
505 Clouds 32 1010 66 10000 3.1 90 06:41 09.10.2019
506 Clouds 31 1010 62 10000 3.1 110 05:53 09.10.2019
507 Clouds 32 1010 62 10000 3.1 110 05:18 09.10.2019
508 Clouds 31 1010 64 0 3.13 22 03:49 09.10.2019
509 Clouds 30 1011 70 10000 3.6 50 02:35 09.10.2019
510 Clouds 28 1010 78 10000 1.5 0 01:39 09.10.2019
511 Clouds 27 1010 78 10000 1.5 0 01:19 09.10.2019
512 Clouds 27 1010 83 10000 1.5 220 00:55 09.10.2019
513 Clouds 27 1010 83 10000 1.5 220 00:55 09.10.2019
514 Clouds 27 1010 83 10000 1.5 220 00:36 09.10.2019
515 Clouds 27 1010 83 10000 1.5 220 00:18 09.10.2019
516 Clouds 27 1009 78 10000 2.89 27.522 23:38 08.10.2019
517 Clouds 27 1009 78 10000 2.89 27.522 23:18 08.10.2019
518 Clouds 27 1009 78 10000 2.89 27.522 22:55 08.10.2019
519 Clouds 27 1009 78 10000 2.89 27.522 22:36 08.10.2019
520 Clouds 27 1009 78 10000 2.89 27.522 22:18 08.10.2019
521 Clouds 27 1009 78 10000 0.5 0 21:55 08.10.2019
522 Clouds 27 1009 78 10000 0.5 0 21:36 08.10.2019
523 Clouds 27 1009 78 10000 0.5 0 21:18 08.10.2019
524 Clouds 27 1010 78 10000 1 0 20:55 08.10.2019
525 Clouds 27 1010 78 10000 1 0 20:55 08.10.2019
526 Clouds 28 1010 78 10000 1 0 20:36 08.10.2019
527 Clouds 28 1010 78 10000 1 0 20:18 08.10.2019
528 Clouds 28 1010 74 10000 3.4 42.637 19:42 08.10.2019
529 Clouds 28 1010 74 10000 3.4 42.637 19:24 08.10.2019
530 Clouds 28 1011 74 10000 1 0 18:59 08.10.2019
531 Clouds 28 1011 74 10000 1 0 18:41 08.10.2019
532 Clouds 28 1011 74 10000 1 0 18:22 08.10.2019
533 Clouds 28 1011 78 10000 1 0 17:56 08.10.2019
534 Clouds 28 1011 78 10000 1 0 17:56 08.10.2019
535 Clouds 28 1011 78 10000 1 0 17:38 08.10.2019
536 Clouds 28 1011 78 10000 1 0 17:18 08.10.2019
537 Clouds 28 1011 74 10000 2.6 60 16:41 08.10.2019
538 Clouds 28 1011 74 10000 2.6 60 16:22 08.10.2019
539 Clouds 29 1011 70 10000 2.6 90 15:57 08.10.2019
540 Clouds 29 1011 70 10000 2.6 90 15:38 08.10.2019
541 Clouds 29 1011 70 10000 2.6 90 15:19 08.10.2019
542 Clouds 29 1011 62 10000 3.6 40 14:42 08.10.2019
543 Clouds 29 1011 62 10000 3.6 40 14:42 08.10.2019
544 Clouds 30 1011 62 10000 3.6 40 14:21 08.10.2019
545 Clouds 30 1010 58 10000 4.1 40 13:59 08.10.2019
546 Clouds 30 1010 58 10000 4.1 40 13:39 08.10.2019
547 Clouds 30 1010 58 10000 4.1 40 13:39 08.10.2019
548 Clouds 30 1010 58 10000 4.1 40 13:20 08.10.2019
549 Clouds 30 1009 58 10000 3.1 60 12:59 08.10.2019
550 Clouds 30 1009 58 10000 3.1 60 12:39 08.10.2019
551 Clouds 31 1009 58 10000 3.1 60 12:19 08.10.2019
552 Clouds 31 1009 62 10000 3.1 280 11:43 08.10.2019
553 Clouds 31 1009 62 10000 3.1 280 11:24 08.10.2019
554 Clouds 31 1009 62 10000 3.1 280 11:24 08.10.2019
555 Clouds 32 1008 55 10000 3.1 0 10:59 08.10.2019
556 Clouds 32 1008 55 10000 3.1 0 10:39 08.10.2019
557 Clouds 32 1008 55 10000 3.1 0 10:20 08.10.2019
558 Clouds 32 1008 55 10000 3.1 0 10:20 08.10.2019
559 Clouds 32 1008 59 10000 3.1 110 09:57 08.10.2019
560 Clouds 32 1008 59 10000 3.1 110 09:39 08.10.2019
561 Clouds 32 1008 59 10000 3.1 110 09:19 08.10.2019
562 Clouds 32 1009 62 10000 3.6 90 08:42 08.10.2019
563 Clouds 32 1009 62 10000 3.6 90 08:24 08.10.2019
564 Rain 30 1010 69 10000 5.7 90 07:45 08.10.2019
565 Rain 30 1010 69 10000 5.7 90 07:21 08.10.2019
566 Clouds 32 1010 62 10000 1.5 0 06:56 08.10.2019
567 Clouds 32 1010 62 10000 1.5 0 06:29 08.10.2019
568 Clouds 31 1011 62 10000 4.6 270 05:55 08.10.2019
569 Clouds 31 1011 62 10000 4.6 270 05:55 08.10.2019
570 Clouds 31 1011 62 10000 4.6 270 05:36 08.10.2019
571 Clouds 31 1011 58 10000 3.1 0 04:31 08.10.2019
572 Clouds 31 1011 62 10000 1 0 03:29 08.10.2019
573 Clouds 30 1010 68 0 2.24 20 02:37 08.10.2019
574 Clouds 28 1011 69 10000 1 0 01:47 08.10.2019
575 Clouds 28 1011 69 10000 1 0 01:28 08.10.2019
576 Clouds 26 1010 78 9000 1 0 00:46 08.10.2019
577 Clouds 26 1010 78 9000 1 0 00:21 08.10.2019
578 Clouds 26 1010 78 10000 1 0 23:40 07.10.2019
579 Clouds 26 1010 78 10000 1 0 23:20 07.10.2019
580 Clouds 26 1009 78 10000 0.5 0 22:56 07.10.2019
581 Clouds 26 1009 78 10000 0.5 0 22:56 07.10.2019
582 Clouds 26 1009 78 10000 0.5 0 22:38 07.10.2019
583 Clouds 26 1009 78 10000 0.5 0 22:38 07.10.2019
584 Clouds 26 1009 78 10000 0.5 0 22:20 07.10.2019
585 Clouds 26 1010 74 10000 4.14 50.175 21:56 07.10.2019
586 Clouds 27 1010 74 10000 4.14 50.175 21:38 07.10.2019
587 Clouds 27 1010 74 10000 3.88 33.358 21:20 07.10.2019
588 Clouds 27 1010 74 10000 3.48 42.113 20:57 07.10.2019
589 Clouds 27 1010 74 10000 3.48 42.113 20:39 07.10.2019
590 Clouds 27 1010 74 10000 3.48 42.113 20:20 07.10.2019
591 Clouds 27 1010 69 10000 1.5 20 19:57 07.10.2019
592 Clouds 27 1010 69 10000 1.5 20 19:39 07.10.2019
593 Clouds 27 1010 69 10000 1.5 20 19:18 07.10.2019
594 Clouds 27 1011 78 10000 2.6 70 18:56 07.10.2019
595 Clouds 27 1011 78 10000 2.6 70 18:38 07.10.2019
596 Clouds 27 1011 78 10000 2.6 70 18:18 07.10.2019
597 Clouds 28 1011 74 10000 2.1 90 17:42 07.10.2019
598 Clouds 28 1011 74 10000 2.1 90 17:19 07.10.2019
599 Clouds 28 1011 66 10000 2.6 90 16:55 07.10.2019
600 Clouds 28 1011 66 10000 2.6 90 16:37 07.10.2019
601 Clouds 28 1011 66 10000 2.6 90 16:19 07.10.2019
602 Clouds 29 1012 66 10000 1.5 90 15:42 07.10.2019
603 Clouds 29 1012 66 10000 1.5 90 15:24 07.10.2019
604 Clouds 29 1011 58 10000 2.1 100 14:42 07.10.2019
605 Clouds 29 1011 58 10000 2.1 100 14:23 07.10.2019
606 Clouds 29 1011 62 10000 1.5 100 13:59 07.10.2019
607 Clouds 29 1011 62 10000 1.5 100 13:40 07.10.2019
608 Clouds 30 1011 62 10000 1.5 100 13:18 07.10.2019
609 Clouds 30 1010 55 10000 4.1 80 12:54 07.10.2019
610 Clouds 30 1010 55 10000 4.1 80 12:36 07.10.2019
611 Clouds 30 1010 55 10000 4.1 80 12:36 07.10.2019
612 Clouds 31 1010 55 10000 4.1 80 12:18 07.10.2019
613 Clouds 31 1009 46 10000 4.1 90 11:56 07.10.2019
614 Clouds 32 1009 46 10000 4.1 90 11:36 07.10.2019
615 Clouds 32 1009 46 10000 4.1 90 11:18 07.10.2019
616 Clouds 33 1009 49 10000 4.6 100 10:40 07.10.2019
617 Clouds 33 1009 49 10000 4.6 100 10:20 07.10.2019
618 Clouds 33 1009 52 10000 4.6 100 09:42 07.10.2019
619 Clouds 34 1009 52 10000 4.6 100 09:23 07.10.2019
620 Clouds 33 1009 52 10000 5.1 90 08:55 07.10.2019
621 Clouds 33 1009 52 10000 5.1 90 08:37 07.10.2019
622 Clouds 33 1009 52 10000 5.1 90 08:18 07.10.2019
623 Rain 32 1010 66 8000 4.6 90 07:40 07.10.2019
624 Rain 33 1009 46 10000 3.6 110 07:20 07.10.2019
625 Clouds 34 1010 47 10000 2.6 0 06:44 07.10.2019
626 Clouds 33 1010 47 10000 2.6 0 06:22 07.10.2019
627 Clouds 33 1011 52 10000 4.6 60 05:27 07.10.2019
628 Clouds 33 1012 55 10000 4.6 90 04:56 07.10.2019
629 Clouds 32 1012 55 10000 4.6 90 04:19 07.10.2019
630 Clouds 32 1012 58 10000 2.1 0 03:39 07.10.2019
631 Clouds 32 1012 58 10000 2.1 0 03:39 07.10.2019
632 Clouds 30 1012 70 10000 1 0 02:55 07.10.2019
633 Clouds 29 1012 70 10000 1 0 02:20 07.10.2019
634 Clouds 27 1012 74 10000 0.5 0 01:24 07.10.2019
635 Clouds 26 1011 83 10000 5.4 60.091 00:55 07.10.2019
636 Clouds 26 1011 83 10000 5.4 60.091 00:36 07.10.2019
637 Clouds 26 1011 83 10000 5.48 56.542 00:18 07.10.2019
638 Clouds 26 1010 78 10000 2.1 340 23:40 06.10.2019
639 Clouds 26 1010 78 10000 2.1 340 23:20 06.10.2019
640 Clouds 26 1010 78 10000 1 0 22:57 06.10.2019
641 Clouds 26 1010 78 10000 1 0 22:39 06.10.2019
642 Clouds 26 1010 78 10000 1 0 22:39 06.10.2019
643 Clouds 26 1010 78 10000 1 0 22:20 06.10.2019
644 Clouds 26 1010 78 10000 5.48 56.542 21:55 06.10.2019
645 Clouds 26 1010 78 10000 5.48 56.542 21:37 06.10.2019
646 Clouds 26 1010 78 10000 4.21 51.415 21:18 06.10.2019
647 Clouds 26 1010 78 10000 1 0 20:56 06.10.2019
648 Clouds 26 1010 78 10000 1 0 20:38 06.10.2019
649 Clouds 26 1010 78 10000 1 0 20:19 06.10.2019
650 Clouds 26 1011 74 10000 1 0 19:55 06.10.2019
651 Clouds 27 1011 74 10000 1 0 19:36 06.10.2019
652 Clouds 27 1011 74 10000 1 0 19:36 06.10.2019
653 Clouds 27 1011 74 10000 1 0 19:18 06.10.2019
654 Clouds 27 1011 69 10000 1.5 110 18:55 06.10.2019
655 Clouds 27 1011 69 10000 1.5 110 18:36 06.10.2019
656 Clouds 27 1011 69 10000 1.5 110 18:18 06.10.2019
657 Clouds 27 1011 69 10000 1.5 110 18:18 06.10.2019
658 Clouds 27 1011 69 10000 1.5 110 18:18 06.10.2019
659 Clouds 27 1011 69 10000 1.5 110 18:18 06.10.2019
660 Clouds 27 1012 74 10000 2.1 90 17:42 06.10.2019
661 Clouds 27 1012 74 10000 2.1 90 17:20 06.10.2019
662 Clouds 27 1012 74 10000 2.1 90 17:20 06.10.2019
663 Clouds 27 1012 74 10000 2.1 90 17:20 06.10.2019
664 Clouds 27 1012 78 10000 1.5 90 16:55 06.10.2019
665 Clouds 27 1012 78 10000 1.5 90 16:37 06.10.2019
666 Clouds 27 1012 78 10000 1.5 90 16:18 06.10.2019
667 Clouds 28 1012 74 10000 1.5 100 15:43 06.10.2019
668 Clouds 28 1012 74 10000 1.5 100 15:21 06.10.2019
669 Clouds 28 1011 74 10000 2.1 100 14:44 06.10.2019
670 Clouds 28 1011 74 10000 2.1 100 14:26 06.10.2019
671 Clouds 29 1010 70 10000 2.6 110 13:59 06.10.2019
672 Clouds 29 1010 70 10000 2.6 110 13:40 06.10.2019
673 Clouds 29 1010 70 10000 2.6 110 13:22 06.10.2019
674 Clouds 29 1010 70 10000 3.1 100 12:58 06.10.2019
675 Clouds 29 1010 70 10000 3.1 100 12:39 06.10.2019
676 Clouds 29 1010 70 10000 3.1 100 12:21 06.10.2019
677 Rain 30 1009 62 10000 3.6 100 11:58 06.10.2019
678 Rain 30 1009 62 10000 3.6 100 11:39 06.10.2019
679 Rain 30 1009 62 10000 3.6 100 11:21 06.10.2019
680 Rain 30 1009 66 10000 4.6 60 10:54 06.10.2019
681 Rain 30 1009 66 10000 4.6 60 10:36 06.10.2019
682 Rain 30 1009 66 10000 4.6 60 10:18 06.10.2019
683 Rain 31 1008 62 0 4.6 80 09:41 06.10.2019
684 Rain 31 1008 62 0 4.6 80 09:19 06.10.2019
685 Clouds 32 1008 56 10000 4.6 110 08:47 06.10.2019
686 Clouds 33 1008 56 10000 4.6 110 08:21 06.10.2019
687 Clouds 33 1009 63 10000 4.1 130 07:57 06.10.2019
688 Clouds 33 1009 63 10000 4.1 130 07:38 06.10.2019
689 Clouds 32 1010 63 10000 4.1 110 06:32 06.10.2019
690 Clouds 32 1011 66 10000 3.1 110 05:35 06.10.2019
691 Clouds 32 1012 66 10000 3.6 90 04:27 06.10.2019
692 Clouds 30 1012 74 10000 2.1 80 02:47 06.10.2019
693 Clouds 30 1012 74 10000 2.1 80 02:27 06.10.2019
694 Clouds 28 1011 83 6000 2.1 70 01:46 06.10.2019
695 Clouds 28 1011 83 6000 2.1 70 01:27 06.10.2019
696 Clouds 26 1010 94 7000 2.1 70 00:57 06.10.2019
697 Clouds 26 1010 94 7000 2.1 70 00:57 06.10.2019
698 Clouds 26 1010 94 7000 2.1 70 00:28 06.10.2019
699 Clouds 26 1009 88 8000 1 0 23:45 05.10.2019
700 Clouds 26 1009 88 8000 1 0 23:23 05.10.2019
701 Clouds 26 1009 88 9000 0.5 0 22:59 05.10.2019
702 Clouds 26 1009 88 9000 0.5 0 22:40 05.10.2019
703 Clouds 26 1009 88 9000 0.5 0 22:20 05.10.2019
704 Clouds 26 1009 88 9000 0.5 0 21:57 05.10.2019
705 Clouds 26 1009 88 9000 0.5 0 21:39 05.10.2019
706 Clouds 26 1009 88 9000 0.5 0 21:39 05.10.2019
707 Clouds 26 1009 88 9000 0.5 0 21:20 05.10.2019
708 Clouds 27 1010 83 8000 1 0 20:56 05.10.2019
709 Clouds 27 1010 83 8000 1 0 20:38 05.10.2019
710 Clouds 27 1010 83 8000 1 0 20:19 05.10.2019
711 Clouds 27 1010 83 8000 1 0 20:19 05.10.2019
712 Clouds 27 1010 83 8000 1 0 20:19 05.10.2019
713 Clouds 27 1010 83 9000 1 0 19:38 05.10.2019
714 Clouds 27 1010 83 9000 1 0 19:20 05.10.2019
715 Clouds 27 1010 83 9000 0.5 0 18:56 05.10.2019
716 Clouds 27 1010 83 9000 0.5 0 18:38 05.10.2019
717 Clouds 27 1010 83 9000 0.5 0 18:20 05.10.2019
718 Clouds 27 1011 83 9000 1 0 17:46 05.10.2019
719 Clouds 27 1011 83 9000 1 0 17:27 05.10.2019
720 Clouds 27 1011 78 10000 1 0 16:59 05.10.2019
721 Clouds 27 1011 78 10000 1 0 16:41 05.10.2019
722 Clouds 27 1011 78 10000 1 0 16:21 05.10.2019
723 Clouds 28 1011 78 10000 1 0 15:57 05.10.2019
724 Clouds 28 1011 78 10000 1 0 15:38 05.10.2019
725 Clouds 28 1011 78 10000 1 0 15:20 05.10.2019
726 Clouds 28 1011 78 10000 1.5 200 14:44 05.10.2019
727 Clouds 28 1011 78 10000 1.5 200 14:26 05.10.2019
728 Clouds 28 1011 78 10000 1.5 200 14:26 05.10.2019
729 Clouds 28 1010 74 10000 2.1 230 13:59 05.10.2019
730 Clouds 29 1010 74 10000 2.1 230 13:40 05.10.2019
731 Clouds 29 1010 74 10000 2.1 230 13:20 05.10.2019
732 Clouds 29 1009 79 10000 3.1 260 12:44 05.10.2019
733 Clouds 29 1009 79 10000 3.1 260 12:20 05.10.2019
734 Clouds 30 1008 74 10000 3.1 270 11:44 05.10.2019
735 Clouds 30 1008 74 10000 3.1 270 11:21 05.10.2019
736 Clouds 29 1008 79 10000 3.6 240 10:58 05.10.2019
737 Clouds 29 1008 79 10000 3.6 240 10:40 05.10.2019
738 Clouds 29 1008 79 10000 3.6 240 10:21 05.10.2019
739 Clouds 29 1008 74 10000 4.6 260 09:55 05.10.2019
740 Clouds 29 1008 74 10000 4.6 260 09:37 05.10.2019
741 Clouds 29 1008 74 10000 4.6 260 09:18 05.10.2019
742 Clouds 30 1008 74 10000 5.1 260 08:39 05.10.2019
743 Clouds 30 1008 74 10000 5.1 260 08:19 05.10.2019
744 Clouds 30 1009 74 10000 4.6 270 07:52 05.10.2019
745 Clouds 30 1009 74 10000 4.6 270 07:30 05.10.2019
746 Clouds 31 1010 70 10000 2.6 0 06:56 05.10.2019
747 Clouds 32 1010 70 10000 2.6 0 06:23 05.10.2019
748 Clouds 32 1010 62 10000 2.6 210 05:39 05.10.2019
749 Clouds 30 1011 74 10000 2.6 0 03:32 05.10.2019
750 Clouds 30 1011 74 10000 1.5 0 02:38 05.10.2019
751 Clouds 27 1010 78 7000 1 130 01:27 05.10.2019
752 Clouds 26 1010 88 8000 1 0 00:49 05.10.2019
753 Clouds 26 1010 88 8000 1 0 00:49 05.10.2019
754 Clouds 25 1010 88 8000 1 0 00:28 05.10.2019
755 Clouds 25 1010 88 9000 1 0 23:58 04.10.2019
756 Clouds 25 1010 88 9000 1 0 23:40 04.10.2019
757 Clouds 25 1010 88 9000 1 0 23:21 04.10.2019
758 Clouds 25 1009 83 9000 0.5 0 22:56 04.10.2019
759 Clouds 25 1009 83 9000 0.5 0 22:37 04.10.2019
760 Clouds 25 1009 83 9000 0.5 0 22:19 04.10.2019
761 Clouds 26 1009 88 10000 1 70 21:40 04.10.2019
762 Clouds 26 1009 88 10000 1 70 21:22 04.10.2019
763 Clouds 26 1009 88 10000 1 0 20:59 04.10.2019
764 Clouds 26 1009 88 10000 1 0 20:40 04.10.2019
765 Clouds 26 1009 88 10000 1 0 20:22 04.10.2019
766 Clouds 26 1010 88 9000 1 0 19:56 04.10.2019
767 Clouds 26 1010 88 9000 1 0 19:55 04.10.2019
768 Clouds 26 1010 88 9000 1 0 19:55 04.10.2019
769 Clouds 26 1010 88 9000 1 0 19:55 04.10.2019
770 Clouds 26 1010 88 9000 1 0 19:36 04.10.2019
771 Clouds 26 1010 88 9000 1 0 19:18 04.10.2019
772 Thunderstorm 26 1010 88 9000 1.5 170 18:39 04.10.2019
773 Thunderstorm 26 1010 88 9000 1.5 170 18:19 04.10.2019
774 Thunderstorm 26 1010 88 9000 1 0 17:57 04.10.2019
775 Thunderstorm 26 1010 88 9000 1 0 17:38 04.10.2019
776 Rain 26 1010 78 9000 1 0 17:20 04.10.2019
777 Thunderstorm 27 1011 74 9000 2.6 300 16:55 04.10.2019
778 Thunderstorm 27 1011 74 9000 2.6 300 16:36 04.10.2019
779 Thunderstorm 27 1011 74 9000 2.6 300 16:18 04.10.2019
780 Clouds 27 1010 74 8000 1 120 15:55 04.10.2019
781 Clouds 27 1010 74 8000 1 120 15:55 04.10.2019
782 Clouds 27 1010 74 8000 1 120 15:36 04.10.2019
783 Clouds 27 1010 74 8000 1 120 15:18 04.10.2019
784 Clouds 27 1010 74 10000 1.5 90 14:42 04.10.2019
785 Clouds 27 1010 74 10000 1.5 90 14:22 04.10.2019
786 Clouds 27 1010 78 8000 2.1 100 13:59 04.10.2019
787 Clouds 27 1010 78 8000 2.1 100 13:40 04.10.2019
788 Clouds 27 1010 78 8000 2.1 100 13:19 04.10.2019
789 Clouds 28 1009 78 9000 2.96 335.814 12:45 04.10.2019
790 Clouds 28 1009 78 9000 2.96 335.814 12:27 04.10.2019
791 Clouds 28 1009 78 8000 2.1 220 11:55 04.10.2019
792 Clouds 28 1009 78 8000 2.1 220 11:37 04.10.2019
793 Clouds 28 1009 78 8000 2.1 220 11:18 04.10.2019
794 Clouds 28 1008 78 9000 1 0 10:39 04.10.2019
795 Clouds 28 1008 78 9000 1 0 10:20 04.10.2019
796 Clouds 28 1008 78 9000 1 0 10:20 04.10.2019
797 Thunderstorm 28 1008 78 9000 1 0 09:44 04.10.2019
798 Thunderstorm 27 1008 78 9000 1 0 09:26 04.10.2019
799 Thunderstorm 27 1008 78 9000 1 0 09:26 04.10.2019
800 Thunderstorm 27 1009 83 9000 2.6 200 08:55 04.10.2019
801 Thunderstorm 26 1009 83 9000 2.6 200 08:37 04.10.2019
802 Thunderstorm 26 1009 83 9000 2.6 200 08:37 04.10.2019
803 Thunderstorm 27 1009 83 9000 2.6 200 08:18 04.10.2019
804 Thunderstorm 25 1009 83 800 6.2 110 07:42 04.10.2019
805 Clouds 29 1009 66 10000 4.1 280 07:20 04.10.2019
806 Clouds 32 1010 70 10000 2.6 300 06:41 04.10.2019
807 Clouds 31 1010 70 10000 2.6 300 06:22 04.10.2019
808 Clouds 31 1010 70 10000 2.6 300 06:22 04.10.2019
809 Clouds 30 1011 74 10000 3.6 280 05:23 04.10.2019
810 Clouds 31 1011 74 10000 3.1 280 04:54 04.10.2019
811 Clouds 31 1011 66 10000 1.5 100 03:42 04.10.2019
812 Clouds 30 1011 74 9000 1 0 02:53 04.10.2019
813 Clouds 30 1011 74 9000 1 0 02:53 04.10.2019
814 Clouds 28 1011 78 9000 1 0 01:54 04.10.2019
815 Clouds 28 1011 78 9000 1 0 01:27 04.10.2019
816 Clouds 26 1011 83 10000 1 0 00:44 04.10.2019
817 Clouds 25 1010 83 10000 1 0 23:42 03.10.2019
818 Clouds 25 1010 83 10000 1 0 23:22 03.10.2019
819 Clouds 26 1010 83 10000 1 70 22:58 03.10.2019
820 Clouds 25 1010 83 10000 1 70 22:40 03.10.2019
821 Clouds 25 1010 83 10000 1 70 22:40 03.10.2019
822 Clouds 25 1010 83 10000 1 70 22:21 03.10.2019
823 Clouds 25 1010 83 10000 1 70 21:59 03.10.2019
824 Clouds 26 1010 83 10000 1 70 21:40 03.10.2019
825 Clouds 26 1010 83 10000 1 70 21:21 03.10.2019
826 Clouds 26 1010 83 10000 1 70 20:58 03.10.2019
827 Clouds 26 1010 83 10000 1 70 20:40 03.10.2019
828 Clouds 26 1010 83 10000 1 70 20:22 03.10.2019
829 Clouds 26 1011 78 10000 0.5 0 19:59 03.10.2019
830 Clouds 26 1011 78 10000 0.5 0 19:59 03.10.2019
831 Clouds 26 1011 78 10000 0.5 0 19:40 03.10.2019
832 Clouds 26 1011 78 10000 0.5 0 19:20 03.10.2019
833 Clouds 27 1011 74 10000 1 0 18:57 03.10.2019
834 Clouds 27 1011 74 10000 1 0 18:38 03.10.2019
835 Clouds 26 1011 74 10000 1 0 18:19 03.10.2019
836 Clouds 26 1012 74 10000 1.5 0 17:42 03.10.2019
837 Clouds 26 1012 74 10000 1.5 0 17:23 03.10.2019
838 Clouds 26 1012 74 10000 1.5 0 17:23 03.10.2019
839 Clouds 26 1012 74 10000 0.5 0 16:58 03.10.2019
840 Clouds 26 1012 74 10000 0.5 0 16:40 03.10.2019
841 Clouds 26 1012 74 10000 0.5 0 16:21 03.10.2019
842 Clouds 26 1012 69 10000 3.1 10 15:54 03.10.2019
843 Clouds 27 1012 69 10000 3.1 10 15:36 03.10.2019
844 Clouds 26 1012 69 10000 3.1 10 15:18 03.10.2019
845 Clouds 26 1011 74 10000 4.1 10 14:39 03.10.2019
846 Clouds 26 1011 74 10000 4.1 10 14:20 03.10.2019
847 -273 0 0 0 0 0 13:55 03.10.2019
848 Clouds 27 1011 70 10000 3.6 310 13:36 03.10.2019
849 Clouds 27 1011 70 10000 3.6 310 13:18 03.10.2019
850 Clouds 29 1010 66 10000 3.1 280 12:40 03.10.2019
851 Clouds 29 1010 66 10000 3.1 280 12:20 03.10.2019
852 Clouds 29 1010 66 10000 3.1 280 12:20 03.10.2019
853 Clouds 29 1010 58 10000 4.1 260 11:59 03.10.2019
854 Clouds 29 1010 58 10000 4.1 260 11:59 03.10.2019
855 Clouds 30 1010 58 10000 4.1 260 11:40 03.10.2019
856 Clouds 31 1010 58 10000 4.1 260 11:21 03.10.2019
857 Clouds 31 1009 55 10000 3.1 270 10:58 03.10.2019
858 Clouds 31 1009 55 10000 3.1 270 10:39 03.10.2019
859 Clouds 32 1009 55 10000 3.1 270 10:18 03.10.2019
860 Clouds 31 1009 58 10000 4.1 280 09:56 03.10.2019
861 Clouds 32 1009 58 10000 4.1 280 09:38 03.10.2019
862 Clouds 32 1009 58 10000 4.1 280 09:19 03.10.2019
863 Clouds 32 1009 55 10000 4.1 270 08:43 03.10.2019
864 Clouds 32 1009 55 10000 4.1 270 08:24 03.10.2019
865 Clouds 32 1009 55 10000 4.1 270 08:24 03.10.2019
866 Clouds 32 1009 55 10000 4.1 270 08:24 03.10.2019
867 Clouds 32 1010 55 10000 4.6 280 07:45 03.10.2019
868 Clouds 31 1010 55 10000 4.6 280 07:20 03.10.2019
869 Clouds 31 1010 55 10000 4.6 280 07:20 03.10.2019
870 Clouds 31 1011 66 10000 3.6 290 06:53 03.10.2019
871 Clouds 31 1011 66 10000 3.6 290 06:27 03.10.2019
872 Clouds 30 1012 70 10000 4.1 280 05:49 03.10.2019
873 Clouds 30 1012 70 10000 4.1 280 05:27 03.10.2019
874 Clouds 29 1012 74 9000 3.1 280 04:45 03.10.2019
875 Clouds 28 1013 78 10000 2.6 280 03:54 03.10.2019
876 Clouds 28 1013 78 10000 2.6 280 03:19 03.10.2019
877 Clouds 27 1013 74 10000 1.5 0 02:22 03.10.2019
878 Clouds 25 1012 88 10000 0.5 0 01:40 03.10.2019
879 Clouds 24 1012 88 10000 0.5 0 00:53 03.10.2019
880 Clouds 23 1012 88 10000 0.5 0 00:31 03.10.2019
881 Clouds 24 1011 83 10000 2.1 360 23:44 02.10.2019
882 Clouds 24 1011 83 10000 2.1 360 23:25 02.10.2019
883 Clouds 24 1011 88 10000 1.5 60 22:57 02.10.2019
884 Clouds 24 1011 88 10000 1.5 60 22:39 02.10.2019
885 Clouds 24 1011 88 10000 1.5 60 22:18 02.10.2019
886 Clouds 24 1011 88 10000 1.5 70 21:55 02.10.2019
887 Clouds 24 1011 88 10000 1.5 70 21:36 02.10.2019
888 Clouds 24 1011 88 10000 1.5 70 21:18 02.10.2019
889 -273 0 0 0 0 0 20:55 02.10.2019
890 Clouds 24 1011 88 10000 1 0 20:36 02.10.2019
891 Clouds 24 1011 88 10000 1 0 20:18 02.10.2019
892 Clouds 24 1012 88 10000 1 0 19:43 02.10.2019
893 Clouds 24 1012 88 10000 1 0 19:22 02.10.2019
894 Clouds 25 1013 88 10000 1.5 210 18:57 02.10.2019
895 Clouds 25 1013 88 10000 1.5 210 18:39 02.10.2019
896 Clouds 25 1013 88 10000 1.5 210 18:20 02.10.2019
897 Clouds 25 1014 83 10000 1.5 260 17:57 02.10.2019
898 Clouds 25 1014 83 10000 1.5 260 17:38 02.10.2019
899 Clouds 25 1014 83 10000 1.5 260 17:19 02.10.2019
900 Clouds 25 1013 83 10000 2.1 20 16:42 02.10.2019
901 Clouds 25 1013 83 10000 3.6 20 16:22 02.10.2019
902 Clouds 25 1013 83 10000 3.6 20 15:59 02.10.2019
903 Clouds 24 1013 83 10000 3.6 20 15:40 02.10.2019
904 Clouds 24 1013 83 10000 3.6 20 15:22 02.10.2019
905 Clouds 25 1013 83 10000 3.1 360 14:57 02.10.2019
906 Clouds 25 1013 83 10000 3.1 360 14:39 02.10.2019
907 Clouds 25 1013 83 10000 3.1 360 14:20 02.10.2019
908 Rain 24 1013 94 9000 1 0 13:43 02.10.2019
909 Rain 25 1013 94 9000 1 0 13:24 02.10.2019
910 Rain 25 1012 94 9000 2.6 70 12:58 02.10.2019
911 Rain 25 1012 94 9000 2.6 70 12:37 02.10.2019
912 Rain 25 1012 94 9000 2.6 70 12:18 02.10.2019
913 Rain 25 1011 88 6000 2.1 70 11:44 02.10.2019
914 Rain 25 1011 88 6000 2.1 70 11:23 02.10.2019
915 Rain 24 1011 88 8000 1 0 10:42 02.10.2019
916 Rain 24 1011 88 8000 1 0 10:20 02.10.2019
917 Thunderstorm 26 1012 78 5000 4.6 120 09:58 02.10.2019
918 Thunderstorm 26 1012 78 5000 4.6 120 09:37 02.10.2019
919 Thunderstorm 27 1012 78 5000 4.6 120 09:18 02.10.2019
920 Thunderstorm 27 1012 78 5000 4.6 120 09:18 02.10.2019
921 Thunderstorm 30 1010 70 9000 4.1 270 08:43 02.10.2019
922 Thunderstorm 31 1010 70 9000 4.1 270 08:23 02.10.2019
923 Clouds 31 1010 66 9000 4.1 320 07:57 02.10.2019
924 Clouds 32 1010 66 9000 4.1 320 07:38 02.10.2019
925 Clouds 32 1010 66 9000 4.1 320 07:19 02.10.2019
926 Clouds 30 1011 74 9000 3.1 300 06:31 02.10.2019
927 Clouds 30 1011 74 9000 3.1 300 06:31 02.10.2019
928 Clouds 30 1012 74 8000 2.6 320 05:52 02.10.2019
929 Clouds 29 1012 74 8000 2.6 320 05:23 02.10.2019
930 Rain 29 1013 83 8000 3.6 320 04:43 02.10.2019
931 Rain 28 1013 79 9000 1.5 0 03:51 02.10.2019
932 Clouds 29 1012 83 10000 0.5 0 02:39 02.10.2019
933 Clouds 29 1012 83 10000 0.5 0 02:21 02.10.2019
934 Clouds 28 1012 83 9000 1 0 01:19 02.10.2019
935 Clouds 27 1011 88 9000 1 220 00:42 02.10.2019
936 Clouds 27 1011 88 9000 1 220 00:23 02.10.2019
937 Clouds 27 1013 90 0 1.47 25.816 23:42 01.10.2019
938 Clouds 27 1011 88 10000 1 0 23:24 01.10.2019
939 Clouds 27 1011 88 10000 1 0 22:58 01.10.2019
940 Clouds 27 1011 88 10000 1 0 22:39 01.10.2019
941 Clouds 27 1011 88 10000 1 0 22:18 01.10.2019
942 Clouds 27 1011 88 10000 1 240 21:44 01.10.2019
943 Clouds 27 1011 88 10000 1 240 21:25 01.10.2019
944 Clouds 27 1011 83 10000 1 0 20:59 01.10.2019
945 Clouds 28 1011 83 10000 1 0 20:39 01.10.2019
946 Clouds 28 1011 83 10000 1 0 20:21 01.10.2019
947 Clouds 28 1011 83 10000 1 0 19:59 01.10.2019
948 Clouds 28 1011 83 10000 1 0 19:41 01.10.2019
949 Clouds 28 1011 83 10000 1 0 19:23 01.10.2019
950 Clouds 28 1012 74 10000 1.5 0 18:58 01.10.2019
951 Clouds 28 1012 74 10000 1.5 0 18:38 01.10.2019
952 Clouds 28 1012 74 10000 1.5 0 18:19 01.10.2019
953 Clouds 29 1012 79 10000 2.1 330 17:55 01.10.2019
954 Clouds 29 1012 79 10000 2.1 330 17:36 01.10.2019
955 Clouds 28 1012 79 10000 2.1 330 17:18 01.10.2019
956 Clouds 28 1012 79 10000 1.5 240 16:42 01.10.2019
957 Clouds 28 1012 79 10000 1.5 240 16:22 01.10.2019
958 Clouds 28 1012 79 10000 2.1 240 15:59 01.10.2019
959 Rain 28 1012 79 10000 2.1 240 15:40 01.10.2019
960 Rain 28 1012 79 10000 2.1 240 15:21 01.10.2019
961 Clouds 29 1012 79 10000 3.1 260 14:40 01.10.2019
962 Clouds 29 1012 79 10000 3.1 260 14:20 01.10.2019
963 Clouds 29 1011 79 10000 3.1 240 13:57 01.10.2019
964 Clouds 29 1011 79 10000 3.1 240 13:38 01.10.2019
965 Clouds 29 1011 79 10000 3.1 240 13:18 01.10.2019
966 Clouds 29 1011 79 10000 5.1 260 12:56 01.10.2019
967 Clouds 29 1011 79 10000 5.1 260 12:37 01.10.2019
968 Clouds 29 1011 79 10000 5.1 260 12:18 01.10.2019
969 Clouds 29 1011 79 10000 5.1 260 12:18 01.10.2019
970 Clouds 30 1010 74 10000 5.1 270 11:56 01.10.2019
971 Clouds 30 1010 74 10000 5.1 270 11:56 01.10.2019
972 Clouds 30 1010 74 10000 5.1 270 11:37 01.10.2019
973 Clouds 30 1010 74 10000 5.1 270 11:18 01.10.2019
974 Clouds 31 1010 70 10000 6.2 270 10:47 01.10.2019
975 Clouds 31 1010 70 10000 6.2 270 10:28 01.10.2019
976 Clouds 31 1010 70 10000 6.7 270 09:46 01.10.2019
977 Clouds 31 1010 70 10000 6.7 270 09:26 01.10.2019
978 Rain 31 1010 70 10000 6.7 260 08:45 01.10.2019
979 Rain 32 1010 70 10000 6.7 260 08:27 01.10.2019
980 Thunderstorm 31 1010 74 10000 6.2 260 07:56 01.10.2019
981 Clouds 31 1011 70 10000 6.7 270 07:38 01.10.2019
982 Clouds 31 1011 70 10000 6.7 270 07:19 01.10.2019
983 Clouds 32 1011 74 10000 5.7 270 06:41 01.10.2019
984 Clouds 32 1011 74 10000 5.7 270 06:18 01.10.2019
985 Clouds 31 1012 79 10000 4.6 290 05:43 01.10.2019
986 Clouds 31 1012 74 10000 3.1 280 04:42 01.10.2019
987 Clouds 30 1012 79 10000 2.6 300 03:37 01.10.2019
988 Clouds 28 1012 88 10000 3.6 320 02:20 01.10.2019
989 Clouds 28 1011 88 10000 2.6 260 01:55 01.10.2019
990 Clouds 27 1010 83 9000 1 0 00:46 01.10.2019
991 Clouds 27 1010 83 9000 1 0 00:25 01.10.2019
992 Rain 27 1010 88 10000 1 320 23:42 30.09.2019
993 Rain 27 1010 88 10000 1 320 23:23 30.09.2019
994 Rain 27 1010 88 10000 1 240 22:56 30.09.2019
995 Clouds 27 1010 88 10000 1 240 22:37 30.09.2019
996 Clouds 27 1010 88 10000 1 240 22:19 30.09.2019
997 Clouds 27 1010 88 10000 1.5 200 21:55 30.09.2019
998 Clouds 27 1010 88 10000 1.5 200 21:36 30.09.2019
999 Clouds 27 1010 88 10000 1.5 200 21:18 30.09.2019
1000 -273 0 0 0 0 0 20:55 30.09.2019
1001 Clouds 27 1010 88 10000 0.5 0 20:54 30.09.2019
1002 Clouds 27 1010 88 10000 0.5 0 20:36 30.09.2019
1003 Clouds 27 1010 88 10000 0.5 0 20:36 30.09.2019
1004 Clouds 27 1010 88 10000 1 0 20:18 30.09.2019
1005 Clouds 27 1010 88 10000 1 0 19:54 30.09.2019
1006 Clouds 27 1010 88 10000 1 0 19:36 30.09.2019
1007 Clouds 27 1010 88 10000 1 0 19:18 30.09.2019
1008 Clouds 27 1011 83 10000 1 0 18:41 30.09.2019
1009 Clouds 27 1011 83 10000 1 0 18:21 30.09.2019
1010 Clouds 27 1011 83 10000 1.5 320 17:57 30.09.2019
1011 Clouds 27 1011 83 10000 1.5 320 17:57 30.09.2019
1012 Clouds 27 1011 83 10000 1.5 320 17:39 30.09.2019
1013 Clouds 27 1011 83 10000 1.5 320 17:19 30.09.2019
1014 Clouds 27 1011 83 10000 2.6 260 16:54 30.09.2019
1015 Clouds 28 1011 83 10000 2.6 260 16:36 30.09.2019
1016 Clouds 28 1011 83 10000 2.6 260 16:18 30.09.2019
1017 Clouds 28 1011 83 10000 3.1 270 15:39 30.09.2019
1018 Clouds 27 1011 83 10000 3.1 270 15:20 30.09.2019
1019 Clouds 27 1011 78 10000 1.5 230 14:58 30.09.2019
1020 Clouds 27 1011 78 10000 1.5 230 14:38 30.09.2019
1021 Clouds 27 1011 78 10000 1.5 230 14:19 30.09.2019
1022 Clouds 28 1010 78 10000 3.1 240 13:59 30.09.2019
1023 Clouds 27 1010 78 10000 3.1 240 13:41 30.09.2019
1024 Rain 27 1010 78 10000 3.1 240 13:21 30.09.2019
1025 -273 0 0 0 0 0 12:54 30.09.2019
1026 Rain 28 1009 83 10000 4.1 270 12:36 30.09.2019
1027 Clouds 29 1008 83 10000 5.1 260 12:18 30.09.2019
1028 Clouds 29 1008 83 10000 5.1 260 11:40 30.09.2019
1029 Clouds 29 1008 83 10000 5.1 260 11:21 30.09.2019
1030 Clouds 29 1008 79 10000 6.7 260 10:56 30.09.2019
1031 Clouds 29 1008 79 10000 6.7 260 10:37 30.09.2019
1032 Clouds 29 1008 79 10000 6.7 260 10:18 30.09.2019
1033 Clouds 30 1008 74 10000 5.7 260 09:40 30.09.2019
1034 Clouds 30 1008 74 10000 5.7 260 09:22 30.09.2019
1035 Clouds 30 1008 79 10000 7.2 260 08:52 30.09.2019
1036 Clouds 30 1008 79 10000 7.2 260 08:34 30.09.2019
1037 Clouds 30 1008 74 10000 5.1 260 07:59 30.09.2019
1038 Clouds 30 1008 74 10000 5.1 260 07:40 30.09.2019
1039 Clouds 30 1008 74 10000 5.1 260 07:40 30.09.2019
1040 Clouds 31 1009 79 10000 6.2 270 07:18 30.09.2019
1041 Clouds 31 1009 79 10000 6.2 270 06:42 30.09.2019
1042 Clouds 31 1009 79 10000 6.2 270 06:23 30.09.2019
1043 Clouds 31 1009 79 10000 6.2 270 06:23 30.09.2019
1044 Clouds 31 1009 79 10000 5.1 260 05:40 30.09.2019
1045 Clouds 29 1009 79 10000 3.1 240 02:53 30.09.2019
1046 Clouds 29 1009 79 10000 3.1 240 02:25 30.09.2019
1047 Clouds 28 1009 88 10000 2.1 220 01:24 30.09.2019
1048 Clouds 28 1009 88 10000 2.1 220 01:24 30.09.2019
1049 Clouds 28 1009 88 10000 2.1 220 01:24 30.09.2019
1050 Clouds 27 1008 88 10000 0.5 0 00:37 30.09.2019
1051 Clouds 27 1008 88 10000 0.5 0 00:19 30.09.2019
1052 Rain 27 1007 94 7000 2.1 200 23:42 29.09.2019
1053 Rain 27 1007 94 7000 2.1 200 23:21 29.09.2019
1054 Clouds 27 1007 88 10000 3.1 230 22:45 29.09.2019
1055 Clouds 27 1007 88 10000 3.1 230 22:25 29.09.2019
1056 Clouds 27 1007 88 10000 2.1 230 21:59 29.09.2019
1057 Clouds 27 1007 88 10000 2.1 230 21:39 29.09.2019
1058 Clouds 27 1007 88 10000 2.1 230 21:20 29.09.2019
1059 Rain 27 1008 83 10000 2.6 230 20:59 29.09.2019
1060 Rain 27 1008 83 10000 2.6 230 20:41 29.09.2019
1061 Rain 28 1008 83 10000 2.6 230 20:19 29.09.2019
1062 Rain 28 1008 83 10000 2.6 230 20:19 29.09.2019
1063 -273 0 0 0 0 0 19:56 29.09.2019
1064 Clouds 28 1008 83 10000 2.1 210 19:37 29.09.2019
1065 Clouds 28 1008 83 10000 2.1 210 19:18 29.09.2019
1066 -273 0 0 0 0 0 18:55 29.09.2019
1067 Clouds 28 1009 83 10000 3.1 240 18:37 29.09.2019
1068 Clouds 28 1009 83 10000 3.1 240 18:18 29.09.2019
1069 Clouds 28 1009 83 10000 3.1 240 18:18 29.09.2019
1070 Clouds 28 1009 83 10000 2.6 210 17:55 29.09.2019
1071 Clouds 28 1009 83 10000 2.6 210 17:55 29.09.2019
1072 Clouds 28 1009 83 10000 2.6 210 17:37 29.09.2019
1073 Clouds 28 1009 83 10000 2.6 210 17:19 29.09.2019
1074 Rain 28 1009 83 10000 2.6 250 16:54 29.09.2019
1075 Rain 28 1009 83 10000 2.6 250 16:36 29.09.2019
1076 Rain 28 1009 83 10000 2.6 250 16:18 29.09.2019
1077 Rain 28 1009 83 10000 2.6 250 16:18 29.09.2019
1078 Clouds 28 1008 89 0 0.45 179 15:41 29.09.2019
1079 Clouds 28 1009 83 10000 3.6 230 15:19 29.09.2019
1080 Clouds 28 1009 83 10000 3.6 230 14:59 29.09.2019
1081 Clouds 28 1009 83 10000 3.6 230 14:38 29.09.2019
1082 Clouds 28 1009 83 10000 3.6 230 14:20 29.09.2019
1083 Clouds 29 1008 79 10000 6.7 260 13:57 29.09.2019
1084 Clouds 29 1008 79 10000 6.7 260 13:38 29.09.2019
1085 Clouds 29 1008 79 10000 6.7 260 13:18 29.09.2019
1086 Clouds 29 1008 79 10000 6.7 260 13:18 29.09.2019
1087 Clouds 29 1008 79 10000 6.7 260 13:18 29.09.2019
1088 Clouds 29 1008 83 10000 6.7 260 12:56 29.09.2019
1089 Clouds 29 1008 83 10000 6.7 260 12:38 29.09.2019
1090 Clouds 29 1008 83 10000 6.7 260 12:20 29.09.2019
1091 Clouds 29 1008 74 10000 7.2 250 11:41 29.09.2019
1092 Clouds 30 1008 74 10000 7.2 250 11:20 29.09.2019
1093 Clouds 30 1007 74 10000 8.2 260 10:59 29.09.2019
1094 Clouds 30 1007 74 10000 8.2 260 10:41 29.09.2019
1095 Clouds 30 1007 74 10000 8.2 260 10:21 29.09.2019
1096 Clouds 30 1007 79 10000 9.3 260 09:59 29.09.2019
1097 Clouds 30 1007 79 10000 9.3 260 09:41 29.09.2019
1098 Clouds 30 1007 79 10000 9.3 260 09:20 29.09.2019
1099 Clouds 31 1008 70 10000 9.3 260 08:43 29.09.2019
1100 Clouds 31 1008 70 10000 9.3 260 08:22 29.09.2019
1101 Clouds 31 1008 70 10000 7.7 260 07:45 29.09.2019
1102 Clouds 31 1008 70 10000 7.7 260 07:27 29.09.2019
1103 Clouds 31 1009 74 10000 7.2 270 06:57 29.09.2019
1104 Clouds 31 1009 74 10000 7.2 270 06:34 29.09.2019
1105 Clouds 31 1010 79 10000 6.7 270 04:52 29.09.2019
1106 Clouds 31 1010 79 10000 6.7 270 04:24 29.09.2019
1107 Clouds 30 1010 79 10000 6.2 250 03:42 29.09.2019
1108 Clouds 29 1010 89 9000 2.1 250 02:25 29.09.2019
1109 Rain 28 1009 88 9000 1.5 250 01:45 29.09.2019
1110 Rain 28 1009 88 9000 1.5 250 01:23 29.09.2019
1111 Clouds 27 1009 83 9000 2.1 10 00:41 29.09.2019
1112 Clouds 27 1009 83 9000 2.1 10 00:19 29.09.2019
1113 Clouds 27 1008 88 9000 0.5 0 23:39 28.09.2019
1114 Clouds 27 1008 88 9000 0.5 0 23:39 28.09.2019
1115 Clouds 27 1008 88 9000 0.5 0 23:21 28.09.2019
1116 Clouds 27 1008 94 9000 2.1 200 22:41 28.09.2019
1117 Clouds 27 1008 94 9000 2.1 200 22:23 28.09.2019
1118 Clouds 27 1009 94 8000 1.5 170 21:59 28.09.2019
1119 Clouds 27 1009 94 8000 1.5 170 21:40 28.09.2019
1120 Clouds 27 1009 94 8000 1.5 170 21:21 28.09.2019
1121 Rain 28 1009 88 8000 2.6 220 20:59 28.09.2019
1122 Clouds 28 1009 83 10000 2.1 240 20:40 28.09.2019
1123 Clouds 28 1009 83 10000 2.1 240 20:20 28.09.2019
1124 Clouds 29 1010 83 10000 3.6 270 19:57 28.09.2019
1125 Clouds 29 1010 83 10000 3.6 270 19:39 28.09.2019
1126 Clouds 29 1010 83 10000 3.6 270 19:21 28.09.2019
1127 Clouds 28 1010 88 9000 3.6 250 18:57 28.09.2019
1128 Clouds 28 1010 88 9000 3.6 250 18:39 28.09.2019
1129 Clouds 28 1010 88 9000 3.6 250 18:20 28.09.2019
1130 Clouds 28 1010 88 9000 3.1 250 17:56 28.09.2019
1131 Clouds 28 1010 88 9000 3.1 250 17:38 28.09.2019
1132 Clouds 28 1010 88 9000 3.1 250 17:19 28.09.2019
1133 Clouds 28 1010 88 9000 3.1 250 17:19 28.09.2019
1134 Clouds 29 1011 79 10000 3.6 260 16:43 28.09.2019
1135 Clouds 29 1011 79 10000 3.6 260 16:25 28.09.2019
1136 Clouds 29 1010 83 10000 3.1 250 15:42 28.09.2019
1137 Clouds 29 1010 83 10000 3.1 250 15:42 28.09.2019
1138 Clouds 29 1010 83 10000 3.1 250 15:23 28.09.2019
1139 Clouds 29 1010 83 10000 3.1 250 15:23 28.09.2019
1140 Clouds 29 1010 83 10000 4.1 250 14:58 28.09.2019
1141 Clouds 29 1010 83 10000 4.1 250 14:39 28.09.2019
1142 Clouds 29 1010 83 10000 4.1 250 14:21 28.09.2019
1143 Clouds 29 1010 79 10000 3.6 240 13:57 28.09.2019
1144 Clouds 29 1010 79 10000 3.6 240 13:38 28.09.2019
1145 Clouds 29 1010 79 10000 3.6 240 13:20 28.09.2019
1146 Clouds 30 1009 74 10000 4.1 260 12:45 28.09.2019
1147 Clouds 30 1009 74 10000 4.1 260 12:20 28.09.2019
1148 Clouds 31 1009 70 10000 5.1 260 11:56 28.09.2019
1149 Clouds 31 1009 70 10000 5.1 260 11:37 28.09.2019
1150 Clouds 31 1009 70 10000 5.1 260 11:18 28.09.2019
1151 Clouds 32 1008 62 10000 4.1 280 10:43 28.09.2019
1152 Clouds 32 1008 62 10000 4.1 280 10:20 28.09.2019
1153 Clouds 33 1008 63 10000 4.1 290 09:57 28.09.2019
1154 Clouds 33 1008 63 10000 4.1 290 09:39 28.09.2019
1155 Clouds 33 1008 63 10000 4.1 290 09:18 28.09.2019
1156 Clouds 33 1009 59 10000 4.1 290 08:46 28.09.2019
1157 Clouds 33 1009 59 10000 4.1 290 08:28 28.09.2019
1158 Clouds 33 1010 70 10000 4.1 290 07:45 28.09.2019
1159 Clouds 32 1010 70 10000 4.1 290 07:21 28.09.2019
1160 Clouds 32 1011 70 10000 3.6 300 06:55 28.09.2019
1161 Clouds 33 1011 70 10000 3.6 300 06:31 28.09.2019
1162 Clouds 32 1011 52 10000 1.5 0 05:55 28.09.2019
1163 Clouds 33 1011 52 10000 1.5 0 05:20 28.09.2019
1164 Clouds 32 1012 62 10000 1.5 50 04:39 28.09.2019
1165 Clouds 31 1012 70 10000 1 0 03:58 28.09.2019
1166 Clouds 31 1012 70 10000 1 0 03:58 28.09.2019
1167 Clouds 31 1012 70 10000 1 0 03:23 28.09.2019
1168 Clouds 31 1011 74 10000 1 170 02:56 28.09.2019
1169 Clouds 30 1011 74 10000 1 170 02:32 28.09.2019
1170 Clouds 29 1011 78 10000 1 0 01:49 28.09.2019
1171 Clouds 29 1011 78 10000 1 0 01:26 28.09.2019
1172 Clouds 27 1010 88 10000 2.23 103.737 00:57 28.09.2019
1173 Clouds 26 1010 88 10000 2.23 103.737 00:38 28.09.2019
1174 Clouds 26 1010 88 10000 1.71 71.194 00:18 28.09.2019
1175 Clouds 27 1010 83 10000 1 0 23:37 27.09.2019
1176 Clouds 27 1010 83 10000 1 0 23:19 27.09.2019
1177 Clouds 27 1010 83 10000 1 0 22:46 27.09.2019
1178 Clouds 27 1010 83 10000 1 0 22:19 27.09.2019
1179 Clouds 27 1010 83 10000 1 0 21:57 27.09.2019
1180 Clouds 27 1010 83 10000 1 0 21:37 27.09.2019
1181 Clouds 27 1010 83 10000 1 0 21:19 27.09.2019
1182 Clouds 27 1010 78 10000 1 0 20:56 27.09.2019
1183 Clouds 27 1010 78 10000 1 0 20:38 27.09.2019
1184 Clouds 28 1010 78 10000 1 0 20:19 27.09.2019
1185 Clouds 28 1011 78 10000 1 0 19:56 27.09.2019
1186 Clouds 28 1011 78 10000 1 0 19:37 27.09.2019
1187 Clouds 28 1011 78 10000 1 0 19:18 27.09.2019
1188 Clouds 28 1011 74 10000 1.5 0 18:40 27.09.2019
1189 Clouds 28 1011 74 10000 1.5 0 18:21 27.09.2019
1190 Clouds 29 1012 74 10000 2.1 130 17:55 27.09.2019
1191 Clouds 29 1012 74 10000 2.1 130 17:37 27.09.2019
1192 Clouds 29 1012 74 10000 2.1 130 17:18 27.09.2019
1193 Clouds 29 1012 79 10000 1 0 16:55 27.09.2019
1194 Clouds 29 1012 79 10000 1 0 16:36 27.09.2019
1195 Clouds 29 1012 79 10000 1 0 16:18 27.09.2019
1196 Clouds 29 1012 79 10000 1 0 15:43 27.09.2019
1197 Clouds 29 1012 79 10000 1 0 15:20 27.09.2019
1198 Clouds 29 1011 74 10000 2.1 200 14:56 27.09.2019
1199 Clouds 29 1011 74 10000 2.1 200 14:38 27.09.2019
1200 Clouds 29 1011 74 10000 2.1 200 14:38 27.09.2019
1201 Clouds 29 1011 74 10000 2.1 200 14:18 27.09.2019
1202 Clouds 30 1011 74 10000 2.1 190 13:57 27.09.2019
1203 Clouds 30 1011 74 10000 2.1 190 13:38 27.09.2019
1204 Clouds 30 1011 74 10000 2.1 190 13:19 27.09.2019
1205 Clouds 30 1009 79 10000 3.6 260 12:44 27.09.2019
1206 Clouds 30 1009 79 10000 3.6 260 12:22 27.09.2019
1207 Clouds 30 1009 70 10000 2.6 240 11:55 27.09.2019
1208 Clouds 31 1009 70 10000 2.6 240 11:37 27.09.2019
1209 Clouds 31 1009 70 10000 2.6 240 11:19 27.09.2019
1210 Clouds 31 1009 66 10000 4.1 280 10:41 27.09.2019
1211 Clouds 31 1009 66 10000 4.1 280 10:21 27.09.2019
1212 Clouds 32 1009 66 10000 4.6 280 09:44 27.09.2019
1213 Clouds 33 1009 66 10000 4.6 280 09:23 27.09.2019
1214 Clouds 33 1009 66 10000 3.6 280 08:59 27.09.2019
1215 Clouds 33 1009 66 10000 3.6 280 08:40 27.09.2019
1216 Clouds 33 1009 66 10000 3.6 280 08:20 27.09.2019
1217 Clouds 33 1010 75 10000 3.6 280 07:49 27.09.2019
1218 Clouds 32 1010 75 10000 3.6 280 07:24 27.09.2019
1219 Clouds 32 1011 74 9000 1 0 06:43 27.09.2019
1220 Clouds 32 1011 74 9000 1 0 06:25 27.09.2019
1221 Rain 30 1012 83 7000 2.6 310 05:52 27.09.2019
1222 Rain 29 1012 83 7000 2.6 310 05:33 27.09.2019
1223 Rain 30 1013 79 10000 1 0 03:57 27.09.2019
1224 Rain 30 1013 79 10000 1 0 03:36 27.09.2019
1225 Rain 28 1012 94 9000 0.5 0 01:53 27.09.2019
1226 Rain 28 1012 94 9000 0.5 0 01:28 27.09.2019
1227 Clouds 27 1011 83 10000 1 140 00:30 27.09.2019
1228 Clouds 27 1011 88 10000 0.5 0 23:56 26.09.2019
1229 Clouds 27 1011 88 10000 0.5 0 23:38 26.09.2019
1230 Clouds 27 1011 88 10000 0.5 0 23:18 26.09.2019
1231 Clouds 27 1011 88 10000 0.5 0 23:18 26.09.2019
1232 Clouds 27 1011 83 10000 1 140 22:57 26.09.2019
1233 Clouds 27 1011 83 10000 1 140 22:39 26.09.2019
1234 Clouds 27 1011 83 10000 1 140 22:18 26.09.2019
1235 Clouds 28 1011 83 10000 0.5 0 21:56 26.09.2019
1236 Clouds 28 1011 83 10000 0.5 0 21:37 26.09.2019
1237 Clouds 28 1011 83 10000 0.5 0 21:18 26.09.2019
1238 Clouds 28 1011 83 10000 1 0 20:57 26.09.2019
1239 Clouds 28 1011 83 10000 1 0 20:39 26.09.2019
1240 Clouds 28 1011 83 10000 1 0 20:20 26.09.2019
1241 Clouds 28 1012 83 10000 3.42 37.971 19:40 26.09.2019
1242 Clouds 28 1012 83 10000 1 0 19:19 26.09.2019
1243 Clouds 28 1012 83 10000 1 0 18:59 26.09.2019
1244 Clouds 28 1012 83 10000 1 0 18:40 26.09.2019
1245 Clouds 28 1012 83 10000 1 0 18:22 26.09.2019
1246 Clouds 28 1012 88 10000 0.5 0 17:57 26.09.2019
1247 Clouds 27 1012 88 10000 0.5 0 17:37 26.09.2019
1248 Clouds 27 1012 88 10000 0.5 0 17:18 26.09.2019
1249 Clouds 27 1012 88 10000 0.5 0 16:40 26.09.2019
1250 Clouds 27 1012 88 10000 0.5 0 16:21 26.09.2019
1251 Clouds 27 1012 88 10000 0.5 0 16:21 26.09.2019
1252 Clouds 27 1012 94 10000 1.5 260 15:59 26.09.2019
1253 Clouds 27 1012 94 10000 1.5 260 15:38 26.09.2019
1254 Clouds 27 1012 94 10000 1.5 260 15:20 26.09.2019
1255 Rain 27 1012 88 6000 3.6 320 14:57 26.09.2019
1256 Rain 27 1012 88 6000 3.6 320 14:38 26.09.2019
1257 Rain 27 1012 88 6000 3.6 320 14:38 26.09.2019
1258 Rain 27 1012 88 6000 3.6 320 14:20 26.09.2019
1259 Rain 29 1011 70 10000 2.1 210 13:41 26.09.2019
1260 Rain 29 1011 70 10000 2.1 210 13:20 26.09.2019
1261 Rain 29 1011 70 10000 2.1 210 13:20 26.09.2019
1262 Rain 29 1011 70 10000 2.1 210 13:20 26.09.2019
1263 Rain 29 1010 66 10000 1.5 230 12:59 26.09.2019
1264 Rain 29 1010 66 10000 1.5 230 12:41 26.09.2019
1265 Rain 29 1010 66 10000 1.5 230 12:41 26.09.2019
1266 Rain 31 1010 66 10000 1.5 230 12:20 26.09.2019
1267 Rain 30 1010 70 10000 2.6 280 11:42 26.09.2019
1268 Rain 30 1010 70 10000 2.6 280 11:23 26.09.2019
1269 Rain 31 1010 66 10000 2.6 270 10:57 26.09.2019
1270 Rain 32 1010 66 10000 2.6 270 10:39 26.09.2019
1271 Clouds 32 1010 66 10000 2.6 270 10:20 26.09.2019
1272 Clouds 32 1010 70 10000 3.1 260 09:45 26.09.2019
1273 Clouds 32 1010 70 10000 3.1 260 09:26 26.09.2019
1274 Clouds 31 1010 66 10000 3.6 290 08:58 26.09.2019
1275 Clouds 32 1010 66 10000 3.6 290 08:40 26.09.2019
1276 Clouds 31 1010 66 10000 3.6 290 08:22 26.09.2019
1277 Clouds 32 1011 66 10000 1.5 0 07:44 26.09.2019
1278 Clouds 32 1011 66 10000 1.5 0 07:22 26.09.2019
1279 Clouds 32 1012 66 10000 4.1 280 06:47 26.09.2019
1280 Clouds 32 1012 66 10000 4.1 280 06:27 26.09.2019
1281 Clouds 31 1012 66 10000 4.1 300 05:46 26.09.2019
1282 Clouds 31 1012 66 10000 4.1 300 05:25 26.09.2019
1283 Clouds 31 1013 62 10000 1.5 10 03:18 26.09.2019
1284 Clouds 29 1012 78 10000 1.5 140 01:54 26.09.2019
1285 Clouds 29 1012 78 10000 1.5 140 01:54 26.09.2019
1286 Clouds 29 1012 78 10000 1.5 140 01:31 26.09.2019
1287 Clouds 27 1012 88 10000 1 0 00:56 26.09.2019
1288 Clouds 26 1012 88 10000 1 0 00:38 26.09.2019
1289 Clouds 26 1012 88 10000 1 0 00:19 26.09.2019
1290 Clouds 26 1012 83 10000 2.83 80.82 23:42 25.09.2019
1291 Clouds 26 1012 83 10000 2.83 80.82 23:18 25.09.2019
1292 Clouds 26 1012 83 10000 2.83 80.82 23:18 25.09.2019
1293 Clouds 27 1011 78 10000 1.5 130 22:42 25.09.2019
1294 Clouds 27 1011 78 10000 1.5 130 22:21 25.09.2019
1295 Clouds 27 1012 78 10000 1 0 21:57 25.09.2019
1296 Clouds 27 1012 78 10000 1 0 21:39 25.09.2019
1297 Clouds 27 1012 78 10000 1 0 21:39 25.09.2019
1298 Clouds 27 1012 78 10000 1 0 21:19 25.09.2019
1299 Clouds 27 1012 74 10000 1.5 140 20:58 25.09.2019
1300 Clouds 27 1012 74 10000 1.5 140 20:40 25.09.2019
1301 Clouds 27 1012 74 10000 1.5 140 20:22 25.09.2019
1302 -273 0 0 0 0 0 19:54 25.09.2019
1303 Clouds 27 1012 74 10000 1.5 130 19:36 25.09.2019
1304 Clouds 27 1012 69 10000 2.1 100 19:18 25.09.2019
1305 Clouds 27 1012 69 10000 2.1 100 18:55 25.09.2019
1306 Clouds 28 1012 69 10000 2.1 100 18:37 25.09.2019
1307 Clouds 28 1012 74 10000 2.1 130 18:18 25.09.2019
1308 Clouds 28 1012 74 10000 2.1 130 18:18 25.09.2019
1309 Clouds 28 1012 74 10000 2.1 130 17:38 25.09.2019
1310 Clouds 28 1012 74 10000 2.1 130 17:19 25.09.2019
1311 Clouds 28 1013 74 10000 2.1 130 16:46 25.09.2019
1312 Clouds 28 1013 74 10000 2.1 130 16:28 25.09.2019
1313 Clouds 28 1013 74 10000 1 0 15:59 25.09.2019
1314 Clouds 28 1013 74 10000 1 0 15:41 25.09.2019
1315 Clouds 28 1013 74 10000 1 0 15:23 25.09.2019
1316 Clouds 28 1012 66 10000 2.6 110 14:57 25.09.2019
1317 Clouds 29 1012 66 10000 2.6 110 14:39 25.09.2019
1318 Clouds 29 1012 66 10000 2.6 110 14:39 25.09.2019
1319 Clouds 29 1012 66 10000 2.6 110 14:21 25.09.2019
1320 Clouds 29 1012 66 10000 3.1 100 13:41 25.09.2019
1321 Clouds 29 1012 66 10000 3.1 100 13:41 25.09.2019
1322 Clouds 29 1012 66 10000 3.1 100 13:23 25.09.2019
1323 Clouds 30 1011 62 10000 3.6 110 12:59 25.09.2019
1324 Clouds 30 1011 62 10000 3.6 110 12:39 25.09.2019
1325 Clouds 31 1011 62 10000 3.6 110 12:21 25.09.2019
1326 Clouds 31 1010 62 10000 2.6 0 11:55 25.09.2019
1327 Clouds 31 1010 62 10000 2.6 0 11:55 25.09.2019
1328 Clouds 31 1010 62 10000 2.6 0 11:36 25.09.2019
1329 Clouds 32 1010 62 10000 2.6 0 11:18 25.09.2019
1330 Clouds 32 1010 59 10000 3.1 0 10:41 25.09.2019
1331 Clouds 32 1010 59 10000 3.1 0 10:41 25.09.2019
1332 Clouds 32 1010 59 10000 3.1 0 10:23 25.09.2019
1333 Clouds 32 1010 55 10000 3.1 140 09:56 25.09.2019
1334 Clouds 33 1010 55 10000 3.1 140 09:36 25.09.2019
1335 Clouds 33 1010 55 10000 3.1 140 09:18 25.09.2019
1336 Clouds 33 1010 55 10000 2.6 0 08:42 25.09.2019
1337 Clouds 33 1010 55 10000 2.6 0 08:21 25.09.2019
1338 Clouds 33 1011 59 10000 3.1 150 07:56 25.09.2019
1339 Clouds 33 1011 59 10000 3.1 150 07:37 25.09.2019
1340 Clouds 32 1012 66 10000 2.6 0 07:19 25.09.2019
1341 Clouds 32 1012 66 10000 2.6 0 06:38 25.09.2019
1342 Clouds 31 1012 66 10000 2.6 0 06:18 25.09.2019
1343 Clouds 31 1013 66 10000 3.6 120 05:27 25.09.2019
1344 Clouds 30 1014 74 10000 2.6 130 04:49 25.09.2019
1345 Clouds 28 1013 78 10000 2.6 110 02:18 25.09.2019
1346 Clouds 26 1012 88 8000 0.5 0 00:44 25.09.2019
1347 Clouds 26 1012 88 8000 0.5 0 00:24 25.09.2019
1348 Clouds 26 1012 83 10000 3.6 63.62 23:55 24.09.2019
1349 Clouds 26 1012 83 10000 3.6 63.62 23:36 24.09.2019
1350 Clouds 26 1012 83 10000 3.6 63.62 23:36 24.09.2019
1351 Clouds 26 1012 83 10000 3.6 63.62 23:18 24.09.2019
1352 Clouds 26 1011 88 10000 3.6 63.62 22:39 24.09.2019
1353 Clouds 26 1011 88 10000 3.6 63.62 22:20 24.09.2019
1354 Clouds 26 1011 88 10000 1 0 21:56 24.09.2019
1355 Clouds 26 1011 88 10000 1 0 21:37 24.09.2019
1356 Clouds 26 1011 88 10000 1 0 21:19 24.09.2019
1357 Clouds 26 1012 88 10000 1.5 70 20:57 24.09.2019
1358 Clouds 26 1012 88 10000 1.5 70 20:38 24.09.2019
1359 Clouds 26 1012 88 10000 1.5 70 20:38 24.09.2019
1360 Clouds 26 1012 88 10000 1.5 70 20:19 24.09.2019
1361 Clouds 27 1012 83 10000 1 0 19:43 24.09.2019
1362 Clouds 27 1012 83 10000 1 0 19:21 24.09.2019
1363 Clouds 27 1013 78 10000 1 0 18:59 24.09.2019
1364 Clouds 27 1013 78 10000 1 0 18:39 24.09.2019
1365 Clouds 27 1013 78 10000 1 0 18:21 24.09.2019
1366 Clouds 27 1013 83 10000 1 90 17:57 24.09.2019
1367 Clouds 27 1013 83 10000 1 90 17:38 24.09.2019
1368 Clouds 27 1013 83 10000 1 90 17:20 24.09.2019
1369 Clouds 28 1013 78 10000 1 0 16:55 24.09.2019
1370 Clouds 28 1013 78 10000 1 0 16:37 24.09.2019
1371 Clouds 28 1013 78 10000 1 0 16:18 24.09.2019
1372 Clouds 28 1013 78 10000 1 0 16:18 24.09.2019
1373 Clouds 28 1013 78 10000 2.1 120 15:41 24.09.2019
1374 Clouds 28 1013 78 10000 2.1 120 15:23 24.09.2019
1375 Clouds 29 1013 79 10000 0.5 0 14:41 24.09.2019
1376 Clouds 29 1013 79 10000 0.5 0 14:20 24.09.2019
1377 Clouds 29 1011 83 10000 0.5 0 13:55 24.09.2019
1378 Clouds 29 1011 83 10000 0.5 0 13:55 24.09.2019
1379 Clouds 29 1011 83 10000 0.5 0 13:37 24.09.2019
1380 Clouds 29 1011 83 10000 0.5 0 13:18 24.09.2019
1381 Clouds 28 1011 83 10000 0.5 0 12:39 24.09.2019
1382 Clouds 28 1011 83 10000 1 0 12:19 24.09.2019
1383 Clouds 29 1011 83 10000 1 0 11:43 24.09.2019
1384 Clouds 29 1011 83 10000 1 0 11:22 24.09.2019
1385 Rain 28 1011 83 9000 1.5 0 10:57 24.09.2019
1386 Rain 28 1011 83 9000 1.5 0 10:38 24.09.2019
1387 Rain 28 1011 83 9000 1.5 0 10:19 24.09.2019
1388 Rain 28 1010 70 9000 7.2 70 09:46 24.09.2019
1389 Rain 29 1010 70 9000 7.2 70 09:27 24.09.2019
1390 Clouds 31 1011 63 10000 3.6 130 08:57 24.09.2019
1391 Clouds 31 1011 63 10000 3.6 130 08:39 24.09.2019
1392 Clouds 32 1011 63 10000 3.6 130 08:20 24.09.2019
1393 Clouds 32 1012 62 10000 3.1 130 07:55 24.09.2019
1394 Clouds 32 1012 62 10000 3.1 130 07:36 24.09.2019
1395 Clouds 32 1012 62 10000 3.1 130 07:36 24.09.2019
1396 Clouds 32 1012 62 10000 3.1 130 07:36 24.09.2019
1397 Clouds 32 1013 62 10000 4.1 120 07:18 24.09.2019
1398 Clouds 31 1013 62 10000 4.1 120 06:37 24.09.2019
1399 Clouds 31 1014 70 9000 3.6 80 05:52 24.09.2019
1400 Clouds 30 1014 70 9000 3.6 80 05:20 24.09.2019
1401 Clouds 31 1014 70 10000 1.91 47.955 03:45 24.09.2019
1402 Clouds 30 1014 79 9000 1 0 02:57 24.09.2019
1403 Clouds 29 1014 79 9000 1 0 02:39 24.09.2019
1404 Clouds 28 1013 83 9000 1 0 01:39 24.09.2019
1405 Clouds 27 1013 83 9000 1 0 00:38 24.09.2019
1406 Clouds 27 1013 83 9000 1 0 00:20 24.09.2019
1407 Clouds 26 1012 83 10000 1.5 40 23:40 23.09.2019
1408 Clouds 26 1012 83 10000 1.5 40 23:21 23.09.2019
1409 Clouds 27 1011 83 10000 0.5 0 22:40 23.09.2019
1410 Clouds 27 1011 83 10000 0.5 0 22:21 23.09.2019
1411 Clouds 27 1011 83 10000 0.5 0 22:21 23.09.2019
1412 Clouds 27 1011 78 10000 2.6 10 21:58 23.09.2019
1413 Clouds 27 1011 78 10000 2.6 10 21:40 23.09.2019
1414 Clouds 27 1011 78 10000 2.6 10 21:20 23.09.2019
1415 Clouds 27 1011 78 10000 2.6 10 20:56 23.09.2019
1416 Clouds 27 1011 78 10000 2.6 10 20:37 23.09.2019
1417 Clouds 27 1011 78 10000 2.6 10 20:18 23.09.2019
1418 Clouds 28 1012 83 10000 1 0 19:39 23.09.2019
1419 Clouds 28 1012 83 10000 1 0 19:39 23.09.2019
1420 Clouds 28 1012 83 10000 1 0 19:21 23.09.2019
1421 Clouds 27 1014 94 10000 1.5 120 18:57 23.09.2019
1422 Clouds 27 1014 94 10000 1.5 120 18:38 23.09.2019
1423 Clouds 28 1013 79 10000 1 0 18:18 23.09.2019
1424 Clouds 29 1013 79 10000 1 0 17:55 23.09.2019
1425 Clouds 29 1013 79 10000 1 0 17:37 23.09.2019
1426 Clouds 29 1013 79 10000 1 0 17:18 23.09.2019
1427 Clouds 29 1013 79 10000 1.5 120 16:40 23.09.2019
1428 Clouds 29 1013 79 10000 1.5 120 16:22 23.09.2019
1429 Clouds 29 1014 79 10000 1.5 220 15:59 23.09.2019
1430 Clouds 29 1014 79 10000 1.5 220 15:41 23.09.2019
1431 Clouds 29 1014 79 10000 1.5 220 15:20 23.09.2019
1432 Clouds 28 1013 83 10000 0.5 0 14:58 23.09.2019
1433 Clouds 28 1013 83 10000 0.5 0 14:39 23.09.2019
1434 Clouds 28 1013 83 10000 0.5 0 14:19 23.09.2019
1435 Clouds 29 1015 83 0 2.3 321.55 13:57 23.09.2019
1436 Clouds 29 1013 78 0 1.34 166 13:37 23.09.2019
1437 Clouds 29 1012 70 10000 3.1 260 13:18 23.09.2019
1438 Clouds 29 1012 70 10000 3.1 260 13:18 23.09.2019
1439 Clouds 30 1012 70 10000 3.1 260 12:40 23.09.2019
1440 Clouds 30 1012 70 10000 3.1 260 12:21 23.09.2019
1441 Thunderstorm 30 1012 70 10000 4.1 260 11:55 23.09.2019
1442 Thunderstorm 31 1012 70 10000 4.1 260 11:36 23.09.2019
1443 Thunderstorm 31 1012 70 10000 4.1 260 11:18 23.09.2019
1444 Clouds 31 1011 66 10000 4.6 270 10:41 23.09.2019
1445 Clouds 31 1011 66 10000 4.6 270 10:20 23.09.2019
1446 Clouds 32 1011 66 10000 4.6 280 09:40 23.09.2019
1447 Clouds 32 1011 66 10000 4.6 280 09:40 23.09.2019
1448 Clouds 32 1011 66 10000 4.6 280 09:21 23.09.2019
1449 Clouds 32 1011 70 10000 4.1 270 08:58 23.09.2019
1450 Clouds 32 1011 70 10000 4.1 270 08:38 23.09.2019
1451 Clouds 32 1011 70 10000 4.1 270 08:18 23.09.2019
1452 Clouds 32 1011 70 10000 4.1 270 08:18 23.09.2019
1453 Clouds 32 1012 70 9000 3.1 290 07:33 23.09.2019
1454 Clouds 33 1013 70 9000 3.1 280 06:53 23.09.2019
1455 Clouds 32 1013 70 9000 3.1 280 06:20 23.09.2019
1456 Clouds 32 1013 74 9000 3.1 270 05:23 23.09.2019
1457 Clouds 31 1014 79 9000 2.6 270 04:56 23.09.2019
1458 Clouds 30 1014 79 9000 1 0 03:56 23.09.2019
1459 Clouds 27 1013 88 7000 1 0 01:25 23.09.2019
1460 Clouds 26 1012 94 7000 2.04 26.238 00:24 23.09.2019
1461 Clouds 26 1012 94 8000 2.04 26.238 23:58 22.09.2019
1462 Clouds 26 1012 94 8000 2.04 26.238 23:58 22.09.2019
1463 Clouds 26 1012 94 8000 2.04 26.238 23:39 22.09.2019
1464 Clouds 26 1012 94 8000 2.04 26.238 23:20 22.09.2019
1465 Clouds 26 1011 94 10000 2.04 26.238 22:54 22.09.2019
1466 Clouds 26 1011 94 10000 2.04 26.238 22:36 22.09.2019
1467 Clouds 26 1011 94 10000 2.04 26.238 22:18 22.09.2019
1468 Clouds 26 1012 94 10000 0.5 0 21:40 22.09.2019
1469 Clouds 26 1012 94 10000 0.5 0 21:20 22.09.2019
1470 Clouds 27 1012 88 10000 1.62 20.34 20:44 22.09.2019
1471 Clouds 27 1012 88 10000 1.39 6.843 20:26 22.09.2019
1472 Clouds 27 1013 88 10000 1.39 6.843 19:57 22.09.2019
1473 Clouds 27 1013 88 10000 1.39 6.843 19:39 22.09.2019
1474 Clouds 27 1013 88 10000 1.5 260 19:20 22.09.2019
1475 Clouds 27 1013 88 10000 1.5 260 18:57 22.09.2019
1476 Clouds 27 1013 88 10000 1.5 260 18:37 22.09.2019
1477 Clouds 27 1014 83 10000 1 0 18:18 22.09.2019
1478 Clouds 27 1014 83 10000 1 0 17:42 22.09.2019
1479 Clouds 27 1014 83 10000 1 0 17:24 22.09.2019
1480 Clouds 27 1014 83 10000 1 0 16:56 22.09.2019
1481 Clouds 28 1014 83 10000 1 0 16:37 22.09.2019
1482 Clouds 28 1014 83 10000 1 0 16:18 22.09.2019
1483 Clouds 28 1014 83 10000 1.5 240 15:43 22.09.2019
1484 Clouds 28 1014 83 10000 1.5 240 15:25 22.09.2019
1485 Clouds 28 1013 83 10000 3.6 260 14:55 22.09.2019
1486 Clouds 28 1013 83 10000 3.6 260 14:36 22.09.2019
1487 Clouds 28 1013 83 10000 3.6 260 14:18 22.09.2019
1488 Clouds 28 1012 83 10000 3.1 250 13:41 22.09.2019
1489 Clouds 28 1012 83 10000 3.1 250 13:41 22.09.2019
1490 Clouds 28 1012 83 10000 3.1 250 13:23 22.09.2019
1491 Clouds 28 1011 79 10000 4.6 260 12:56 22.09.2019
1492 Clouds 28 1011 79 10000 4.6 260 12:38 22.09.2019
1493 Clouds 29 1010 79 10000 5.7 260 12:18 22.09.2019
1494 Clouds 29 1010 79 10000 5.7 260 11:43 22.09.2019
1495 Clouds 29 1010 79 10000 5.7 260 11:24 22.09.2019
1496 Clouds 30 1010 94 10000 6.2 260 10:56 22.09.2019
1497 Clouds 30 1010 94 10000 6.2 260 10:37 22.09.2019
1498 Clouds 30 1010 94 10000 6.2 260 10:19 22.09.2019
1499 Clouds 30 1010 94 10000 6.2 260 10:19 22.09.2019
1500 Clouds 31 1010 70 10000 5.1 290 09:42 22.09.2019
1501 Clouds 31 1010 70 10000 5.1 290 09:21 22.09.2019
1502 Clouds 31 1010 70 10000 5.1 290 09:21 22.09.2019
1503 Clouds 31 1010 70 10000 4.6 290 08:49 22.09.2019
1504 Clouds 31 1010 70 10000 4.6 290 08:30 22.09.2019
1505 Clouds 31 1010 70 10000 4.1 300 07:59 22.09.2019
1506 Clouds 31 1010 70 10000 4.1 300 07:40 22.09.2019
1507 Clouds 31 1010 70 10000 4.1 300 07:21 22.09.2019
1508 Clouds 30 1011 70 10000 3.1 290 06:56 22.09.2019
1509 Clouds 31 1012 70 10000 4.1 290 05:45 22.09.2019
1510 Clouds 29 1012 83 10000 2.6 260 03:53 22.09.2019
1511 Clouds 28 1012 78 9000 1 0 02:43 22.09.2019
1512 Clouds 28 1012 78 9000 1 0 02:23 22.09.2019
1513 Clouds 26 1011 88 9000 1.41 244.693 01:34 22.09.2019
1514 Clouds 25 1011 94 9000 1.5 90 00:39 22.09.2019
1515 Clouds 25 1011 94 9000 1.5 90 00:20 22.09.2019
1516 Clouds 25 1011 88 10000 1 100 23:41 21.09.2019
1517 Clouds 25 1011 88 10000 1 100 23:22 21.09.2019
1518 Clouds 25 1010 88 10000 0.5 0 22:40 21.09.2019
1519 Clouds 25 1010 88 10000 0.5 0 22:21 21.09.2019
1520 Clouds 25 1010 94 10000 0.5 0 21:55 21.09.2019
1521 Clouds 25 1010 94 10000 0.5 0 21:37 21.09.2019
1522 Clouds 25 1010 94 10000 0.5 0 21:18 21.09.2019
1523 Clouds 25 1010 94 10000 0.5 0 21:18 21.09.2019
1524 Clouds 26 1010 88 10000 0.5 0 20:40 21.09.2019
1525 Clouds 26 1010 88 10000 0.5 0 20:22 21.09.2019
1526 Clouds 26 1010 88 10000 0.5 0 19:49 21.09.2019
1527 Clouds 26 1010 88 10000 0.5 0 19:49 21.09.2019
1528 Clouds 26 1010 88 10000 0.5 0 19:25 21.09.2019
1529 Clouds 26 1011 88 10000 1.5 200 18:59 21.09.2019
1530 Clouds 26 1011 88 10000 1.5 200 18:37 21.09.2019
1531 Clouds 26 1011 88 10000 1.5 200 18:19 21.09.2019
1532 Clouds 26 1011 83 10000 1 0 17:42 21.09.2019
1533 Clouds 26 1011 83 10000 1 0 17:42 21.09.2019
1534 Clouds 26 1011 83 10000 1 0 17:21 21.09.2019
1535 Clouds 26 1011 88 10000 2.1 260 16:44 21.09.2019
1536 Clouds 26 1011 88 10000 2.1 260 16:44 21.09.2019
1537 Clouds 26 1011 88 10000 2.1 260 16:24 21.09.2019
1538 Clouds 26 1011 88 10000 2.1 260 16:24 21.09.2019
1539 Clouds 27 1010 83 10000 3.1 240 15:56 21.09.2019
1540 Clouds 27 1010 83 10000 3.1 240 15:38 21.09.2019
1541 Clouds 27 1010 83 10000 3.1 240 15:19 21.09.2019
1542 Clouds 27 1010 83 10000 3.6 250 14:44 21.09.2019
1543 Clouds 27 1010 83 10000 3.6 250 14:44 21.09.2019
1544 Clouds 27 1010 83 10000 3.6 250 14:26 21.09.2019
1545 Clouds 27 1009 83 10000 4.6 250 13:43 21.09.2019
1546 Clouds 27 1009 83 10000 4.6 250 13:23 21.09.2019
1547 Clouds 27 1008 78 10000 6.2 250 12:57 21.09.2019
1548 Clouds 27 1008 78 10000 6.2 250 12:39 21.09.2019
1549 Clouds 27 1008 78 10000 6.2 250 12:20 21.09.2019
1550 Clouds 28 1008 78 10000 6.2 250 11:51 21.09.2019
1551 Clouds 28 1008 78 10000 6.2 250 11:25 21.09.2019
1552 Clouds 28 1007 74 10000 6.2 250 10:56 21.09.2019
1553 Clouds 29 1007 74 10000 6.2 250 10:38 21.09.2019
1554 Clouds 29 1007 74 10000 6.2 250 10:19 21.09.2019
1555 Clouds 29 1007 70 10000 6.7 260 09:55 21.09.2019
1556 Clouds 29 1007 70 10000 6.7 260 09:36 21.09.2019
1557 Clouds 29 1007 70 10000 6.7 260 09:18 21.09.2019
1558 Clouds 29 1007 74 10000 7.2 250 08:42 21.09.2019
1559 Clouds 29 1007 74 10000 7.2 250 07:58 21.09.2019
1560 Clouds 29 1007 74 10000 7.2 250 07:39 21.09.2019
1561 Clouds 30 1008 74 10000 5.1 260 07:19 21.09.2019
1562 Clouds 29 1008 74 10000 5.1 260 06:35 21.09.2019
1563 Rain 29 1008 78 10000 4.1 250 05:51 21.09.2019
1564 Rain 27 1008 88 9000 3.1 210 04:39 21.09.2019
1565 Rain 27 1009 94 8000 3.1 220 03:31 21.09.2019
1566 Rain 25 1008 94 9000 2.6 210 02:25 21.09.2019
1567 Rain 25 1007 94 10000 1.5 230 01:47 21.09.2019
1568 Rain 25 1007 94 10000 1.5 230 01:23 21.09.2019
1569 Rain 25 1007 94 10000 2.1 240 00:23 21.09.2019
1570 Rain 25 1006 94 10000 3.1 230 23:48 20.09.2019
1571 Rain 25 1006 94 10000 3.1 230 23:48 20.09.2019
1572 Rain 25 1006 94 10000 3.1 230 23:30 20.09.2019
1573 Rain 25 1006 94 10000 2.1 240 22:46 20.09.2019
1574 Rain 25 1006 94 10000 2.1 240 22:26 20.09.2019
1575 Rain 24 1006 88 10000 1.5 290 21:57 20.09.2019
1576 Rain 25 1006 88 10000 1.5 290 21:39 20.09.2019
1577 Rain 24 1006 88 10000 1.5 290 21:21 20.09.2019
1578 Rain 24 1007 94 5000 5.1 260 20:59 20.09.2019
1579 Rain 24 1007 94 5000 5.1 260 20:59 20.09.2019
1580 Rain 24 1007 94 5000 5.1 260 20:41 20.09.2019
1581 Rain 24 1007 94 5000 5.1 260 20:19 20.09.2019
1582 Rain 25 1007 94 6000 2.1 260 19:55 20.09.2019
1583 Rain 25 1007 94 8000 2.6 230 19:36 20.09.2019
1584 Rain 25 1007 94 9000 3.1 240 19:18 20.09.2019
1585 Rain 25 1007 94 9000 3.1 240 18:38 20.09.2019
1586 Rain 25 1008 94 8000 2.6 250 18:18 20.09.2019
1587 Rain 25 1008 94 8000 2.6 250 17:47 20.09.2019
1588 Rain 25 1008 94 8000 2.6 250 17:27 20.09.2019
1589 Rain 25 1008 94 7000 4.6 220 16:54 20.09.2019
1590 Rain 25 1008 94 7000 4.6 220 16:54 20.09.2019
1591 Rain 25 1008 94 7000 4.6 220 16:36 20.09.2019
1592 Rain 25 1008 94 7000 4.6 220 16:18 20.09.2019
1593 Rain 25 1010 93 0 0.45 240 15:41 20.09.2019
1594 Rain 25 1007 88 10000 3.6 230 15:22 20.09.2019
1595 Rain 25 1007 88 10000 3.6 230 14:44 20.09.2019
1596 Rain 26 1007 88 10000 3.6 230 14:20 20.09.2019
1597 Rain 26 1007 88 10000 3.6 230 14:20 20.09.2019
1598 Rain 26 1007 93 0 2.24 170 13:59 20.09.2019
1599 Rain 26 1006 92 0 1.79 181 13:40 20.09.2019
1600 Rain 26 1006 83 10000 3.1 220 13:21 20.09.2019
1601 Rain 27 1006 83 10000 3.1 220 12:40 20.09.2019
1602 Clouds 27 1006 83 10000 3.1 220 12:22 20.09.2019
1603 Clouds 27 1005 78 10000 3.6 230 11:51 20.09.2019
1604 Clouds 28 1005 78 10000 3.6 230 11:25 20.09.2019
1605 Clouds 28 1005 74 10000 5.1 240 10:58 20.09.2019
1606 Clouds 28 1005 74 10000 5.1 240 10:58 20.09.2019
1607 Clouds 28 1005 74 10000 5.1 240 10:40 20.09.2019
1608 Clouds 28 1005 74 10000 5.1 240 10:21 20.09.2019
1609 Clouds 28 1005 78 10000 5.7 240 09:38 20.09.2019
1610 Clouds 28 1005 78 10000 5.7 240 09:19 20.09.2019
1611 Clouds 28 1005 78 10000 5.7 240 09:19 20.09.2019
1612 Rain 28 1006 88 8000 3.6 220 08:47 20.09.2019
1613 Rain 27 1006 88 8000 3.6 220 08:27 20.09.2019
1614 Rain 27 1007 94 4000 6.7 260 07:51 20.09.2019
1615 Rain 27 1007 83 8000 3.1 220 07:29 20.09.2019
1616 Rain 26 1008 94 7000 6.2 240 06:50 20.09.2019
1617 Rain 26 1008 94 7000 6.2 240 06:32 20.09.2019
1618 Rain 26 1008 88 10000 5.7 240 05:58 20.09.2019
1619 Clouds 29 1008 78 10000 6.7 260 04:28 20.09.2019
1620 Clouds 28 1008 83 10000 6.2 260 03:26 20.09.2019
1621 Clouds 26 1008 88 9000 3.6 240 01:45 20.09.2019
1622 Clouds 26 1008 88 9000 3.6 240 01:45 20.09.2019
1623 Clouds 26 1008 88 9000 3.6 240 01:27 20.09.2019
1624 Rain 26 1008 94 8000 4.1 250 00:32 20.09.2019
1625 Rain 26 1007 88 10000 6.2 260 23:46 19.09.2019
1626 Rain 26 1007 88 10000 6.2 260 23:24 19.09.2019
1627 Clouds 25 1007 88 10000 3.1 240 22:57 19.09.2019
1628 Rain 26 1007 88 10000 3.1 240 22:38 19.09.2019
1629 Rain 26 1007 88 10000 3.1 240 22:19 19.09.2019
1630 Clouds 25 1007 88 10000 1 240 21:56 19.09.2019
1631 Rain 26 1007 88 10000 1 240 21:37 19.09.2019
1632 Rain 26 1007 88 10000 1 240 21:18 19.09.2019
1633 Rain 26 1008 88 8000 1 0 20:43 19.09.2019
1634 Rain 26 1008 88 8000 1 0 20:23 19.09.2019
1635 Rain 25 1008 94 8000 1 0 19:56 19.09.2019
1636 Rain 26 1008 94 8000 1 0 19:38 19.09.2019
1637 Rain 26 1009 94 8000 1 0 19:19 19.09.2019
1638 Rain 26 1009 94 8000 1 0 18:55 19.09.2019
1639 Rain 25 1009 94 8000 1 0 18:36 19.09.2019
1640 Rain 26 1009 94 8000 2.6 250 18:18 19.09.2019
1641 Rain 26 1009 94 8000 2.6 250 17:42 19.09.2019
1642 Rain 26 1009 94 8000 2.6 250 17:23 19.09.2019
1643 Rain 25 1009 94 8000 2.6 240 16:57 19.09.2019
1644 Rain 26 1009 94 8000 2.6 240 16:39 19.09.2019
1645 Rain 26 1009 94 8000 2.6 240 16:18 19.09.2019
1646 Rain 26 1010 94 7000 2.6 230 15:39 19.09.2019
1647 Rain 26 1010 94 7000 2.6 230 15:18 19.09.2019
1648 Rain 26 1009 94 7000 4.1 260 14:42 19.09.2019
1649 Rain 26 1009 94 7000 4.1 260 14:24 19.09.2019
1650 Rain 26 1009 94 7000 5.7 250 13:59 19.09.2019
1651 Rain 26 1009 94 7000 5.7 250 13:59 19.09.2019
1652 Rain 26 1009 94 7000 5.7 250 13:39 19.09.2019
1653 Rain 26 1009 94 7000 5.7 250 13:19 19.09.2019
1654 Rain 26 1008 88 8000 5.1 250 12:40 19.09.2019
1655 Rain 26 1008 88 8000 5.1 250 12:40 19.09.2019
1656 Rain 26 1008 88 8000 5.1 250 12:20 19.09.2019
1657 Rain 26 1007 88 9000 5.7 250 11:57 19.09.2019
1658 Rain 26 1007 88 9000 5.7 250 11:38 19.09.2019
1659 Rain 27 1007 88 9000 5.7 250 11:19 19.09.2019
1660 Clouds 27 1007 88 10000 4.6 250 10:41 19.09.2019
1661 Clouds 27 1007 88 10000 4.6 250 10:22 19.09.2019
1662 Rain 27 1007 88 9000 4.6 240 09:59 19.09.2019
1663 Rain 27 1007 88 9000 4.6 240 09:41 19.09.2019
1664 Rain 27 1007 88 9000 4.6 240 09:21 19.09.2019
1665 Rain 27 1007 88 8000 5.1 250 08:55 19.09.2019
1666 Rain 27 1007 88 8000 5.1 250 08:28 19.09.2019
1667 Rain 27 1008 83 10000 7.7 250 07:56 19.09.2019
1668 Rain 27 1008 83 10000 7.7 250 07:38 19.09.2019
1669 Clouds 27 1009 88 10000 6.7 240 07:19 19.09.2019
1670 Rain 27 1009 88 10000 6.7 240 06:43 19.09.2019
1671 Rain 27 1009 88 10000 6.7 240 06:43 19.09.2019
1672 Rain 27 1009 88 10000 6.7 240 06:25 19.09.2019
1673 Rain 27 1009 88 8000 9.3 250 05:50 19.09.2019
1674 Clouds 29 1010 83 10000 7.7 250 04:27 19.09.2019
1675 Rain 29 1010 83 10000 8.7 270 03:21 19.09.2019
1676 Rain 26 1009 88 9000 6.2 240 01:50 19.09.2019
1677 Rain 26 1009 88 9000 6.2 240 01:21 19.09.2019
1678 Rain 26 1009 88 9000 6.7 260 00:47 19.09.2019
1679 Rain 27 1009 88 9000 6.7 260 00:24 19.09.2019
1680 Rain 27 1008 88 8000 4.6 260 23:39 18.09.2019
1681 Rain 27 1008 88 8000 4.6 260 23:20 18.09.2019
1682 Rain 27 1008 88 8000 4.6 260 23:20 18.09.2019
1683 Rain 27 1008 88 8000 6.7 270 22:43 18.09.2019
1684 Rain 27 1008 88 8000 6.7 270 22:20 18.09.2019
1685 Rain 26 1008 94 8000 4.1 240 21:58 18.09.2019
1686 Rain 26 1008 94 8000 4.1 240 21:40 18.09.2019
1687 Rain 26 1008 94 8000 4.1 240 21:18 18.09.2019
1688 Rain 26 1008 94 8000 3.1 240 20:58 18.09.2019
1689 Rain 26 1008 94 8000 3.1 240 20:40 18.09.2019
1690 Rain 26 1008 94 8000 3.1 240 20:22 18.09.2019
1691 Rain 25 1008 94 9000 3.1 230 19:57 18.09.2019
1692 Rain 26 1008 94 9000 3.1 230 19:38 18.09.2019
1693 Rain 26 1009 88 9000 3.6 230 19:19 18.09.2019
1694 Rain 26 1009 88 9000 3.6 230 18:55 18.09.2019
1695 Rain 26 1009 88 9000 3.6 230 18:37 18.09.2019
1696 Rain 26 1009 88 9000 3.6 230 18:37 18.09.2019
1697 Rain 26 1009 88 9000 3.6 230 18:18 18.09.2019
1698 Rain 26 1009 88 9000 3.6 230 18:18 18.09.2019
1699 Rain 26 1009 88 9000 3.6 220 17:56 18.09.2019
1700 Rain 26 1009 88 9000 3.6 220 17:56 18.09.2019
1701 Rain 26 1009 88 9000 3.6 220 17:38 18.09.2019
1702 Rain 26 1009 88 9000 3.6 220 17:18 18.09.2019
1703 Rain 26 1009 88 9000 3.6 220 16:43 18.09.2019
1704 Rain 26 1009 88 9000 3.6 220 16:23 18.09.2019
1705 Rain 26 1009 88 9000 3.6 220 16:23 18.09.2019
1706 Rain 26 1010 94 7000 4.1 240 15:59 18.09.2019
1707 Rain 26 1010 94 7000 4.1 240 15:41 18.09.2019
1708 Rain 26 1010 94 7000 4.1 240 15:21 18.09.2019
1709 Rain 26 1009 73 7000 4.1 240 14:59 18.09.2019
1710 Rain 26 1009 73 7000 4.1 240 14:40 18.09.2019
1711 Rain 26 1009 73 7000 4.1 240 14:22 18.09.2019
1712 Rain 26 1009 83 4000 9.8 260 13:59 18.09.2019
1713 Rain 26 1009 83 4000 9.8 260 13:39 18.09.2019
1714 Rain 26 1008 90 0 2.68 193 13:18 18.09.2019
1715 Rain 26 1008 96 0 4.92 187 12:47 18.09.2019
1716 Rain 27 1008 90 0 2.68 193 12:29 18.09.2019
1717 Rain 27 1007 83 7000 6.2 240 11:55 18.09.2019
1718 Clouds 27 1007 83 7000 6.2 240 11:37 18.09.2019
1719 Rain 27 1007 83 7000 6.2 240 11:18 18.09.2019
1720 Rain 26 1007 88 8000 3.6 230 10:40 18.09.2019
1721 Rain 27 1007 88 8000 3.6 230 10:21 18.09.2019
1722 Rain 26 1006 88 5000 4.6 220 09:58 18.09.2019
1723 Rain 26 1006 88 5000 4.6 220 09:38 18.09.2019
1724 Rain 26 1006 88 5000 4.6 220 09:19 18.09.2019
1725 Rain 25 1006 94 2000 9.8 270 08:42 18.09.2019
1726 Rain 27 1006 94 2000 9.8 270 08:23 18.09.2019
1727 Clouds 30 1007 70 10000 8.7 260 07:53 18.09.2019
1728 Clouds 30 1007 70 10000 8.7 260 07:35 18.09.2019
1729 Clouds 30 1007 66 10000 8.2 250 06:59 18.09.2019
1730 Clouds 30 1007 66 10000 8.2 250 06:35 18.09.2019
1731 Clouds 29 1008 79 10000 6.2 260 05:46 18.09.2019
1732 Clouds 28 1008 74 10000 4.6 240 04:43 18.09.2019
1733 Clouds 29 1008 78 10000 3.6 220 02:41 18.09.2019
1734 Clouds 28 1008 78 10000 3.6 220 02:18 18.09.2019
1735 Clouds 27 1008 83 10000 2.1 200 01:20 18.09.2019
1736 Rain 26 1007 88 8000 1.5 190 00:47 18.09.2019
1737 Rain 26 1006 88 10000 2.6 230 00:19 18.09.2019
1738 Rain 26 1006 88 10000 2.6 230 23:44 17.09.2019
1739 Rain 26 1006 88 10000 2.6 230 23:22 17.09.2019
1740 Rain 26 1006 88 8000 6.2 250 22:42 17.09.2019
1741 Rain 26 1006 88 8000 6.2 250 22:42 17.09.2019
1742 Rain 26 1006 88 8000 6.2 250 22:24 17.09.2019
1743 Rain 26 1006 88 8000 6.2 250 22:24 17.09.2019
1744 Rain 26 1006 88 10000 1.5 190 21:55 17.09.2019
1745 Rain 26 1006 88 10000 1.5 190 21:37 17.09.2019
1746 Rain 26 1006 88 10000 1.5 190 21:18 17.09.2019
1747 Rain 26 1006 88 8000 1.5 180 20:57 17.09.2019
1748 Rain 26 1006 88 8000 1.5 180 20:39 17.09.2019
1749 Rain 26 1006 88 8000 1.5 180 20:21 17.09.2019
1750 Rain 26 1006 88 8000 3.1 200 19:58 17.09.2019
1751 Rain 26 1006 88 8000 3.1 200 19:39 17.09.2019
1752 Rain 26 1007 88 9000 2.1 210 19:19 17.09.2019
1753 Rain 26 1007 88 9000 2.1 210 18:56 17.09.2019
1754 Rain 26 1007 88 9000 2.1 210 18:37 17.09.2019
1755 Rain 26 1007 88 9000 2.1 210 18:19 17.09.2019
1756 Rain 26 1008 88 10000 3.1 200 17:44 17.09.2019
1757 Rain 26 1008 88 10000 3.1 200 17:19 17.09.2019
1758 Rain 26 1008 88 10000 3.1 200 17:19 17.09.2019
1759 Rain 26 1008 83 7000 3.1 250 16:56 17.09.2019
1760 Rain 26 1008 78 10000 3.1 210 16:37 17.09.2019
1761 Rain 27 1008 78 10000 3.1 210 16:19 17.09.2019
1762 Rain 27 1007 83 10000 1.5 190 15:39 17.09.2019
1763 Rain 27 1007 83 10000 1.5 190 15:20 17.09.2019
1764 Rain 27 1007 83 9000 1 0 14:56 17.09.2019
1765 Rain 26 1007 83 9000 1 0 14:37 17.09.2019
1766 Rain 27 1007 83 9000 1 0 14:19 17.09.2019
1767 Rain 27 1006 83 9000 3.6 220 13:43 17.09.2019
1768 Rain 27 1006 83 9000 3.6 220 13:25 17.09.2019
1769 Rain 27 1006 83 9000 3.6 220 13:25 17.09.2019
1770 Rain 27 1005 78 10000 2.6 200 12:56 17.09.2019
1771 Rain 27 1005 78 10000 2.6 200 12:38 17.09.2019
1772 Rain 28 1005 78 10000 3.1 220 12:18 17.09.2019
1773 Rain 28 1005 78 10000 3.1 220 12:18 17.09.2019
1774 Rain 27 1005 78 10000 3.1 220 11:43 17.09.2019
1775 Rain 28 1005 78 10000 3.1 220 11:25 17.09.2019
1776 Rain 28 1005 74 10000 3.6 220 10:56 17.09.2019
1777 Clouds 29 1005 74 10000 3.6 220 10:37 17.09.2019
1778 Clouds 29 1005 74 10000 3.6 220 10:19 17.09.2019
1779 Clouds 29 1005 74 10000 5.1 230 09:41 17.09.2019
1780 Clouds 29 1005 74 10000 5.1 230 09:23 17.09.2019
1781 Clouds 29 1005 79 10000 4.1 220 08:51 17.09.2019
1782 Clouds 29 1005 79 10000 4.1 220 08:51 17.09.2019
1783 Clouds 29 1005 79 10000 4.1 220 08:33 17.09.2019
1784 Rain 28 1006 88 10000 4.1 220 07:59 17.09.2019
1785 Rain 28 1006 88 10000 4.1 220 07:39 17.09.2019
1786 Rain 28 1006 88 10000 4.1 220 07:21 17.09.2019
1787 Rain 28 1006 88 8000 4.6 260 06:47 17.09.2019
1788 Rain 28 1006 88 8000 4.6 260 06:23 17.09.2019
1789 Rain 29 1007 74 10000 5.1 220 05:49 17.09.2019
1790 Clouds 28 1008 78 10000 3.6 240 04:31 17.09.2019
1791 Rain 26 1007 94 9000 1.5 240 02:58 17.09.2019
1792 Rain 26 1007 94 9000 1.5 240 02:38 17.09.2019
1793 Rain 25 1007 94 5000 2.6 220 01:26 17.09.2019
1794 Rain 26 1006 94 10000 5.1 280 00:40 17.09.2019
1795 Rain 25 1006 88 10000 1.5 80 23:40 16.09.2019
1796 Rain 25 1006 88 10000 1.5 80 23:19 16.09.2019
1797 Rain 25 1006 94 10000 1 0 22:56 16.09.2019
1798 Rain 25 1006 94 10000 1 0 22:37 16.09.2019
1799 Rain 25 1006 94 10000 1 0 22:19 16.09.2019
1800 Clouds 25 1005 88 10000 1.5 210 21:41 16.09.2019
1801 Rain 25 1005 88 10000 1.5 210 21:22 16.09.2019
1802 Rain 25 1005 88 10000 2.6 240 20:59 16.09.2019
1803 Rain 25 1005 88 10000 2.6 240 20:40 16.09.2019
1804 Rain 25 1005 88 10000 2.6 240 20:40 16.09.2019
1805 Rain 25 1005 88 10000 2.6 240 20:20 16.09.2019
1806 Rain 25 1006 94 9000 1.5 250 19:57 16.09.2019
1807 Rain 25 1006 94 9000 1.5 250 19:38 16.09.2019
1808 Rain 25 1006 94 7000 2.1 240 19:19 16.09.2019
1809 Rain 26 1006 94 4000 3.1 300 18:46 16.09.2019
1810 Rain 26 1006 94 4000 3.1 300 18:27 16.09.2019
1811 Rain 26 1006 94 9000 0.5 0 17:57 16.09.2019
1812 Rain 26 1006 94 9000 0.5 0 17:38 16.09.2019
1813 Rain 26 1006 94 9000 0.5 0 17:19 16.09.2019
1814 Clouds 26 1006 94 10000 1.5 210 16:44 16.09.2019
1815 Clouds 26 1006 94 10000 1.5 210 16:22 16.09.2019
1816 Rain 26 1006 94 9000 0.5 0 15:57 16.09.2019
1817 Rain 26 1006 94 9000 0.5 0 15:39 16.09.2019
1818 Rain 26 1006 94 9000 0.5 0 15:20 16.09.2019
1819 Rain 26 1006 94 7000 1.5 90 14:58 16.09.2019
1820 Rain 26 1006 94 7000 0.5 0 14:40 16.09.2019
1821 Rain 26 1006 94 7000 0.5 0 14:20 16.09.2019
1822 Rain 26 1006 94 9000 1 0 13:43 16.09.2019
1823 Rain 26 1006 94 9000 1 0 13:22 16.09.2019
1824 Rain 26 1005 94 9000 1.5 350 12:59 16.09.2019
1825 Rain 26 1005 94 9000 1.5 350 12:39 16.09.2019
1826 Rain 26 1005 94 9000 1.5 350 12:21 16.09.2019
1827 Rain 26 1005 94 5000 3.1 260 11:45 16.09.2019
1828 Rain 26 1005 94 5000 3.1 260 11:23 16.09.2019
1829 Rain 26 1005 94 5000 2.6 250 10:56 16.09.2019
1830 Rain 26 1004 88 9000 2.1 250 10:37 16.09.2019
1831 Rain 27 1004 88 9000 2.1 250 10:18 16.09.2019
1832 Rain 26 1005 94 6000 2.6 250 09:42 16.09.2019
1833 Rain 27 1005 94 6000 2.6 250 09:21 16.09.2019
1834 Rain 26 1005 94 3000 3.1 270 08:56 16.09.2019
1835 Rain 26 1005 94 4000 3.1 260 08:38 16.09.2019
1836 Rain 26 1005 94 4000 3.1 260 08:19 16.09.2019
1837 Rain 27 1006 88 9000 6.2 260 07:41 16.09.2019
1838 Rain 27 1006 88 9000 6.2 260 07:21 16.09.2019
1839 Rain 28 1006 88 9000 5.1 260 06:55 16.09.2019
1840 Rain 28 1006 88 9000 5.1 260 06:36 16.09.2019
1841 Rain 27 1007 88 9000 5.1 240 06:18 16.09.2019
1842 Rain 27 1007 88 9000 5.1 240 05:41 16.09.2019
1843 Rain 27 1007 88 9000 5.1 240 05:18 16.09.2019
1844 Rain 26 1008 94 8000 5.1 260 03:36 16.09.2019
1845 Rain 25 1007 94 6000 1.5 310 00:58 16.09.2019
1846 Rain 26 1007 94 6000 1.5 310 00:38 16.09.2019
1847 Rain 26 1007 94 6000 1.5 310 00:20 16.09.2019
1848 Rain 26 1007 94 4600 2.6 250 23:39 15.09.2019
1849 Rain 26 1007 94 4600 2.6 250 23:20 15.09.2019
1850 Rain 26 1007 94 7000 2.1 240 22:39 15.09.2019
1851 Rain 26 1007 94 7000 2.1 240 22:20 15.09.2019
1852 Rain 25 1007 94 10000 2.1 250 21:57 15.09.2019
1853 Rain 26 1007 94 10000 2.1 250 21:39 15.09.2019
1854 Rain 26 1007 94 10000 2.1 250 21:20 15.09.2019
1855 Rain 26 1007 94 9000 3.1 240 20:46 15.09.2019
1856 Rain 25 1007 94 9000 3.1 240 20:27 15.09.2019
1857 Rain 26 1007 94 10000 3.1 230 19:58 15.09.2019
1858 Rain 26 1007 94 10000 3.1 230 19:40 15.09.2019
1859 Rain 26 1007 94 10000 3.1 230 19:22 15.09.2019
1860 Rain 26 1008 94 8000 3.6 230 18:40 15.09.2019
1861 Rain 26 1008 94 8000 3.6 230 18:22 15.09.2019
1862 Rain 26 1008 88 8000 2.1 250 17:56 15.09.2019
1863 Rain 26 1008 88 8000 2.1 250 17:36 15.09.2019
1864 Rain 26 1008 88 8000 2.1 250 17:18 15.09.2019
1865 Rain 26 1008 88 10000 3.6 240 16:42 15.09.2019
1866 Rain 26 1008 88 10000 3.6 240 16:22 15.09.2019
1867 Rain 26 1008 94 10000 2.1 230 15:57 15.09.2019
1868 Rain 26 1008 94 10000 2.1 230 15:38 15.09.2019
1869 Rain 26 1008 94 10000 2.1 230 15:19 15.09.2019
1870 Rain 26 1008 94 10000 2.1 230 15:19 15.09.2019
1871 Rain 26 1007 94 9000 2.6 240 14:55 15.09.2019
1872 Rain 26 1007 94 9000 2.6 240 14:55 15.09.2019
1873 Rain 26 1007 94 9000 2.6 240 14:55 15.09.2019
1874 Rain 26 1007 94 9000 2.6 240 14:37 15.09.2019
1875 Rain 26 1007 94 9000 2.6 240 14:19 15.09.2019
1876 Rain 26 1007 94 5000 4.6 250 13:43 15.09.2019
1877 Rain 26 1007 94 5000 4.6 250 13:22 15.09.2019
1878 Rain 26 1007 94 5000 4.6 250 13:22 15.09.2019
1879 Rain 27 1006 88 7000 3.6 240 12:43 15.09.2019
1880 Rain 27 1006 88 7000 3.6 240 12:24 15.09.2019
1881 Clouds 27 1005 83 10000 5.7 240 11:58 15.09.2019
1882 Clouds 27 1005 83 10000 5.7 240 11:58 15.09.2019
1883 Clouds 27 1005 83 10000 5.7 240 11:40 15.09.2019
1884 Clouds 27 1005 83 10000 5.7 240 11:21 15.09.2019
1885 Clouds 27 1006 78 10000 4.1 230 10:46 15.09.2019
1886 Clouds 28 1006 78 10000 4.1 230 10:23 15.09.2019
1887 Rain 28 1006 74 10000 6.2 220 09:58 15.09.2019
1888 Rain 28 1006 74 10000 6.2 220 09:37 15.09.2019
1889 Rain 28 1006 74 10000 6.2 220 09:19 15.09.2019
1890 Rain 28 1006 79 10000 6.2 220 08:46 15.09.2019
1891 Rain 29 1006 79 10000 6.2 220 08:26 15.09.2019
1892 Rain 28 1007 78 10000 4.1 230 07:48 15.09.2019
1893 Rain 28 1007 78 10000 4.1 230 07:26 15.09.2019
1894 Rain 27 1008 88 9000 3.6 250 06:39 15.09.2019
1895 Rain 29 1009 79 10000 3.1 220 03:25 15.09.2019
1896 Rain 27 1009 83 10000 2.1 220 02:32 15.09.2019
1897 Rain 26 1009 88 10000 1.5 220 01:39 15.09.2019
1898 Rain 26 1009 88 10000 1.5 220 01:19 15.09.2019
1899 Rain 26 1008 88 10000 1 0 00:39 15.09.2019
1900 Rain 26 1008 88 10000 1 0 00:20 15.09.2019
1901 Rain 26 1007 88 10000 0.5 0 23:57 14.09.2019
1902 Rain 26 1007 88 10000 0.5 0 23:39 14.09.2019
1903 Rain 26 1007 88 10000 0.5 0 23:21 14.09.2019
1904 Rain 26 1007 88 10000 0.5 0 22:58 14.09.2019
1905 Rain 26 1007 88 10000 0.5 0 22:39 14.09.2019
1906 Rain 26 1007 88 10000 0.5 0 22:19 14.09.2019
1907 Rain 26 1007 88 10000 1 0 21:40 14.09.2019
1908 Rain 26 1007 88 10000 1 0 21:21 14.09.2019
1909 Rain 26 1008 88 10000 1 0 20:59 14.09.2019
1910 Rain 26 1008 88 10000 1 0 20:59 14.09.2019
1911 Rain 26 1008 88 10000 1 0 20:40 14.09.2019
1912 Rain 26 1008 88 10000 1 0 20:22 14.09.2019
1913 Rain 26 1008 100 9000 2.6 250 19:51 14.09.2019
1914 Rain 26 1008 100 9000 2.6 250 19:23 14.09.2019
1915 Rain 26 1008 100 9000 2.6 250 19:23 14.09.2019
1916 Rain 26 1009 94 9000 2.1 250 18:58 14.09.2019
1917 Rain 26 1009 94 9000 2.1 250 18:39 14.09.2019
1918 Rain 26 1009 94 9000 2.1 250 18:20 14.09.2019
1919 Clouds 26 1009 94 10000 0.5 230 17:55 14.09.2019
1920 Clouds 26 1009 94 10000 0.5 230 17:37 14.09.2019
1921 Rain 26 1009 94 10000 0.5 230 17:18 14.09.2019
1922 Rain 26 1009 94 10000 6.05 214.612 16:42 14.09.2019
1923 Rain 26 1009 94 10000 6.05 214.612 16:19 14.09.2019
1924 Rain 26 1009 94 9000 1.5 190 15:42 14.09.2019
1925 Rain 26 1009 94 9000 1.5 190 15:23 14.09.2019
1926 Rain 26 1009 94 9000 1.5 190 15:23 14.09.2019
1927 Rain 27 1009 88 10000 2.1 230 14:58 14.09.2019
1928 Rain 27 1009 88 10000 2.1 230 14:39 14.09.2019
1929 Rain 27 1009 88 10000 2.1 230 14:18 14.09.2019
1930 Rain 26 1008 88 10000 2.1 210 13:47 14.09.2019
1931 Rain 26 1008 88 10000 2.1 210 13:22 14.09.2019
1932 Rain 27 1007 88 10000 4.6 270 12:46 14.09.2019
1933 Rain 27 1007 88 10000 4.6 270 12:24 14.09.2019
1934 Clouds 28 1007 88 10000 4.6 260 11:41 14.09.2019
1935 Clouds 28 1007 88 10000 4.6 260 11:20 14.09.2019
1936 Clouds 28 1006 83 10000 1.5 40 10:41 14.09.2019
1937 Clouds 28 1006 83 10000 1.5 40 10:22 14.09.2019
1938 Rain 28 1006 83 10000 1.5 0 09:59 14.09.2019
1939 Rain 28 1006 83 10000 1.5 0 09:40 14.09.2019
1940 Rain 28 1006 83 10000 1.5 0 09:21 14.09.2019
1941 Rain 27 1006 88 9000 1 220 08:57 14.09.2019
1942 Rain 27 1006 88 9000 1 220 08:38 14.09.2019
1943 Rain 27 1006 88 9000 1 220 08:19 14.09.2019
1944 Thunderstorm 28 1007 88 4000 5.7 200 07:43 14.09.2019
1945 Thunderstorm 28 1007 88 4000 5.7 200 07:21 14.09.2019
1946 Clouds 30 1007 70 10000 3.6 280 06:35 14.09.2019
1947 Clouds 32 1007 62 10000 2.1 0 05:53 14.09.2019
1948 Clouds 31 1008 66 10000 2.6 0 04:27 14.09.2019
1949 Clouds 30 1008 74 10000 2.6 130 03:20 14.09.2019
1950 Clouds 29 1007 78 10000 1 0 02:42 14.09.2019
1951 Clouds 29 1007 78 10000 1 0 02:42 14.09.2019
1952 Rain 26 1007 94 4000 1.5 180 01:45 14.09.2019
1953 Rain 26 1007 94 4000 1.5 180 01:19 14.09.2019
1954 Rain 26 1007 88 10000 1 130 00:40 14.09.2019
1955 Rain 26 1007 88 10000 1 130 00:21 14.09.2019
1956 Clouds 26 1006 94 10000 1 190 23:56 13.09.2019
1957 Clouds 26 1006 94 10000 1 190 23:37 13.09.2019
1958 Rain 26 1006 94 10000 1 190 23:18 13.09.2019
1959 Rain 26 1006 94 10000 1 100 22:41 13.09.2019
1960 Clouds 26 1006 94 10000 1 100 22:22 13.09.2019
1961 Rain 26 1006 94 10000 1.5 80 21:59 13.09.2019
1962 Rain 26 1006 94 10000 1.5 80 21:39 13.09.2019
1963 Rain 26 1006 94 10000 1.5 80 21:19 13.09.2019
1964 Clouds 26 1006 83 10000 0.5 0 20:57 13.09.2019
1965 Clouds 26 1006 83 10000 0.5 0 20:57 13.09.2019
1966 Clouds 26 1006 83 10000 0.5 0 20:57 13.09.2019
1967 Clouds 27 1006 83 10000 0.5 0 20:37 13.09.2019
1968 Rain 27 1006 83 10000 0.5 0 20:19 13.09.2019
1969 Rain 26 1006 88 10000 2.1 60 19:44 13.09.2019
1970 Rain 26 1006 88 10000 2.1 60 19:44 13.09.2019
1971 Rain 26 1006 88 10000 2.1 60 19:23 13.09.2019
1972 Rain 27 1007 83 10000 1 0 18:59 13.09.2019
1973 Rain 27 1007 83 10000 1 0 18:38 13.09.2019
1974 Rain 27 1007 88 10000 1 0 18:19 13.09.2019
1975 Rain 27 1007 88 10000 1 0 17:44 13.09.2019
1976 Rain 27 1007 88 10000 1 0 17:22 13.09.2019
1977 Rain 27 1007 78 10000 1.5 160 16:59 13.09.2019
1978 Rain 27 1007 78 10000 1.5 160 16:40 13.09.2019
1979 Rain 27 1007 78 10000 1.5 160 16:19 13.09.2019
1980 Rain 27 1007 83 10000 2.1 170 15:42 13.09.2019
1981 Rain 27 1007 83 10000 2.1 170 15:23 13.09.2019
1982 Rain 27 1006 83 10000 2.1 160 14:55 13.09.2019
1983 Rain 27 1006 83 10000 2.1 160 14:55 13.09.2019
1984 Rain 27 1006 83 10000 2.1 160 14:55 13.09.2019
1985 Rain 27 1006 83 10000 2.1 160 14:55 13.09.2019
1986 Rain 27 1006 83 10000 2.1 160 14:36 13.09.2019
1987 Rain 27 1006 83 10000 2.1 160 14:18 13.09.2019
1988 Rain 27 1006 83 10000 2.1 160 14:18 13.09.2019
1989 Rain 28 1006 83 10000 2.1 150 13:40 13.09.2019
1990 Rain 28 1006 83 10000 2.1 150 13:21 13.09.2019
1991 Rain 28 1005 79 10000 2.1 160 12:45 13.09.2019
1992 Rain 28 1005 79 10000 2.1 160 12:24 13.09.2019
1993 Clouds 29 1004 79 10000 1.5 140 11:57 13.09.2019
1994 Rain 28 1004 79 10000 1.5 140 11:20 13.09.2019
1995 Clouds 30 1003 74 10000 1.5 0 10:42 13.09.2019
1996 Clouds 30 1003 74 10000 1.5 0 10:21 13.09.2019
1997 Clouds 30 1003 74 10000 2.1 110 09:56 13.09.2019
1998 Clouds 30 1003 74 10000 2.1 110 09:37 13.09.2019
1999 Clouds 30 1003 74 10000 2.1 110 09:37 13.09.2019
2000 Clouds 30 1003 74 10000 2.1 110 09:19 13.09.2019
2001 Clouds 30 1004 74 9000 2.1 230 08:42 13.09.2019
2002 Clouds 30 1004 74 9000 2.1 230 08:21 13.09.2019
2003 Clouds 30 1005 74 9000 3.1 270 07:59 13.09.2019
2004 Clouds 31 1005 74 9000 3.1 270 07:40 13.09.2019
2005 Clouds 30 1005 74 10000 4.1 280 06:55 13.09.2019
2006 Clouds 30 1005 74 10000 4.1 280 06:37 13.09.2019
2007 Clouds 31 1006 62 10000 1 320 05:32 13.09.2019
2008 Clouds 28 1006 83 9000 1.5 0 03:48 13.09.2019
2009 Clouds 28 1006 83 9000 1.5 0 03:24 13.09.2019
2010 Clouds 27 1005 83 9000 1.5 90 02:19 13.09.2019
2011 Clouds 26 1005 88 8000 0.5 0 01:35 13.09.2019
2012 Clouds 25 1004 94 8000 1 110 00:59 13.09.2019
2013 Rain 26 1004 94 8000 1 110 00:34 13.09.2019
2014 Clouds 25 1004 94 10000 1 90 23:47 12.09.2019
2015 Rain 26 1004 94 10000 1 90 23:23 12.09.2019
2016 Clouds 25 1004 94 10000 1 100 22:56 12.09.2019
2017 Rain 26 1004 94 10000 1 100 22:38 12.09.2019
2018 Rain 26 1004 94 10000 1 100 22:20 12.09.2019
2019 Rain 26 1004 94 10000 1.5 60 21:55 12.09.2019
2020 Clouds 25 1004 94 10000 1.5 60 21:36 12.09.2019
2021 Rain 26 1004 94 10000 1.5 60 21:18 12.09.2019
2022 Rain 26 1004 94 10000 1 0 20:43 12.09.2019
2023 Rain 26 1004 94 10000 1 0 20:22 12.09.2019
2024 Clouds 25 1005 94 10000 1 0 19:57 12.09.2019
2025 Rain 26 1005 94 10000 1 0 19:38 12.09.2019
2026 Rain 26 1005 94 10000 1 0 19:38 12.09.2019
2027 Rain 26 1005 94 10000 1 0 19:19 12.09.2019
2028 Rain 26 1005 94 10000 1 0 19:19 12.09.2019
2029 Rain 26 1005 94 10000 1 0 19:19 12.09.2019
2030 Rain 26 1005 94 10000 1 0 18:39 12.09.2019
2031 Rain 26 1005 94 10000 1 0 18:21 12.09.2019
2032 Rain 26 1005 74 10000 2.1 20 18:00 12.09.2019
2033 Rain 26 1005 74 10000 2.1 20 17:40 12.09.2019
2034 Rain 26 1005 74 10000 2.1 20 17:39 12.09.2019
2035 Rain 26 1005 74 10000 2.1 20 17:20 12.09.2019
2036 Rain 26 1005 78 10000 1.5 0 16:55 12.09.2019
2037 Clouds 25 1005 78 10000 1.5 0 16:36 12.09.2019
2038 Rain 26 1005 78 10000 1.5 0 16:18 12.09.2019
2039 Rain 26 1006 100 10000 2.6 90 15:39 12.09.2019
2040 Rain 26 1006 100 10000 2.6 90 15:21 12.09.2019
2041 Rain 26 1008 90 0 2.68 193 14:45 12.09.2019
2042 Rain 26 1005 88 10000 2.6 20 14:21 12.09.2019
2043 Rain 26 1005 88 10000 2.6 20 13:55 12.09.2019
2044 Clouds 26 1005 88 10000 2.6 20 13:37 12.09.2019
2045 Rain 26 1005 88 10000 2.6 20 13:18 12.09.2019
2046 Rain 27 1004 83 9000 2.6 300 12:43 12.09.2019
2047 Rain 27 1008 90 0 2.68 193 12:19 12.09.2019
2048 Rain 26 1004 92 0 1.34 335 11:55 12.09.2019
2049 Rain 26 1004 92 0 0.89 5 11:37 12.09.2019
2050 Rain 26 1004 88 9000 2.6 300 11:19 12.09.2019
2051 Rain 26 1004 88 9000 2.6 300 10:44 12.09.2019
2052 Rain 26 1004 88 9000 2.6 300 10:24 12.09.2019
2053 Rain 26 1004 83 9000 2.1 0 09:44 12.09.2019
2054 Rain 26 1004 83 9000 2.1 0 09:21 12.09.2019
2055 Rain 26 1005 88 8000 3.1 270 08:58 12.09.2019
2056 Rain 26 1005 88 8000 3.1 270 08:39 12.09.2019
2057 Rain 26 1005 88 8000 3.1 270 08:21 12.09.2019
2058 Rain 26 1006 94 5000 2.6 280 07:39 12.09.2019
2059 Rain 26 1007 94 3000 2.6 250 07:19 12.09.2019
2060 Rain 26 1007 94 3000 2.6 250 06:50 12.09.2019
2061 Rain 26 1007 94 3000 2.6 250 06:50 12.09.2019
2062 Rain 26 1007 94 3000 2.6 250 06:19 12.09.2019
2063 Rain 26 1007 94 5000 1.5 230 05:48 12.09.2019
2064 Rain 26 1007 94 5000 1.5 230 05:27 12.09.2019
2065 Rain 27 1007 88 5000 1 0 04:34 12.09.2019
2066 Clouds 26 1006 94 7000 2.1 210 01:48 12.09.2019
2067 Clouds 26 1006 94 7000 2.1 210 01:30 12.09.2019
2068 Clouds 26 1006 88 10000 1.5 300 00:58 12.09.2019
2069 Rain 26 1006 88 10000 1.5 300 00:40 12.09.2019
2070 Rain 26 1006 88 10000 1.5 300 00:22 12.09.2019
2071 Rain 26 1005 88 10000 1.5 240 23:41 11.09.2019
2072 Rain 26 1005 88 10000 1.5 240 23:20 11.09.2019
2073 Clouds 25 1005 88 10000 1 20 22:56 11.09.2019
2074 Clouds 25 1005 88 10000 1 20 22:37 11.09.2019
2075 Rain 26 1005 88 10000 1 20 22:18 11.09.2019
2076 Rain 26 1006 94 10000 1.5 270 21:42 11.09.2019
2077 Rain 26 1006 94 10000 1.5 270 21:24 11.09.2019
2078 Rain 26 1007 88 8000 1.5 240 20:57 11.09.2019
2079 Rain 26 1007 88 8000 1.5 240 20:38 11.09.2019
2080 Rain 26 1007 88 8000 1.5 240 20:19 11.09.2019
2081 Rain 26 1007 88 8000 1.5 240 20:19 11.09.2019
2082 Rain 26 1007 88 8000 1.5 240 20:19 11.09.2019
2083 Rain 26 1007 88 8000 1.5 240 20:19 11.09.2019
2084 Rain 26 1008 88 8000 1.5 210 19:57 11.09.2019
2085 Rain 26 1008 88 8000 1.5 210 19:57 11.09.2019
2086 Rain 26 1008 88 8000 1.5 210 19:39 11.09.2019
2087 Rain 26 1008 88 8000 1.5 210 19:39 11.09.2019
2088 Rain 26 1008 88 8000 1.5 210 19:19 11.09.2019
2089 -273 0 0 0 0 0 18:55 11.09.2019
2090 Clouds 26 1008 88 10000 0.5 0 18:37 11.09.2019
2091 Rain 26 1010 88 10000 0.5 0 18:18 11.09.2019
2092 Rain 26 1010 88 10000 0.5 0 17:41 11.09.2019
2093 Rain 26 1010 88 10000 0.5 0 17:22 11.09.2019
2094 Clouds 25 1009 88 10000 0.5 0 16:57 11.09.2019
2095 Rain 26 1009 88 10000 0.5 0 16:39 11.09.2019
2096 Rain 26 1009 88 10000 0.5 0 16:20 11.09.2019
2097 Clouds 25 1009 88 10000 1 0 15:47 11.09.2019
2098 Rain 26 1009 88 10000 1 0 15:24 11.09.2019
2099 Rain 26 1008 88 9000 2.1 20 14:59 11.09.2019
2100 Rain 26 1008 88 9000 2.1 20 14:40 11.09.2019
2101 Rain 24 1008 88 9000 2.1 20 14:20 11.09.2019
2102 Rain 26 1008 88 9000 4.1 30 13:58 11.09.2019
2103 Rain 24 1008 88 9000 4.1 30 13:37 11.09.2019
2104 Rain 25 1008 88 9000 4.1 30 13:18 11.09.2019
2105 Rain 27 1008 83 9000 5.1 250 12:42 11.09.2019
2106 Rain 27 1008 83 9000 5.1 250 12:21 11.09.2019
2107 Rain 27 1008 90 0 2.68 193 11:58 11.09.2019
2108 Clouds 28 1007 81 0 3.13 285 11:38 11.09.2019
2109 Rain 28 1008 90 0 2.68 193 11:19 11.09.2019
2110 Clouds 28 1007 83 10000 5.1 250 10:41 11.09.2019
2111 Clouds 28 1007 83 10000 5.1 250 10:22 11.09.2019
2112 Clouds 29 1007 79 10000 5.1 260 09:57 11.09.2019
2113 Clouds 29 1007 79 10000 5.1 260 09:37 11.09.2019
2114 Clouds 29 1007 79 10000 5.1 260 09:37 11.09.2019
2115 Clouds 29 1007 79 10000 5.1 260 09:18 11.09.2019
2116 Clouds 29 1007 79 10000 5.1 260 09:18 11.09.2019
2117 Clouds 29 1008 79 10000 7.2 270 08:40 11.09.2019
2118 Clouds 29 1008 79 10000 7.2 270 08:40 11.09.2019
2119 Clouds 30 1008 79 10000 7.2 270 08:21 11.09.2019
2120 Clouds 29 1009 83 10000 5.1 270 07:49 11.09.2019
2121 Clouds 29 1009 83 10000 5.1 270 07:24 11.09.2019
2122 Clouds 29 1010 79 10000 5.1 270 06:56 11.09.2019
2123 Clouds 29 1010 79 10000 5.1 270 06:36 11.09.2019
2124 Clouds 29 1011 78 10000 3.6 270 05:50 11.09.2019
2125 Clouds 29 1011 78 10000 3.6 270 05:30 11.09.2019
2126 Clouds 29 1011 78 10000 2.6 320 04:52 11.09.2019
2127 Clouds 27 1012 74 10000 2.1 0 03:40 11.09.2019
2128 Clouds 27 1012 74 10000 2.1 0 03:40 11.09.2019
2129 Clouds 27 1012 74 10000 2.1 0 03:20 11.09.2019
2130 Clouds 27 1011 83 10000 3.1 0 02:28 11.09.2019
2131 Clouds 26 1010 83 10000 1 0 01:21 11.09.2019
2132 Rain 26 1010 83 8000 1.5 280 00:31 11.09.2019
2133 Rain 26 1010 83 10000 1.5 330 23:58 10.09.2019
2134 Rain 26 1010 83 10000 1.5 330 23:39 10.09.2019
2135 Rain 26 1010 83 10000 1.5 330 23:39 10.09.2019
2136 Rain 26 1010 83 10000 1.5 330 23:20 10.09.2019
2137 Rain 26 1010 83 10000 1.5 310 22:41 10.09.2019
2138 Rain 26 1010 83 10000 1.5 310 22:20 10.09.2019
2139 Clouds 26 1010 83 10000 2.1 360 21:56 10.09.2019
2140 Rain 26 1010 83 10000 2.1 360 21:38 10.09.2019
2141 Rain 26 1010 83 10000 2.1 360 21:20 10.09.2019
2142 Rain 26 1010 83 10000 3.1 10 20:58 10.09.2019
2143 Rain 26 1010 83 10000 3.1 10 20:40 10.09.2019
2144 Rain 26 1010 83 10000 3.1 10 20:22 10.09.2019
2145 Clouds 26 1011 83 10000 3.1 20 19:57 10.09.2019
2146 Clouds 26 1011 83 10000 3.1 20 19:38 10.09.2019
2147 Rain 27 1011 83 10000 2.1 350 19:19 10.09.2019
2148 Clouds 26 1011 83 10000 2.1 350 18:56 10.09.2019
2149 Clouds 26 1011 83 10000 2.1 350 18:37 10.09.2019
2150 Rain 26 1011 88 10000 1.5 0 18:19 10.09.2019
2151 Rain 26 1011 88 10000 1.5 0 17:44 10.09.2019
2152 Rain 26 1011 88 10000 1.5 0 17:23 10.09.2019
2153 Rain 27 1012 83 10000 2.6 270 16:59 10.09.2019
2154 Rain 27 1012 83 10000 2.6 270 16:59 10.09.2019
2155 Rain 27 1012 83 10000 2.6 270 16:40 10.09.2019
2156 Rain 27 1012 83 10000 2.6 270 16:21 10.09.2019
2157 Rain 27 1012 83 10000 2.6 270 16:21 10.09.2019
2158 Clouds 27 1012 83 10000 2.1 250 15:59 10.09.2019
2159 Rain 27 1012 83 10000 2.1 250 15:40 10.09.2019
2160 Rain 27 1012 83 10000 2.1 250 15:20 10.09.2019
2161 Rain 27 1011 78 10000 2.6 270 14:42 10.09.2019
2162 Rain 27 1011 78 10000 2.6 270 14:24 10.09.2019
2163 Clouds 27 1010 78 10000 1.5 280 13:56 10.09.2019
2164 Clouds 27 1010 78 10000 1.5 280 13:37 10.09.2019
2165 Rain 27 1010 78 10000 1.5 280 13:19 10.09.2019
2166 Rain 27 1010 78 10000 2.1 290 12:43 10.09.2019
2167 Rain 27 1010 78 10000 2.1 290 12:24 10.09.2019
2168 Rain 27 1009 78 10000 3.1 290 11:57 10.09.2019
2169 Rain 27 1009 78 10000 3.1 290 11:57 10.09.2019
2170 Rain 27 1009 78 10000 3.1 290 11:39 10.09.2019
2171 Clouds 28 1009 74 10000 3.1 280 11:20 10.09.2019
2172 Clouds 28 1009 74 10000 3.1 280 10:42 10.09.2019
2173 Clouds 28 1009 74 10000 2.6 0 10:19 10.09.2019
2174 Clouds 28 1009 74 10000 2.6 0 09:56 10.09.2019
2175 Clouds 28 1009 74 10000 2.6 0 09:37 10.09.2019
2176 Rain 28 1009 74 10000 2.6 290 09:18 10.09.2019
2177 Rain 28 1009 74 10000 2.6 290 08:44 10.09.2019
2178 Rain 28 1009 74 10000 2.6 290 08:26 10.09.2019
2179 Rain 28 1010 83 10000 3.1 320 07:45 10.09.2019
2180 Rain 27 1010 83 10000 3.1 320 07:26 10.09.2019
2181 Rain 27 1010 83 10000 3.1 310 06:53 10.09.2019
2182 Rain 27 1010 83 10000 3.1 310 06:35 10.09.2019
2183 Rain 28 1011 78 10000 2.6 290 05:24 10.09.2019
2184 Rain 27 1011 88 10000 4.1 260 03:50 10.09.2019
2185 Clouds 26 1010 83 10000 3.1 250 02:23 10.09.2019
2186 Clouds 26 1010 83 10000 3.1 250 02:23 10.09.2019
2187 Rain 26 1010 94 9000 2.1 270 01:57 10.09.2019
2188 Rain 26 1010 94 9000 2.1 270 01:39 10.09.2019
2189 Rain 25 1009 94 9000 2.1 220 00:46 10.09.2019
2190 Rain 26 1009 94 9000 2.1 220 00:25 10.09.2019
2191 Rain 24 1008 88 10000 2.1 230 23:47 09.09.2019
2192 Rain 25 1008 94 10000 3.1 210 23:20 09.09.2019
2193 Rain 24 1008 94 10000 3.1 210 22:56 09.09.2019
2194 Rain 25 1008 94 10000 3.1 210 22:38 09.09.2019
2195 Rain 25 1008 88 10000 4.6 260 22:20 09.09.2019
2196 Rain 24 1008 88 10000 4.6 260 21:57 09.09.2019
2197 Rain 25 1008 88 10000 4.6 260 21:38 09.09.2019
2198 Rain 25 1009 94 10000 4.1 270 21:20 09.09.2019
2199 Rain 24 1009 94 10000 4.1 270 20:56 09.09.2019
2200 Rain 24 1009 94 10000 4.1 270 20:37 09.09.2019
2201 Rain 26 1010 94 9000 3.6 340 20:19 09.09.2019
2202 Rain 24 1010 94 9000 3.6 340 19:57 09.09.2019
2203 Rain 24 1010 94 9000 3.6 340 19:39 09.09.2019
2204 Rain 25 1010 88 9000 3.6 320 19:19 09.09.2019
2205 Rain 25 1010 88 9000 3.6 320 19:19 09.09.2019
2206 Rain 25 1010 88 9000 3.6 320 18:57 09.09.2019
2207 Rain 25 1010 88 9000 3.6 320 18:39 09.09.2019
2208 Rain 25 1010 94 10000 0.5 0 18:20 09.09.2019
2209 Clouds 25 1010 94 10000 0.5 0 17:57 09.09.2019
2210 Clouds 25 1010 94 10000 0.5 0 17:39 09.09.2019
2211 Clouds 25 1010 94 10000 1 0 17:20 09.09.2019
2212 Clouds 25 1010 94 10000 1 0 16:55 09.09.2019
2213 Clouds 25 1010 94 10000 1 0 16:37 09.09.2019
2214 Clouds 24 1010 94 10000 1 0 16:18 09.09.2019
2215 Clouds 24 1010 94 10000 1 0 15:44 09.09.2019
2216 Clouds 24 1010 94 10000 1 0 15:24 09.09.2019
2217 Clouds 24 1010 94 10000 2.1 10 14:59 09.09.2019
2218 Clouds 24 1010 94 10000 2.1 10 14:40 09.09.2019
2219 Clouds 24 1010 94 10000 2.1 10 14:22 09.09.2019
2220 Rain 24 1010 88 9000 3.1 350 13:58 09.09.2019
2221 Rain 24 1010 88 9000 3.1 350 13:40 09.09.2019
2222 Rain 24 1009 94 6000 3.1 330 13:19 09.09.2019
2223 Rain 24 1009 94 6000 3.1 330 12:55 09.09.2019
2224 Rain 24 1009 94 6000 3.1 330 12:36 09.09.2019
2225 Rain 24 1010 88 3000 5.7 320 12:18 09.09.2019
2226 Rain 24 1010 88 7000 6.2 340 11:43 09.09.2019
2227 Rain 25 1009 88 3000 5.7 10 11:20 09.09.2019
2228 Rain 27 1009 88 3000 5.7 10 10:54 09.09.2019
2229 Rain 27 1008 88 8000 2.6 0 10:36 09.09.2019
2230 Rain 27 1008 88 8000 2.6 340 10:18 09.09.2019
2231 Rain 28 1008 83 10000 6.7 270 09:46 09.09.2019
2232 Rain 28 1008 83 10000 6.7 270 09:27 09.09.2019
2233 Clouds 28 1008 74 9000 7.2 260 08:56 09.09.2019
2234 Clouds 29 1008 74 9000 7.2 260 08:37 09.09.2019
2235 Clouds 29 1008 74 9000 6.2 260 08:18 09.09.2019
2236 Clouds 29 1008 74 9000 6.2 260 07:41 09.09.2019
2237 Clouds 29 1009 74 9000 7.7 270 07:20 09.09.2019
2238 Clouds 29 1009 74 9000 7.7 270 06:53 09.09.2019
2239 Clouds 30 1009 74 9000 7.7 270 06:27 09.09.2019
2240 Rain 29 1009 83 9000 2.1 230 03:21 09.09.2019
2241 Clouds 28 1009 88 9000 2.1 220 02:41 09.09.2019
2242 Rain 27 1007 88 8000 1 0 01:24 09.09.2019
2243 Rain 27 1008 88 9000 1 0 01:24 09.09.2019
2244 Rain 27 1007 88 8000 1 0 00:24 09.09.2019
2245 Rain 27 1008 94 9000 2.1 240 23:55 08.09.2019
2246 Rain 27 1008 94 9000 2.1 240 23:37 08.09.2019
2247 Rain 27 1008 88 9000 2.1 290 23:19 08.09.2019
2248 Rain 27 1008 88 9000 2.1 290 22:40 08.09.2019
2249 Rain 26 1008 88 8000 6.7 270 22:22 08.09.2019
2250 Rain 26 1008 88 8000 6.7 270 21:58 08.09.2019
2251 Rain 26 1008 88 8000 6.7 270 21:39 08.09.2019
2252 Rain 26 1008 88 8000 6.7 270 21:39 08.09.2019
2253 Rain 26 1008 88 8000 6.7 270 21:21 08.09.2019
2254 Rain 27 1008 88 10000 2.1 230 20:41 08.09.2019
2255 Rain 27 1008 88 10000 2.1 230 20:22 08.09.2019
2256 Rain 27 1009 88 10000 3.1 220 19:59 08.09.2019
2257 Rain 27 1009 88 10000 3.1 220 19:39 08.09.2019
2258 Rain 26 1009 88 10000 1 0 19:21 08.09.2019
2259 Rain 26 1009 88 10000 1 0 19:21 08.09.2019
2260 Rain 26 1009 88 10000 1 0 18:58 08.09.2019
2261 Rain 26 1009 88 10000 1 0 18:39 08.09.2019
2262 Rain 26 1010 88 10000 1 0 18:19 08.09.2019
2263 Rain 26 1010 88 10000 1 0 17:58 08.09.2019
2264 Clouds 26 1010 88 10000 1 0 17:37 08.09.2019
2265 Rain 26 1011 88 10000 1 0 17:18 08.09.2019
2266 Rain 26 1011 88 10000 1 0 16:54 08.09.2019
2267 Rain 26 1011 88 10000 1 0 16:54 08.09.2019
2268 Clouds 26 1011 88 10000 1 0 16:36 08.09.2019
2269 Rain 26 1010 94 10000 2.1 270 16:18 08.09.2019
2270 Rain 26 1010 94 10000 2.1 270 15:41 08.09.2019
2271 Rain 26 1010 94 10000 2.1 270 15:22 08.09.2019
2272 Rain 26 1010 94 9000 4.1 260 14:59 08.09.2019
2273 Clouds 27 1010 94 9000 4.1 260 14:39 08.09.2019
2274 Clouds 26 1010 94 9000 4.1 260 14:20 08.09.2019
2275 Rain 26 1010 88 4000 3.6 250 13:57 08.09.2019
2276 Rain 26 1009 88 9000 3.1 240 13:38 08.09.2019
2277 Rain 26 1009 88 0 3.1 250 13:20 08.09.2019
2278 Rain 26 1009 88 0 3.1 250 12:43 08.09.2019
2279 Rain 26 1009 88 0 3.1 250 12:24 08.09.2019
2280 Rain 26 1008 94 5000 3.6 240 12:24 08.09.2019
2281 Rain 26 1008 94 5000 3.6 240 11:59 08.09.2019
2282 Rain 26 1009 94 750 6.7 250 11:40 08.09.2019
2283 Clouds 28 1008 74 10000 3.6 250 11:20 08.09.2019
2284 Clouds 29 1008 74 10000 3.6 250 10:59 08.09.2019
2285 Clouds 29 1008 74 10000 3.6 250 10:40 08.09.2019
2286 Clouds 29 1008 74 10000 3.6 250 10:22 08.09.2019
2287 Rain 28 1007 88 9000 5.7 230 09:40 08.09.2019
2288 Rain 28 1007 88 9000 5.7 230 09:21 08.09.2019
2289 Clouds 30 1008 74 10000 8.2 270 08:57 08.09.2019
2290 Clouds 31 1008 74 10000 8.2 270 08:39 08.09.2019
2291 Clouds 31 1008 74 10000 8.2 270 08:39 08.09.2019
2292 Clouds 31 1008 74 10000 8.2 270 08:18 08.09.2019
2293 Clouds 31 1008 74 10000 8.2 270 07:40 08.09.2019
2294 Clouds 31 1008 70 10000 7.7 260 07:21 08.09.2019
2295 Clouds 31 1008 70 10000 7.7 260 06:53 08.09.2019
2296 Clouds 31 1008 70 10000 7.7 260 06:33 08.09.2019
2297 Clouds 31 1009 74 9000 7.2 270 05:39 08.09.2019
2298 Clouds 31 1009 66 10000 6.2 250 04:26 08.09.2019
2299 Clouds 31 1009 74 10000 3.6 230 02:59 08.09.2019
2300 Clouds 30 1009 74 10000 3.6 230 02:29 08.09.2019
2301 Clouds 29 1009 83 8000 2.1 240 01:52 08.09.2019
2302 Clouds 28 1009 83 8000 2.1 240 01:22 08.09.2019
2303 Clouds 27 1008 88 8000 2.1 230 00:45 08.09.2019
2304 Clouds 27 1008 88 8000 2.1 230 00:27 08.09.2019
2305 Clouds 27 1008 88 10000 2.1 220 23:39 07.09.2019
2306 Clouds 27 1008 88 10000 2.1 220 23:21 07.09.2019
2307 Clouds 27 1008 83 10000 2.1 230 22:58 07.09.2019
2308 Clouds 28 1008 83 10000 2.1 230 22:39 07.09.2019
2309 Clouds 27 1008 83 8000 2.1 230 22:20 07.09.2019
2310 Clouds 28 1008 83 8000 2.1 230 21:42 07.09.2019
2311 Clouds 28 1008 83 8000 2.1 230 21:24 07.09.2019
2312 Clouds 28 1008 83 8000 1.5 230 20:57 07.09.2019
2313 Clouds 28 1008 83 8000 1.5 230 20:38 07.09.2019
2314 Clouds 28 1009 83 8000 1.5 210 20:19 07.09.2019
2315 Clouds 28 1009 83 8000 1.5 210 19:55 07.09.2019
2316 Clouds 28 1009 83 8000 1.5 210 19:37 07.09.2019
2317 Clouds 28 1009 83 8000 1.5 210 19:18 07.09.2019
2318 Clouds 28 1009 83 8000 1.5 210 18:55 07.09.2019
2319 Clouds 28 1009 83 8000 1.5 210 18:36 07.09.2019
2320 Clouds 28 1009 83 8000 3.6 250 18:18 07.09.2019
2321 Clouds 28 1009 83 8000 3.6 250 17:56 07.09.2019
2322 Clouds 28 1009 83 8000 3.6 250 17:37 07.09.2019
2323 Clouds 28 1009 83 10000 2.6 240 17:18 07.09.2019
2324 Clouds 28 1009 83 10000 2.6 240 16:43 07.09.2019
2325 Clouds 28 1009 83 10000 2.6 240 16:21 07.09.2019
2326 Clouds 28 1009 83 10000 2.6 230 15:50 07.09.2019
2327 Clouds 28 1009 83 10000 2.6 230 15:27 07.09.2019
2328 Clouds 28 1009 78 10000 3.6 220 14:59 07.09.2019
2329 Clouds 28 1009 78 10000 3.6 220 14:38 07.09.2019
2330 Clouds 28 1009 74 10000 4.6 240 14:20 07.09.2019
2331 Clouds 28 1009 74 10000 4.6 240 14:20 07.09.2019
2332 Clouds 28 1009 74 10000 4.6 240 13:59 07.09.2019
2333 Clouds 28 1009 74 10000 4.6 240 13:41 07.09.2019
2334 Clouds 28 1009 74 10000 4.6 240 13:23 07.09.2019
2335 Clouds 29 1008 74 10000 5.1 230 12:45 07.09.2019
2336 Clouds 29 1008 74 10000 5.1 230 12:26 07.09.2019
2337 Clouds 30 1007 66 10000 7.2 250 11:58 07.09.2019
2338 Clouds 30 1007 66 10000 7.2 250 11:39 07.09.2019
2339 Clouds 30 1007 70 10000 7.7 260 11:19 07.09.2019
2340 Clouds 31 1007 70 10000 7.7 260 10:41 07.09.2019
2341 Clouds 31 1007 70 10000 7.7 260 10:22 07.09.2019
2342 Clouds 31 1007 74 10000 7.2 260 09:56 07.09.2019
2343 Clouds 30 1007 74 10000 7.2 260 09:37 07.09.2019
2344 Clouds 30 1007 74 10000 7.2 260 09:37 07.09.2019
2345 Rain 31 1007 74 10000 5.7 230 09:19 07.09.2019
2346 Rain 30 1007 74 10000 5.7 230 08:44 07.09.2019
2347 Rain 30 1007 74 10000 5.7 230 08:25 07.09.2019
2348 Clouds 30 1007 66 10000 7.7 250 07:46 07.09.2019
2349 Clouds 31 1007 66 10000 7.7 250 07:27 07.09.2019
2350 Clouds 31 1008 70 10000 7.7 350 06:50 07.09.2019
2351 Clouds 31 1008 70 10000 6.2 240 06:20 07.09.2019
2352 Clouds 30 1009 70 10000 5.1 230 04:49 07.09.2019
2353 Clouds 30 1009 70 10000 5.1 230 04:23 07.09.2019
2354 Clouds 30 1009 79 10000 4.1 230 02:49 07.09.2019
2355 Clouds 28 1008 78 10000 3.1 220 01:53 07.09.2019
2356 Clouds 28 1008 78 10000 3.1 220 01:53 07.09.2019
2357 Clouds 28 1008 78 10000 3.1 220 01:23 07.09.2019
2358 Clouds 27 1007 83 10000 2.1 230 00:40 07.09.2019
2359 Clouds 27 1007 88 10000 1 220 00:19 07.09.2019
2360 Clouds 27 1007 88 10000 1 220 23:40 06.09.2019
2361 Clouds 27 1007 88 10000 1 220 23:22 06.09.2019
2362 Clouds 26 1007 88 10000 1.5 220 22:58 06.09.2019
2363 Clouds 26 1007 88 10000 1.5 220 22:38 06.09.2019
2364 Clouds 26 1007 88 10000 1 0 22:19 06.09.2019
2365 Clouds 26 1007 88 10000 1 0 22:19 06.09.2019
2366 Clouds 26 1007 88 10000 1 0 21:57 06.09.2019
2367 Clouds 26 1007 88 10000 1 0 21:39 06.09.2019
2368 Clouds 26 1008 88 10000 3.1 240 21:20 06.09.2019
2369 Clouds 26 1008 88 10000 3.1 240 20:57 06.09.2019
2370 Clouds 26 1008 88 10000 3.1 240 20:38 06.09.2019
2371 Clouds 26 1008 94 10000 2.6 250 20:19 06.09.2019
2372 -273 0 0 0 0 0 19:55 06.09.2019
2373 Clouds 26 1008 94 10000 2.6 250 19:37 06.09.2019
2374 Rain 26 1009 94 7000 6.7 250 19:18 06.09.2019
2375 Rain 26 1009 94 7000 6.7 250 18:41 06.09.2019
2376 Rain 27 1009 83 8000 3.6 260 18:23 06.09.2019
2377 Rain 27 1009 83 8000 3.6 260 17:57 06.09.2019
2378 Rain 27 1009 83 8000 3.6 260 17:57 06.09.2019
2379 Clouds 27 1009 78 10000 4.1 260 17:37 06.09.2019
2380 Clouds 28 1009 83 10000 7.2 260 17:19 06.09.2019
2381 Clouds 27 1009 83 10000 7.2 260 16:39 06.09.2019
2382 Clouds 28 1009 79 10000 3.1 230 16:18 06.09.2019
2383 Clouds 28 1009 79 10000 3.1 230 15:42 06.09.2019
2384 Clouds 29 1009 79 10000 3.1 230 15:23 06.09.2019
2385 Clouds 29 1008 79 10000 2.6 230 14:48 06.09.2019
2386 Clouds 29 1007 74 10000 3.6 240 14:20 06.09.2019
2387 Clouds 29 1007 74 10000 3.6 240 13:59 06.09.2019
2388 Clouds 29 1007 74 10000 3.6 240 13:41 06.09.2019
2389 Clouds 29 1007 70 10000 4.6 240 13:19 06.09.2019
2390 Clouds 29 1007 70 10000 4.6 240 12:38 06.09.2019
2391 Clouds 30 1006 66 10000 6.2 240 12:18 06.09.2019
2392 Clouds 30 1006 66 10000 6.2 240 11:43 06.09.2019
2393 Clouds 30 1006 66 10000 6.2 240 11:24 06.09.2019
2394 Clouds 31 1006 66 10000 6.7 240 10:59 06.09.2019
2395 Clouds 31 1006 66 10000 6.7 240 10:40 06.09.2019
2396 Clouds 31 1006 66 10000 6.7 240 10:21 06.09.2019
2397 Clouds 31 1006 62 10000 7.2 250 09:40 06.09.2019
2398 Clouds 31 1006 62 10000 7.2 250 09:21 06.09.2019
2399 Clouds 31 1006 62 10000 8.7 260 08:58 06.09.2019
2400 Clouds 31 1006 62 10000 8.7 260 08:39 06.09.2019
2401 Clouds 31 1006 62 10000 8.7 260 08:39 06.09.2019
2402 Clouds 31 1006 66 10000 9.8 260 08:20 06.09.2019
2403 Clouds 32 1006 66 10000 9.8 260 07:45 06.09.2019
2404 Clouds 32 1006 66 10000 9.8 260 07:27 06.09.2019
2405 Clouds 32 1007 62 10000 8.2 240 06:56 06.09.2019
2406 Clouds 32 1007 62 10000 8.2 240 06:19 06.09.2019
2407 Clouds 32 1007 62 10000 8.2 240 05:41 06.09.2019
2408 Clouds 31 1008 66 10000 7.2 250 04:45 06.09.2019
2409 Clouds 31 1007 70 10000 7.2 240 03:49 06.09.2019
2410 Clouds 30 1007 79 10000 3.6 230 01:54 06.09.2019
2411 Clouds 28 1007 78 10000 3.1 220 00:41 06.09.2019
2412 Clouds 28 1006 78 10000 3.6 220 23:45 05.09.2019
2413 Clouds 28 1006 78 10000 3.6 220 23:45 05.09.2019
2414 Clouds 28 1006 78 10000 3.6 220 23:25 05.09.2019
2415 Clouds 28 1006 78 10000 3.1 220 22:58 05.09.2019
2416 Clouds 28 1006 78 10000 3.1 220 22:58 05.09.2019
2417 Clouds 28 1006 78 10000 3.1 220 22:40 05.09.2019
2418 Clouds 28 1006 78 10000 3.1 220 22:40 05.09.2019
2419 Clouds 28 1006 78 10000 3.1 220 22:22 05.09.2019
2420 Clouds 28 1006 78 10000 2.6 230 21:56 05.09.2019
2421 Clouds 28 1006 78 10000 2.6 230 21:37 05.09.2019
2422 Clouds 29 1006 74 10000 3.1 220 21:19 05.09.2019
2423 Clouds 29 1006 74 10000 3.1 220 20:56 05.09.2019
2424 Clouds 29 1006 74 10000 3.1 220 20:37 05.09.2019
2425 Clouds 29 1007 74 10000 3.1 230 20:19 05.09.2019
2426 Clouds 29 1007 74 10000 3.1 230 19:42 05.09.2019
2427 Clouds 29 1007 74 10000 3.1 230 19:24 05.09.2019
2428 Clouds 29 1007 74 10000 3.1 230 18:58 05.09.2019
2429 Clouds 29 1007 74 10000 4.6 260 18:40 05.09.2019
2430 Clouds 28 1008 78 10000 3.6 260 18:20 05.09.2019
2431 Clouds 28 1008 78 10000 3.6 260 17:56 05.09.2019
2432 Clouds 28 1008 78 10000 3.6 260 17:37 05.09.2019
2433 Clouds 28 1008 78 10000 2.1 250 17:19 05.09.2019
2434 Clouds 27 1008 78 10000 2.1 250 16:41 05.09.2019
2435 Clouds 27 1008 78 10000 1.5 300 16:20 05.09.2019
2436 Clouds 28 1008 78 10000 1.5 300 15:58 05.09.2019
2437 Clouds 28 1008 78 10000 1.5 300 15:39 05.09.2019
2438 Clouds 28 1008 78 10000 1.5 300 15:39 05.09.2019
2439 Clouds 28 1008 74 10000 5.7 270 15:18 05.09.2019
2440 Clouds 28 1008 74 10000 5.7 270 15:18 05.09.2019
2441 Clouds 28 1008 74 10000 5.7 270 14:43 05.09.2019
2442 Clouds 28 1008 74 10000 5.7 270 14:22 05.09.2019
2443 Clouds 29 1008 66 10000 5.7 260 13:44 05.09.2019
2444 Clouds 29 1008 66 10000 5.7 260 13:23 05.09.2019
2445 Clouds 29 1007 66 10000 6.2 250 12:59 05.09.2019
2446 Clouds 30 1007 66 10000 6.2 250 12:41 05.09.2019
2447 Clouds 30 1007 66 10000 6.2 250 12:41 05.09.2019
2448 Clouds 30 1006 66 10000 6.7 250 12:22 05.09.2019
2449 Clouds 30 1006 66 10000 6.7 250 11:44 05.09.2019
2450 Clouds 31 1006 66 10000 7.2 250 11:20 05.09.2019
2451 Clouds 31 1006 66 10000 7.2 250 10:57 05.09.2019
2452 Clouds 31 1006 66 10000 7.2 250 10:36 05.09.2019
2453 Clouds 31 1006 70 10000 7.2 270 10:18 05.09.2019
2454 Clouds 31 1006 70 10000 7.2 270 09:40 05.09.2019
2455 Clouds 31 1007 70 10000 8.2 270 09:20 05.09.2019
2456 Clouds 31 1007 70 10000 8.2 270 08:55 05.09.2019
2457 Clouds 31 1007 70 10000 8.2 270 08:55 05.09.2019
2458 Clouds 31 1007 70 10000 8.2 270 08:37 05.09.2019
2459 Clouds 31 1007 66 10000 7.7 270 08:19 05.09.2019
2460 Clouds 32 1007 66 10000 7.7 270 07:42 05.09.2019
2461 Clouds 32 1007 66 10000 7.7 270 07:23 05.09.2019
2462 Clouds 31 1008 70 10000 9.3 260 06:44 05.09.2019
2463 Clouds 31 1009 70 10000 8.2 260 06:22 05.09.2019
2464 Clouds 31 1009 70 10000 8.2 260 05:42 05.09.2019
2465 Clouds 31 1009 70 10000 8.2 260 05:23 05.09.2019
2466 Clouds 31 1009 70 10000 5.1 260 04:30 05.09.2019
2467 Clouds 31 1009 74 10000 5.7 260 03:46 05.09.2019
2468 Clouds 30 1009 79 10000 3.1 270 02:56 05.09.2019
2469 Clouds 29 1009 79 10000 3.1 270 02:28 05.09.2019
2470 Clouds 29 1008 78 10000 2.6 220 01:48 05.09.2019
2471 Clouds 28 1008 78 10000 2.6 230 00:51 05.09.2019
2472 Clouds 28 1007 78 10000 3.6 240 00:23 05.09.2019
2473 Clouds 28 1007 78 10000 3.6 240 23:59 04.09.2019
2474 Clouds 28 1007 78 10000 3.6 240 23:39 04.09.2019
2475 Clouds 28 1007 78 9000 3.1 230 23:19 04.09.2019
2476 Clouds 28 1007 78 9000 3.1 230 22:47 04.09.2019
2477 Clouds 27 1007 88 10000 3.6 250 22:19 04.09.2019
2478 Clouds 27 1007 88 10000 3.6 250 21:41 04.09.2019
2479 Clouds 27 1007 88 10000 3.6 250 21:21 04.09.2019
2480 Clouds 28 1007 78 10000 2.1 230 20:59 04.09.2019
2481 Clouds 28 1007 78 10000 2.1 230 20:40 04.09.2019
2482 Clouds 28 1008 78 10000 1.5 240 20:20 04.09.2019
2483 Clouds 28 1008 78 10000 1.5 240 19:59 04.09.2019
2484 Clouds 28 1008 78 10000 1.5 240 19:39 04.09.2019
2485 Clouds 28 1008 78 10000 2.1 220 19:20 04.09.2019
2486 Clouds 28 1008 78 10000 2.1 220 18:41 04.09.2019
2487 Clouds 28 1009 78 10000 3.1 230 18:23 04.09.2019
2488 Clouds 28 1009 78 10000 3.1 230 18:23 04.09.2019
2489 Clouds 28 1009 78 10000 3.1 230 17:56 04.09.2019
2490 Clouds 28 1009 78 10000 3.1 230 17:56 04.09.2019
2491 Clouds 28 1009 78 10000 3.1 230 17:38 04.09.2019
2492 Clouds 28 1009 74 10000 2.1 230 17:20 04.09.2019
2493 Clouds 29 1009 74 10000 2.1 230 16:48 04.09.2019
2494 Clouds 29 1009 74 10000 2.1 230 16:28 04.09.2019
2495 Clouds 29 1009 70 10000 1.5 230 15:59 04.09.2019
2496 Clouds 29 1009 70 10000 1.5 230 15:39 04.09.2019
2497 Clouds 29 1008 74 10000 2.1 230 15:21 04.09.2019
2498 Clouds 29 1008 74 10000 2.1 230 14:58 04.09.2019
2499 Clouds 29 1008 74 10000 2.1 230 14:37 04.09.2019
2500 Clouds 29 1008 74 10000 3.1 340 14:19 04.09.2019
2501 Clouds 29 1008 74 10000 3.1 340 13:55 04.09.2019
2502 Clouds 29 1008 74 10000 3.1 340 13:36 04.09.2019
2503 Clouds 29 1007 70 10000 5.1 270 13:18 04.09.2019
2504 Clouds 29 1007 70 10000 5.1 270 12:40 04.09.2019
2505 Clouds 30 1007 66 10000 5.1 270 12:22 04.09.2019
2506 Clouds 30 1007 66 10000 5.1 270 11:55 04.09.2019
2507 Clouds 30 1007 66 10000 5.1 270 11:37 04.09.2019
2508 Clouds 30 1006 70 10000 6.2 270 11:18 04.09.2019
2509 Clouds 31 1006 70 10000 6.2 270 10:44 04.09.2019
2510 Clouds 31 1006 70 10000 6.2 270 10:25 04.09.2019
2511 Clouds 31 1007 70 10000 6.7 290 09:57 04.09.2019
2512 Clouds 31 1007 70 10000 6.7 290 09:39 04.09.2019
2513 Clouds 31 1007 70 10000 5.7 270 09:18 04.09.2019
2514 Clouds 32 1007 70 10000 5.7 270 08:41 04.09.2019
2515 Clouds 31 1007 70 10000 5.7 270 08:23 04.09.2019
2516 Clouds 32 1007 66 10000 6.2 280 07:50 04.09.2019
2517 Clouds 32 1007 66 10000 6.2 280 07:32 04.09.2019
2518 Clouds 32 1007 66 10000 6.2 280 07:32 04.09.2019
2519 Clouds 32 1008 66 10000 6.2 270 06:42 04.09.2019
2520 Clouds 31 1008 66 10000 5.1 270 06:20 04.09.2019
2521 Clouds 31 1009 66 10000 6.7 260 04:52 04.09.2019
2522 Clouds 31 1009 70 10000 5.1 240 04:18 04.09.2019
2523 Clouds 28 1009 83 10000 6.31 230.255 01:39 04.09.2019
2524 Clouds 27 1008 88 10000 1 120 00:54 04.09.2019
2525 Clouds 26 1008 88 10000 1 120 00:32 04.09.2019
2526 Clouds 27 1008 88 10000 1 80 23:55 03.09.2019
2527 Clouds 27 1008 88 10000 1 80 23:28 03.09.2019
2528 Clouds 27 1008 88 10000 1 90 22:59 03.09.2019
2529 Clouds 26 1008 88 10000 1 90 22:40 03.09.2019
2530 Clouds 27 1008 88 10000 2.1 60 22:21 03.09.2019
2531 Clouds 27 1008 88 10000 2.1 60 21:56 03.09.2019
2532 Clouds 27 1008 88 10000 2.1 60 21:56 03.09.2019
2533 Clouds 27 1008 88 10000 2.1 60 21:56 03.09.2019
2534 Clouds 27 1008 88 10000 2.1 60 21:37 03.09.2019
2535 Clouds 27 1008 88 10000 2.1 60 21:37 03.09.2019
2536 Clouds 27 1008 88 10000 1.5 120 21:19 03.09.2019
2537 Clouds 26 1008 88 10000 1.5 120 20:42 03.09.2019
2538 Clouds 26 1009 88 10000 1.5 130 20:24 03.09.2019
2539 Clouds 27 1008 88 10000 1.5 120 20:24 03.09.2019
2540 Clouds 27 1009 88 10000 1.5 130 19:56 03.09.2019
2541 Clouds 27 1009 88 10000 1.5 130 19:38 03.09.2019
2542 Clouds 27 1009 88 10000 1.5 130 19:38 03.09.2019
2543 Clouds 27 1009 88 10000 1.5 130 19:19 03.09.2019
2544 Clouds 27 1009 88 10000 1.5 180 18:47 03.09.2019
2545 Clouds 27 1009 88 10000 1.5 180 18:27 03.09.2019
2546 Clouds 27 1010 88 10000 1.5 120 17:59 03.09.2019
2547 Clouds 26 1010 88 10000 1.5 120 17:41 03.09.2019
2548 Clouds 26 1010 88 10000 1.5 100 17:20 03.09.2019
2549 Clouds 27 1010 88 10000 1.5 100 16:58 03.09.2019
2550 Clouds 27 1010 88 10000 1.5 100 16:38 03.09.2019
2551 Rain 26 1010 88 9000 1 90 16:20 03.09.2019
2552 Rain 26 1010 88 9000 1 90 16:20 03.09.2019
2553 Rain 26 1010 88 9000 1 90 15:41 03.09.2019
2554 Rain 26 1010 88 9000 1 90 15:21 03.09.2019
2555 Rain 27 1009 88 10000 5.2 225.811 14:58 03.09.2019
2556 Rain 26 1009 88 10000 5.2 225.811 14:40 03.09.2019
2557 Clouds 26 1008 83 10000 5.2 225.811 14:20 03.09.2019
2558 Clouds 27 1008 83 10000 5.2 225.811 13:57 03.09.2019
2559 Clouds 27 1008 83 10000 5.2 225.811 13:57 03.09.2019
2560 Clouds 28 1008 83 10000 5.2 225.811 13:37 03.09.2019
2561 Clouds 27 1007 78 10000 2.1 300 13:19 03.09.2019
2562 Clouds 27 1007 78 10000 2.1 300 13:19 03.09.2019
2563 Clouds 27 1007 78 10000 2.1 300 12:50 03.09.2019
2564 Clouds 27 1007 78 10000 2.1 300 12:31 03.09.2019
2565 Clouds 28 1008 83 9000 2.1 240 11:59 03.09.2019
2566 Clouds 27 1008 83 9000 2.1 240 11:39 03.09.2019
2567 Rain 26 1008 83 8000 5.1 260 11:20 03.09.2019
2568 Rain 27 1008 83 8000 5.1 260 10:55 03.09.2019
2569 Rain 27 1008 83 8000 5.1 260 10:37 03.09.2019
2570 Rain 27 1008 88 8000 5.7 250 10:18 03.09.2019
2571 Rain 27 1008 88 8000 5.7 250 09:42 03.09.2019
2572 Rain 27 1008 88 8000 5.7 250 09:24 03.09.2019
2573 Rain 26 1008 94 5000 4.6 240 08:41 03.09.2019
2574 Rain 25 1008 94 5000 4.6 240 08:23 03.09.2019
2575 Rain 26 1008 94 1000 7.7 230 07:58 03.09.2019
2576 Clouds 29 1008 83 10000 5.7 280 07:37 03.09.2019
2577 Clouds 29 1008 83 10000 5.7 280 07:37 03.09.2019
2578 Rain 27 1008 94 3000 11.8 270 07:19 03.09.2019
2579 Rain 27 1008 94 3000 11.8 270 06:43 03.09.2019
2580 Clouds 31 1009 66 10000 5.7 230 04:41 03.09.2019
2581 Clouds 30 1009 78 10000 2.6 240 03:33 03.09.2019
2582 Clouds 28 1009 78 10000 2.6 250 02:40 03.09.2019
2583 Clouds 27 1008 83 10000 1 0 02:22 03.09.2019
2584 Clouds 26 1008 83 10000 1 0 01:46 03.09.2019
2585 Clouds 26 1008 83 10000 1 0 01:27 03.09.2019
2586 Rain 26 1008 88 9000 1.5 240 00:37 03.09.2019
2587 Rain 26 1008 88 9000 1.5 250 23:59 02.09.2019
2588 Rain 26 1008 88 9000 1.5 250 23:38 02.09.2019
2589 Rain 26 1007 88 9000 1.5 220 23:19 02.09.2019
2590 Rain 26 1007 88 9000 1.5 220 23:19 02.09.2019
2591 Rain 26 1007 88 9000 1.5 220 22:56 02.09.2019
2592 Rain 26 1007 88 9000 1.5 220 22:56 02.09.2019
2593 Rain 26 1007 88 9000 1.5 220 22:56 02.09.2019
2594 Rain 26 1007 88 9000 1.5 220 22:37 02.09.2019
2595 Rain 26 1008 88 9000 1.5 220 22:18 02.09.2019
2596 Rain 26 1008 88 9000 1.5 220 21:56 02.09.2019
2597 Rain 26 1008 88 9000 1.5 220 21:37 02.09.2019
2598 Rain 26 1008 88 8000 3.1 250 21:19 02.09.2019
2599 Rain 25 1008 88 8000 3.1 250 20:42 02.09.2019
2600 Rain 26 1008 88 8000 3.1 250 20:23 02.09.2019
2601 Rain 26 1008 88 8000 3.1 250 19:59 02.09.2019
2602 Rain 25 1008 88 8000 3.1 250 19:41 02.09.2019
2603 Rain 25 1008 88 8000 3.1 250 19:41 02.09.2019
2604 Rain 25 1008 88 8000 3.1 250 19:23 02.09.2019
2605 Rain 27 1009 88 8000 4.1 260 18:57 02.09.2019
2606 Rain 27 1009 88 8000 4.1 260 18:37 02.09.2019
2607 Rain 27 1009 88 8000 4.1 260 18:37 02.09.2019
2608 Rain 26 1009 94 8000 4.6 250 18:18 02.09.2019
2609 Rain 26 1009 94 8000 4.6 250 17:54 02.09.2019
2610 Rain 26 1009 94 8000 4.6 250 17:54 02.09.2019
2611 Rain 26 1009 94 8000 4.6 250 17:36 02.09.2019
2612 Rain 27 1009 88 9000 1.5 240 17:18 02.09.2019
2613 Rain 27 1009 88 9000 1.5 240 17:18 02.09.2019
2614 Rain 26 1009 88 10000 1.5 0 16:40 02.09.2019
2615 Rain 26 1009 88 10000 2.6 230 16:20 02.09.2019
2616 Clouds 26 1009 88 10000 2.6 230 15:52 02.09.2019
2617 Clouds 26 1009 88 10000 2.6 230 15:31 02.09.2019
2618 Clouds 27 1009 83 10000 4.1 230 14:58 02.09.2019
2619 Clouds 27 1009 83 10000 4.1 230 14:58 02.09.2019
2620 Clouds 26 1009 83 10000 4.1 230 14:40 02.09.2019
2621 Clouds 26 1009 83 10000 4.1 230 14:22 02.09.2019
2622 Rain 27 1008 83 10000 1.5 230 13:57 02.09.2019
2623 Rain 27 1008 83 10000 1.5 230 13:39 02.09.2019
2624 Rain 26 1007 83 10000 3.1 220 13:20 02.09.2019
2625 Rain 27 1007 83 10000 3.1 220 12:45 02.09.2019
2626 Rain 26 1007 83 10000 3.1 220 12:26 02.09.2019
2627 Clouds 28 1006 74 10000 5.1 250 11:59 02.09.2019
2628 Clouds 28 1006 74 10000 5.1 250 11:39 02.09.2019
2629 Clouds 29 1006 74 10000 5.1 250 11:21 02.09.2019
2630 Rain 28 1006 74 10000 52 250 10:57 02.09.2019
2631 Rain 28 1006 74 10000 52 250 10:38 02.09.2019
2632 Clouds 28 1006 79 10000 4.6 270 10:20 02.09.2019
2633 Clouds 28 1006 79 10000 4.6 270 09:46 02.09.2019
2634 Rain 29 1006 79 10000 4.6 270 09:22 02.09.2019
2635 Rain 28 1006 83 10000 6.2 260 08:58 02.09.2019
2636 Rain 28 1006 83 10000 6.2 260 08:38 02.09.2019
2637 Rain 28 1006 83 10000 7.7 260 08:18 02.09.2019
2638 Rain 28 1006 83 10000 7.7 260 07:40 02.09.2019
2639 Clouds 29 1007 74 10000 3.6 300 07:21 02.09.2019
2640 Clouds 30 1007 74 10000 3.6 300 06:45 02.09.2019
2641 Clouds 30 1007 70 10000 3.1 250 06:25 02.09.2019
2642 Clouds 30 1007 70 10000 3.1 250 05:48 02.09.2019
2643 Clouds 30 1007 74 10000 3.1 280 05:18 02.09.2019
2644 Rain 29 1008 78 10000 5.1 250 04:18 02.09.2019
2645 Clouds 28 1007 88 9000 2.1 160 01:45 02.09.2019
2646 Clouds 27 1007 94 10000 1 200 00:48 02.09.2019
2647 Clouds 26 1007 94 10000 1 200 00:30 02.09.2019
2648 Clouds 26 1006 88 10000 2.1 80 23:44 01.09.2019
2649 Clouds 26 1006 88 10000 2.1 80 23:22 01.09.2019
2650 Clouds 26 1006 88 10000 1 110 22:59 01.09.2019
2651 Clouds 26 1006 88 10000 1 110 22:39 01.09.2019
2652 Clouds 26 1006 88 10000 1 120 22:19 01.09.2019
2653 Clouds 26 1006 88 10000 1 120 21:57 01.09.2019
2654 Clouds 26 1006 88 10000 1 120 21:38 01.09.2019
2655 Clouds 26 1006 88 10000 1 110 21:20 01.09.2019
2656 Clouds 26 1006 88 10000 1 110 20:56 01.09.2019
2657 Clouds 26 1006 88 10000 1 110 20:36 01.09.2019
2658 Clouds 26 1006 88 10000 0.5 0 20:18 01.09.2019
2659 Clouds 26 1006 88 10000 0.5 0 20:18 01.09.2019
2660 Clouds 26 1006 88 10000 0.5 0 19:56 01.09.2019
2661 Clouds 26 1006 88 10000 0.5 0 19:37 01.09.2019
2662 Clouds 26 1006 88 10000 0.5 0 19:18 01.09.2019
2663 Clouds 26 1007 88 10000 1 0 18:42 01.09.2019
2664 Clouds 26 1008 88 10000 1 0 18:24 01.09.2019
2665 Clouds 26 1008 88 10000 1 0 17:55 01.09.2019
2666 Clouds 26 1008 88 10000 1 0 17:37 01.09.2019
2667 Rain 26 1009 88 10000 1 0 17:18 01.09.2019
2668 Rain 26 1009 88 10000 1 0 16:39 01.09.2019
2669 Clouds 26 1008 88 10000 0.5 0 16:18 01.09.2019
2670 Clouds 26 1008 88 10000 0.5 0 15:47 01.09.2019
2671 Clouds 26 1008 88 10000 0.5 0 15:29 01.09.2019
2672 Clouds 26 1008 88 10000 1 0 14:56 01.09.2019
2673 Clouds 26 1008 88 10000 1 0 14:37 01.09.2019
2674 Rain 25 1007 94 10000 2.1 230 14:19 01.09.2019
2675 Rain 25 1007 94 10000 2.1 230 13:42 01.09.2019
2676 Rain 25 1007 94 10000 2.1 230 13:24 01.09.2019
2677 Rain 26 1007 94 4000 2.1 190 12:56 01.09.2019
2678 Rain 26 1007 94 4000 2.1 190 12:37 01.09.2019
2679 Rain 26 1007 94 5000 1 0 12:19 01.09.2019
2680 Rain 26 1006 94 2500 1.5 0 11:40 01.09.2019
2681 Rain 27 1005 78 10000 5.1 210 11:20 01.09.2019
2682 Rain 27 1005 78 10000 5.1 210 10:57 01.09.2019
2683 Rain 27 1005 78 10000 5.1 210 10:57 01.09.2019
2684 Rain 28 1005 78 10000 5.1 210 10:38 01.09.2019
2685 Clouds 29 1005 74 10000 5.1 260 10:20 01.09.2019
2686 Clouds 29 1005 74 10000 5.1 260 09:42 01.09.2019
2687 Clouds 30 1005 74 10000 5.1 260 09:23 01.09.2019
2688 Clouds 31 1005 70 10000 5.1 270 08:43 01.09.2019
2689 Clouds 31 1005 70 10000 5.1 270 08:22 01.09.2019
2690 Clouds 32 1006 55 10000 2.6 150 07:47 01.09.2019
2691 Clouds 33 1006 55 10000 2.6 150 07:23 01.09.2019
2692 Clouds 32 1007 59 10000 3.1 0 06:41 01.09.2019
2693 Clouds 31 1007 66 10000 2.1 0 06:18 01.09.2019
2694 Clouds 31 1007 66 10000 2.1 0 05:38 01.09.2019
2695 Clouds 30 1008 74 10000 2.1 130 04:22 01.09.2019
2696 Clouds 29 1008 83 10000 2.6 110 03:38 01.09.2019
2697 Clouds 28 1008 88 10000 2.6 110 02:52 01.09.2019
2698 Clouds 28 1008 88 10000 2.6 110 02:25 01.09.2019
2699 Clouds 28 1008 88 10000 2.6 110 02:25 01.09.2019
2700 Clouds 26 1007 94 10000 1 0 01:40 01.09.2019
2701 Clouds 26 1006 94 8000 1.74 109.228 01:21 01.09.2019
2702 Clouds 25 1006 94 8000 1.74 109.228 00:42 01.09.2019
2703 Clouds 25 1006 94 10000 1 160 00:21 01.09.2019
2704 Clouds 25 1006 94 10000 1 160 23:47 31.08.2019
2705 Clouds 25 1006 94 10000 1 160 23:21 31.08.2019
2706 Clouds 25 1006 94 10000 2.1 120 22:56 31.08.2019
2707 Clouds 25 1006 94 10000 2.1 120 22:37 31.08.2019
2708 Clouds 25 1006 94 10000 2.1 220 22:19 31.08.2019
2709 Clouds 25 1006 94 10000 2.1 220 21:45 31.08.2019
2710 Clouds 25 1006 94 10000 2.1 220 21:23 31.08.2019
2711 Clouds 24 1006 100 10000 0.5 0 20:59 31.08.2019
2712 Clouds 24 1006 100 10000 0.5 0 20:41 31.08.2019
2713 Clouds 24 1006 100 10000 0.5 0 20:41 31.08.2019
2714 Clouds 25 1006 100 10000 0.5 0 20:23 31.08.2019
2715 Clouds 25 1006 100 10000 0.5 0 20:23 31.08.2019
2716 Rain 25 1007 94 10000 1 0 19:43 31.08.2019
2717 Rain 25 1008 94 9000 0.5 0 19:22 31.08.2019
2718 Rain 25 1008 94 9000 0.5 0 18:56 31.08.2019
2719 Rain 25 1008 94 9000 0.5 0 18:37 31.08.2019
2720 Rain 25 1008 94 9000 0.5 0 18:37 31.08.2019
2721 Rain 25 1009 88 8000 1.5 240 18:19 31.08.2019
2722 Rain 25 1009 88 8000 1.5 240 17:55 31.08.2019
2723 Rain 25 1009 88 8000 1.5 240 17:36 31.08.2019
2724 Rain 25 1009 94 5000 1 0 17:18 31.08.2019
2725 Rain 25 1009 94 5000 1 0 16:54 31.08.2019
2726 Rain 25 1009 94 5000 1 0 16:36 31.08.2019
2727 Rain 25 1008 94 9000 2.1 230 16:18 31.08.2019
2728 Rain 25 1008 94 9000 2.1 230 15:40 31.08.2019
2729 Rain 26 1008 94 8000 1.5 210 15:18 31.08.2019
2730 Rain 25 1008 94 8000 1.5 210 14:42 31.08.2019
2731 Rain 26 1008 94 8000 1.5 210 14:24 31.08.2019
2732 Rain 26 1007 94 6000 4.1 220 13:57 31.08.2019
2733 Rain 26 1007 94 6000 4.1 220 13:38 31.08.2019
2734 Rain 26 1007 88 5000 4.6 240 13:19 31.08.2019
2735 Rain 24 1007 88 5000 4.6 240 12:42 31.08.2019
2736 Rain 24 1006 94 5000 9.3 250 12:21 31.08.2019
2737 Rain 25 1006 94 5000 9.3 250 11:59 31.08.2019
2738 Rain 25 1006 94 5000 9.3 250 11:41 31.08.2019
2739 Rain 25 1006 94 5000 9.3 250 11:41 31.08.2019
2740 Rain 25 1006 94 5000 9.3 250 11:23 31.08.2019
2741 Rain 26 1006 83 10000 6.7 260 10:55 31.08.2019
2742 Rain 26 1006 83 10000 6.7 260 10:36 31.08.2019
2743 Rain 27 1006 88 10000 7.2 250 10:18 31.08.2019
2744 Rain 28 1006 78 10000 7.7 250 09:40 31.08.2019
2745 Rain 28 1006 78 10000 7.7 250 09:40 31.08.2019
2746 Clouds 28 1006 78 10000 7.7 250 09:21 31.08.2019
2747 Clouds 29 1006 74 10000 6.7 290 08:45 31.08.2019
2748 Clouds 30 1006 74 10000 6.7 290 08:27 31.08.2019
2749 Clouds 30 1007 79 10000 4.1 290 07:43 31.08.2019
2750 Clouds 30 1007 79 10000 4.1 290 07:23 31.08.2019
2751 Clouds 30 1008 70 10000 4.1 280 06:59 31.08.2019
2752 Clouds 30 1008 70 10000 4.1 280 06:26 31.08.2019
2753 Clouds 31 1008 70 10000 2.6 270 05:49 31.08.2019
2754 Clouds 31 1008 70 10000 2.6 270 05:27 31.08.2019
2755 Clouds 29 1009 70 10000 3.1 250 04:28 31.08.2019
2756 Clouds 29 1009 74 10000 2.1 290 03:42 31.08.2019
2757 Rain 28 1008 78 10000 3.1 10 02:20 31.08.2019
2758 Rain 28 1008 78 10000 3.1 10 02:20 31.08.2019
2759 Rain 27 1008 78 10000 3.1 10 01:42 31.08.2019
2760 Clouds 26 1008 78 10000 2.1 360 01:23 31.08.2019
2761 Clouds 27 1008 78 10000 2.1 360 00:44 31.08.2019
2762 Clouds 27 1008 78 10000 2.1 360 00:44 31.08.2019
2763 Clouds 26 1007 83 10000 2.1 340 00:25 31.08.2019
2764 Clouds 26 1007 83 10000 2.1 340 23:48 30.08.2019
2765 Clouds 26 1007 78 10000 3.1 10 23:19 30.08.2019
2766 Clouds 26 1007 78 10000 3.1 10 23:19 30.08.2019
2767 Clouds 26 1007 78 10000 3.1 10 22:56 30.08.2019
2768 Clouds 26 1007 78 10000 3.1 10 22:37 30.08.2019
2769 Clouds 26 1008 83 10000 1 300 22:19 30.08.2019
2770 Clouds 26 1008 83 10000 1 300 21:55 30.08.2019
2771 Clouds 26 1008 83 10000 1 300 21:36 30.08.2019
2772 Clouds 26 1008 83 10000 1 0 21:18 30.08.2019
2773 Clouds 26 1008 83 10000 1 0 20:42 30.08.2019
2774 Clouds 26 1009 83 10000 1 0 20:22 30.08.2019
2775 Clouds 26 1009 83 10000 1 0 19:59 30.08.2019
2776 Clouds 26 1009 83 10000 1 0 19:40 30.08.2019
2777 Clouds 26 1009 83 10000 1 0 19:21 30.08.2019
2778 Clouds 27 1009 88 10000 1.5 220 18:55 30.08.2019
2779 Clouds 27 1009 88 10000 1.5 220 18:37 30.08.2019
2780 Clouds 27 1009 94 10000 2.1 230 18:18 30.08.2019
2781 Clouds 27 1009 94 10000 2.1 230 17:55 30.08.2019
2782 Clouds 27 1009 94 10000 2.1 230 17:37 30.08.2019
2783 Rain 27 1010 88 9000 4.1 250 17:18 30.08.2019
2784 Rain 28 1010 88 9000 4.1 250 16:43 30.08.2019
2785 Rain 26 1010 88 9000 4.1 250 16:23 30.08.2019
2786 Rain 28 1010 88 10000 4.6 250 15:45 30.08.2019
2787 Rain 28 1010 88 10000 4.6 250 15:45 30.08.2019
2788 Rain 28 1010 88 10000 4.6 250 15:25 30.08.2019
2789 Rain 28 1009 83 10000 4.6 260 14:58 30.08.2019
2790 Rain 28 1009 83 10000 4.6 260 14:40 30.08.2019
2791 Rain 27 1009 83 10000 4.6 260 14:22 30.08.2019
2792 Clouds 28 1009 88 10000 4.1 260 13:43 30.08.2019
2793 Clouds 27 1009 88 10000 4.1 260 13:23 30.08.2019
2794 Rain 28 1008 88 10000 4.1 260 12:56 30.08.2019
2795 Rain 28 1008 88 10000 4.1 260 12:38 30.08.2019
2796 Rain 28 1008 83 10000 5.1 260 12:20 30.08.2019
2797 Rain 27 1008 83 10000 5.1 260 11:41 30.08.2019
2798 Rain 28 1008 83 10000 5.1 260 11:23 30.08.2019
2799 Rain 28 1007 83 10000 6.2 260 10:39 30.08.2019
2800 Rain 28 1007 83 10000 6.2 260 10:21 30.08.2019
2801 Clouds 28 1008 83 10000 6.7 270 09:58 30.08.2019
2802 Clouds 28 1008 83 10000 6.7 270 09:38 30.08.2019
2803 Clouds 29 1008 79 10000 5.1 270 09:19 30.08.2019
2804 Clouds 29 1008 79 10000 5.1 270 08:44 30.08.2019
2805 Clouds 29 1008 79 10000 5.1 270 08:44 30.08.2019
2806 Clouds 29 1008 79 10000 5.1 270 08:25 30.08.2019
2807 Clouds 29 1009 74 10000 6.7 260 07:58 30.08.2019
2808 Clouds 30 1009 74 10000 6.7 260 07:38 30.08.2019
2809 Clouds 30 1010 79 10000 4.1 260 07:20 30.08.2019
2810 Clouds 30 1010 79 10000 4.1 260 06:43 30.08.2019
2811 Clouds 30 1010 79 10000 4.1 260 06:24 30.08.2019
2812 Clouds 29 1010 74 10000 4.1 260 05:40 30.08.2019
2813 Clouds 29 1010 83 10000 3.1 270 03:58 30.08.2019
2814 Clouds 29 1010 83 10000 3.1 270 03:58 30.08.2019
2815 Clouds 29 1010 83 10000 3.1 270 03:37 30.08.2019
2816 Clouds 29 1010 83 10000 3.1 270 03:37 30.08.2019
2817 Clouds 28 1010 88 10000 3.1 250 02:45 30.08.2019
2818 Clouds 28 1010 88 10000 3.1 250 02:45 30.08.2019
2819 Clouds 27 1009 88 10000 2.1 240 02:19 30.08.2019
2820 Clouds 26 1009 88 10000 1.5 240 00:58 30.08.2019
2821 Clouds 25 1009 88 10000 1.5 240 00:25 30.08.2019
2822 Clouds 26 1009 88 10000 2.1 220 23:49 29.08.2019
2823 Clouds 26 1009 88 10000 2.1 220 23:23 29.08.2019
2824 Clouds 26 1009 88 10000 2.1 230 22:59 29.08.2019
2825 Clouds 26 1009 88 10000 2.1 230 22:41 29.08.2019
2826 Clouds 26 1009 88 10000 2.1 230 22:22 29.08.2019
2827 Clouds 26 1009 88 10000 5.1 260 21:42 29.08.2019
2828 Clouds 26 1009 88 10000 5.1 260 21:22 29.08.2019
2829 Clouds 26 1009 88 10000 5.1 260 21:22 29.08.2019
2830 Clouds 26 1010 88 10000 1.5 240 20:59 29.08.2019
2831 Clouds 26 1010 88 10000 1.5 240 20:41 29.08.2019
2832 Clouds 26 1010 88 10000 1.5 240 20:20 29.08.2019
2833 Clouds 26 1010 94 10000 2.6 260 19:57 29.08.2019
2834 Clouds 26 1010 94 10000 2.6 260 19:38 29.08.2019
2835 Clouds 26 1010 94 10000 2.6 260 19:20 29.08.2019
2836 Rain 26 1011 88 9000 2.6 260 18:41 29.08.2019
2837 Rain 26 1011 88 9000 2.6 260 18:20 29.08.2019
2838 Rain 26 1011 78 8000 1.5 230 17:56 29.08.2019
2839 Rain 26 1011 78 8000 1.5 230 17:56 29.08.2019
2840 Rain 26 1011 78 8000 1.5 230 17:37 29.08.2019
2841 Rain 26 1011 78 8000 1.5 230 17:19 29.08.2019
2842 Clouds 27 1011 78 10000 1 0 16:43 29.08.2019
2843 Clouds 26 1011 83 10000 1 230 16:24 29.08.2019
2844 Clouds 26 1011 83 10000 1 230 15:58 29.08.2019
2845 Clouds 26 1011 83 10000 1 230 15:38 29.08.2019
2846 Clouds 26 1010 78 10000 5.7 270 15:19 29.08.2019
2847 Clouds 26 1010 78 10000 5.7 270 15:19 29.08.2019
2848 Rain 26 1010 78 10000 5.7 270 14:45 29.08.2019
2849 Rain 26 1010 78 10000 5.7 270 14:22 29.08.2019
2850 Rain 26 1010 88 9000 7.7 260 13:58 29.08.2019
2851 Rain 26 1010 88 9000 7.7 260 13:39 29.08.2019
2852 Rain 26 1009 83 0 4.1 260 13:20 29.08.2019
2853 Rain 27 1009 83 0 4.1 260 12:58 29.08.2019
2854 Rain 27 1009 83 0 4.1 260 12:39 29.08.2019
2855 Clouds 28 1008 74 10000 4.1 240 12:20 29.08.2019
2856 Clouds 28 1008 74 10000 4.1 240 11:58 29.08.2019
2857 Clouds 29 1008 74 10000 4.1 240 11:37 29.08.2019
2858 Clouds 29 1007 79 10000 5.1 270 11:18 29.08.2019
2859 Clouds 28 1007 79 10000 5.1 270 10:42 29.08.2019
2860 Clouds 28 1007 79 10000 5.1 270 10:24 29.08.2019
2861 Clouds 29 1007 79 10000 4.6 280 09:42 29.08.2019
2862 Clouds 29 1007 79 10000 4.6 280 09:21 29.08.2019
2863 Clouds 29 1008 79 10000 3.1 290 08:59 29.08.2019
2864 Clouds 29 1008 79 10000 3.1 290 08:40 29.08.2019
2865 Clouds 29 1008 79 10000 3.1 290 08:21 29.08.2019
2866 Clouds 28 1008 83 10000 5.1 270 07:48 29.08.2019
2867 Clouds 28 1008 83 10000 5.1 270 07:26 29.08.2019
2868 Thunderstorm 27 1009 88 9000 4.1 240 06:47 29.08.2019
2869 Thunderstorm 28 1009 88 9000 4.1 240 06:28 29.08.2019
2870 Clouds 29 1009 79 10000 3.1 270 05:41 29.08.2019
2871 Clouds 30 1009 70 10000 2.1 90 04:50 29.08.2019
2872 Clouds 30 1009 70 10000 2.1 90 04:29 29.08.2019
2873 Clouds 29 1009 79 10000 2.1 110 02:49 29.08.2019
2874 Clouds 29 1008 78 10000 1 100 01:48 29.08.2019
2875 Clouds 27 1007 88 10000 2.36 155.238 00:58 29.08.2019
2876 Clouds 26 1007 88 10000 2.36 155.238 00:40 29.08.2019
2877 Clouds 26 1006 88 8000 2.37 219.806 00:20 29.08.2019
2878 Clouds 26 1006 88 8000 2.37 219.806 23:42 28.08.2019
2879 Clouds 26 1006 88 8000 2.37 219.806 23:23 28.08.2019
2880 Rain 27 1006 83 9000 1 120 22:58 28.08.2019
2881 Rain 27 1006 83 9000 1 120 22:38 28.08.2019
2882 Clouds 27 1006 78 10000 1 60 22:18 28.08.2019
2883 Clouds 27 1006 78 10000 1 60 21:57 28.08.2019
2884 Clouds 27 1006 78 10000 1 60 21:38 28.08.2019
2885 Clouds 27 1007 78 10000 1 270 21:20 28.08.2019
2886 Clouds 27 1007 78 10000 1 270 20:41 28.08.2019
2887 Clouds 27 1008 78 10000 2.62 272.978 20:22 28.08.2019
2888 Clouds 27 1008 78 10000 2.62 272.978 19:55 28.08.2019
2889 Clouds 28 1008 78 10000 2.62 272.978 19:37 28.08.2019
2890 Clouds 28 1008 78 10000 2.62 272.978 19:18 28.08.2019
2891 Clouds 27 1008 78 10000 1 270 18:42 28.08.2019
2892 Clouds 27 1009 78 10000 2.6 260 18:21 28.08.2019
2893 Clouds 27 1009 78 10000 2.6 260 17:40 28.08.2019
2894 Clouds 27 1008 78 10000 3.1 260 17:20 28.08.2019
2895 Clouds 28 1008 78 10000 3.1 260 16:58 28.08.2019
2896 Clouds 27 1008 78 10000 3.1 260 16:40 28.08.2019
2897 Clouds 28 1008 78 10000 2.1 240 16:18 28.08.2019
2898 Clouds 28 1008 78 10000 2.1 240 15:39 28.08.2019
2899 Clouds 28 1008 78 10000 2.1 240 15:39 28.08.2019
2900 Clouds 28 1007 78 10000 2.1 230 15:20 28.08.2019
2901 Clouds 28 1007 78 10000 2.1 230 14:58 28.08.2019
2902 Clouds 28 1007 78 10000 2.1 230 14:40 28.08.2019
2903 Clouds 29 1007 70 10000 3.6 230 14:21 28.08.2019
2904 Clouds 29 1007 70 10000 3.6 230 13:59 28.08.2019
2905 Clouds 29 1007 70 10000 3.6 230 13:39 28.08.2019
2906 Clouds 29 1005 70 10000 3.1 230 13:20 28.08.2019
2907 Clouds 29 1005 70 10000 3.1 230 12:43 28.08.2019
2908 Clouds 29 1005 70 10000 3.1 230 12:25 28.08.2019
2909 Rain 29 1005 79 10000 3.1 270 11:59 28.08.2019
2910 Rain 29 1005 79 10000 3.1 270 11:39 28.08.2019
2911 Clouds 29 1004 74 10000 4.1 270 11:20 28.08.2019
2912 Clouds 29 1004 74 10000 4.1 270 10:56 28.08.2019
2913 Clouds 30 1004 74 10000 4.1 270 10:37 28.08.2019
2914 Clouds 30 1004 74 10000 5.1 270 10:19 28.08.2019
2915 Clouds 30 1004 74 10000 5.1 270 09:42 28.08.2019
2916 Clouds 30 1004 74 10000 5.1 270 09:21 28.08.2019
2917 Rain 29 1005 83 10000 5.1 260 08:56 28.08.2019
2918 Rain 28 1005 83 10000 5.1 260 08:37 28.08.2019
2919 Clouds 30 1005 62 10000 4.1 230 08:18 28.08.2019
2920 Clouds 32 1005 62 10000 4.1 230 07:38 28.08.2019
2921 Clouds 32 1005 62 10000 4.6 220 07:19 28.08.2019
2922 Clouds 32 1005 62 10000 4.6 220 06:49 28.08.2019
2923 Clouds 32 1006 66 10000 5.1 200 05:59 28.08.2019
2924 Clouds 31 1006 66 10000 3.1 200 04:41 28.08.2019
2925 Clouds 28 1004 88 10000 1 0 01:58 28.08.2019
2926 Clouds 28 1004 88 10000 1 0 01:30 28.08.2019
2927 Clouds 26 1003 94 10000 1 120 00:50 28.08.2019
2928 Clouds 26 1003 94 10000 1 120 00:32 28.08.2019
2929 Clouds 26 1003 94 10000 1 90 23:44 27.08.2019
2930 Clouds 26 1003 94 10000 1 90 23:22 27.08.2019
2931 Clouds 25 1002 94 10000 1 140 22:59 27.08.2019
2932 Clouds 27 1002 94 10000 1 140 22:39 27.08.2019
2933 Clouds 25 1002 94 10000 1 140 22:20 27.08.2019
2934 Clouds 26 1002 94 10000 1 140 21:56 27.08.2019
2935 Clouds 26 1002 94 10000 1 140 21:38 27.08.2019
2936 Clouds 26 1002 94 10000 1 140 21:38 27.08.2019
2937 Clouds 25 1002 94 10000 1 160 21:18 27.08.2019
2938 Clouds 25 1002 94 10000 1 160 20:55 27.08.2019
2939 Clouds 25 1002 94 10000 1 160 20:37 27.08.2019
2940 Clouds 26 1003 88 10000 1 240 20:18 27.08.2019
2941 Clouds 26 1003 88 10000 1 240 19:42 27.08.2019
2942 Clouds 26 1004 88 10000 3.1 230 19:24 27.08.2019
2943 Clouds 26 1004 88 10000 3.1 230 18:55 27.08.2019
2944 Clouds 26 1004 88 10000 3.1 230 18:36 27.08.2019
2945 Clouds 26 1005 94 9000 2.1 230 18:18 27.08.2019
2946 Clouds 26 1005 94 9000 2.1 230 17:42 27.08.2019
2947 Clouds 26 1005 94 9000 2.1 230 17:23 27.08.2019
2948 Clouds 27 1004 88 9000 2.6 230 16:48 27.08.2019
2949 Clouds 27 1004 88 9000 2.6 230 16:28 27.08.2019
2950 Clouds 27 1004 88 9000 1 0 15:58 27.08.2019
2951 Clouds 26 1004 88 9000 1 0 15:40 27.08.2019
2952 Clouds 26 1004 88 9000 1 0 15:21 27.08.2019
2953 Clouds 27 1003 88 10000 1.5 0 14:58 27.08.2019
2954 Clouds 26 1003 88 10000 1.5 0 14:40 27.08.2019
2955 Rain 26 1003 83 9900 1.5 280 14:20 27.08.2019
2956 Rain 26 1003 83 9900 1.5 280 14:20 27.08.2019
2957 Rain 26 1003 83 9900 1.5 280 13:42 27.08.2019
2958 Rain 26 1003 83 9900 1.5 280 13:23 27.08.2019
2959 Rain 26 1003 83 9900 1.5 280 13:23 27.08.2019
2960 Rain 27 1003 83 9000 1.5 0 12:55 27.08.2019
2961 Rain 27 1003 83 9000 1.5 0 12:55 27.08.2019
2962 Rain 27 1003 83 9000 1.5 0 12:36 27.08.2019
2963 Clouds 27 1002 83 10000 2.1 280 12:18 27.08.2019
2964 Clouds 27 1002 83 10000 2.1 280 11:43 27.08.2019
2965 Clouds 27 1002 83 10000 2.1 280 11:23 27.08.2019
2966 Clouds 27 1002 83 10000 3.1 280 10:42 27.08.2019
2967 Clouds 27 1002 83 10000 3.1 280 10:42 27.08.2019
2968 Clouds 28 1002 78 10000 2.6 0 10:20 27.08.2019
2969 Clouds 27 1002 78 10000 2.6 0 09:57 27.08.2019
2970 Clouds 27 1002 78 10000 2.6 0 09:38 27.08.2019
2971 Rain 28 1003 74 9000 3.1 300 09:19 27.08.2019
2972 Rain 27 1003 74 9000 3.1 300 08:46 27.08.2019
2973 Rain 27 1003 74 9000 3.1 300 08:26 27.08.2019
2974 Rain 27 1004 74 9000 3.6 10 07:56 27.08.2019
2975 Rain 27 1004 74 9000 3.6 10 07:37 27.08.2019
2976 Rain 27 1004 74 9000 3.6 10 07:37 27.08.2019
2977 Rain 27 1005 78 9000 3.1 350 07:19 27.08.2019
2978 Rain 27 1005 78 9000 3.1 350 06:48 27.08.2019
2979 Clouds 27 1006 74 10000 5.1 330 06:20 27.08.2019
2980 Clouds 27 1006 74 10000 5.1 330 05:29 27.08.2019
2981 Rain 27 1006 88 10000 5.7 230 03:45 27.08.2019
2982 Rain 27 1006 88 10000 5.7 230 03:21 27.08.2019
2983 Clouds 26 1006 94 9000 1 0 01:48 27.08.2019
2984 Clouds 26 1006 94 9000 1 0 01:26 27.08.2019
2985 Clouds 27 1005 94 8000 2.1 250 00:49 27.08.2019
2986 Clouds 27 1005 94 8000 2.1 250 00:28 27.08.2019
2987 Clouds 25 1005 94 10000 1.5 270 23:44 26.08.2019
2988 Clouds 25 1005 94 10000 1.5 270 23:26 26.08.2019
2989 Clouds 26 1005 94 10000 2.64 38.602 22:59 26.08.2019
2990 Clouds 25 1005 94 10000 2.64 38.602 22:37 26.08.2019
2991 Clouds 26 1006 94 9000 1 100 22:19 26.08.2019
2992 Rain 25 1006 94 9000 1 100 21:40 26.08.2019
2993 Rain 25 1006 94 9000 1 100 21:22 26.08.2019
2994 Rain 25 1007 88 8000 1.5 90 20:59 26.08.2019
2995 Rain 25 1007 88 8000 1.5 90 20:40 26.08.2019
2996 Rain 25 1007 88 8000 1.5 90 20:20 26.08.2019
2997 Clouds 25 1007 88 10000 3.1 310 19:56 26.08.2019
2998 Clouds 25 1007 88 10000 3.1 310 19:38 26.08.2019
2999 Clouds 25 1007 88 10000 3.1 310 19:18 26.08.2019
3000 Rain 25 1008 88 9000 1.5 60 18:39 26.08.2019
3001 Rain 25 1008 88 9000 1.5 60 18:20 26.08.2019
3002 Rain 25 1008 88 9000 1.5 60 18:20 26.08.2019
3003 Rain 27 1009 88 8000 2.6 60 17:56 26.08.2019
3004 Rain 27 1009 88 8000 2.6 60 17:38 26.08.2019
3005 Rain 27 1009 88 8000 2.6 60 17:18 26.08.2019
3006 Rain 27 1009 88 8000 4.1 50 16:56 26.08.2019
3007 Rain 27 1009 88 8000 4.1 50 16:38 26.08.2019
3008 Rain 27 1009 88 8000 4.1 50 16:38 26.08.2019
3009 Clouds 27 1009 94 10000 2.6 50 16:18 26.08.2019
3010 Rain 25 1009 94 10000 2.6 50 15:42 26.08.2019
3011 Rain 25 1009 94 10000 2.6 50 15:21 26.08.2019
3012 Rain 25 1009 94 5000 1.5 280 14:46 26.08.2019
3013 Rain 25 1009 94 5000 1.5 280 14:23 26.08.2019
3014 Rain 25 1009 100 3500 3.1 310 13:59 26.08.2019
3015 Rain 26 1008 94 2500 5.1 320 13:39 26.08.2019
3016 Rain 26 1008 94 2500 5.1 320 13:20 26.08.2019
3017 Clouds 28 1007 83 10000 4.1 260 12:43 26.08.2019
3018 Clouds 29 1007 83 10000 4.1 260 12:25 26.08.2019
3019 Thunderstorm 29 1006 83 10000 4.6 260 11:56 26.08.2019
3020 Thunderstorm 29 1006 83 10000 4.6 260 11:36 26.08.2019
3021 Thunderstorm 29 1006 83 10000 4.6 260 11:18 26.08.2019
3022 Rain 30 1005 84 10000 6.2 270 10:44 26.08.2019
3023 Rain 30 1005 84 10000 6.2 270 10:21 26.08.2019
3024 Clouds 30 1006 79 10000 6.2 270 09:57 26.08.2019
3025 Clouds 30 1006 79 10000 6.2 270 09:38 26.08.2019
3026 Clouds 30 1006 79 10000 6.2 270 09:19 26.08.2019
3027 Clouds 31 1006 79 10000 5.7 260 08:42 26.08.2019
3028 Clouds 31 1006 79 10000 5.7 260 08:23 26.08.2019
3029 Clouds 31 1007 74 10000 5.7 260 07:59 26.08.2019
3030 Clouds 31 1007 74 10000 5.7 260 07:40 26.08.2019
3031 Clouds 31 1007 74 10000 5.7 260 07:21 26.08.2019
3032 Clouds 31 1008 70 9000 5.1 270 06:42 26.08.2019
3033 Clouds 31 1008 70 9000 5.1 270 06:22 26.08.2019
3034 Clouds 31 1008 74 9000 4.1 280 05:49 26.08.2019
3035 Clouds 29 1009 83 9000 3.6 260 04:28 26.08.2019
3036 Clouds 28 1009 88 9000 1 0 02:55 26.08.2019
3037 Clouds 26 1009 94 9000 0.5 0 01:35 26.08.2019
3038 Clouds 27 1009 94 9000 1 220 00:53 26.08.2019
3039 Clouds 27 1009 94 9000 1 220 00:29 26.08.2019
3040 Clouds 26 1009 100 8000 1 200 23:59 25.08.2019
3041 Clouds 25 1009 100 8000 1 200 23:40 25.08.2019
3042 Clouds 26 1009 100 8000 1 200 23:18 25.08.2019
3043 Clouds 26 1009 100 8000 1 200 23:18 25.08.2019
3044 Clouds 27 1009 94 10000 1 210 22:56 25.08.2019
3045 Clouds 27 1009 94 10000 1 210 22:37 25.08.2019
3046 Clouds 27 1009 94 10000 1 210 22:18 25.08.2019
3047 Clouds 27 1008 94 10000 1 170 21:55 25.08.2019
3048 Clouds 27 1008 94 10000 1 170 21:36 25.08.2019
3049 Clouds 27 1008 94 10000 1 170 21:18 25.08.2019
3050 Clouds 26 1009 100 9000 1 0 20:39 25.08.2019
3051 Clouds 25 1009 100 9000 1 0 20:19 25.08.2019
3052 Clouds 26 1009 94 10000 0.5 0 19:56 25.08.2019
3053 Clouds 26 1009 94 10000 0.5 0 19:37 25.08.2019
3054 Clouds 26 1009 94 10000 0.5 0 19:18 25.08.2019
3055 Clouds 26 1010 94 10000 0.5 0 18:55 25.08.2019
3056 Clouds 26 1010 94 10000 0.5 0 18:55 25.08.2019
3057 Clouds 26 1010 94 10000 0.5 0 18:37 25.08.2019
3058 Rain 27 1011 88 8000 1.5 260 18:18 25.08.2019
3059 Rain 26 1011 88 8000 1.5 260 17:40 25.08.2019
3060 Rain 25 1011 88 8000 1.5 260 17:21 25.08.2019
3061 Rain 27 1011 94 9000 1.5 260 16:43 25.08.2019
3062 Rain 27 1011 94 9000 1.5 260 16:23 25.08.2019
3063 Rain 26 1011 88 9000 1.5 290 15:58 25.08.2019
3064 Rain 26 1011 88 9000 1.5 290 15:39 25.08.2019
3065 Rain 26 1011 88 9000 1.5 290 15:21 25.08.2019
3066 Rain 26 1010 94 7000 1 0 14:41 25.08.2019
3067 Rain 26 1010 94 7000 1 0 14:23 25.08.2019
3068 Rain 26 1010 100 8000 1.5 160 13:46 25.08.2019
3069 Rain 26 1010 100 8000 1.5 160 13:22 25.08.2019
3070 Rain 26 1009 94 9000 1.5 0 12:56 25.08.2019
3071 Rain 26 1009 94 9000 1.5 0 12:38 25.08.2019
3072 Rain 26 1009 94 9000 1.5 0 12:20 25.08.2019
3073 Rain 26 1009 88 10000 0.5 0 11:56 25.08.2019
3074 Rain 26 1009 88 10000 0.5 0 11:36 25.08.2019
3075 Rain 27 1009 88 10000 0.5 0 11:18 25.08.2019
3076 Rain 27 1008 83 10000 1 0 10:41 25.08.2019
3077 Rain 26 1008 83 10000 1 0 10:21 25.08.2019
3078 Rain 26 1008 88 7000 6.2 280 09:59 25.08.2019
3079 Rain 26 1008 88 7000 6.2 280 09:41 25.08.2019
3080 Rain 26 1008 88 7000 6.2 280 09:22 25.08.2019
3081 Rain 28 1008 94 9000 1.5 280 08:44 25.08.2019
3082 Rain 28 1008 94 9000 1.5 280 08:22 25.08.2019
3083 Rain 28 1008 88 8000 2.1 260 07:45 25.08.2019
3084 Clouds 28 1009 83 10000 1.5 240 07:23 25.08.2019
3085 Rain 27 1009 88 9000 2.1 220 06:31 25.08.2019
3086 Rain 30 1009 79 10000 2.6 210 04:53 25.08.2019
3087 Clouds 29 1009 83 10000 1.5 130 03:37 25.08.2019
3088 Clouds 28 1009 83 10000 1.5 0 02:40 25.08.2019
3089 Rain 26 1009 100 9000 0.5 130 01:42 25.08.2019
3090 Clouds 25 1007 94 10000 1 0 00:40 25.08.2019
3091 Clouds 25 1007 94 10000 1 0 00:21 25.08.2019
3092 Clouds 25 1007 88 10000 5.56 222.376 23:52 24.08.2019
3093 Clouds 25 1007 88 10000 5.56 222.376 23:23 24.08.2019
3094 Clouds 25 1007 88 10000 5.56 222.376 22:56 24.08.2019
3095 Clouds 25 1007 88 10000 5.56 222.376 22:38 24.08.2019
3096 Clouds 25 1007 88 10000 5.56 222.376 22:19 24.08.2019
3097 Clouds 25 1007 88 10000 5.56 222.376 22:19 24.08.2019
3098 Clouds 25 1007 88 10000 5.56 222.376 22:19 24.08.2019
3099 Clouds 25 1007 88 10000 1 80 21:56 24.08.2019
3100 Clouds 25 1007 88 10000 1 80 21:37 24.08.2019
3101 Clouds 25 1007 88 10000 1 80 21:19 24.08.2019
3102 Clouds 25 1007 88 10000 6.66 217.83 20:55 24.08.2019
3103 Clouds 25 1007 88 10000 6.66 217.83 20:55 24.08.2019
3104 Clouds 24 1007 88 10000 6.66 217.83 20:37 24.08.2019
3105 Clouds 24 1007 88 10000 6.66 217.83 20:18 24.08.2019
3106 Clouds 24 1008 88 10000 1 0 19:55 24.08.2019
3107 Clouds 24 1008 88 10000 1 0 19:37 24.08.2019
3108 Clouds 24 1008 88 10000 1 0 19:18 24.08.2019
3109 Rain 24 1009 94 10000 4.1 280 18:41 24.08.2019
3110 Rain 26 1009 94 10000 4.1 280 18:21 24.08.2019
3111 Rain 26 1009 94 10000 4.1 280 18:21 24.08.2019
3112 Rain 27 1010 94 10000 1 0 17:44 24.08.2019
3113 Rain 27 1010 94 10000 1 0 17:24 24.08.2019
3114 Rain 27 1010 94 8000 1 0 16:48 24.08.2019
3115 Rain 25 1010 94 8000 1 0 16:21 24.08.2019
3116 Rain 25 1010 88 8000 3.6 270 15:59 24.08.2019
3117 Rain 25 1010 88 8000 3.6 270 15:40 24.08.2019
3118 Rain 26 1010 88 8000 3.6 270 15:22 24.08.2019
3119 Rain 26 1009 83 10000 2.6 230 14:43 24.08.2019
3120 Rain 27 1009 83 10000 2.6 230 14:22 24.08.2019
3121 Clouds 27 1008 83 10000 1.5 190 13:57 24.08.2019
3122 Clouds 27 1008 83 10000 1.5 190 13:38 24.08.2019
3123 Clouds 27 1008 83 10000 1.5 190 13:19 24.08.2019
3124 Clouds 28 1007 83 10000 2.6 230 12:42 24.08.2019
3125 Clouds 28 1007 83 10000 2.6 230 12:24 24.08.2019
3126 Clouds 28 1006 83 10000 3.6 220 11:58 24.08.2019
3127 Clouds 28 1006 83 10000 3.6 220 11:39 24.08.2019
3128 Clouds 28 1006 83 10000 3.6 220 11:20 24.08.2019
3129 Rain 27 1006 83 9000 5.1 230 10:44 24.08.2019
3130 Rain 27 1006 83 9000 5.1 230 10:23 24.08.2019
3131 Rain 29 1005 74 10000 7.2 270 09:44 24.08.2019
3132 Clouds 30 1005 74 10000 7.2 270 09:21 24.08.2019
3133 Rain 29 1005 74 10000 5.7 220 08:58 24.08.2019
3134 Clouds 30 1005 74 10000 5.7 220 08:39 24.08.2019
3135 Clouds 30 1005 74 10000 5.7 220 08:21 24.08.2019
3136 Rain 29 1005 79 10000 3.6 280 07:47 24.08.2019
3137 Rain 29 1005 79 10000 3.6 280 07:26 24.08.2019
3138 Clouds 27 1006 88 10000 3.1 270 06:28 24.08.2019
3139 Rain 26 1007 94 8000 2.6 340 05:41 24.08.2019
3140 Rain 25 1007 94 1000 3.1 310 04:36 24.08.2019
3141 Rain 25 1007 100 1000 2.6 350 03:36 24.08.2019
3142 Rain 25 1007 100 2500 5.7 270 02:25 24.08.2019
3143 Rain 26 1006 88 10000 2.1 200 01:31 24.08.2019
3144 Clouds 27 1005 88 10000 2.1 220 00:52 24.08.2019
3145 Clouds 26 1005 88 10000 2.1 220 00:25 24.08.2019
3146 Clouds 26 1005 83 10000 6.26 246.137 23:57 23.08.2019
3147 Clouds 27 1005 83 10000 6.26 246.137 23:37 23.08.2019
3148 Clouds 26 1005 83 10000 6.26 246.137 23:18 23.08.2019
3149 Clouds 27 1005 88 10000 2.1 210 22:42 23.08.2019
3150 Clouds 27 1005 88 10000 2.1 210 22:23 23.08.2019
3151 Clouds 27 1004 88 10000 4.1 230 21:39 23.08.2019
3152 Clouds 27 1004 88 10000 4.1 230 21:20 23.08.2019
3153 Clouds 27 1004 83 10000 7.2 260 20:56 23.08.2019
3154 Clouds 27 1004 83 10000 7.2 260 20:37 23.08.2019
3155 Clouds 28 1004 83 10000 7.2 260 20:19 23.08.2019
3156 Clouds 28 1005 83 10000 6.7 270 19:43 23.08.2019
3157 Clouds 28 1005 83 10000 6.7 270 19:18 23.08.2019
3158 Clouds 27 1006 83 10000 6.7 250 18:45 23.08.2019
3159 Clouds 27 1006 83 10000 6.7 250 18:27 23.08.2019
3160 Clouds 28 1006 83 10000 7.7 260 17:54 23.08.2019
3161 Clouds 27 1006 83 10000 7.7 260 17:36 23.08.2019
3162 Clouds 27 1006 83 10000 7.7 260 17:18 23.08.2019
3163 Clouds 28 1007 88 10000 8.7 250 16:44 23.08.2019
3164 Clouds 27 1007 88 10000 8.7 250 16:25 23.08.2019
3165 Clouds 27 1007 83 10000 7.2 260 15:55 23.08.2019
3166 Clouds 27 1007 83 10000 7.2 260 15:36 23.08.2019
3167 Clouds 27 1007 83 10000 7.2 260 15:18 23.08.2019
3168 Rain 27 1007 88 9000 10.8 260 14:41 23.08.2019
3169 Rain 27 1007 88 9000 10.8 260 14:21 23.08.2019
3170 Rain 26 1007 94 7000 9.3 270 13:56 23.08.2019
3171 Rain 26 1007 94 7000 9.3 270 13:38 23.08.2019
3172 Rain 27 1007 94 7000 9.3 270 13:19 23.08.2019
3173 Rain 27 1006 83 10000 9.8 260 12:54 23.08.2019
3174 Clouds 27 1006 83 10000 9.8 260 12:36 23.08.2019
3175 Clouds 27 1006 83 10000 9.8 260 12:18 23.08.2019
3176 Clouds 27 1006 83 10000 6.2 250 11:41 23.08.2019
3177 Clouds 27 1006 83 10000 6.2 250 11:20 23.08.2019
3178 Rain 26 1006 88 9000 5.7 250 10:59 23.08.2019
3179 Rain 26 1006 88 9000 5.7 250 10:59 23.08.2019
3180 Rain 26 1006 88 9000 5.7 250 10:41 23.08.2019
3181 Rain 26 1006 88 9000 5.7 250 10:21 23.08.2019
3182 Rain 25 1006 94 5000 8.2 250 09:48 23.08.2019
3183 Rain 25 1006 94 5000 8.2 250 09:30 23.08.2019
3184 Rain 26 1006 100 5000 10.3 250 08:58 23.08.2019
3185 Rain 26 1006 100 5000 10.3 250 08:39 23.08.2019
3186 Rain 25 1006 100 5000 10.3 250 08:19 23.08.2019
3187 Rain 28 1006 74 10000 7.2 250 07:42 23.08.2019
3188 Clouds 30 1006 74 10000 7.2 250 07:23 23.08.2019
3189 Clouds 29 1007 79 10000 8.2 260 06:44 23.08.2019
3190 Clouds 29 1007 79 10000 8.2 260 06:23 23.08.2019
3191 Clouds 29 1007 79 10000 8.2 260 05:46 23.08.2019
3192 Clouds 29 1007 79 10000 8.2 260 05:27 23.08.2019
3193 Clouds 30 1008 79 10000 8.2 260 04:20 23.08.2019
3194 Clouds 28 1007 78 10000 5.1 250 02:49 23.08.2019
3195 Clouds 28 1007 78 10000 5.1 250 02:22 23.08.2019
3196 Clouds 27 1006 83 10000 3.6 220 01:37 23.08.2019
3197 Clouds 28 1005 78 10000 3.1 260 00:44 23.08.2019
3198 Clouds 28 1005 78 10000 3.1 260 00:18 23.08.2019
3199 Clouds 28 1006 78 10000 5.1 270 23:43 22.08.2019
3200 Clouds 28 1006 78 10000 5.1 270 23:23 22.08.2019
3201 Clouds 27 1006 78 10000 5.1 280 22:54 22.08.2019
3202 Clouds 26 1006 78 10000 5.1 280 22:36 22.08.2019
3203 Clouds 26 1006 78 10000 5.1 280 22:36 22.08.2019
3204 Clouds 28 1006 78 10000 5.1 280 22:18 22.08.2019
3205 Clouds 28 1007 78 10000 4.1 270 21:41 22.08.2019
3206 Clouds 28 1007 78 10000 4.1 270 21:23 22.08.2019
3207 Clouds 28 1007 83 10000 2.1 300 20:59 22.08.2019
3208 Clouds 28 1007 83 10000 2.1 300 20:41 22.08.2019
3209 Clouds 27 1007 83 10000 2.1 300 20:20 22.08.2019
3210 Clouds 26 1007 88 10000 4.1 260 19:58 22.08.2019
3211 Clouds 27 1007 88 10000 4.1 260 19:39 22.08.2019
3212 Clouds 27 1007 88 10000 4.1 260 19:21 22.08.2019
3213 Clouds 27 1008 88 9000 4.1 270 18:58 22.08.2019
3214 Clouds 27 1008 88 9000 4.1 270 18:40 22.08.2019
3215 Clouds 27 1008 88 9000 4.1 270 18:20 22.08.2019
3216 Clouds 27 1008 88 9000 4.1 270 18:20 22.08.2019
3217 Rain 26 1009 83 8000 10.3 270 17:57 22.08.2019
3218 Rain 26 1009 83 8000 10.3 270 17:38 22.08.2019
3219 Clouds 27 1009 83 10000 6.7 260 17:19 22.08.2019
3220 Clouds 26 1009 83 10000 6.7 260 16:56 22.08.2019
3221 Clouds 26 1009 83 10000 6.7 260 16:56 22.08.2019
3222 Clouds 27 1009 83 10000 6.7 260 16:37 22.08.2019
3223 Clouds 28 1009 83 10000 6.7 260 16:19 22.08.2019
3224 Clouds 28 1009 83 10000 6.7 260 16:18 22.08.2019
3225 Clouds 28 1009 83 10000 6.7 260 16:18 22.08.2019
3226 Clouds 28 1009 83 10000 9.8 260 15:42 22.08.2019
3227 Clouds 28 1009 83 10000 9.8 260 15:23 22.08.2019
3228 Rain 26 1008 88 8000 9.8 260 14:58 22.08.2019
3229 Rain 27 1008 88 8000 9.8 260 14:40 22.08.2019
3230 Rain 27 1008 88 8000 9.8 260 14:20 22.08.2019
3231 Clouds 27 1007 83 10000 9.3 250 13:57 22.08.2019
3232 Clouds 27 1007 83 10000 9.3 250 13:38 22.08.2019
3233 Clouds 28 1007 83 10000 9.3 250 13:18 22.08.2019
3234 Clouds 28 1006 83 10000 7.2 260 12:41 22.08.2019
3235 Clouds 28 1006 83 10000 7.2 260 12:23 22.08.2019
3236 Clouds 29 1006 79 10000 7.7 260 11:58 22.08.2019
3237 Clouds 29 1006 79 10000 7.7 260 11:40 22.08.2019
3238 Clouds 29 1006 79 10000 7.7 260 11:19 22.08.2019
3239 Clouds 29 1005 79 10000 7.2 260 10:57 22.08.2019
3240 Clouds 29 1005 79 10000 7.2 260 10:37 22.08.2019
3241 Clouds 29 1005 79 10000 7.2 260 10:19 22.08.2019
3242 Clouds 30 1006 74 10000 5.1 260 09:54 22.08.2019
3243 Clouds 30 1006 74 10000 5.1 260 09:54 22.08.2019
3244 Clouds 30 1006 74 10000 5.1 260 09:36 22.08.2019
3245 Clouds 30 1006 74 10000 5.1 260 09:18 22.08.2019
3246 Clouds 30 1006 74 10000 7.2 260 08:41 22.08.2019
3247 Clouds 30 1006 74 10000 7.2 260 08:21 22.08.2019
3248 Clouds 31 1007 74 10000 5.1 300 07:55 22.08.2019
3249 Clouds 31 1007 74 10000 5.1 300 07:37 22.08.2019
3250 Clouds 31 1007 74 10000 5.1 300 07:18 22.08.2019
3251 Clouds 30 1007 79 10000 6.2 270 06:44 22.08.2019
3252 Clouds 29 1007 79 10000 6.2 270 06:20 22.08.2019
3253 Clouds 29 1008 70 10000 5.1 280 05:26 22.08.2019
3254 Clouds 28 1008 74 10000 4.1 280 03:22 22.08.2019
3255 Clouds 27 1008 78 10000 5.1 300 02:36 22.08.2019
3256 Clouds 27 1008 83 10000 2.1 270 01:30 22.08.2019
3257 Clouds 27 1008 83 10000 2.1 230 00:50 22.08.2019
3258 Clouds 28 1008 83 10000 2.1 230 00:30 22.08.2019
3259 Clouds 27 1008 83 10000 1 200 23:59 21.08.2019
3260 Clouds 26 1008 83 10000 1 200 23:39 21.08.2019
3261 Clouds 27 1008 83 10000 1 200 23:21 21.08.2019
3262 Clouds 26 1008 83 10000 1.5 230 22:57 21.08.2019
3263 Clouds 27 1008 83 10000 1.5 230 22:39 21.08.2019
3264 Clouds 27 1008 83 10000 1.5 230 22:20 21.08.2019
3265 Clouds 26 1008 88 10000 1 210 21:55 21.08.2019
3266 Clouds 26 1008 88 10000 1 210 21:37 21.08.2019
3267 Clouds 27 1008 88 10000 1 210 21:18 21.08.2019
3268 Clouds 27 1008 88 10000 1 210 21:18 21.08.2019
3269 Clouds 27 1008 88 10000 3.1 120 20:43 21.08.2019
3270 Clouds 26 1008 88 10000 3.1 120 20:25 21.08.2019
3271 Clouds 26 1009 88 10000 3.1 260 19:58 21.08.2019
3272 Clouds 27 1009 88 10000 3.1 260 19:40 21.08.2019
3273 Clouds 27 1009 88 10000 3.1 260 19:21 21.08.2019
3274 Rain 26 1010 88 8000 4.1 260 18:56 21.08.2019
3275 Rain 26 1010 88 8000 4.1 260 18:38 21.08.2019
3276 Rain 27 1010 88 8000 4.1 260 18:19 21.08.2019
3277 Rain 27 1010 88 8000 3.1 250 17:43 21.08.2019
3278 Rain 27 1010 88 8000 3.1 250 17:43 21.08.2019
3279 Rain 27 1010 88 8000 3.1 250 17:21 21.08.2019
3280 Rain 26 1011 88 8000 4.1 260 16:56 21.08.2019
3281 Rain 26 1011 88 8000 4.1 260 16:37 21.08.2019
3282 Rain 26 1011 88 8000 4.1 260 16:18 21.08.2019
3283 Rain 26 1010 88 9000 7.2 260 15:56 21.08.2019
3284 Rain 26 1010 88 9000 7.2 260 15:37 21.08.2019
3285 Rain 26 1010 88 9000 7.2 260 15:18 21.08.2019
3286 Rain 27 1010 83 8000 3.1 260 14:39 21.08.2019
3287 Rain 28 1010 83 8000 3.1 260 14:21 21.08.2019
3288 Rain 27 1008 83 8000 4.1 260 13:58 21.08.2019
3289 Rain 27 1008 83 8000 4.1 260 13:40 21.08.2019
3290 Rain 27 1008 83 8000 4.1 260 13:19 21.08.2019
3291 Rain 27 1008 74 10000 6.2 260 12:57 21.08.2019
3292 Rain 28 1008 74 10000 6.2 260 12:38 21.08.2019
3293 Rain 28 1008 74 10000 6.2 260 12:19 21.08.2019
3294 Clouds 28 1007 74 10000 7.2 260 11:43 21.08.2019
3295 Clouds 29 1007 74 10000 7.2 260 11:23 21.08.2019
3296 Clouds 29 1007 74 10000 6.2 260 10:58 21.08.2019
3297 Clouds 30 1007 74 10000 6.2 260 10:38 21.08.2019
3298 Clouds 30 1007 74 10000 6.2 260 10:20 21.08.2019
3299 Clouds 30 1006 79 10000 7.2 260 09:57 21.08.2019
3300 Clouds 30 1006 79 10000 7.2 260 09:39 21.08.2019
3301 Clouds 30 1006 79 10000 7.2 260 09:20 21.08.2019
3302 Clouds 30 1007 79 10000 6.2 260 08:48 21.08.2019
3303 Clouds 30 1007 79 10000 6.2 260 08:24 21.08.2019
3304 Clouds 29 1007 79 10000 5.7 260 07:44 21.08.2019
3305 Clouds 30 1007 79 10000 5.7 260 07:25 21.08.2019
3306 Clouds 29 1008 83 10000 4.6 260 06:51 21.08.2019
3307 Clouds 29 1008 83 10000 4.6 260 06:32 21.08.2019
3308 Clouds 29 1009 78 10000 3.6 260 05:57 21.08.2019
3309 Clouds 28 1009 78 10000 3.6 260 05:28 21.08.2019
3310 Rain 26 1009 88 10000 4.1 260 04:35 21.08.2019
3311 Rain 27 1008 88 8000 5.1 230 01:56 21.08.2019
3312 Clouds 27 1008 88 8000 3.1 280 01:24 21.08.2019
3313 Rain 28 1007 83 8000 2.1 280 00:39 21.08.2019
3314 Rain 29 1007 83 8000 2.1 280 00:20 21.08.2019
3315 Clouds 28 1007 83 10000 4.1 260 23:44 20.08.2019
3316 Clouds 28 1007 83 10000 4.1 260 23:20 20.08.2019
3317 Clouds 28 1007 83 10000 3.1 260 22:58 20.08.2019
3318 Clouds 28 1007 83 10000 3.1 260 22:58 20.08.2019
3319 Clouds 28 1007 83 10000 3.1 260 22:58 20.08.2019
3320 Clouds 29 1007 83 10000 3.1 260 22:40 20.08.2019
3321 Clouds 29 1007 83 10000 3.1 260 22:21 20.08.2019
3322 Clouds 29 1007 83 10000 3.1 260 22:21 20.08.2019
3323 Clouds 28 1007 88 10000 3.1 260 21:58 20.08.2019
3324 Clouds 28 1007 88 10000 3.1 260 21:38 20.08.2019
3325 Clouds 29 1007 88 10000 3.1 260 21:19 20.08.2019
3326 Clouds 29 1007 88 10000 3.1 260 21:19 20.08.2019
3327 Clouds 28 1007 83 10000 4.1 260 20:56 20.08.2019
3328 Clouds 28 1007 83 10000 4.1 260 20:36 20.08.2019
3329 Clouds 28 1007 83 10000 4.1 260 20:36 20.08.2019
3330 Clouds 28 1007 83 10000 4.1 260 20:18 20.08.2019
3331 Clouds 28 1007 83 10000 6.2 260 19:39 20.08.2019
3332 Clouds 28 1007 83 10000 6.2 260 19:21 20.08.2019
3333 Clouds 29 1008 83 10000 6.2 260 18:56 20.08.2019
3334 Rain 28 1006 84 0 0.45 156 18:38 20.08.2019
3335 Clouds 29 1009 83 10000 6.2 260 18:19 20.08.2019
3336 Clouds 29 1009 83 10000 6.2 260 17:55 20.08.2019
3337 Clouds 29 1009 83 10000 6.2 260 17:37 20.08.2019
3338 Clouds 29 1008 83 10000 5.1 250 17:18 20.08.2019
3339 Clouds 29 1008 83 10000 5.1 250 16:42 20.08.2019
3340 Clouds 29 1008 83 10000 5.1 250 16:23 20.08.2019
3341 Clouds 29 1008 83 10000 5.1 260 15:42 20.08.2019
3342 Rain 29 1008 79 9000 5.7 260 15:19 20.08.2019
3343 Rain 29 1008 79 9000 5.7 260 14:57 20.08.2019
3344 Rain 29 1008 79 9000 5.7 260 14:39 20.08.2019
3345 Clouds 29 1007 79 10000 5.7 250 14:20 20.08.2019
3346 Clouds 29 1007 79 10000 5.7 250 13:56 20.08.2019
3347 Clouds 30 1007 79 10000 5.7 250 13:37 20.08.2019
3348 Clouds 30 1007 66 10000 6.2 250 13:19 20.08.2019
3349 Clouds 30 1007 66 10000 6.2 250 12:50 20.08.2019
3350 Clouds 30 1007 66 10000 6.2 250 12:25 20.08.2019
3351 Clouds 30 1007 66 10000 6.2 250 12:25 20.08.2019
3352 Clouds 30 1006 79 10000 7.7 260 11:56 20.08.2019
3353 Clouds 30 1006 79 10000 7.7 260 11:38 20.08.2019
3354 Clouds 31 1006 74 10000 8.2 260 11:18 20.08.2019
3355 Clouds 31 1006 74 10000 8.2 260 10:56 20.08.2019
3356 Clouds 31 1006 74 10000 8.2 260 10:37 20.08.2019
3357 Clouds 31 1006 74 10000 8.2 260 10:18 20.08.2019
3358 Clouds 31 1006 74 10000 8.2 260 09:41 20.08.2019
3359 Clouds 31 1006 74 10000 8.2 260 09:22 20.08.2019
3360 Clouds 32 1006 70 10000 8.2 260 08:43 20.08.2019
3361 Clouds 32 1006 70 10000 8.2 260 08:25 20.08.2019
3362 Clouds 32 1007 70 10000 7.2 260 07:58 20.08.2019
3363 Clouds 32 1007 70 10000 7.2 260 07:40 20.08.2019
3364 Clouds 32 1007 70 10000 7.2 260 07:22 20.08.2019
3365 Clouds 32 1008 74 10000 7.7 260 06:55 20.08.2019
3366 Clouds 31 1008 74 10000 7.7 260 06:22 20.08.2019
3367 Clouds 32 1008 74 10000 7.7 260 05:48 20.08.2019
3368 Clouds 31 1008 74 10000 5.7 270 04:56 20.08.2019
3369 Clouds 30 1008 83 10000 5.1 280 03:28 20.08.2019
3370 Clouds 29 1008 83 10000 3.1 260 02:32 20.08.2019
3371 Clouds 28 1007 88 9000 3.6 250 01:22 20.08.2019
3372 Clouds 28 1006 88 8000 4.1 270 00:45 20.08.2019
3373 Clouds 28 1006 88 8000 4.1 270 00:26 20.08.2019
3374 Clouds 28 1006 83 10000 2.1 230 23:52 19.08.2019
3375 Clouds 28 1006 83 10000 2.1 230 23:52 19.08.2019
3376 Clouds 28 1006 88 10000 1 170 23:19 19.08.2019
3377 Clouds 28 1006 88 10000 1 170 22:59 19.08.2019
3378 Clouds 28 1006 88 10000 1 170 22:41 19.08.2019
3379 Clouds 28 1006 88 10000 1 170 22:21 19.08.2019
3380 Clouds 28 1006 88 10000 1 170 22:21 19.08.2019
3381 Clouds 28 1006 88 10000 2.1 220 21:58 19.08.2019
3382 Clouds 28 1006 88 10000 2.1 220 21:39 19.08.2019
3383 Clouds 28 1006 88 10000 2.1 220 21:39 19.08.2019
3384 Clouds 29 1007 83 10000 3.1 280 21:20 19.08.2019
3385 Clouds 28 1007 83 10000 3.1 280 20:57 19.08.2019
3386 Clouds 28 1007 83 10000 3.1 280 20:38 19.08.2019
3387 Clouds 29 1008 83 10000 3.1 300 20:19 19.08.2019
3388 Clouds 29 1008 83 10000 3.1 300 19:55 19.08.2019
3389 Clouds 29 1008 83 10000 3.1 300 19:36 19.08.2019
3390 Clouds 28 1008 83 10000 3.1 300 19:18 19.08.2019
3391 Clouds 28 1008 88 10000 3.1 250 18:41 19.08.2019
3392 Clouds 28 1009 88 10000 3.6 250 18:23 19.08.2019
3393 Clouds 28 1009 88 10000 3.6 250 17:57 19.08.2019
3394 Clouds 28 1009 88 10000 3.6 250 17:38 19.08.2019
3395 Clouds 29 1009 83 10000 2.6 250 17:19 19.08.2019
3396 Clouds 29 1009 83 10000 2.6 250 16:54 19.08.2019
3397 Clouds 29 1009 83 10000 2.6 250 16:36 19.08.2019
3398 Clouds 29 1009 83 10000 2.6 250 16:18 19.08.2019
3399 Clouds 29 1009 79 0 2.6 250 15:45 19.08.2019
3400 Clouds 29 1009 79 0 2.6 250 15:20 19.08.2019
3401 Clouds 29 1009 79 0 2.6 250 15:20 19.08.2019
3402 Clouds 29 1008 79 10000 4.6 260 14:55 19.08.2019
3403 Clouds 29 1008 79 10000 4.6 260 14:36 19.08.2019
3404 Clouds 29 1008 79 10000 4.6 260 14:18 19.08.2019
3405 Rain 29 1007 83 10000 6.2 260 13:54 19.08.2019
3406 Rain 29 1007 83 0 1.34 191 13:36 19.08.2019
3407 Clouds 29 1007 83 9000 5.1 260 13:18 19.08.2019
3408 Clouds 29 1007 83 9000 5.1 260 12:41 19.08.2019
3409 Clouds 29 1007 83 9000 5.1 260 12:22 19.08.2019
3410 Clouds 30 1007 79 0 6.7 260 11:43 19.08.2019
3411 Clouds 30 1007 79 0 6.7 260 11:25 19.08.2019
3412 Clouds 30 1006 70 10000 8.7 260 10:59 19.08.2019
3413 Clouds 31 1006 70 10000 8.7 260 10:39 19.08.2019
3414 Clouds 31 1006 70 10000 8.7 260 10:19 19.08.2019
3415 Clouds 32 1006 75 10000 8.7 260 09:55 19.08.2019
3416 Clouds 32 1006 75 10000 8.7 260 09:37 19.08.2019
3417 Clouds 32 1006 75 10000 8.7 260 09:19 19.08.2019
3418 Clouds 32 1006 75 10000 8.2 270 08:42 19.08.2019
3419 Clouds 32 1006 75 10000 8.2 270 08:22 19.08.2019
3420 Clouds 32 1007 74 10000 7.2 260 07:54 19.08.2019
3421 Clouds 31 1007 74 10000 7.2 260 07:34 19.08.2019
3422 Clouds 31 1008 79 10000 7.2 260 06:59 19.08.2019
3423 Clouds 32 1008 79 10000 7.2 260 06:36 19.08.2019
3424 Clouds 31 1008 79 10000 4.1 280 05:27 19.08.2019
3425 Clouds 31 1008 79 10000 4.1 260 04:34 19.08.2019
3426 Clouds 30 1009 79 10000 2.1 280 03:27 19.08.2019
3427 Clouds 30 1008 74 9000 2.1 350 02:30 19.08.2019
3428 Clouds 28 1008 88 10000 2.1 300 01:37 19.08.2019
3429 Clouds 28 1008 88 10000 2.1 220 00:49 19.08.2019
3430 Clouds 28 1008 88 10000 2.1 220 00:24 19.08.2019
3431 Clouds 27 1008 88 10000 1 280 23:56 18.08.2019
3432 Clouds 28 1008 88 10000 1 280 23:36 18.08.2019
3433 Clouds 28 1008 88 10000 1 280 23:18 18.08.2019
3434 Clouds 28 1008 83 10000 3.1 300 22:40 18.08.2019
3435 Clouds 28 1008 83 10000 3.1 300 22:21 18.08.2019
3436 Clouds 28 1008 83 10000 4.6 260 21:57 18.08.2019
3437 Clouds 29 1008 83 10000 4.6 260 21:38 18.08.2019
3438 Clouds 29 1008 83 10000 4.6 260 21:20 18.08.2019
3439 Clouds 28 1008 88 10000 2.1 280 20:45 18.08.2019
3440 Clouds 28 1008 88 10000 2.1 280 20:45 18.08.2019
3441 Clouds 28 1008 88 10000 2.1 280 20:26 18.08.2019
3442 Clouds 29 1009 79 10000 2.6 280 19:59 18.08.2019
3443 Clouds 29 1009 79 10000 2.6 280 19:41 18.08.2019
3444 Clouds 29 1009 79 10000 2.6 280 19:41 18.08.2019
3445 Clouds 29 1009 79 10000 2.6 280 19:22 18.08.2019
3446 Clouds 29 1010 83 10000 5.1 250 18:56 18.08.2019
3447 Clouds 29 1010 83 10000 5.1 250 18:38 18.08.2019
3448 Clouds 29 1010 83 10000 5.1 250 18:19 18.08.2019
3449 Clouds 29 1010 83 10000 5.7 260 17:43 18.08.2019
3450 Clouds 29 1010 83 10000 5.7 260 17:19 18.08.2019
3451 Clouds 29 1010 83 10000 5.7 260 17:19 18.08.2019
3452 Clouds 29 1010 83 10000 5.7 260 17:19 18.08.2019
3453 Clouds 29 1010 83 10000 6.2 250 16:59 18.08.2019
3454 Clouds 29 1010 83 10000 6.2 250 16:41 18.08.2019
3455 Clouds 29 1010 83 10000 6.2 250 16:21 18.08.2019
3456 Clouds 29 1010 83 10000 5.7 250 15:58 18.08.2019
3457 Clouds 29 1010 83 10000 5.7 250 15:39 18.08.2019
3458 Clouds 29 1010 83 10000 5.7 250 15:20 18.08.2019
3459 Clouds 29 1010 83 10000 5.7 250 15:20 18.08.2019
3460 Clouds 29 1009 83 10000 6.2 260 14:56 18.08.2019
3461 Clouds 29 1009 83 10000 6.2 260 14:37 18.08.2019
3462 Clouds 29 1009 83 10000 6.2 260 14:18 18.08.2019
3463 Clouds 29 1009 83 10000 6.7 250 13:43 18.08.2019
3464 Clouds 29 1009 83 10000 6.7 250 13:24 18.08.2019
3465 Clouds 30 1008 79 10000 7.2 250 12:59 18.08.2019
3466 Clouds 30 1008 79 10000 7.2 250 12:39 18.08.2019
3467 Clouds 30 1008 79 10000 7.2 250 12:21 18.08.2019
3468 Clouds 31 1007 74 10000 7.7 250 11:44 18.08.2019
3469 Clouds 31 1007 74 10000 7.7 250 11:23 18.08.2019
3470 Clouds 31 1007 74 10000 7.7 260 10:59 18.08.2019
3471 Clouds 31 1007 74 10000 7.7 260 10:40 18.08.2019
3472 Clouds 31 1007 74 10000 7.7 260 10:40 18.08.2019
3473 Clouds 31 1007 74 10000 8.2 260 10:19 18.08.2019
3474 Clouds 31 1007 74 10000 8.2 260 09:44 18.08.2019
3475 Clouds 31 1007 74 10000 8.2 260 09:21 18.08.2019
3476 Clouds 31 1008 74 10000 8.2 260 08:44 18.08.2019
3477 Clouds 31 1008 74 10000 8.2 260 08:25 18.08.2019
3478 Clouds 32 1009 75 10000 7.7 260 07:59 18.08.2019
3479 Clouds 32 1009 75 10000 7.7 260 07:39 18.08.2019
3480 Clouds 32 1009 75 10000 7.7 260 07:21 18.08.2019
3481 Clouds 31 1010 74 10000 4.1 280 05:45 18.08.2019
3482 Clouds 30 1011 79 10000 3.6 290 04:25 18.08.2019
3483 Clouds 30 1011 74 10000 2.6 300 03:20 18.08.2019
3484 Clouds 29 1011 79 10000 2.6 280 02:43 18.08.2019
3485 Clouds 29 1011 79 10000 2.6 280 02:18 18.08.2019
3486 Clouds 28 1010 83 10000 2.1 0 01:28 18.08.2019
3487 Clouds 28 1010 88 10000 2.6 320 00:43 18.08.2019
3488 Clouds 28 1010 88 10000 2.6 320 00:23 18.08.2019
3489 Clouds 28 1010 88 10000 2.1 310 23:58 17.08.2019
3490 Clouds 28 1010 88 10000 2.1 310 23:38 17.08.2019
3491 Clouds 28 1010 88 10000 2.1 310 23:19 17.08.2019
3492 Clouds 28 1009 83 10000 2.6 290 22:57 17.08.2019
3493 Clouds 28 1009 83 10000 2.6 290 22:39 17.08.2019
3494 Clouds 28 1009 83 10000 2.6 290 22:21 17.08.2019
3495 Clouds 29 1010 79 10000 3.6 290 21:55 17.08.2019
3496 Clouds 29 1010 79 10000 3.6 290 21:37 17.08.2019
3497 Clouds 29 1010 79 10000 3.6 290 21:18 17.08.2019
3498 Clouds 28 1010 88 10000 4.6 260 20:39 17.08.2019
3499 Clouds 28 1010 88 10000 4.6 260 20:20 17.08.2019
3500 Clouds 28 1010 88 10000 4.6 260 19:44 17.08.2019
3501 Clouds 28 1010 88 10000 4.6 260 19:44 17.08.2019
3502 Clouds 28 1010 88 10000 4.6 260 19:24 17.08.2019
3503 Clouds 28 1011 83 10000 5.7 260 18:59 17.08.2019
3504 Clouds 29 1011 83 10000 5.7 260 18:39 17.08.2019
3505 Clouds 29 1011 83 10000 5.7 260 18:18 17.08.2019
3506 Clouds 29 1012 79 10000 3.6 280 17:55 17.08.2019
3507 Clouds 29 1012 79 10000 3.6 280 17:37 17.08.2019
3508 Clouds 29 1012 79 10000 3.6 280 17:18 17.08.2019
3509 Clouds 29 1011 83 10000 5.7 260 16:41 17.08.2019
3510 Clouds 29 1011 83 10000 5.7 260 16:22 17.08.2019
3511 Clouds 28 1012 94 10000 1 0 15:55 17.08.2019
3512 Clouds 28 1012 94 10000 1 0 15:37 17.08.2019
3513 Clouds 28 1012 94 10000 1 0 15:19 17.08.2019
3514 Clouds 29 1011 83 10000 5.1 260 14:40 17.08.2019
3515 Clouds 29 1011 83 10000 5.1 260 14:22 17.08.2019
3516 Clouds 29 1010 83 10000 6.7 260 13:46 17.08.2019
3517 Clouds 29 1010 83 10000 6.7 260 13:21 17.08.2019
3518 Clouds 29 1009 83 10000 4.22 269.13 12:55 17.08.2019
3519 Clouds 29 1009 83 10000 4.22 269.13 12:37 17.08.2019
3520 Clouds 29 1009 83 10000 4.52 256.707 12:18 17.08.2019
3521 Clouds 30 1008 79 10000 7.2 260 11:43 17.08.2019
3522 Clouds 30 1008 79 10000 7.2 260 11:20 17.08.2019
3523 Clouds 31 1008 74 10000 7.7 260 10:55 17.08.2019
3524 Clouds 31 1008 74 10000 7.7 260 10:55 17.08.2019
3525 Clouds 31 1008 74 10000 7.7 260 10:37 17.08.2019
3526 Clouds 31 1008 74 10000 7.7 260 10:18 17.08.2019
3527 Clouds 31 1008 74 10000 8.2 260 09:43 17.08.2019
3528 Clouds 31 1008 74 10000 8.2 260 09:25 17.08.2019
3529 Clouds 31 1009 74 10000 8.2 260 08:53 17.08.2019
3530 Clouds 31 1009 74 10000 8.2 260 08:24 17.08.2019
3531 Clouds 31 1010 74 10000 8.2 260 07:45 17.08.2019
3532 Clouds 31 1010 74 10000 8.2 260 07:21 17.08.2019
3533 Clouds 31 1011 74 10000 9.3 260 06:40 17.08.2019
3534 Clouds 31 1011 79 10000 7.2 270 04:52 17.08.2019
3535 Clouds 31 1011 79 10000 7.2 270 04:27 17.08.2019
3536 Clouds 29 1011 88 8000 2.1 290 02:53 17.08.2019
3537 Clouds 28 1010 83 9000 2.1 210 01:40 17.08.2019
3538 Clouds 28 1010 83 9000 2.1 210 01:22 17.08.2019
3539 Clouds 27 1010 88 9000 2.1 220 00:48 17.08.2019
3540 Clouds 27 1010 88 9000 2.1 220 00:26 17.08.2019
3541 Clouds 27 1010 88 10000 1 240 23:47 16.08.2019
3542 Clouds 27 1010 88 10000 1 240 23:25 16.08.2019
3543 Clouds 28 1010 83 10000 1 270 22:44 16.08.2019
3544 Clouds 28 1010 83 10000 1 270 22:20 16.08.2019
3545 Clouds 28 1010 83 10000 1 0 21:59 16.08.2019
3546 Clouds 28 1010 83 10000 1 0 21:39 16.08.2019
3547 Clouds 28 1010 83 10000 1 0 21:19 16.08.2019
3548 Clouds 28 1010 83 10000 1 0 20:43 16.08.2019
3549 Clouds 28 1010 83 10000 1 0 20:22 16.08.2019
3550 Clouds 28 1011 83 10000 1.5 230 19:59 16.08.2019
3551 Clouds 28 1011 83 10000 1.5 230 19:39 16.08.2019
3552 Clouds 28 1011 83 10000 1.5 230 19:20 16.08.2019
3553 Clouds 28 1011 83 10000 3.6 250 18:42 16.08.2019
3554 Clouds 28 1011 83 10000 3.6 250 18:42 16.08.2019
3555 Clouds 28 1011 83 10000 3.6 250 18:42 16.08.2019
3556 Clouds 28 1011 83 10000 3.6 250 18:23 16.08.2019
3557 Clouds 28 1011 78 10000 5.1 260 17:49 16.08.2019
3558 Clouds 28 1011 78 10000 5.1 260 17:30 16.08.2019
3559 Clouds 28 1011 78 10000 5.1 260 17:30 16.08.2019
3560 Clouds 29 1011 79 10000 4.1 260 16:59 16.08.2019
3561 Clouds 29 1011 79 10000 4.1 260 16:41 16.08.2019
3562 Clouds 28 1011 79 10000 4.1 260 16:20 16.08.2019
3563 Clouds 28 1011 79 10000 3.1 240 15:56 16.08.2019
3564 Clouds 28 1011 79 10000 3.1 240 15:38 16.08.2019
3565 Clouds 28 1011 79 10000 3.1 240 15:19 16.08.2019
3566 Clouds 29 1010 74 10000 3.1 260 14:56 16.08.2019
3567 Clouds 29 1010 74 10000 3.1 260 14:37 16.08.2019
3568 Clouds 29 1010 74 10000 3.1 260 14:18 16.08.2019
3569 Clouds 29 1009 79 10000 4.1 260 13:40 16.08.2019
3570 Clouds 29 1009 79 10000 4.1 260 13:21 16.08.2019
3571 Clouds 29 1009 74 10000 6.2 270 12:41 16.08.2019
3572 Clouds 30 1009 74 10000 6.2 270 12:23 16.08.2019
3573 Clouds 30 1009 70 10000 6.7 260 11:58 16.08.2019
3574 Clouds 31 1009 70 10000 6.7 260 11:39 16.08.2019
3575 Clouds 31 1009 70 10000 6.7 260 11:39 16.08.2019
3576 Clouds 31 1009 70 10000 6.7 260 11:21 16.08.2019
3577 Clouds 31 1009 70 10000 7.2 260 10:43 16.08.2019
3578 Clouds 31 1009 70 10000 7.2 260 10:21 16.08.2019
3579 Clouds 32 1009 66 10000 8.2 260 09:39 16.08.2019
3580 Clouds 32 1009 66 10000 8.2 260 09:39 16.08.2019
3581 Clouds 32 1009 66 10000 8.2 260 09:20 16.08.2019
3582 Clouds 32 1009 70 10000 7.2 260 08:59 16.08.2019
3583 Clouds 32 1009 70 10000 7.2 260 08:39 16.08.2019
3584 Clouds 32 1009 70 10000 7.2 260 08:19 16.08.2019
3585 Clouds 31 1009 70 10000 9.3 270 07:48 16.08.2019
3586 Clouds 31 1009 70 10000 9.3 270 07:28 16.08.2019
3587 Clouds 32 1010 70 10000 8.2 260 06:55 16.08.2019
3588 Clouds 32 1010 70 10000 8.2 260 06:19 16.08.2019
3589 Clouds 31 1010 74 10000 7.2 260 05:34 16.08.2019
3590 Clouds 30 1010 74 10000 4.1 270 03:20 16.08.2019
3591 Clouds 28 1009 83 10000 1.5 230 01:53 16.08.2019
3592 Clouds 28 1009 83 10000 1.5 230 01:27 16.08.2019
3593 Clouds 27 1009 88 9000 1 230 00:50 16.08.2019
3594 Clouds 27 1009 88 9000 1 230 00:24 16.08.2019
3595 Clouds 27 1009 88 9000 1 230 00:24 16.08.2019
3596 Clouds 28 1009 88 10000 2.1 210 23:59 15.08.2019
3597 Clouds 27 1009 88 10000 2.1 210 23:41 15.08.2019
3598 Clouds 28 1009 88 10000 2.1 210 23:19 15.08.2019
3599 Clouds 27 1009 88 10000 2.1 230 22:41 15.08.2019
3600 Clouds 28 1009 88 10000 2.1 230 22:23 15.08.2019
3601 Clouds 28 1009 88 10000 2.1 240 21:59 15.08.2019
3602 Clouds 28 1009 88 10000 2.1 240 21:39 15.08.2019
3603 Clouds 28 1009 88 10000 2.1 240 21:20 15.08.2019
3604 Clouds 28 1009 88 10000 2.1 210 20:58 15.08.2019
3605 Clouds 28 1009 88 10000 2.1 210 20:58 15.08.2019
3606 Clouds 28 1009 88 10000 2.1 210 20:40 15.08.2019
3607 Clouds 28 1009 88 10000 2.1 210 20:21 15.08.2019
3608 Clouds 28 1009 83 10000 3.1 260 19:40 15.08.2019
3609 Clouds 28 1009 83 10000 3.1 260 19:22 15.08.2019
3610 Clouds 28 1010 83 10000 2.1 220 18:59 15.08.2019
3611 Clouds 28 1010 83 10000 2.1 220 18:41 15.08.2019
3612 Clouds 28 1010 83 10000 2.1 220 18:21 15.08.2019
3613 Clouds 28 1010 83 10000 2.6 230 17:54 15.08.2019
3614 Clouds 28 1010 83 10000 2.6 230 17:36 15.08.2019
3615 Clouds 28 1010 83 10000 2.6 230 17:36 15.08.2019
3616 Clouds 28 1010 83 10000 2.6 230 17:18 15.08.2019
3617 Clouds 28 1010 83 9000 1.5 220 16:43 15.08.2019
3618 Clouds 28 1010 83 9000 1.5 220 16:24 15.08.2019
3619 Clouds 28 1010 83 10000 3.1 250 15:56 15.08.2019
3620 Clouds 28 1010 83 10000 3.1 250 15:37 15.08.2019
3621 Clouds 28 1010 83 10000 3.1 250 15:18 15.08.2019
3622 Clouds 29 1009 83 10000 4.6 250 14:42 15.08.2019
3623 Clouds 29 1009 83 10000 4.6 250 14:23 15.08.2019
3624 Clouds 29 1009 79 10000 6.2 260 13:57 15.08.2019
3625 Clouds 29 1009 79 10000 6.2 260 13:39 15.08.2019
3626 Clouds 29 1009 79 10000 6.2 260 13:20 15.08.2019
3627 Clouds 29 1008 83 10000 5.34 240.083 12:55 15.08.2019
3628 Clouds 29 1008 74 10000 7.2 250 12:36 15.08.2019
3629 Clouds 29 1008 74 10000 7.2 250 12:18 15.08.2019
3630 Clouds 29 1008 74 10000 7.2 250 11:39 15.08.2019
3631 Clouds 29 1008 74 10000 7.2 250 11:39 15.08.2019
3632 Clouds 30 1008 74 10000 7.2 250 11:20 15.08.2019
3633 Clouds 30 1007 74 10000 7.2 250 10:59 15.08.2019
3634 Clouds 30 1007 74 10000 7.2 250 10:37 15.08.2019
3635 Clouds 30 1007 74 10000 7.2 250 10:19 15.08.2019
3636 Clouds 30 1007 74 10000 7.2 260 09:44 15.08.2019
3637 Clouds 30 1007 74 10000 7.2 260 09:23 15.08.2019
3638 Clouds 30 1008 70 10000 7.2 260 08:55 15.08.2019
3639 Clouds 30 1008 70 10000 7.2 260 08:36 15.08.2019
3640 Clouds 30 1008 70 10000 7.2 260 08:18 15.08.2019
3641 Clouds 30 1008 74 10000 7.2 260 07:41 15.08.2019
3642 Clouds 30 1008 74 10000 7.2 260 07:21 15.08.2019
3643 Clouds 31 1009 70 10000 7.2 260 06:53 15.08.2019
3644 Clouds 31 1009 70 10000 7.2 260 06:32 15.08.2019
3645 Clouds 30 1010 74 10000 6.2 260 05:39 15.08.2019
3646 Clouds 30 1010 74 10000 6.2 260 05:21 15.08.2019
3647 Clouds 30 1010 74 10000 5.1 260 04:29 15.08.2019
3648 Clouds 30 1009 79 10000 5.1 250 03:28 15.08.2019
3649 Clouds 29 1009 79 10000 2.6 240 02:35 15.08.2019
3650 Clouds 29 1009 83 10000 2.1 230 01:45 15.08.2019
3651 Clouds 28 1009 83 10000 2.1 230 01:23 15.08.2019
3652 Clouds 27 1009 88 10000 1 240 00:38 15.08.2019
3653 Clouds 27 1009 88 10000 1 240 00:19 15.08.2019
3654 Clouds 27 1008 83 10000 2.1 230 23:57 14.08.2019
3655 Clouds 27 1008 83 10000 2.1 230 23:37 14.08.2019
3656 Clouds 28 1008 83 10000 2.1 230 23:19 14.08.2019
3657 Clouds 28 1008 83 10000 1 230 22:42 14.08.2019
3658 Clouds 28 1008 83 10000 1 230 22:23 14.08.2019
3659 Clouds 28 1008 78 10000 2.1 240 21:58 14.08.2019
3660 Clouds 28 1008 78 10000 2.1 240 21:58 14.08.2019
3661 Clouds 28 1008 78 10000 2.1 240 21:40 14.08.2019
3662 Clouds 28 1008 78 10000 2.1 240 21:21 14.08.2019
3663 Clouds 28 1008 78 10000 2.1 240 20:59 14.08.2019
3664 Clouds 28 1008 78 10000 2.1 240 20:41 14.08.2019
3665 Clouds 28 1008 78 10000 2.1 240 20:19 14.08.2019
3666 Clouds 28 1009 78 10000 2.1 230 19:55 14.08.2019
3667 Clouds 28 1009 78 10000 2.1 230 19:36 14.08.2019
3668 Clouds 28 1009 78 10000 2.1 250 19:18 14.08.2019
3669 Clouds 28 1009 78 10000 2.1 250 19:18 14.08.2019
3670 Clouds 28 1009 78 10000 2.1 250 18:43 14.08.2019
3671 Clouds 28 1009 78 10000 2.1 250 18:24 14.08.2019
3672 Clouds 28 1010 78 10000 2.1 230 17:59 14.08.2019
3673 Clouds 28 1010 78 10000 2.1 230 17:40 14.08.2019
3674 Clouds 28 1010 78 10000 2.1 230 17:22 14.08.2019
3675 Clouds 28 1010 78 10000 2.1 230 17:22 14.08.2019
3676 Clouds 29 1009 74 10000 3.1 230 16:57 14.08.2019
3677 Clouds 29 1009 74 10000 3.1 230 16:57 14.08.2019
3678 Clouds 29 1009 74 10000 3.1 230 16:39 14.08.2019
3679 Clouds 29 1009 74 10000 3.1 230 16:19 14.08.2019
3680 Clouds 29 1011 79 10000 2.6 240 15:43 14.08.2019
3681 Clouds 29 1011 79 10000 2.6 240 15:43 14.08.2019
3682 Clouds 29 1011 79 10000 2.6 240 15:19 14.08.2019
3683 Clouds 29 1011 79 10000 2.6 240 15:19 14.08.2019
3684 Clouds 29 1009 83 10000 6.2 260 14:57 14.08.2019
3685 Clouds 29 1009 83 10000 6.2 260 14:39 14.08.2019
3686 Clouds 29 1009 83 10000 6.2 260 14:19 14.08.2019
3687 Clouds 29 1008 79 10000 6.2 260 13:44 14.08.2019
3688 Clouds 29 1008 79 10000 6.2 260 13:24 14.08.2019
3689 Clouds 29 1008 79 10000 6.2 260 12:58 14.08.2019
3690 Clouds 29 1008 79 10000 6.2 260 12:39 14.08.2019
3691 Clouds 29 1008 79 10000 6.2 260 12:21 14.08.2019
3692 Clouds 30 1007 79 10000 8.2 260 11:56 14.08.2019
3693 Clouds 30 1007 79 10000 8.2 260 11:38 14.08.2019
3694 Clouds 30 1007 79 10000 8.2 260 11:38 14.08.2019
3695 Clouds 30 1007 79 10000 8.2 260 11:19 14.08.2019
3696 Clouds 30 1007 74 10000 9.3 260 10:43 14.08.2019
3697 Clouds 30 1007 74 10000 9.3 260 10:24 14.08.2019
3698 Clouds 31 1007 74 10000 8.7 270 09:57 14.08.2019
3699 Clouds 31 1007 74 10000 8.7 270 09:38 14.08.2019
3700 Clouds 31 1007 74 10000 8.7 270 09:19 14.08.2019
3701 Clouds 32 1007 66 10000 9.3 260 08:39 14.08.2019
3702 Clouds 32 1007 66 10000 9.3 260 08:21 14.08.2019
3703 Clouds 32 1008 66 10000 7.7 270 07:51 14.08.2019
3704 Clouds 32 1008 66 10000 7.7 270 07:32 14.08.2019
3705 Clouds 31 1008 70 10000 8.2 260 06:46 14.08.2019
3706 Clouds 31 1008 70 10000 8.2 260 05:54 14.08.2019
3707 Clouds 31 1008 70 10000 8.2 260 05:24 14.08.2019
3708 Clouds 30 1009 74 10000 7.2 250 03:38 14.08.2019
3709 Clouds 29 1009 79 10000 5.1 260 02:33 14.08.2019
3710 Clouds 29 1009 79 10000 3.6 240 01:48 14.08.2019
3711 Clouds 29 1009 79 10000 3.6 240 01:18 14.08.2019
3712 Clouds 28 1008 88 10000 5.1 250 23:50 13.08.2019
3713 Clouds 28 1008 88 10000 5.1 250 23:25 13.08.2019
3714 Clouds 28 1007 88 10000 4.1 240 22:59 13.08.2019
3715 Clouds 28 1007 88 10000 4.1 240 22:39 13.08.2019
3716 Clouds 28 1007 88 10000 4.1 240 22:21 13.08.2019
3717 Clouds 28 1007 83 10000 4.1 240 21:58 13.08.2019
3718 Rain 27 1007 90 0 2.24 170 21:38 13.08.2019
3719 Rain 27 1007 90 0 2.24 170 21:38 13.08.2019
3720 Clouds 28 1008 83 10000 3.1 240 21:19 13.08.2019
3721 Clouds 28 1008 83 10000 3.1 240 20:56 13.08.2019
3722 Clouds 28 1008 83 10000 3.1 240 20:36 13.08.2019
3723 Clouds 28 1008 83 10000 3.1 240 20:18 13.08.2019
3724 Clouds 29 1008 79 10000 4.1 240 19:43 13.08.2019
3725 Clouds 29 1008 79 10000 4.1 240 19:21 13.08.2019
3726 Clouds 28 1009 79 10000 4.1 240 18:56 13.08.2019
3727 Clouds 28 1009 79 10000 4.1 240 18:37 13.08.2019
3728 Clouds 29 1009 79 10000 4.1 240 18:18 13.08.2019
3729 Clouds 29 1009 79 10000 6.2 260 17:41 13.08.2019
3730 Clouds 29 1009 79 10000 6.2 260 17:21 13.08.2019
3731 Clouds 28 1009 79 10000 5.7 250 16:56 13.08.2019
3732 Clouds 29 1009 79 10000 5.7 250 16:38 13.08.2019
3733 Clouds 29 1009 79 10000 5.7 250 16:19 13.08.2019
3734 Clouds 29 1009 79 10000 5.7 250 16:19 13.08.2019
3735 Clouds 28 1009 78 10000 3.1 250 15:39 13.08.2019
3736 Clouds 28 1009 78 10000 3.1 250 15:39 13.08.2019
3737 Clouds 28 1009 78 10000 3.1 250 15:20 13.08.2019
3738 Clouds 28 1009 74 10000 2.6 230 14:58 13.08.2019
3739 Clouds 28 1009 74 10000 2.6 230 14:38 13.08.2019
3740 Clouds 29 1009 74 10000 2.6 230 14:18 13.08.2019
3741 Clouds 29 1008 79 10000 3.6 250 13:42 13.08.2019
3742 Clouds 29 1008 79 10000 3.6 250 13:21 13.08.2019
3743 Clouds 29 1008 79 10000 5.1 260 12:59 13.08.2019
3744 Clouds 29 1008 79 10000 5.1 260 12:40 13.08.2019
3745 Clouds 29 1008 79 10000 5.1 260 12:22 13.08.2019
3746 Rain 28 1009 88 7000 8.2 240 11:58 13.08.2019
3747 Rain 29 1009 88 7000 8.2 240 11:38 13.08.2019
3748 Rain 29 1009 88 7000 8.2 240 11:19 13.08.2019
3749 Clouds 29 1007 83 10000 7.7 260 10:56 13.08.2019
3750 Clouds 29 1007 83 10000 7.7 260 10:56 13.08.2019
3751 Clouds 29 1007 83 10000 7.7 260 10:56 13.08.2019
3752 Clouds 29 1007 83 10000 7.7 260 10:36 13.08.2019
3753 Clouds 29 1007 83 10000 7.7 260 10:18 13.08.2019
3754 Clouds 29 1007 74 10000 8.7 250 09:42 13.08.2019
3755 Clouds 29 1007 74 10000 8.7 250 09:23 13.08.2019
3756 Clouds 30 1007 70 10000 8.2 260 08:43 13.08.2019
3757 Clouds 30 1007 70 10000 8.2 260 08:22 13.08.2019
3758 Clouds 30 1007 74 10000 8.2 260 07:56 13.08.2019
3759 Clouds 31 1007 74 10000 8.2 260 07:34 13.08.2019
3760 Clouds 30 1007 74 10000 8.2 260 06:55 13.08.2019
3761 Clouds 30 1007 74 10000 8.2 260 06:34 13.08.2019
3762 Clouds 31 1007 70 10000 9.3 250 05:35 13.08.2019
3763 Clouds 29 1007 79 10000 5.1 260 02:38 13.08.2019
3764 Clouds 29 1007 83 9000 6.2 250 01:59 13.08.2019
3765 Clouds 28 1006 88 8000 7.2 250 00:56 13.08.2019
3766 Clouds 28 1006 88 8000 7.2 250 00:37 13.08.2019
3767 Clouds 28 1006 88 8000 6.2 250 23:49 12.08.2019
3768 Clouds 28 1006 88 8000 6.2 250 23:25 12.08.2019
3769 Clouds 28 1006 88 9000 4.1 240 22:58 12.08.2019
3770 Clouds 28 1006 88 9000 4.1 240 22:39 12.08.2019
3771 Clouds 28 1006 88 9000 4.1 240 22:19 12.08.2019
3772 Rain 27 1006 94 8000 5.1 250 21:55 12.08.2019
3773 Rain 27 1006 94 8000 5.1 250 21:55 12.08.2019
3774 Rain 27 1006 94 8000 5.1 250 21:37 12.08.2019
3775 Rain 27 1006 94 8000 5.1 250 21:18 12.08.2019
3776 Rain 27 1007 88 8000 4.1 260 20:56 12.08.2019
3777 Rain 27 1007 88 8000 4.1 260 20:37 12.08.2019
3778 Rain 27 1007 88 8000 4.1 260 20:19 12.08.2019
3779 Rain 27 1007 94 8000 5.1 250 19:55 12.08.2019
3780 Rain 27 1007 94 8000 5.1 250 19:36 12.08.2019
3781 Rain 27 1007 94 8000 5.1 250 19:18 12.08.2019
3782 Rain 28 1008 83 8000 7.2 240 18:54 12.08.2019
3783 Rain 27 1008 83 8000 7.2 240 18:36 12.08.2019
3784 Rain 27 1008 83 8000 7.2 240 18:18 12.08.2019
3785 Rain 28 1008 83 8000 8.2 240 17:46 12.08.2019
3786 Rain 28 1008 83 8000 8.2 240 17:27 12.08.2019
3787 Clouds 28 1008 79 10000 5.1 260 16:56 12.08.2019
3788 Clouds 28 1008 79 10000 5.1 260 16:38 12.08.2019
3789 Clouds 29 1008 79 10000 5.1 260 16:19 12.08.2019
3790 Clouds 29 1008 79 10000 5.1 260 16:19 12.08.2019
3791 Clouds 28 1008 88 10000 4.6 250 15:57 12.08.2019
3792 Clouds 28 1008 88 10000 4.6 250 15:57 12.08.2019
3793 Clouds 28 1008 88 10000 4.6 250 15:57 12.08.2019
3794 -273 0 0 0 0 0 15:38 12.08.2019
3795 Clouds 28 1008 88 10000 4.6 250 15:20 12.08.2019
3796 Clouds 28 1008 83 9000 7.2 250 14:43 12.08.2019
3797 Clouds 28 1008 83 9000 7.2 250 14:24 12.08.2019
3798 Rain 29 1007 83 10000 8.2 250 13:59 12.08.2019
3799 Rain 29 1007 83 10000 8.2 250 13:41 12.08.2019
3800 Rain 29 1007 83 10000 8.2 250 13:23 12.08.2019
3801 Clouds 29 1007 83 10000 7.2 260 12:43 12.08.2019
3802 Clouds 29 1007 83 10000 7.2 260 12:22 12.08.2019
3803 Clouds 29 1006 79 10000 8.7 260 11:48 12.08.2019
3804 Clouds 30 1006 79 10000 8.7 260 11:29 12.08.2019
3805 Clouds 30 1006 79 10000 9.3 250 10:59 12.08.2019
3806 Clouds 30 1006 79 10000 9.3 250 10:40 12.08.2019
3807 Clouds 30 1006 79 10000 9.3 250 10:22 12.08.2019
3808 Clouds 30 1006 79 10000 9.3 250 10:22 12.08.2019
3809 Clouds 31 1006 74 10000 7.7 250 09:56 12.08.2019
3810 Clouds 31 1006 74 10000 7.7 250 09:37 12.08.2019
3811 Clouds 31 1006 74 10000 7.7 250 09:37 12.08.2019
3812 Clouds 31 1006 74 10000 7.7 250 09:18 12.08.2019
3813 Clouds 31 1006 70 10000 9.3 260 08:41 12.08.2019
3814 Clouds 31 1006 70 10000 9.3 260 08:23 12.08.2019
3815 Clouds 31 1007 74 10000 9.3 260 07:56 12.08.2019
3816 Clouds 30 1007 74 10000 9.3 260 07:35 12.08.2019
3817 Rain 30 1008 74 9000 9.8 250 06:54 12.08.2019
3818 Rain 29 1008 74 9000 9.8 250 06:20 12.08.2019
3819 Clouds 30 1008 74 10000 9.3 260 04:29 12.08.2019
3820 Clouds 29 1007 79 10000 6.7 250 02:43 12.08.2019
3821 Clouds 29 1007 79 10000 7.2 250 01:45 12.08.2019
3822 Clouds 29 1007 79 10000 7.2 250 01:18 12.08.2019
3823 Clouds 28 1006 83 10000 5.7 250 00:54 12.08.2019
3824 Clouds 28 1006 83 10000 5.7 250 00:36 12.08.2019
3825 Clouds 28 1006 83 10000 5.7 250 00:18 12.08.2019
3826 Clouds 28 1006 83 10000 6.7 250 23:39 11.08.2019
3827 Clouds 28 1006 83 10000 6.7 250 23:20 11.08.2019
3828 Clouds 28 1005 83 10000 7.7 250 22:56 11.08.2019
3829 Clouds 28 1005 83 10000 7.7 250 22:37 11.08.2019
3830 Clouds 28 1005 83 10000 7.7 250 22:18 11.08.2019
3831 Clouds 28 1005 83 10000 7.7 250 22:18 11.08.2019
3832 Clouds 28 1006 78 10000 4.6 250 21:56 11.08.2019
3833 Clouds 28 1006 78 10000 4.6 250 21:38 11.08.2019
3834 Clouds 28 1006 78 10000 4.6 250 21:19 11.08.2019
3835 Clouds 28 1006 78 10000 5.1 240 20:44 11.08.2019
3836 Clouds 28 1006 78 10000 5.1 240 20:23 11.08.2019
3837 Clouds 28 1007 78 10000 5.1 240 19:56 11.08.2019
3838 Clouds 28 1007 78 10000 5.1 240 19:55 11.08.2019
3839 Clouds 28 1007 78 10000 5.1 240 19:36 11.08.2019
3840 Clouds 28 1007 78 10000 5.1 240 19:18 11.08.2019
3841 Clouds 28 1008 78 10000 5.1 240 18:39 11.08.2019
3842 Clouds 28 1008 78 10000 5.1 240 18:19 11.08.2019
3843 Clouds 28 1008 78 10000 4.1 240 17:54 11.08.2019
3844 Clouds 28 1008 78 10000 4.1 240 17:36 11.08.2019
3845 Clouds 28 1008 78 10000 4.1 240 17:18 11.08.2019
3846 Clouds 28 1008 83 10000 4.1 240 16:40 11.08.2019
3847 Clouds 28 1008 83 10000 4.1 240 16:22 11.08.2019
3848 Clouds 28 1008 83 10000 6.2 250 15:57 11.08.2019
3849 Clouds 28 1008 83 10000 6.2 250 15:39 11.08.2019
3850 Clouds 28 1008 83 10000 6.2 250 15:21 11.08.2019
3851 Clouds 28 1007 78 10000 6.2 250 14:54 11.08.2019
3852 Clouds 28 1007 78 10000 6.2 250 14:36 11.08.2019
3853 Clouds 28 1007 78 10000 6.2 250 14:18 11.08.2019
3854 Clouds 29 1007 79 10000 7.2 250 13:41 11.08.2019
3855 Clouds 29 1007 79 10000 7.2 250 13:22 11.08.2019
3856 Rain 29 1006 83 9000 8.2 250 12:41 11.08.2019
3857 Rain 29 1006 83 9000 8.2 250 12:22 11.08.2019
3858 Clouds 29 1005 74 10000 9.3 260 11:41 11.08.2019
3859 Clouds 29 1005 74 10000 9.3 260 11:23 11.08.2019
3860 Clouds 30 1005 79 10000 9.3 260 10:57 11.08.2019
3861 Clouds 30 1005 79 10000 9.3 260 10:39 11.08.2019
3862 Clouds 30 1005 79 10000 9.3 260 10:20 11.08.2019
3863 Clouds 30 1006 74 10000 8.2 250 09:55 11.08.2019
3864 Clouds 30 1006 74 10000 8.2 250 09:37 11.08.2019
3865 Clouds 30 1006 74 10000 8.2 250 09:18 11.08.2019
3866 Rain 30 1006 62 9000 7.7 260 08:41 11.08.2019
3867 Rain 30 1006 62 9000 7.7 260 08:22 11.08.2019
3868 Clouds 31 1007 62 10000 9.3 260 07:46 11.08.2019
3869 Clouds 31 1007 62 10000 9.3 260 07:20 11.08.2019
3870 Clouds 31 1007 66 10000 9.3 260 06:38 11.08.2019
3871 Clouds 31 1008 66 10000 9.8 260 05:33 11.08.2019
3872 Clouds 30 1008 79 10000 8.7 260 02:54 11.08.2019
3873 Clouds 29 1008 79 10000 8.7 260 02:26 11.08.2019
3874 Clouds 29 1008 79 10000 6.7 260 01:35 11.08.2019
3875 Clouds 28 1007 78 10000 5.1 250 00:56 11.08.2019
3876 Clouds 28 1007 78 10000 5.1 250 00:36 11.08.2019
3877 Clouds 28 1007 78 10000 5.1 250 00:36 11.08.2019
3878 Clouds 28 1007 78 10000 5.1 250 00:18 11.08.2019
3879 Clouds 28 1007 78 10000 4.6 250 23:39 10.08.2019
3880 Clouds 28 1007 78 10000 4.6 250 23:20 10.08.2019
3881 Clouds 28 1007 83 10000 4.6 250 22:42 10.08.2019
3882 Clouds 28 1007 83 10000 4.6 250 22:23 10.08.2019
3883 Rain 28 1007 78 10000 5.1 240 21:56 10.08.2019
3884 Rain 28 1007 78 10000 5.1 240 21:56 10.08.2019
3885 Rain 28 1007 78 10000 5.1 240 21:36 10.08.2019
3886 Rain 27 1007 78 10000 5.1 240 21:18 10.08.2019
3887 Clouds 28 1007 78 10000 3.1 240 20:42 10.08.2019
3888 Clouds 28 1007 78 10000 3.1 240 20:21 10.08.2019
3889 Clouds 28 1007 78 10000 6.2 240 19:56 10.08.2019
3890 Clouds 28 1007 78 10000 6.2 240 19:37 10.08.2019
3891 Clouds 28 1007 78 10000 6.2 240 19:19 10.08.2019
3892 Clouds 28 1008 78 10000 3.6 250 18:39 10.08.2019
3893 Clouds 28 1008 78 10000 3.6 250 18:20 10.08.2019
3894 Clouds 28 1008 78 10000 4.6 230 17:44 10.08.2019
3895 Clouds 28 1008 78 10000 4.6 230 17:24 10.08.2019
3896 Clouds 28 1008 78 10000 2.1 220 16:46 10.08.2019
3897 Clouds 28 1008 78 10000 2.1 220 16:28 10.08.2019
3898 Clouds 29 1008 74 10000 2.6 230 15:54 10.08.2019
3899 Clouds 29 1008 74 10000 2.6 230 15:25 10.08.2019
3900 Clouds 29 1007 74 10000 5.1 240 14:45 10.08.2019
3901 Clouds 29 1007 74 10000 5.1 240 14:22 10.08.2019
3902 Clouds 29 1007 74 10000 5.1 240 13:42 10.08.2019
3903 Clouds 29 1007 74 10000 5.1 240 13:21 10.08.2019
3904 Clouds 29 1006 70 10000 5.1 230 12:59 10.08.2019
3905 Clouds 29 1006 70 10000 5.1 230 12:39 10.08.2019
3906 Clouds 29 1006 70 10000 5.1 230 12:21 10.08.2019
3907 Clouds 30 1006 70 10000 8.2 250 11:42 10.08.2019
3908 Clouds 30 1006 70 10000 8.2 250 11:23 10.08.2019
3909 Clouds 31 1006 66 10000 9.3 260 10:59 10.08.2019
3910 Clouds 31 1006 66 10000 9.3 260 10:38 10.08.2019
3911 Clouds 31 1006 66 10000 9.3 260 10:19 10.08.2019
3912 Clouds 31 1006 62 10000 7.2 240 09:43 10.08.2019
3913 Clouds 31 1006 62 10000 7.2 240 09:24 10.08.2019
3914 Clouds 31 1006 66 10000 4.1 240 08:56 10.08.2019
3915 Clouds 31 1006 66 10000 4.1 240 08:37 10.08.2019
3916 Clouds 31 1006 66 10000 4.1 240 08:18 10.08.2019
3917 Clouds 31 1006 70 10000 7.7 230 07:46 10.08.2019
3918 Clouds 31 1006 70 10000 7.7 230 07:22 10.08.2019
3919 Clouds 31 1007 74 10000 6.2 220 06:46 10.08.2019
3920 Rain 29 1007 79 10000 6.2 230 05:46 10.08.2019
3921 Rain 29 1007 79 10000 6.2 230 05:19 10.08.2019
3922 Rain 27 1007 88 10000 5.1 230 03:51 10.08.2019
3923 Rain 27 1007 88 9000 6.2 240 02:38 10.08.2019
3924 Rain 27 1006 94 8000 3.1 290 01:44 10.08.2019
3925 Rain 26 1006 94 10000 3.1 280 01:24 10.08.2019
3926 Rain 26 1005 100 10000 1.5 210 00:59 10.08.2019
3927 Clouds 27 1005 100 10000 1.5 210 00:40 10.08.2019
3928 Clouds 26 1005 100 10000 1.5 210 00:18 10.08.2019
3929 Clouds 27 1005 100 10000 2.1 230 23:39 09.08.2019
3930 Clouds 27 1005 100 10000 2.1 230 23:20 09.08.2019
3931 Clouds 27 1005 100 10000 2.1 230 23:20 09.08.2019
3932 Rain 27 1005 100 8000 2.6 250 22:54 09.08.2019
3933 Rain 27 1005 100 8000 2.6 250 22:36 09.08.2019
3934 Rain 26 1005 100 8000 2.6 250 22:18 09.08.2019
3935 Rain 27 1005 100 10000 3.6 220 21:40 09.08.2019
3936 Rain 27 1005 100 10000 3.6 220 21:21 09.08.2019
3937 Rain 26 1005 100 6000 5.1 230 20:56 09.08.2019
3938 Rain 26 1005 100 6000 5.1 230 20:38 09.08.2019
3939 Rain 26 1005 100 6000 5.1 230 20:18 09.08.2019
3940 Clouds 28 1005 78 10000 5.1 240 19:43 09.08.2019
3941 Clouds 28 1005 78 10000 5.1 240 19:22 09.08.2019
3942 Rain 28 1006 88 8000 6.7 220 18:54 09.08.2019
3943 Rain 28 1006 88 9000 3.6 250 18:36 09.08.2019
3944 Rain 28 1006 88 9000 3.6 250 18:36 09.08.2019
3945 Rain 27 1006 88 9000 3.6 250 18:18 09.08.2019
3946 Rain 28 1006 78 10000 3.6 230 17:42 09.08.2019
3947 Rain 28 1006 78 10000 3.6 230 17:23 09.08.2019
3948 -273 0 0 0 0 0 16:54 09.08.2019
3949 Clouds 28 1006 83 10000 4.1 250 16:36 09.08.2019
3950 Clouds 28 1006 83 10000 4.1 250 16:18 09.08.2019
3951 Clouds 28 1006 88 10000 4.1 230 15:41 09.08.2019
3952 Clouds 28 1006 88 10000 4.1 230 15:21 09.08.2019
3953 -273 0 0 0 0 0 14:57 09.08.2019
3954 Clouds 28 1005 88 9000 6.2 210 14:56 09.08.2019
3955 Clouds 28 1005 88 9000 6.2 210 14:56 09.08.2019
3956 Clouds 28 1005 88 9000 6.2 210 14:37 09.08.2019
3957 Clouds 28 1005 88 9000 6.2 210 14:19 09.08.2019
3958 Clouds 28 1004 88 9000 4.6 240 13:43 09.08.2019
3959 Clouds 28 1004 88 9000 4.6 240 13:20 09.08.2019
3960 Clouds 28 1003 88 8000 4.1 240 12:47 09.08.2019
3961 Clouds 28 1003 88 8000 4.1 240 12:24 09.08.2019
3962 Rain 28 1003 88 8000 5.1 230 11:59 09.08.2019
3963 Rain 28 1003 88 8000 5.1 230 11:38 09.08.2019
3964 Rain 28 1003 88 8000 5.1 230 11:19 09.08.2019
3965 Rain 27 1003 94 7000 7.2 270 10:41 09.08.2019
3966 Rain 27 1003 94 7000 7.2 270 10:22 09.08.2019
3967 Rain 27 1004 94 7000 10.3 240 09:46 09.08.2019
3968 Rain 27 1004 94 7000 10.3 240 09:20 09.08.2019
3969 Rain 26 1004 100 5000 10.3 270 08:59 09.08.2019
3970 Rain 26 1004 100 5000 10.3 270 08:41 09.08.2019
3971 Rain 26 1004 100 5000 10.3 270 08:21 09.08.2019
3972 Rain 25 1004 100 7000 7.2 240 07:53 09.08.2019
3973 Rain 26 1004 100 7000 7.2 240 07:24 09.08.2019
3974 Rain 26 1004 94 10000 4.1 230 06:56 09.08.2019
3975 Clouds 27 1004 94 10000 4.1 230 06:36 09.08.2019
3976 Clouds 27 1004 94 9000 5.1 230 05:58 09.08.2019
3977 Rain 26 1005 94 8000 7.2 240 04:25 09.08.2019
3978 Clouds 27 1003 83 8000 3.1 220 02:23 09.08.2019
3979 Rain 27 1001 100 8000 3.1 230 00:56 09.08.2019
3980 Rain 26 1001 100 8000 3.1 230 00:38 09.08.2019
3981 Rain 27 1001 100 8000 3.1 230 00:20 09.08.2019
3982 Rain 27 1001 100 8000 2.1 230 23:39 08.08.2019
3983 Rain 27 1001 100 8000 2.1 230 23:20 08.08.2019
3984 Rain 27 1001 100 8000 2.1 220 22:59 08.08.2019
3985 Rain 26 1000 97 0 3.58 218 22:37 08.08.2019
3986 Rain 27 1001 100 9000 2.1 220 22:19 08.08.2019
3987 Rain 27 1001 100 9000 2.1 220 21:59 08.08.2019
3988 Rain 27 1001 100 9000 2.1 220 21:40 08.08.2019
3989 Rain 27 1001 100 9000 2.1 220 21:21 08.08.2019
3990 Rain 27 1001 100 7000 4.1 240 20:55 08.08.2019
3991 Rain 26 1001 100 7000 4.1 240 20:37 08.08.2019
3992 Rain 27 1001 100 7000 4.1 240 20:19 08.08.2019
3993 Rain 27 1002 100 7000 7.2 240 19:43 08.08.2019
3994 Rain 27 1002 100 7000 7.2 240 19:21 08.08.2019
3995 Rain 27 1002 100 8000 4.6 240 18:43 08.08.2019
3996 Rain 27 1002 100 8000 4.6 240 18:23 08.08.2019
3997 Clouds 27 1003 100 9000 6.2 230 17:56 08.08.2019
3998 Rain 26 1003 100 9000 6.2 230 17:37 08.08.2019
3999 Clouds 27 1003 100 9000 6.2 230 17:19 08.08.2019
4000 Clouds 27 1003 100 7000 5.7 260 16:43 08.08.2019
4001 Clouds 27 1003 100 7000 5.7 260 16:43 08.08.2019
4002 Clouds 27 1003 100 7000 5.7 260 16:24 08.08.2019
4003 Rain 27 1003 94 7000 3.1 240 15:59 08.08.2019
4004 Rain 27 1003 94 7000 3.1 240 15:59 08.08.2019
4005 Rain 27 1003 94 7000 3.1 240 15:41 08.08.2019
4006 Rain 27 1003 94 7000 3.1 240 15:22 08.08.2019
4007 Clouds 27 1001 94 9000 6.2 260 14:42 08.08.2019
4008 Clouds 27 1001 94 9000 6.2 260 14:23 08.08.2019
4009 Clouds 27 1001 88 10000 2.6 230 13:59 08.08.2019
4010 Clouds 27 1001 88 10000 2.6 230 13:59 08.08.2019
4011 Rain 27 1001 88 10000 2.6 230 13:38 08.08.2019
4012 Clouds 27 1001 88 10000 2.6 230 13:18 08.08.2019
4013 Rain 27 1001 94 9000 4.6 220 12:40 08.08.2019
4014 Rain 27 1001 94 9000 4.6 220 12:20 08.08.2019
4015 Rain 27 1000 88 7000 5.7 240 11:56 08.08.2019
4016 Rain 26 1000 88 7000 5.7 240 11:37 08.08.2019
4017 Rain 28 1000 88 7000 5.7 240 11:18 08.08.2019
4018 Clouds 30 999 66 10000 5.1 220 10:41 08.08.2019
4019 Clouds 30 999 66 10000 5.1 220 10:41 08.08.2019
4020 Clouds 30 999 66 10000 5.1 220 10:21 08.08.2019
4021 Clouds 30 999 70 10000 5.7 240 09:45 08.08.2019
4022 Clouds 29 999 70 10000 5.7 240 09:27 08.08.2019
4023 Clouds 28 1000 94 10000 5.1 230 08:56 08.08.2019
4024 Clouds 28 1000 94 10000 5.1 230 08:36 08.08.2019
4025 Clouds 28 1000 94 10000 5.1 230 08:18 08.08.2019
4026 Rain 27 1001 94 8000 5.1 230 07:40 08.08.2019
4027 Rain 27 1001 94 8000 5.1 230 07:19 08.08.2019
4028 Rain 26 1001 100 8000 7.2 240 06:47 08.08.2019
4029 Rain 26 1001 100 8000 7.2 240 06:23 08.08.2019
4030 Rain 26 1001 100 5000 8.2 250 05:51 08.08.2019
4031 Rain 27 1000 94 7000 5.1 230 04:48 08.08.2019
4032 Rain 27 1000 89 8000 7.2 250 03:51 08.08.2019
4033 Clouds 29 999 83 9000 4.1 230 01:59 08.08.2019
4034 Clouds 28 999 83 9000 4.1 230 01:33 08.08.2019
4035 Clouds 28 999 88 9000 3.1 200 00:25 08.08.2019
4036 Clouds 28 999 83 10000 1.5 220 23:46 07.08.2019
4037 Clouds 28 999 83 10000 1.5 220 23:19 07.08.2019
4038 Clouds 27 998 83 10000 3.1 200 22:55 07.08.2019
4039 Clouds 27 998 83 10000 3.1 200 22:36 07.08.2019
4040 Clouds 27 998 83 10000 3.1 200 22:36 07.08.2019
4041 Clouds 27 998 83 10000 3.1 200 22:18 07.08.2019
4042 Clouds 27 998 83 10000 2.1 220 21:54 07.08.2019
4043 Clouds 28 998 83 10000 2.1 220 21:36 07.08.2019
4044 Clouds 27 998 83 10000 2.1 220 21:18 07.08.2019
4045 Rain 26 997 90 0 4.02 152 20:41 07.08.2019
4046 Clouds 27 999 88 10000 3.1 220 20:23 07.08.2019
4047 Clouds 27 999 88 10000 3.1 220 20:23 07.08.2019
4048 Clouds 27 999 88 10000 3.1 220 19:56 07.08.2019
4049 Clouds 26 999 88 10000 3.1 220 19:38 07.08.2019
4050 Clouds 27 999 88 10000 3.1 220 19:20 07.08.2019
4051 Clouds 27 1000 94 10000 3.1 220 18:42 07.08.2019
4052 Clouds 27 1000 94 10000 3.1 220 18:21 07.08.2019
4053 Clouds 26 1000 94 10000 3.1 220 17:58 07.08.2019
4054 Clouds 27 1000 94 10000 3.1 220 17:39 07.08.2019
4055 Clouds 27 1000 94 10000 3.1 220 17:21 07.08.2019
4056 Clouds 26 1000 88 10000 4.1 210 16:57 07.08.2019
4057 Clouds 27 1000 88 10000 4.1 210 16:57 07.08.2019
4058 Clouds 27 1000 88 10000 4.1 210 16:39 07.08.2019
4059 Clouds 27 1000 88 10000 4.1 210 16:20 07.08.2019
4060 Clouds 27 1000 88 10000 1.5 0 15:56 07.08.2019
4061 Clouds 26 1000 88 10000 1.5 0 15:37 07.08.2019
4062 Clouds 26 1000 88 10000 1.5 0 15:18 07.08.2019
4063 Clouds 27 1000 100 10000 2.6 220 14:45 07.08.2019
4064 -273 0 0 0 0 0 14:26 07.08.2019
4065 Clouds 28 1000 88 10000 3.1 230 13:45 07.08.2019
4066 Clouds 28 1000 88 10000 3.1 230 13:19 07.08.2019
4067 Clouds 28 999 83 10000 4.1 220 12:58 07.08.2019
4068 Clouds 28 999 83 10000 4.1 220 12:58 07.08.2019
4069 Clouds 28 999 83 10000 4.1 220 12:58 07.08.2019
4070 Clouds 28 999 83 10000 4.1 220 12:39 07.08.2019
4071 Clouds 28 999 83 10000 4.1 220 12:20 07.08.2019
4072 Clouds 28 999 78 10000 3.1 220 11:59 07.08.2019
4073 Clouds 28 999 78 10000 3.1 220 11:40 07.08.2019
4074 Clouds 28 999 78 10000 3.1 220 11:19 07.08.2019
4075 Clouds 28 998 78 10000 8.37 223.34 10:42 07.08.2019
4076 Clouds 28 998 78 10000 8.37 223.34 10:20 07.08.2019
4077 Rain 27 999 94 9000 4.6 230 09:59 07.08.2019
4078 Rain 27 999 94 9000 4.6 230 09:41 07.08.2019
4079 Rain 27 999 94 9000 4.6 230 09:21 07.08.2019
4080 Clouds 28 998 83 10000 3.1 240 08:45 07.08.2019
4081 Rain 28 999 83 9000 4.1 240 08:45 07.08.2019
4082 -273 0 0 0 0 0 08:26 07.08.2019
4083 Rain 27 1000 88 10000 5.1 240 07:52 07.08.2019
4084 Rain 27 1000 88 10000 5.1 240 07:33 07.08.2019
4085 Rain 27 1001 94 10000 4.1 250 06:50 07.08.2019
4086 Rain 27 1001 94 10000 4.1 250 06:27 07.08.2019
4087 Rain 28 1001 88 9000 5.1 240 05:43 07.08.2019
4088 Rain 27 1002 94 7000 4.1 260 04:43 07.08.2019
4089 Clouds 28 1001 83 9000 3.1 240 03:20 07.08.2019
4090 Rain 27 1002 83 8000 2.1 250 02:42 07.08.2019
4091 Rain 27 1001 88 9000 1 220 01:58 07.08.2019
4092 Rain 27 1001 88 9000 1 220 01:24 07.08.2019
4093 Rain 26 1000 100 8000 2.1 210 00:38 07.08.2019
4094 Rain 27 1000 100 8000 2.1 210 00:19 07.08.2019
4095 Rain 27 1000 100 7000 3.1 230 23:40 06.08.2019
4096 Rain 27 1000 100 7000 3.1 230 23:21 06.08.2019
4097 Rain 27 1000 100 7000 3.1 230 23:21 06.08.2019
4098 Rain 27 1000 100 9000 2.1 250 22:42 06.08.2019
4099 Rain 27 1000 100 9000 2.1 250 22:22 06.08.2019
4100 Clouds 27 1000 94 10000 1 220 21:59 06.08.2019
4101 Clouds 27 1000 94 10000 1 220 21:40 06.08.2019
4102 Clouds 27 1000 94 10000 1 220 21:20 06.08.2019
4103 Clouds 27 1000 94 10000 1 220 21:20 06.08.2019
4104 Clouds 27 1000 94 10000 1 220 21:20 06.08.2019
4105 Clouds 27 1000 94 10000 1 220 21:20 06.08.2019
4106 Clouds 27 1000 94 10000 1 220 21:20 06.08.2019
4107 Clouds 27 1001 94 10000 1 220 20:47 06.08.2019
4108 Clouds 27 1001 94 10000 1 220 20:29 06.08.2019
4109 Rain 26 1002 100 8000 2.1 220 19:58 06.08.2019
4110 Rain 26 1002 100 8000 2.1 220 19:38 06.08.2019
4111 Rain 27 1002 100 8000 2.1 220 19:19 06.08.2019
4112 Clouds 27 1002 94 9000 2.1 220 18:43 06.08.2019
4113 Clouds 27 1002 94 9000 2.1 220 18:25 06.08.2019
4114 Rain 26 1003 100 8000 2.1 230 17:58 06.08.2019
4115 Rain 26 1003 100 8000 2.1 230 17:38 06.08.2019
4116 Rain 27 1003 100 8000 2.1 230 17:19 06.08.2019
4117 Rain 27 1003 94 9000 3.6 230 16:54 06.08.2019
4118 Rain 28 1003 94 9000 3.6 230 16:36 06.08.2019
4119 Rain 26 1003 94 9000 3.6 230 16:18 06.08.2019
4120 Rain 28 1003 88 10000 4.1 230 15:55 06.08.2019
4121 Clouds 28 1002 88 10000 2.1 230 15:36 06.08.2019
4122 Rain 27 1002 88 10000 2.1 230 15:18 06.08.2019
4123 Clouds 28 1002 94 10000 2.6 210 14:40 06.08.2019
4124 Clouds 28 1002 94 10000 2.6 210 14:40 06.08.2019
4125 Clouds 28 1002 94 10000 2.6 210 14:40 06.08.2019
4126 Clouds 28 1002 94 10000 2.6 210 14:21 06.08.2019
4127 Clouds 28 1002 88 10000 4.1 220 13:55 06.08.2019
4128 Clouds 28 1002 88 10000 4.1 220 13:37 06.08.2019
4129 Clouds 28 1002 88 10000 4.1 220 13:18 06.08.2019
4130 Clouds 29 1006 70 10000 3.6 260 12:41 06.08.2019
4131 Clouds 29 1006 70 10000 3.6 260 12:41 06.08.2019
4132 Clouds 29 1006 70 10000 3.6 260 12:23 06.08.2019
4133 Clouds 29 1006 70 10000 3.6 260 11:46 06.08.2019
4134 Rain 29 1000 85 0 4.92 210 11:22 06.08.2019
4135 Clouds 29 1000 79 10000 6.2 250 10:59 06.08.2019
4136 Clouds 29 1000 79 10000 6.2 250 10:40 06.08.2019
4137 Clouds 29 1000 79 10000 6.2 250 10:22 06.08.2019
4138 Clouds 30 1000 79 10000 6.7 250 09:43 06.08.2019
4139 Clouds 30 1000 79 10000 6.7 250 09:23 06.08.2019
4140 Clouds 30 1000 74 10000 5.7 240 08:55 06.08.2019
4141 Clouds 30 1000 74 10000 5.7 240 08:36 06.08.2019
4142 Clouds 30 1000 74 10000 5.7 240 08:18 06.08.2019
4143 Clouds 31 1001 79 10000 8.2 250 07:31 06.08.2019
4144 Rain 29 1001 88 7000 5.7 250 06:45 06.08.2019
4145 Rain 29 1001 88 7000 5.7 250 06:45 06.08.2019
4146 Rain 29 1001 88 7000 5.7 250 06:26 06.08.2019
4147 Clouds 30 1002 84 10000 5.1 240 05:46 06.08.2019
4148 Rain 28 1002 88 10000 2.6 220 02:59 06.08.2019
4149 Clouds 27 1002 88 10000 1.5 210 01:36 06.08.2019
4150 Clouds 27 1002 88 10000 2.1 120 00:59 06.08.2019
4151 Clouds 26 1002 88 10000 2.1 120 00:23 06.08.2019
4152 Clouds 27 1001 100 10000 1 110 23:21 05.08.2019
4153 Clouds 27 1002 94 10000 1 120 22:59 05.08.2019
4154 Clouds 27 1002 94 10000 1 120 22:39 05.08.2019
4155 Clouds 27 1002 94 10000 1 120 22:21 05.08.2019
4156 Clouds 27 1002 94 10000 1 150 21:42 05.08.2019
4157 Clouds 27 1002 94 10000 1 150 21:21 05.08.2019
4158 Rain 26 1003 100 9000 1 220 20:58 05.08.2019
4159 Rain 27 1003 100 9000 1 220 20:39 05.08.2019
4160 Rain 27 1003 100 9000 1 220 20:21 05.08.2019
4161 Rain 27 1003 94 9000 2.1 240 19:57 05.08.2019
4162 Rain 26 1003 94 9000 2.1 240 19:38 05.08.2019
4163 Rain 27 1003 94 9000 2.1 240 19:19 05.08.2019
4164 Rain 26 1003 100 9000 3.1 220 18:41 05.08.2019
4165 Rain 27 1003 100 9000 3.1 220 18:20 05.08.2019
4166 Rain 27 1003 100 9000 3.1 220 18:20 05.08.2019
4167 Rain 25 1004 100 8000 3.1 200 17:48 05.08.2019
4168 Rain 27 1004 100 8000 3.1 200 17:29 05.08.2019
4169 Rain 27 1005 100 8000 2.1 220 16:59 05.08.2019
4170 Rain 27 1005 100 8000 2.1 220 16:59 05.08.2019
4171 Rain 27 1005 100 8000 2.1 220 16:41 05.08.2019
4172 Rain 27 1005 100 8000 2.1 220 16:22 05.08.2019
4173 Rain 27 1004 100 5000 2.6 210 15:40 05.08.2019
4174 Rain 27 1004 100 5000 2.6 210 15:20 05.08.2019
4175 Rain 27 1004 94 4000 4.1 230 14:42 05.08.2019
4176 Rain 27 1004 94 4000 4.1 230 14:22 05.08.2019
4177 Rain 26 1002 83 7000 4.1 270 13:48 05.08.2019
4178 Rain 28 1002 83 7000 4.1 270 13:24 05.08.2019
4179 -273 0 0 0 0 0 12:51 05.08.2019
4180 Rain 29 1002 79 10000 1.5 250 12:22 05.08.2019
4181 Clouds 29 1001 74 10000 4.6 260 11:59 05.08.2019
4182 Clouds 30 1001 74 10000 4.6 260 11:40 05.08.2019
4183 Clouds 30 1001 74 10000 4.6 260 11:22 05.08.2019
4184 Clouds 30 1001 74 10000 7.2 260 10:44 05.08.2019
4185 Clouds 30 1001 74 10000 7.2 260 10:26 05.08.2019
4186 Clouds 30 1001 74 10000 8.2 260 09:55 05.08.2019
4187 Clouds 30 1001 74 10000 8.2 260 09:36 05.08.2019
4188 Clouds 30 1001 74 10000 8.2 260 09:18 05.08.2019
4189 Clouds 30 1002 74 10000 6.2 260 08:41 05.08.2019
4190 Clouds 30 1002 74 10000 6.2 260 08:20 05.08.2019
4191 Rain 30 1002 62 10000 7.7 260 07:47 05.08.2019
4192 Rain 31 1002 62 10000 7.7 260 07:27 05.08.2019
4193 Clouds 31 1002 62 10000 6.2 270 06:41 05.08.2019
4194 Clouds 31 1003 58 10000 6.2 270 05:53 05.08.2019
4195 Clouds 30 1003 58 10000 6.2 270 05:20 05.08.2019
4196 Clouds 31 1003 62 10000 6.2 260 04:28 05.08.2019
4197 Rain 29 1003 74 10000 5.1 260 03:38 05.08.2019
4198 Clouds 28 1003 78 10000 4.1 220 02:37 05.08.2019
4199 Clouds 27 1002 94 10000 1 0 01:36 05.08.2019
4200 Rain 26 1002 88 10000 2.1 230 00:43 05.08.2019
4201 Rain 25 1002 88 10000 2.1 230 00:24 05.08.2019
4202 Clouds 26 1002 94 10000 1.5 220 23:59 04.08.2019
4203 Clouds 25 1002 94 10000 1.5 220 23:40 04.08.2019
4204 Clouds 27 1002 94 10000 1.5 220 23:20 04.08.2019
4205 Rain 27 1001 94 10000 2.6 250 22:56 04.08.2019
4206 Rain 26 1001 94 10000 2.6 250 22:37 04.08.2019
4207 Rain 27 1001 94 10000 2.6 250 22:19 04.08.2019
4208 Clouds 27 1001 88 10000 2.6 220 21:43 04.08.2019
4209 Clouds 27 1001 88 10000 2.6 220 21:20 04.08.2019
4210 Clouds 27 1002 94 10000 2.1 240 20:46 04.08.2019
4211 Clouds 27 1002 94 10000 2.1 240 20:21 04.08.2019
4212 Clouds 27 1002 94 10000 1.5 230 19:59 04.08.2019
4213 Clouds 27 1002 94 10000 1.5 230 19:39 04.08.2019
4214 Clouds 27 1002 94 10000 1.5 230 19:39 04.08.2019
4215 Clouds 27 1002 94 10000 1.5 230 19:39 04.08.2019
4216 Clouds 27 1002 94 10000 1.5 230 19:21 04.08.2019
4217 Rain 27 1003 94 6000 3.1 230 18:42 04.08.2019
4218 Rain 27 1003 94 6000 3.1 230 18:21 04.08.2019
4219 Rain 27 1003 88 10000 2.1 220 17:46 04.08.2019
4220 Rain 26 1003 88 10000 2.1 220 17:26 04.08.2019
4221 Rain 27 1003 94 10000 2.1 220 16:59 04.08.2019
4222 Rain 27 1003 94 10000 2.1 220 16:40 04.08.2019
4223 Rain 26 1003 94 10000 2.1 220 16:20 04.08.2019
4224 Rain 26 1003 88 10000 0.5 0 15:44 04.08.2019
4225 Rain 26 1003 88 10000 0.5 0 15:23 04.08.2019
4226 Clouds 26 1003 94 10000 4.1 210 14:45 04.08.2019
4227 Clouds 26 1003 94 10000 4.1 210 14:27 04.08.2019
4228 Rain 26 1003 83 10000 1 0 13:56 04.08.2019
4229 Rain 26 1003 83 10000 1 0 13:38 04.08.2019
4230 Rain 26 1003 83 10000 1 0 13:20 04.08.2019
4231 Rain 26 1002 94 10000 1.5 190 12:44 04.08.2019
4232 Rain 26 1002 94 10000 1.5 190 12:25 04.08.2019
4233 Rain 26 1002 94 10000 2.1 220 11:56 04.08.2019
4234 Rain 26 1002 94 10000 2.1 220 11:37 04.08.2019
4235 Rain 26 1002 94 10000 2.1 220 11:18 04.08.2019
4236 Rain 27 1002 88 8000 3.6 230 10:40 04.08.2019
4237 Rain 27 1002 88 8000 3.6 230 10:19 04.08.2019
4238 Rain 28 1002 83 10000 5.1 250 09:44 04.08.2019
4239 Rain 28 1002 83 10000 5.1 250 09:22 04.08.2019
4240 Clouds 29 1002 83 10000 7.2 260 08:43 04.08.2019
4241 Clouds 28 1002 83 10000 7.2 260 08:25 04.08.2019
4242 Rain 28 1002 83 10000 4.6 250 07:51 04.08.2019
4243 Rain 29 1003 74 9000 3.6 230 06:51 04.08.2019
4244 Rain 29 1003 74 9000 3.6 230 06:28 04.08.2019
4245 Rain 28 1003 78 10000 4.1 220 03:46 04.08.2019
4246 Rain 27 1003 78 10000 5.1 230 02:23 04.08.2019
4247 Clouds 26 1003 94 10000 0.5 0 01:33 04.08.2019
4248 Clouds 26 1002 94 10000 2.1 230 00:46 04.08.2019
4249 Rain 26 1002 94 10000 2.1 230 00:26 04.08.2019
4250 Rain 26 1002 94 10000 2.1 220 23:57 03.08.2019
4251 Clouds 27 1002 94 10000 2.1 220 23:39 03.08.2019
4252 Clouds 26 1002 94 10000 2.1 220 23:18 03.08.2019
4253 Clouds 26 1002 94 10000 2.1 220 23:18 03.08.2019
4254 Clouds 27 1002 88 10000 2.1 240 22:44 03.08.2019
4255 Clouds 27 1002 88 10000 2.1 240 22:20 03.08.2019
4256 Clouds 27 1002 88 10000 2.6 210 21:41 03.08.2019
4257 Clouds 27 1002 88 10000 2.6 210 21:22 03.08.2019
4258 Clouds 27 1003 88 10000 1.5 200 20:57 03.08.2019
4259 Clouds 27 1003 88 10000 1.5 200 20:36 03.08.2019
4260 Rain 25 1003 88 10000 1.5 200 20:18 03.08.2019
4261 Clouds 26 1003 94 10000 2.6 220 19:41 03.08.2019
4262 Clouds 27 1003 94 10000 2.6 220 19:22 03.08.2019
4263 Clouds 27 1004 88 10000 1.5 190 18:49 03.08.2019
4264 Rain 25 1004 88 10000 1.5 190 18:26 03.08.2019
4265 Clouds 25 1005 94 10000 1.5 240 17:47 03.08.2019
4266 Clouds 26 1005 94 10000 1.5 240 17:21 03.08.2019
4267 Rain 27 1005 88 9000 3.1 240 16:55 03.08.2019
4268 Rain 26 1005 88 9000 3.1 240 16:37 03.08.2019
4269 Rain 25 1005 88 9000 3.1 240 16:18 03.08.2019
4270 Clouds 26 1005 100 9000 3.1 230 15:42 03.08.2019
4271 Clouds 26 1005 100 9000 3.1 230 15:20 03.08.2019
4272 Rain 25 1004 94 9000 4.1 230 14:38 03.08.2019
4273 Clouds 27 1004 94 9000 4.1 230 14:19 03.08.2019
4274 Clouds 25 1004 94 9000 5.1 230 13:49 03.08.2019
4275 Clouds 27 1004 94 9000 5.1 230 13:23 03.08.2019
4276 Rain 25 1004 88 10000 2.6 220 12:56 03.08.2019
4277 Rain 26 1004 88 10000 2.6 220 12:37 03.08.2019
4278 Rain 26 1004 88 10000 2.6 220 12:19 03.08.2019
4279 Clouds 26 1003 88 10000 4.1 240 11:45 03.08.2019
4280 Clouds 26 1003 88 10000 4.1 240 11:25 03.08.2019
4281 Clouds 26 1004 88 10000 5.1 230 10:39 03.08.2019
4282 Rain 26 1004 88 10000 5.1 230 10:20 03.08.2019
4283 Rain 26 1004 88 9000 5.1 250 09:38 03.08.2019
4284 Rain 26 1004 88 9000 5.1 250 09:19 03.08.2019
4285 Rain 25 1004 100 7000 5.1 240 08:46 03.08.2019
4286 Rain 25 1005 100 6000 2.6 200 07:41 03.08.2019
4287 Rain 25 1005 100 6000 2.6 200 07:22 03.08.2019
4288 Rain 25 1005 100 7000 1 0 06:21 03.08.2019
4289 Rain 24 1007 100 5000 2.1 290 03:36 03.08.2019
4290 Rain 24 1006 100 7000 2.1 260 02:27 03.08.2019
4291 Rain 25 1005 100 5000 1.5 260 01:22 03.08.2019
4292 Rain 26 1004 100 6000 1 100 00:32 03.08.2019
4293 Rain 26 1004 100 6000 1 100 00:32 03.08.2019
4294 Rain 26 1004 100 7000 2.1 240 23:55 02.08.2019
4295 Rain 25 1004 100 7000 2.1 240 23:37 02.08.2019
4296 Rain 25 1004 100 7000 2.1 240 23:18 02.08.2019
4297 Rain 26 1005 100 6000 3.1 310 22:40 02.08.2019
4298 Rain 26 1005 100 6000 3.1 310 22:22 02.08.2019
4299 Rain 25 1005 100 4000 3.6 270 21:57 02.08.2019
4300 Rain 26 1005 100 4000 3.6 270 21:39 02.08.2019
4301 Rain 26 1005 100 4000 3.6 270 21:21 02.08.2019
4302 Rain 26 1005 100 2500 4.6 290 20:44 02.08.2019
4303 Rain 26 1004 100 7000 4.1 220 20:26 02.08.2019
4304 Rain 26 1005 100 8000 4.6 270 19:55 02.08.2019
4305 Rain 26 1005 100 8000 4.6 270 19:33 02.08.2019
4306 Rain 25 1006 100 8000 1 0 18:57 02.08.2019
4307 Rain 25 1006 100 8000 1 0 18:38 02.08.2019
4308 Rain 25 1006 100 8000 1 0 18:18 02.08.2019
4309 Rain 27 1007 100 6000 3.1 250 17:41 02.08.2019
4310 Rain 27 1007 100 6000 3.1 250 17:22 02.08.2019
4311 Rain 26 1007 100 8000 4.1 240 16:40 02.08.2019
4312 Rain 26 1007 100 8000 4.1 240 16:21 02.08.2019
4313 Rain 25 1008 100 2500 6.2 250 15:57 02.08.2019
4314 Rain 25 1007 100 10000 2.6 210 15:37 02.08.2019
4315 Rain 25 1007 100 10000 2.6 210 15:18 02.08.2019
4316 Rain 25 1007 100 10000 2.6 210 15:18 02.08.2019
4317 Rain 27 1006 94 9000 2.1 230 14:44 02.08.2019
4318 Rain 25 1006 94 9000 2.1 230 14:18 02.08.2019
4319 Rain 27 1006 100 9000 4.1 270 13:46 02.08.2019
4320 Rain 27 1006 100 9000 4.1 270 13:23 02.08.2019
4321 Rain 26 1006 100 3000 7.7 240 12:44 02.08.2019
4322 Rain 26 1006 100 3000 7.7 240 12:21 02.08.2019
4323 Rain 27 1005 100 9000 3.6 240 11:42 02.08.2019
4324 Rain 27 1005 100 9000 3.6 240 11:24 02.08.2019
4325 Rain 26 1005 94 9000 3.1 230 10:49 02.08.2019
4326 Rain 26 1005 94 9000 3.1 230 10:24 02.08.2019
4327 Rain 26 1006 100 2000 5.1 300 09:59 02.08.2019
4328 Rain 26 1006 100 2000 5.1 300 09:41 02.08.2019
4329 Rain 25 1006 100 2000 5.1 300 09:23 02.08.2019
4330 Rain 26 1006 100 6000 2.1 260 08:42 02.08.2019
4331 Rain 26 1006 100 6000 2.1 260 08:20 02.08.2019
4332 Rain 25 1008 94 5000 4.1 260 07:46 02.08.2019
4333 Rain 25 1008 94 5000 4.1 260 07:28 02.08.2019
4334 Rain 25 1008 100 5000 5.1 280 06:41 02.08.2019
4335 Rain 25 1007 100 3000 5.1 330 05:50 02.08.2019
4336 Rain 26 1008 100 7000 3.1 330 03:54 02.08.2019
4337 Rain 26 1008 100 7000 3.1 330 03:24 02.08.2019
4338 Rain 26 1007 94 7000 2.1 150 01:44 02.08.2019
4339 Rain 26 1007 100 8000 2.1 120 00:34 02.08.2019
4340 Rain 25 1007 94 8000 4.1 70 23:46 01.08.2019
4341 Rain 25 1007 94 8000 4.1 70 23:27 01.08.2019
4342 Rain 25 1007 94 8000 4.1 70 23:27 01.08.2019
4343 Rain 25 1007 100 9000 3.1 30 22:46 01.08.2019
4344 Rain 25 1007 100 9000 3.1 30 22:25 01.08.2019
4345 Rain 26 1007 88 8000 4.1 30 21:59 01.08.2019
4346 Rain 26 1007 88 8000 4.1 30 21:41 01.08.2019
4347 Rain 26 1007 88 8000 4.1 30 21:23 01.08.2019
4348 Rain 25 1007 100 5000 5.1 10 20:47 01.08.2019
4349 Rain 27 1007 100 5000 5.1 10 20:23 01.08.2019
4350 Rain 27 1008 88 8000 5.1 340 19:59 01.08.2019
4351 Rain 26 1008 88 8000 5.1 340 19:37 01.08.2019
4352 Rain 26 1008 88 8000 5.1 340 19:18 01.08.2019
4353 Clouds 28 1009 83 10000 4.1 230 18:43 01.08.2019
4354 Clouds 28 1009 83 10000 4.1 230 18:24 01.08.2019
4355 Clouds 28 1009 83 10000 4.1 230 18:24 01.08.2019
4356 Clouds 28 1009 78 10000 4.1 240 17:49 01.08.2019
4357 Clouds 27 1009 78 10000 4.1 240 17:30 01.08.2019
4358 Clouds 28 1009 88 10000 3.6 250 16:45 01.08.2019
4359 Clouds 28 1009 88 10000 3.6 250 16:23 01.08.2019
4360 Clouds 27 1009 83 10000 1 0 15:54 01.08.2019
4361 Clouds 27 1009 83 10000 1 0 15:36 01.08.2019
4362 Clouds 27 1009 83 10000 1 0 15:18 01.08.2019
4363 Clouds 27 1008 83 10000 5.7 246.747 14:41 01.08.2019
4364 Clouds 27 1008 83 10000 5.7 246.747 14:19 01.08.2019
4365 -273 0 0 0 0 0 13:57 01.08.2019
4366 -273 0 0 0 0 0 13:57 01.08.2019
4367 Clouds 26 1007 83 9000 1 0 13:38 01.08.2019
4368 Clouds 27 1007 83 9000 1 0 13:20 01.08.2019
4369 Rain 26 1008 83 9000 1 0 12:42 01.08.2019
4370 Rain 27 1008 83 9000 1 0 12:23 01.08.2019
4371 Rain 27 1007 94 9000 3.6 240 11:43 01.08.2019
4372 Rain 27 1007 94 9000 3.6 240 11:24 01.08.2019
4373 Rain 26 1007 100 8000 5.1 270 10:46 01.08.2019
4374 Rain 26 1007 100 1000 10.3 280 10:28 01.08.2019
4375 Rain 30 1006 63 10000 5.1 260 09:59 01.08.2019
4376 Clouds 31 1006 63 10000 5.1 260 09:41 01.08.2019
4377 Clouds 31 1006 63 10000 5.1 260 09:41 01.08.2019
4378 Clouds 32 1006 63 10000 5.1 260 09:22 01.08.2019
4379 Rain 30 1007 70 9000 7.2 260 08:44 01.08.2019
4380 Rain 30 1007 70 9000 7.2 260 08:20 01.08.2019
4381 Clouds 32 1008 62 10000 6.2 280 07:49 01.08.2019
4382 Clouds 32 1008 62 10000 6.2 280 07:25 01.08.2019
4383 Clouds 32 1008 62 10000 6.2 250 06:48 01.08.2019
4384 Clouds 32 1008 66 10000 5.1 280 05:51 01.08.2019
4385 Clouds 31 1009 66 10000 5.1 130 04:23 01.08.2019
4386 Clouds 29 1009 78 9000 2.1 170 02:33 01.08.2019
4387 Clouds 27 1008 88 8000 3.1 90 00:43 01.08.2019
4388 Clouds 27 1008 88 8000 3.1 90 00:24 01.08.2019
4389 Clouds 27 1008 94 9000 6.72 217.656 23:43 31.07.2019
4390 Clouds 27 1008 94 9000 6.72 217.656 23:21 31.07.2019
4391 Clouds 26 1007 94 10000 6.72 217.656 22:48 31.07.2019
4392 Clouds 27 1007 94 10000 6.72 217.656 22:30 31.07.2019
4393 Clouds 26 1008 88 10000 1 110 21:57 31.07.2019
4394 Clouds 26 1008 88 10000 1 110 21:37 31.07.2019
4395 Clouds 26 1008 88 10000 1 110 21:18 31.07.2019
4396 Clouds 26 1008 88 10000 1 110 21:18 31.07.2019
4397 Clouds 27 1008 88 10000 1 80 20:41 31.07.2019
4398 Clouds 27 1008 88 10000 1 80 20:21 31.07.2019
4399 Clouds 27 1009 88 10000 6.37 223.122 19:41 31.07.2019
4400 Clouds 27 1009 88 10000 6.37 223.122 19:23 31.07.2019
4401 Clouds 27 1010 88 10000 1 100 18:53 31.07.2019
4402 Clouds 26 1010 88 10000 1 100 18:25 31.07.2019
4403 Clouds 26 1010 88 10000 2.1 90 17:56 31.07.2019
4404 Clouds 27 1010 88 10000 2.1 90 17:37 31.07.2019
4405 Clouds 27 1010 88 10000 2.1 90 17:19 31.07.2019
4406 Rain 27 1009 94 10000 2.1 310 16:42 31.07.2019
4407 Rain 27 1009 94 10000 2.1 310 16:19 31.07.2019
4408 Rain 27 1008 78 10000 1 0 15:44 31.07.2019
4409 Rain 28 1008 78 10000 1 0 15:24 31.07.2019
4410 Clouds 28 1007 74 10000 1.5 120 14:43 31.07.2019
4411 Clouds 28 1007 74 10000 1.5 120 14:21 31.07.2019
4412 Clouds 26 1007 78 10000 2.6 30 13:57 31.07.2019
4413 Clouds 26 1007 78 10000 2.6 30 13:38 31.07.2019
4414 Clouds 27 1007 78 10000 2.6 30 13:19 31.07.2019
4415 Clouds 28 1007 78 10000 3.6 350 12:44 31.07.2019
4416 Clouds 25 1007 78 10000 3.6 350 12:26 31.07.2019
4417 Clouds 28 1007 83 10000 4.1 310 11:54 31.07.2019
4418 Rain 26 1007 83 10000 4.1 310 11:36 31.07.2019
4419 Rain 27 1007 83 10000 4.1 310 11:18 31.07.2019
4420 Rain 27 1009 92 0 2.68 333 10:40 31.07.2019
4421 Rain 26 1009 92 0 1.34 296 10:20 31.07.2019
4422 Clouds 31 1006 66 10000 4.1 280 09:43 31.07.2019
4423 Clouds 31 1006 66 10000 4.1 280 09:24 31.07.2019
4424 Clouds 32 1006 63 10000 2.1 300 08:44 31.07.2019
4425 Clouds 32 1006 63 10000 2.1 300 08:25 31.07.2019
4426 Clouds 32 1007 62 10000 2.1 110 07:53 31.07.2019
4427 Clouds 32 1007 62 10000 2.1 110 07:33 31.07.2019
4428 Clouds 32 1008 62 10000 5.1 130 05:54 31.07.2019
4429 Clouds 31 1008 66 10000 3.1 90 04:41 31.07.2019
4430 Clouds 25 1007 83 10000 2.1 90 00:57 31.07.2019
4431 Clouds 26 1007 94 10000 1 200 23:51 30.07.2019
4432 Clouds 26 1007 94 10000 1 200 23:30 30.07.2019
4433 Clouds 26 1008 83 10000 2.1 240 22:59 30.07.2019
4434 Clouds 26 1008 83 10000 2.1 240 22:41 30.07.2019
4435 Clouds 27 1008 83 10000 2.1 240 22:21 30.07.2019
4436 Clouds 26 1007 88 10000 2.1 100 21:38 30.07.2019
4437 Clouds 27 1007 88 10000 2.1 100 21:19 30.07.2019
4438 Clouds 26 1007 88 10000 2.1 120 20:57 30.07.2019
4439 Clouds 26 1007 88 10000 2.1 120 20:38 30.07.2019
4440 Clouds 26 1007 88 10000 2.1 120 20:19 30.07.2019
4441 Clouds 26 1007 83 10000 2.1 130 19:47 30.07.2019
4442 Clouds 27 1007 83 10000 2.1 130 19:29 30.07.2019
4443 Clouds 25 1007 83 10000 2.1 90 18:48 30.07.2019
4444 Clouds 25 1007 83 10000 2.1 90 18:26 30.07.2019
4445 Clouds 26 1009 83 9000 2.1 110 17:58 30.07.2019
4446 Clouds 27 1009 83 9000 2.1 110 17:40 30.07.2019
4447 Clouds 25 1009 83 9000 2.1 110 17:18 30.07.2019
4448 Clouds 25 1009 94 9000 1.5 120 16:46 30.07.2019
4449 Clouds 25 1009 94 9000 1.5 120 16:46 30.07.2019
4450 Clouds 27 1009 94 9000 1.5 120 16:19 30.07.2019
4451 Clouds 27 1009 94 9000 1.5 120 16:19 30.07.2019
4452 Rain 26 1008 94 9000 2.1 90 15:40 30.07.2019
4453 Rain 26 1008 94 9000 2.1 90 15:22 30.07.2019
4454 Rain 26 1008 88 9000 3.1 70 14:43 30.07.2019
4455 Rain 26 1008 88 9000 3.1 70 14:23 30.07.2019
4456 Clouds 25 1008 88 9000 1.5 100 13:56 30.07.2019
4457 Clouds 25 1008 88 9000 1.5 100 13:37 30.07.2019
4458 Clouds 26 1008 88 9000 1.5 100 13:19 30.07.2019
4459 Clouds 26 1007 88 9000 3.1 230 12:43 30.07.2019
4460 Rain 25 1007 88 9000 3.1 230 12:25 30.07.2019
4461 Rain 25 1006 94 6000 7.2 280 11:46 30.07.2019
4462 Rain 26 1006 94 6000 7.2 280 11:26 30.07.2019
4463 Rain 28 1006 74 9000 3.1 310 10:57 30.07.2019
4464 Rain 29 1006 74 9000 3.1 310 10:38 30.07.2019
4465 Rain 29 1006 74 9000 3.1 310 10:38 30.07.2019
4466 Rain 29 1006 74 9000 3.1 310 10:20 30.07.2019
4467 Rain 29 1006 74 9000 3.1 310 10:20 30.07.2019
4468 Clouds 30 1006 70 10000 3.1 280 09:48 30.07.2019
4469 Clouds 30 1006 70 10000 3.1 280 09:28 30.07.2019
4470 Clouds 31 1006 63 10000 4.1 240 08:41 30.07.2019
4471 Clouds 32 1006 63 10000 4.1 240 08:19 30.07.2019
4472 Clouds 31 1007 66 10000 4.1 220 07:43 30.07.2019
4473 Clouds 30 1007 66 10000 4.1 220 07:23 30.07.2019
4474 Clouds 31 1008 70 10000 3.1 230 06:44 30.07.2019
4475 Clouds 29 1008 74 10000 4.1 250 05:36 30.07.2019
4476 Clouds 29 1008 70 10000 3.1 240 04:42 30.07.2019
4477 Clouds 26 1007 83 8000 1 190 01:23 30.07.2019
4478 Rain 25 1007 78 8000 2.1 220 00:28 30.07.2019
4479 Rain 26 1007 83 8000 1 90 23:59 29.07.2019
4480 Clouds 25 1007 83 8000 1 90 23:40 29.07.2019
4481 Clouds 27 1007 83 8000 1 90 23:21 29.07.2019
4482 Rain 26 1008 94 8000 1 250 22:55 29.07.2019
4483 Rain 25 1008 94 8000 1 250 22:37 29.07.2019
4484 Rain 25 1008 94 8000 1 250 22:18 29.07.2019
4485 Rain 26 1008 94 8000 1 240 21:41 29.07.2019
4486 Rain 25 1008 94 8000 1 240 21:23 29.07.2019
4487 Rain 26 1008 88 8000 2.1 270 20:57 29.07.2019
4488 Rain 26 1008 88 8000 2.1 270 20:57 29.07.2019
4489 Rain 25 1008 88 8000 2.1 270 20:38 29.07.2019
4490 Rain 27 1008 88 8000 2.1 270 20:19 29.07.2019
4491 Rain 25 1009 88 8000 2.1 250 19:45 29.07.2019
4492 Rain 25 1009 88 8000 2.1 250 19:23 29.07.2019
4493 Rain 26 1010 88 8000 2.1 240 18:57 29.07.2019
4494 Rain 26 1010 88 8000 2.1 240 18:38 29.07.2019
4495 Rain 27 1010 88 8000 2.1 240 18:19 29.07.2019
4496 Rain 27 1010 83 8000 2.1 260 17:47 29.07.2019
4497 Rain 27 1010 83 8000 2.1 260 17:47 29.07.2019
4498 Rain 28 1010 83 8000 2.1 260 17:27 29.07.2019
4499 Rain 27 1010 88 8000 2.1 270 16:46 29.07.2019
4500 Rain 27 1010 88 8000 2.1 270 16:46 29.07.2019
4501 Rain 27 1010 88 8000 2.1 270 16:27 29.07.2019
4502 Clouds 28 1009 78 8000 1 0 15:54 29.07.2019
4503 Clouds 27 1009 78 8000 1 0 15:36 29.07.2019
4504 Rain 27 1009 78 9000 2.6 90 14:58 29.07.2019
4505 Rain 28 1009 78 9000 2.6 90 14:39 29.07.2019
4506 Rain 28 1009 78 9000 2.6 90 14:21 29.07.2019
4507 Rain 26 1008 127 10000 3.1 260 13:45 29.07.2019
4508 Rain 26 1008 127 10000 3.1 260 13:45 29.07.2019
4509 Rain 26 1008 127 10000 3.1 260 13:23 29.07.2019
4510 Clouds 28 1008 74 10000 2.1 270 12:45 29.07.2019
4511 Clouds 28 1008 74 10000 2.1 270 12:26 29.07.2019
4512 Clouds 28 1008 74 10000 2.1 270 12:26 29.07.2019
4513 Clouds 29 1007 74 10000 2.6 270 11:45 29.07.2019
4514 Clouds 29 1007 74 10000 2.6 270 11:24 29.07.2019
4515 Clouds 29 1007 74 10000 3.6 270 10:59 29.07.2019
4516 Clouds 29 1007 74 10000 3.6 270 10:40 29.07.2019
4517 Clouds 29 1007 74 10000 3.6 270 10:21 29.07.2019
4518 Rain 29 1007 70 10000 6.2 270 09:41 29.07.2019
4519 Rain 30 1007 70 10000 6.2 270 09:21 29.07.2019
4520 Clouds 34 1007 52 10000 6.2 250 08:42 29.07.2019
4521 Clouds 34 1007 52 10000 6.2 250 08:22 29.07.2019
4522 Clouds 32 1008 59 10000 6.2 250 07:45 29.07.2019
4523 Clouds 32 1008 59 10000 6.2 250 07:24 29.07.2019
4524 Clouds 31 1009 62 10000 3.1 150 05:52 29.07.2019
4525 Clouds 30 1009 70 10000 2.1 130 04:59 29.07.2019
4526 Clouds 28 1009 74 10000 2.1 130 02:28 29.07.2019
4527 Clouds 27 1008 78 10000 4.67 207.767 01:46 29.07.2019
4528 Clouds 27 1008 78 10000 3.29 198.38 01:24 29.07.2019
4529 Clouds 26 1008 83 10000 3.29 198.38 00:50 29.07.2019
4530 Clouds 26 1008 83 10000 3.38 230.702 00:22 29.07.2019
4531 Clouds 25 1007 88 10000 1 190 23:41 28.07.2019
4532 Clouds 25 1007 88 10000 1 190 23:19 28.07.2019
4533 Clouds 25 1007 88 10000 1 190 23:19 28.07.2019
4534 Clouds 25 1008 88 10000 1 130 22:41 28.07.2019
4535 Clouds 25 1008 88 10000 1 130 22:22 28.07.2019
4536 Clouds 25 1008 83 10000 1 150 21:49 28.07.2019
4537 Clouds 25 1008 83 10000 1 150 21:19 28.07.2019
4538 Clouds 26 1008 83 10000 0.5 0 20:48 28.07.2019
4539 Clouds 26 1008 83 10000 0.5 0 20:29 28.07.2019
4540 Clouds 27 1009 83 10000 4.04 235.806 19:54 28.07.2019
4541 Clouds 27 1009 83 10000 4.04 235.806 19:36 28.07.2019
4542 Clouds 27 1009 83 10000 4.04 235.806 19:36 28.07.2019
4543 Rain 26 1009 83 10000 4.04 235.806 19:18 28.07.2019
4544 Clouds 26 1009 83 10000 0.5 0 18:42 28.07.2019
4545 Clouds 26 1009 83 10000 0.5 0 18:19 28.07.2019
4546 Rain 26 1010 83 10000 1 0 17:43 28.07.2019
4547 Rain 25 1010 83 10000 1 0 17:22 28.07.2019
4548 Clouds 26 1010 88 10000 1 120 16:57 28.07.2019
4549 Rain 25 1010 88 10000 1 120 16:39 28.07.2019
4550 Rain 25 1010 88 10000 1 120 16:20 28.07.2019
4551 Rain 26 1009 88 10000 1 250 15:43 28.07.2019
4552 Rain 26 1009 88 10000 1 250 15:21 28.07.2019
4553 Rain 26 1009 83 10000 1 240 14:37 28.07.2019
4554 Rain 26 1009 83 10000 1 240 14:19 28.07.2019
4555 Rain 26 1008 83 9000 1 100 13:45 28.07.2019
4556 Rain 26 1008 83 9000 1 100 13:25 28.07.2019
4557 Rain 25 1008 94 9000 3.1 170 12:59 28.07.2019
4558 Rain 25 1008 94 9000 3.1 170 12:40 28.07.2019
4559 Rain 26 1008 94 9000 3.1 170 12:22 28.07.2019
4560 Rain 26 1007 88 10000 9.22 220.102 11:47 28.07.2019
4561 Rain 27 1007 88 10000 9.22 220.102 11:27 28.07.2019
4562 Clouds 27 1007 78 10000 7.2 240 10:41 28.07.2019
4563 Clouds 27 1007 78 10000 7.2 240 10:22 28.07.2019
4564 Clouds 28 1007 74 10000 9.22 220.102 09:47 28.07.2019
4565 Clouds 28 1007 74 10000 9.22 220.102 09:29 28.07.2019
4566 Clouds 28 1007 78 10000 5.1 250 08:52 28.07.2019
4567 Rain 28 1007 78 10000 5.1 250 08:29 28.07.2019
4568 Rain 27 1008 94 7000 4.1 250 07:57 28.07.2019
4569 Rain 27 1008 94 7000 4.1 250 07:37 28.07.2019
4570 Rain 27 1008 94 8000 3.1 240 06:42 28.07.2019
4571 Rain 27 1009 83 10000 8.2 270 05:27 28.07.2019
4572 Rain 28 1008 79 10000 2.1 130 03:30 28.07.2019
4573 Clouds 28 1008 79 10000 1 160 02:23 28.07.2019
4574 Clouds 27 1007 88 10000 0.5 0 01:19 28.07.2019
4575 Clouds 28 1007 88 10000 1.11 61.57 00:44 28.07.2019
4576 Clouds 26 1007 88 10000 1.19 94.828 00:18 28.07.2019
4577 Clouds 26 1007 88 10000 1.19 94.828 23:44 27.07.2019
4578 Clouds 26 1007 88 10000 1.19 94.828 23:19 27.07.2019
4579 Clouds 27 1007 88 10000 1.19 94.828 23:19 27.07.2019
4580 Clouds 26 1007 94 10000 1.19 94.828 22:40 27.07.2019
4581 Clouds 26 1007 94 10000 1.19 94.828 22:19 27.07.2019
4582 Clouds 26 1007 94 10000 1.19 94.828 21:39 27.07.2019
4583 Clouds 27 1007 94 10000 0.75 70.568 21:20 27.07.2019
4584 Clouds 26 1007 88 10000 0.97 258.921 20:50 27.07.2019
4585 Clouds 26 1007 88 10000 0.97 258.921 20:25 27.07.2019
4586 Rain 27 1007 94 10000 0.5 0 19:46 27.07.2019
4587 Rain 27 1007 94 10000 0.5 0 19:26 27.07.2019
4588 Rain 27 1007 94 10000 0.5 0 19:26 27.07.2019
4589 Rain 26 1008 83 10000 2.1 340 18:52 27.07.2019
4590 Rain 27 1008 83 10000 2.1 340 18:34 27.07.2019
4591 Rain 27 1008 83 10000 2.1 340 18:34 27.07.2019
4592 Rain 26 1009 88 10000 2.1 30 17:52 27.07.2019
4593 Rain 26 1009 88 10000 2.1 30 17:33 27.07.2019
4594 Rain 26 1009 94 9000 1.5 360 16:59 27.07.2019
4595 Rain 26 1009 94 9000 1.5 360 16:59 27.07.2019
4596 Rain 26 1009 94 9000 1.5 360 16:40 27.07.2019
4597 Rain 26 1009 94 9000 1.5 360 16:21 27.07.2019
4598 Rain 26 1008 83 9000 3.1 240 15:48 27.07.2019
4599 Rain 28 1008 83 9000 3.1 240 15:20 27.07.2019
4600 Rain 26 1008 95 0 3.8 221.497 14:50 27.07.2019
4601 Rain 27 1008 78 9000 1 0 14:31 27.07.2019
4602 Rain 27 1007 83 10000 1 0 13:55 27.07.2019
4603 Rain 27 1007 83 10000 1 0 13:25 27.07.2019
4604 Rain 28 1007 83 10000 0.5 0 12:59 27.07.2019
4605 Rain 27 1007 83 10000 0.5 0 12:41 27.07.2019
4606 Rain 28 1007 83 10000 0.5 0 12:21 27.07.2019
4607 Clouds 28 1006 83 10000 2.6 210 11:41 27.07.2019
4608 Clouds 28 1006 83 10000 2.6 210 11:23 27.07.2019
4609 Rain 29 1006 79 10000 2.6 220 10:42 27.07.2019
4610 Rain 29 1006 79 10000 2.6 220 10:23 27.07.2019
4611 Rain 29 1007 74 10000 4.1 240 09:43 27.07.2019
4612 Rain 29 1007 74 10000 4.1 240 09:23 27.07.2019
4613 Clouds 31 1007 70 10000 4.1 260 08:52 27.07.2019
4614 Clouds 31 1007 70 10000 4.1 260 08:33 27.07.2019
4615 Clouds 30 1007 74 10000 4.1 260 07:57 27.07.2019
4616 Clouds 30 1007 74 10000 4.1 260 07:38 27.07.2019
4617 Clouds 30 1007 74 10000 4.1 260 07:18 27.07.2019
4618 Clouds 29 1008 74 10000 2.58 239.44 06:49 27.07.2019
4619 Clouds 29 1008 74 10000 2.11 249.85 06:20 27.07.2019
4620 Rain 29 1008 74 10000 4.1 270 05:34 27.07.2019
4621 Rain 30 1008 66 10000 3.1 280 04:38 27.07.2019
4622 Clouds 30 1009 74 10000 3.1 280 03:39 27.07.2019
4623 Clouds 30 1009 79 10000 2.1 290 02:42 27.07.2019
4624 Clouds 28 1008 83 10000 1.83 237.782 01:54 27.07.2019
4625 Clouds 28 1008 83 10000 1.79 251.099 01:31 27.07.2019
4626 Clouds 27 1008 83 10000 0.5 0 00:33 27.07.2019
4627 Clouds 27 1008 78 10000 2.76 251.44 23:58 26.07.2019
4628 Clouds 27 1008 78 10000 2.76 251.44 23:40 26.07.2019
4629 Clouds 27 1008 78 10000 2.76 251.44 23:22 26.07.2019
4630 Clouds 27 1008 78 10000 2.76 251.44 22:42 26.07.2019
4631 Clouds 28 1008 78 10000 2.76 251.44 22:24 26.07.2019
4632 Clouds 28 1008 78 10000 1.5 180 21:49 26.07.2019
4633 Clouds 28 1008 78 10000 1.5 180 21:20 26.07.2019
4634 Clouds 28 1007 78 10000 1.8 259.476 20:48 26.07.2019
4635 Clouds 27 1007 78 10000 1.8 259.476 20:30 26.07.2019
4636 Clouds 28 1009 78 10000 2.1 230 19:45 26.07.2019
4637 Clouds 27 1009 78 10000 2.1 230 19:26 26.07.2019
4638 Clouds 28 1009 83 10000 2.1 240 18:59 26.07.2019
4639 Clouds 28 1009 83 10000 2.1 240 18:41 26.07.2019
4640 Clouds 28 1009 83 10000 2.1 240 18:20 26.07.2019
4641 Clouds 28 1010 83 10000 3.1 230 17:48 26.07.2019
4642 Clouds 28 1010 83 10000 3.1 230 17:20 26.07.2019
4643 Clouds 28 1010 78 10000 2.1 220 16:59 26.07.2019
4644 Clouds 28 1010 78 10000 2.1 220 16:41 26.07.2019
4645 Clouds 28 1010 78 10000 2.1 220 16:41 26.07.2019
4646 Clouds 28 1010 78 10000 2.1 220 16:21 26.07.2019
4647 Clouds 28 1009 78 10000 5.1 250 15:59 26.07.2019
4648 Clouds 28 1009 78 10000 5.1 250 15:40 26.07.2019
4649 Clouds 28 1009 78 10000 5.1 250 15:20 26.07.2019
4650 Clouds 28 1009 78 10000 5.7 250 14:44 26.07.2019
4651 Clouds 28 1009 78 10000 5.7 250 14:23 26.07.2019
4652 Clouds 29 1008 74 10000 5.1 260 13:47 26.07.2019
4653 Clouds 29 1008 74 10000 5.1 260 13:27 26.07.2019
4654 Clouds 29 1007 74 10000 6.2 250 12:49 26.07.2019
4655 Clouds 29 1007 74 10000 6.2 250 12:23 26.07.2019
4656 Clouds 29 1007 74 10000 6.2 260 11:56 26.07.2019
4657 Clouds 30 1007 74 10000 6.2 260 11:36 26.07.2019
4658 Clouds 30 1007 74 10000 6.2 260 11:18 26.07.2019
4659 Clouds 31 1007 70 10000 6.2 260 10:39 26.07.2019
4660 Clouds 31 1007 70 10000 6.2 260 10:19 26.07.2019
4661 Clouds 31 1007 70 10000 5.7 260 09:50 26.07.2019
4662 Clouds 32 1007 70 10000 5.7 260 09:27 26.07.2019
4663 Clouds 31 1008 70 10000 4.1 270 08:41 26.07.2019
4664 Clouds 31 1008 70 10000 4.1 270 08:21 26.07.2019
4665 Clouds 31 1009 66 10000 3.1 260 07:40 26.07.2019
4666 Clouds 31 1009 66 10000 3.1 260 07:21 26.07.2019
4667 Clouds 31 1010 70 10000 4.1 280 06:21 26.07.2019
4668 Clouds 31 1010 66 10000 2.1 260 04:30 26.07.2019
4669 Clouds 30 1011 70 10000 2.1 230 03:51 26.07.2019
4670 Clouds 28 1010 78 10000 3.1 100 01:49 26.07.2019
4671 Clouds 27 1010 78 10000 3.1 100 01:19 26.07.2019
4672 Clouds 27 1009 88 10000 2.1 90 00:29 26.07.2019
4673 Clouds 27 1009 78 10000 2.1 240 23:46 25.07.2019
4674 Clouds 27 1009 78 10000 2.1 240 23:20 25.07.2019
4675 Rain 28 1009 78 10000 2.1 250 22:41 25.07.2019
4676 Rain 28 1009 78 10000 2.1 250 22:22 25.07.2019
4677 Clouds 28 1009 78 10000 3.1 240 21:48 25.07.2019
4678 Clouds 28 1009 78 10000 3.1 240 21:23 25.07.2019
4679 Clouds 26 1009 78 10000 2.1 230 20:58 25.07.2019
4680 Clouds 26 1009 78 10000 2.1 230 20:38 25.07.2019
4681 Clouds 26 1009 78 10000 2.1 230 20:18 25.07.2019
4682 Clouds 27 1009 78 10000 2.1 220 19:40 25.07.2019
4683 Clouds 26 1009 78 10000 2.1 220 19:22 25.07.2019
4684 Clouds 26 1010 78 10000 3.1 250 18:42 25.07.2019
4685 Rain 26 1010 78 10000 3.1 250 18:23 25.07.2019
4686 Thunderstorm 28 1011 88 8000 4.1 240 17:50 25.07.2019
4687 Thunderstorm 28 1011 88 8000 4.1 240 17:32 25.07.2019
4688 Rain 27 1011 78 10000 3.1 260 16:57 25.07.2019
4689 Rain 27 1011 78 10000 3.1 260 16:38 25.07.2019
4690 Clouds 28 1011 78 10000 3.1 260 16:19 25.07.2019
4691 Thunderstorm 27 1012 94 2000 5.7 200 15:44 25.07.2019
4692 Clouds 28 1011 78 10000 3.1 220 15:19 25.07.2019
4693 Clouds 28 1010 78 10000 1 210 14:43 25.07.2019
4694 Clouds 28 1010 78 10000 1 210 14:23 25.07.2019
4695 Rain 28 1009 87 0 0.89 141 13:55 25.07.2019
4696 Rain 28 1009 87 0 2.24 158 13:36 25.07.2019
4697 Rain 28 1009 87 0 0.89 164 13:18 25.07.2019
4698 Rain 28 1009 87 0 0.89 164 13:18 25.07.2019
4699 Clouds 29 1009 74 10000 4.1 240 12:30 25.07.2019
4700 Clouds 30 1008 74 10000 5.1 240 11:47 25.07.2019
4701 Clouds 30 1008 74 10000 5.1 240 11:26 25.07.2019
4702 Clouds 31 1008 74 10000 7.2 260 10:59 25.07.2019
4703 Clouds 31 1008 74 10000 7.2 260 10:37 25.07.2019
4704 Clouds 31 1008 74 10000 7.2 260 10:18 25.07.2019
4705 Clouds 32 1008 70 10000 7.2 270 09:42 25.07.2019
4706 Clouds 32 1008 70 10000 7.2 270 09:24 25.07.2019
4707 Clouds 32 1009 62 10000 5.1 250 08:42 25.07.2019
4708 Clouds 32 1010 70 10000 4.1 240 07:56 25.07.2019
4709 Clouds 31 1010 70 10000 4.1 240 07:34 25.07.2019
4710 Clouds 31 1011 74 10000 6.2 250 06:43 25.07.2019
4711 Clouds 31 1011 74 10000 4.1 270 05:39 25.07.2019
4712 Clouds 31 1011 74 10000 4.1 270 05:20 25.07.2019
4713 Clouds 30 1011 74 10000 3.1 240 04:36 25.07.2019
4714 Clouds 28 1011 83 9000 1 210 01:45 25.07.2019
4715 Clouds 28 1011 83 9000 1 210 01:18 25.07.2019
4716 Clouds 28 1010 83 10000 2.1 160 00:20 25.07.2019
4717 Clouds 27 1010 83 9000 3.1 160 23:46 24.07.2019
4718 Clouds 27 1010 83 9000 3.1 160 23:27 24.07.2019
4719 Clouds 27 1009 83 10000 1 150 22:55 24.07.2019
4720 Clouds 27 1009 83 10000 1 150 22:55 24.07.2019
4721 Clouds 27 1009 83 10000 1 150 22:36 24.07.2019
4722 Clouds 27 1009 83 10000 1 150 22:18 24.07.2019
4723 Clouds 28 1010 83 10000 2.1 140 21:42 24.07.2019
4724 Clouds 28 1010 83 10000 2.1 140 21:21 24.07.2019
4725 Clouds 28 1010 83 10000 2.1 140 21:21 24.07.2019
4726 Clouds 27 1009 83 10000 2.1 160 20:55 24.07.2019
4727 Clouds 27 1009 83 10000 2.1 160 20:37 24.07.2019
4728 Clouds 27 1009 83 10000 2.1 160 20:19 24.07.2019
4729 Clouds 27 1010 78 10000 2.1 170 19:42 24.07.2019
4730 Clouds 27 1010 78 10000 2.1 170 19:22 24.07.2019
4731 Clouds 27 1010 78 10000 1 130 18:45 24.07.2019
4732 Clouds 27 1010 78 10000 1 130 18:25 24.07.2019
4733 Clouds 27 1010 78 10000 1 120 17:56 24.07.2019
4734 Clouds 27 1010 78 10000 1 120 17:37 24.07.2019
4735 Clouds 27 1010 78 10000 1 120 17:18 24.07.2019
4736 Clouds 28 1010 83 8000 1.5 0 16:40 24.07.2019
4737 Clouds 28 1010 83 8000 1.5 0 16:21 24.07.2019
4738 Clouds 29 1010 79 10000 1.5 230 15:39 24.07.2019
4739 Rain 28 1010 79 10000 1.5 230 15:21 24.07.2019
4740 Rain 29 1009 79 0 3.6 250 14:47 24.07.2019
4741 Clouds 29 1009 79 0 3.6 250 14:23 24.07.2019
4742 Clouds 29 1008 79 10000 5.1 240 13:58 24.07.2019
4743 Clouds 29 1008 79 10000 5.1 240 13:36 24.07.2019
4744 Clouds 29 1008 79 10000 5.1 240 13:18 24.07.2019
4745 Clouds 29 1008 74 10000 6.2 240 12:45 24.07.2019
4746 Clouds 30 1008 74 10000 6.2 240 12:22 24.07.2019
4747 Clouds 30 1007 74 10000 7.2 250 11:37 24.07.2019
4748 Clouds 30 1007 74 10000 7.2 250 11:19 24.07.2019
4749 Clouds 31 1007 70 10000 7.2 250 10:42 24.07.2019
4750 Clouds 32 1007 70 10000 7.2 250 10:24 24.07.2019
4751 Clouds 32 1007 70 10000 6.2 260 09:44 24.07.2019
4752 Clouds 32 1007 70 10000 6.2 260 09:44 24.07.2019
4753 Clouds 32 1007 70 10000 6.2 260 09:23 24.07.2019
4754 Clouds 32 1007 62 10000 2.1 290 08:53 24.07.2019
4755 Clouds 32 1007 62 10000 2.1 290 08:27 24.07.2019
4756 Clouds 32 1008 70 10000 3.1 270 07:50 24.07.2019
4757 Clouds 32 1008 70 10000 3.1 270 07:23 24.07.2019
4758 Clouds 32 1009 70 9000 2.1 300 06:28 24.07.2019
4759 Clouds 31 1009 74 8000 3.1 250 05:26 24.07.2019
4760 Clouds 28 1009 94 8000 2.1 220 01:57 24.07.2019
4761 Clouds 27 1009 94 8000 2.1 220 01:28 24.07.2019
4762 Clouds 26 1008 94 8000 2.1 180 00:52 24.07.2019
4763 Clouds 26 1008 94 8000 2.1 180 00:19 24.07.2019
4764 Clouds 26 1007 83 10000 1 260 23:37 23.07.2019
4765 Clouds 26 1007 83 10000 1 260 23:19 23.07.2019
4766 Clouds 26 1007 83 10000 1 260 22:39 23.07.2019
4767 Clouds 26 1007 83 10000 1 260 22:19 23.07.2019
4768 Clouds 26 1008 83 9000 3.1 240 21:46 23.07.2019
4769 Clouds 26 1008 83 9000 3.1 240 21:28 23.07.2019
4770 Clouds 27 1008 83 9000 3.1 250 20:57 23.07.2019
4771 Clouds 26 1008 83 9000 3.1 250 20:39 23.07.2019
4772 Clouds 27 1008 83 9000 3.1 250 20:19 23.07.2019
4773 Clouds 27 1009 94 8000 2.1 260 19:37 23.07.2019
4774 Clouds 27 1009 94 8000 2.1 260 19:18 23.07.2019
4775 Clouds 27 1009 88 8000 2.1 260 18:42 23.07.2019
4776 Clouds 27 1009 88 8000 2.1 260 18:22 23.07.2019
4777 Rain 28 1009 88 8000 2.1 250 17:44 23.07.2019
4778 Rain 28 1009 88 8000 2.1 250 17:23 23.07.2019
4779 Clouds 28 1008 78 8000 3.1 260 16:49 23.07.2019
4780 Clouds 28 1008 78 8000 3.1 260 16:27 23.07.2019
4781 Rain 28 1008 88 7000 4.1 250 15:57 23.07.2019
4782 Rain 28 1008 88 7000 4.1 250 15:38 23.07.2019
4783 Rain 28 1008 88 7000 4.1 250 15:20 23.07.2019
4784 Thunderstorm 28 1008 79 8000 2.1 270 14:37 23.07.2019
4785 Thunderstorm 28 1008 79 8000 2.1 270 14:18 23.07.2019
4786 Thunderstorm 28 1008 88 8000 2.1 260 13:56 23.07.2019
4787 Clouds 29 1007 83 9000 4.1 250 13:37 23.07.2019
4788 Clouds 29 1007 83 9000 4.1 250 13:19 23.07.2019
4789 Clouds 29 1007 74 9000 4.1 240 12:42 23.07.2019
4790 Clouds 30 1007 74 9000 4.1 240 12:22 23.07.2019
4791 Clouds 30 1006 74 9000 4.1 260 11:41 23.07.2019
4792 Clouds 30 1006 74 9000 4.1 260 11:22 23.07.2019
4793 Clouds 31 1005 74 9000 4.1 270 10:51 23.07.2019
4794 Clouds 31 1005 74 9000 4.1 270 10:23 23.07.2019
4795 Clouds 30 1006 79 9000 3.1 260 09:43 23.07.2019
4796 Clouds 31 1006 79 9000 3.1 260 09:22 23.07.2019
4797 Clouds 31 1006 70 8000 3.1 290 08:56 23.07.2019
4798 Clouds 31 1006 70 8000 3.1 290 08:38 23.07.2019
4799 Clouds 31 1006 70 8000 3.1 290 08:18 23.07.2019
4800 Clouds 31 1007 74 9000 4.1 250 07:39 23.07.2019
4801 Clouds 31 1008 74 8000 3.1 260 06:58 23.07.2019
4802 Clouds 31 1008 74 8000 3.1 260 06:36 23.07.2019
4803 Clouds 30 1009 79 9000 3.1 250 04:45 23.07.2019
4804 Clouds 27 1008 83 9000 2.1 230 01:46 23.07.2019
4805 Clouds 26 1007 83 8000 1 120 00:47 23.07.2019
4806 Clouds 26 1007 83 8000 1 120 00:20 23.07.2019
4807 Clouds 26 1007 88 8000 1 180 23:39 22.07.2019
4808 Clouds 26 1007 88 8000 1 180 23:20 22.07.2019
4809 Rain 27 1008 88 8000 1 170 22:45 22.07.2019
4810 Rain 27 1008 88 8000 1 170 22:24 22.07.2019
4811 Rain 26 1008 100 7000 2.1 140 21:56 22.07.2019
4812 Rain 26 1008 100 7000 2.1 140 21:36 22.07.2019
4813 Rain 26 1008 100 7000 2.1 140 21:18 22.07.2019
4814 Rain 26 1008 100 7000 2.1 140 21:18 22.07.2019
4815 Rain 26 1008 100 7000 2.1 150 20:41 22.07.2019
4816 Rain 26 1008 100 7000 2.1 150 20:22 22.07.2019
4817 Rain 27 1008 100 7000 2.1 180 19:42 22.07.2019
4818 Rain 27 1008 100 7000 2.1 180 19:23 22.07.2019
4819 Rain 27 1009 100 8000 2.1 140 18:48 22.07.2019
4820 Rain 27 1009 100 8000 2.1 140 18:48 22.07.2019
4821 Rain 27 1009 100 8000 2.1 140 18:28 22.07.2019
4822 Rain 28 1010 88 8000 2.6 230 17:59 22.07.2019
4823 Rain 27 1010 88 8000 2.6 230 17:38 22.07.2019
4824 Rain 27 1010 88 8000 2.6 230 17:38 22.07.2019
4825 Rain 28 1010 88 8000 2.6 230 17:20 22.07.2019
4826 Rain 27 1009 94 9000 1 190 16:41 22.07.2019
4827 Rain 27 1009 94 9000 1 190 16:41 22.07.2019
4828 Rain 27 1009 94 9000 1 190 16:21 22.07.2019
4829 Rain 27 1009 94 9000 2.1 240 15:46 22.07.2019
4830 Rain 27 1009 94 9000 2.1 240 15:21 22.07.2019
4831 Clouds 28 1009 78 10000 1 260 14:59 22.07.2019
4832 Clouds 27 1009 78 10000 1 260 14:40 22.07.2019
4833 Clouds 27 1009 78 10000 1 260 14:18 22.07.2019
4834 Clouds 27 1008 83 10000 2.1 240 13:40 22.07.2019
4835 Clouds 27 1008 83 10000 2.1 240 13:22 22.07.2019
4836 Clouds 27 1007 78 10000 3.1 260 12:36 22.07.2019
4837 Rain 27 1007 78 9000 6.2 230 11:59 22.07.2019
4838 Rain 27 1007 78 9000 6.2 230 11:41 22.07.2019
4839 Rain 27 1007 78 9000 6.2 230 11:20 22.07.2019
4840 Clouds 28 1006 62 9000 2.1 290 10:41 22.07.2019
4841 Clouds 29 1006 62 9000 2.1 290 10:23 22.07.2019
4842 Rain 29 1006 74 9000 2.1 270 09:42 22.07.2019
4843 Rain 29 1006 74 9000 2.1 270 09:22 22.07.2019
4844 Rain 31 1006 66 9000 3.1 260 08:43 22.07.2019
4845 Clouds 31 1006 66 9000 3.1 260 08:23 22.07.2019
4846 Clouds 32 1007 66 10000 3.1 270 07:54 22.07.2019
4847 Clouds 32 1007 66 10000 3.1 270 07:31 22.07.2019
4848 Clouds 33 1007 70 9000 2.1 240 06:33 22.07.2019
4849 Clouds 29 1009 74 10000 2.1 280 03:46 22.07.2019
4850 Clouds 27 1008 83 10000 1 50 01:49 22.07.2019
4851 Clouds 26 1007 83 10000 2.6 340 00:50 22.07.2019
4852 Clouds 26 1007 83 10000 2.6 340 00:22 22.07.2019
4853 Clouds 26 1007 83 10000 2.6 30 23:51 21.07.2019
4854 Clouds 27 1007 83 10000 2.6 30 23:23 21.07.2019
4855 Clouds 27 1007 83 10000 1.52 340.336 22:41 21.07.2019
4856 Clouds 27 1007 83 10000 1.52 340.336 22:21 21.07.2019
4857 Clouds 27 1007 83 10000 1 0 21:55 21.07.2019
4858 Clouds 27 1007 83 10000 1 0 21:36 21.07.2019
4859 Clouds 27 1007 83 10000 1 0 21:18 21.07.2019
4860 Clouds 27 1007 78 10000 1.5 320 20:41 21.07.2019
4861 Clouds 27 1007 78 10000 1.5 320 20:23 21.07.2019
4862 Rain 27 1008 78 10000 1 0 19:53 21.07.2019
4863 Rain 28 1008 78 10000 1 0 19:29 21.07.2019
4864 Clouds 29 1009 74 10000 2.1 320 18:56 21.07.2019
4865 Clouds 28 1009 74 10000 2.1 320 18:37 21.07.2019
4866 Clouds 28 1009 74 10000 2.1 320 18:19 21.07.2019
4867 Clouds 29 1009 74 10000 3.1 300 17:40 21.07.2019
4868 Clouds 29 1009 74 10000 3.1 300 17:19 21.07.2019
4869 Clouds 28 1009 74 10000 1.5 0 16:42 21.07.2019
4870 Clouds 28 1009 74 10000 1.5 0 16:24 21.07.2019
4871 Clouds 28 1009 78 10000 3.6 10 15:43 21.07.2019
4872 Clouds 27 1009 78 10000 3.6 10 15:22 21.07.2019
4873 Clouds 28 1008 78 10000 3.1 360 14:54 21.07.2019
4874 Clouds 28 1008 78 10000 3.1 360 14:25 21.07.2019
4875 Clouds 28 1008 79 10000 3.6 10 13:57 21.07.2019
4876 Clouds 28 1008 79 10000 3.6 10 13:57 21.07.2019
4877 Clouds 28 1008 79 10000 3.6 10 13:39 21.07.2019
4878 Clouds 29 1008 79 10000 3.6 10 13:19 21.07.2019
4879 Clouds 28 1007 83 10000 3.1 320 12:40 21.07.2019
4880 Clouds 28 1007 83 10000 3.1 320 12:40 21.07.2019
4881 Clouds 28 1007 83 10000 3.1 320 12:21 21.07.2019
4882 Clouds 29 1007 74 10000 52 320 11:45 21.07.2019
4883 Rain 28 1007 74 10000 52 320 11:26 21.07.2019
4884 Rain 29 1007 74 10000 5.7 270 10:47 21.07.2019
4885 Rain 30 1007 74 10000 5.7 270 10:25 21.07.2019
4886 Rain 31 1009 56 0 1.79 0 09:55 21.07.2019
4887 Clouds 31 1007 66 10000 4.1 280 09:35 21.07.2019
4888 Clouds 32 1007 66 10000 4.1 280 08:49 21.07.2019
4889 Clouds 31 1007 66 10000 4.1 280 08:29 21.07.2019
4890 Clouds 32 1008 66 9000 4.1 290 07:53 21.07.2019
4891 Clouds 32 1008 66 9000 4.1 290 07:18 21.07.2019
4892 Clouds 32 1008 70 9000 4.1 280 06:23 21.07.2019
4893 Clouds 30 1009 79 9000 1 280 03:50 21.07.2019
4894 Clouds 28 1009 88 10000 2.1 300 01:51 21.07.2019
4895 Clouds 28 1009 88 10000 2.6 320 00:44 21.07.2019
4896 Clouds 27 1009 88 10000 2.6 320 00:20 21.07.2019
4897 Clouds 28 1008 88 10000 1.5 290 23:44 20.07.2019
4898 Clouds 28 1008 88 10000 1.5 290 23:23 20.07.2019
4899 Clouds 28 1008 83 10000 1.5 300 22:50 20.07.2019
4900 Clouds 28 1008 83 10000 1.5 300 22:23 20.07.2019
4901 Clouds 28 1008 88 10000 1 290 21:59 20.07.2019
4902 Clouds 28 1008 88 10000 1 290 21:39 20.07.2019
4903 Clouds 28 1008 88 10000 1 290 21:21 20.07.2019
4904 Clouds 28 1008 88 10000 2.1 280 20:42 20.07.2019
4905 Clouds 28 1008 88 10000 2.1 280 20:21 20.07.2019
4906 Clouds 28 1009 88 10000 0.5 0 19:48 20.07.2019
4907 Clouds 28 1009 88 10000 0.5 0 19:25 20.07.2019
4908 Clouds 29 1009 83 10000 2.1 220 18:45 20.07.2019
4909 Clouds 29 1009 83 10000 2.1 220 18:24 20.07.2019
4910 Clouds 29 1010 83 10000 1.5 250 17:55 20.07.2019
4911 Clouds 29 1010 83 10000 1.5 250 17:26 20.07.2019
4912 Clouds 29 1010 83 10000 2.1 270 16:46 20.07.2019
4913 Clouds 29 1010 83 10000 2.1 270 16:28 20.07.2019
4914 Clouds 30 1009 74 10000 2.1 290 15:58 20.07.2019
4915 Clouds 30 1009 74 10000 2.1 290 15:40 20.07.2019
4916 Clouds 30 1009 74 10000 2.1 290 15:20 20.07.2019
4917 Clouds 29 1009 83 10000 2.6 250 14:49 20.07.2019
4918 Clouds 29 1009 83 10000 2.6 250 14:29 20.07.2019
4919 Clouds 29 1008 79 10000 5.1 270 13:56 20.07.2019
4920 Clouds 29 1008 79 10000 5.1 270 13:37 20.07.2019
4921 Clouds 30 1008 79 10000 5.1 270 13:18 20.07.2019
4922 Clouds 30 1007 74 10000 4.6 270 12:40 20.07.2019
4923 Clouds 30 1007 74 10000 4.6 270 12:18 20.07.2019
4924 Clouds 31 1007 70 10000 5.1 270 11:41 20.07.2019
4925 Clouds 31 1007 70 10000 5.1 270 11:20 20.07.2019
4926 Clouds 31 1007 74 10000 5.7 270 10:37 20.07.2019
4927 Clouds 31 1007 74 10000 5.7 270 10:37 20.07.2019
4928 Clouds 31 1007 74 10000 5.7 270 10:19 20.07.2019
4929 Clouds 31 1008 74 10000 5.1 290 09:46 20.07.2019
4930 Clouds 31 1008 74 10000 5.1 290 09:24 20.07.2019
4931 Clouds 32 1008 62 10000 6.2 260 08:48 20.07.2019
4932 Clouds 32 1008 62 10000 6.2 260 08:21 20.07.2019
4933 Clouds 32 1009 66 10000 4.1 260 07:28 20.07.2019
4934 Clouds 32 1010 70 10000 5.1 290 06:43 20.07.2019
4935 Clouds 32 1010 66 10000 3.1 270 05:21 20.07.2019
4936 Clouds 31 1010 70 10000 4.1 260 04:30 20.07.2019
4937 Clouds 28 1009 83 10000 2.1 50 01:23 20.07.2019
4938 Clouds 27 1009 88 10000 2.1 40 00:49 20.07.2019
4939 Clouds 27 1009 88 10000 2.1 40 00:26 20.07.2019
4940 Clouds 27 1008 88 10000 1 80 23:50 19.07.2019
4941 Clouds 27 1008 88 10000 1 80 23:29 19.07.2019
4942 Clouds 27 1008 88 10000 1 80 22:59 19.07.2019
4943 Clouds 27 1008 88 10000 1 80 22:40 19.07.2019
4944 Clouds 27 1008 88 10000 1 80 22:19 19.07.2019
4945 Clouds 27 1008 78 10000 0.5 0 21:43 19.07.2019
4946 Clouds 27 1008 78 10000 0.5 0 21:24 19.07.2019
4947 Clouds 27 1009 78 10000 2.1 230 20:42 19.07.2019
4948 Clouds 28 1009 78 10000 2.1 230 20:23 19.07.2019
4949 Clouds 28 1009 78 10000 1 0 19:39 19.07.2019
4950 Clouds 28 1009 78 10000 0.5 0 18:55 19.07.2019
4951 Clouds 28 1009 78 10000 0.5 0 18:37 19.07.2019
4952 Clouds 28 1009 78 10000 0.5 0 18:18 19.07.2019
4953 Clouds 28 1009 88 10000 3.1 260 17:41 19.07.2019
4954 Clouds 28 1009 88 10000 3.1 260 17:23 19.07.2019
4955 Clouds 29 1009 83 10000 4.1 270 16:47 19.07.2019
4956 Clouds 29 1009 83 10000 4.1 270 16:25 19.07.2019
4957 Clouds 29 1009 74 10000 3.1 240 15:47 19.07.2019
4958 Clouds 29 1009 74 10000 3.1 240 15:29 19.07.2019
4959 Clouds 29 1008 74 10000 2.1 230 14:55 19.07.2019
4960 Clouds 29 1008 74 10000 2.1 230 14:37 19.07.2019
4961 Clouds 29 1008 74 10000 2.1 230 14:19 19.07.2019
4962 Clouds 29 1008 79 10000 4.1 260 13:43 19.07.2019
4963 Clouds 29 1008 79 10000 4.1 260 13:22 19.07.2019
4964 Clouds 30 1007 70 10000 5.7 270 12:49 19.07.2019
4965 Clouds 30 1007 70 10000 5.7 270 12:29 19.07.2019
4966 Clouds 31 1006 66 10000 6.2 270 11:47 19.07.2019
4967 Clouds 31 1006 66 10000 6.2 270 11:20 19.07.2019
4968 Clouds 31 1006 66 10000 7.7 260 10:58 19.07.2019
4969 Clouds 32 1006 66 10000 7.7 260 10:39 19.07.2019
4970 Clouds 32 1006 66 10000 7.7 260 10:18 19.07.2019
4971 Clouds 32 1006 62 10000 7.2 260 09:43 19.07.2019
4972 Clouds 32 1006 62 10000 7.2 260 09:22 19.07.2019
4973 Clouds 33 1006 66 10000 4.1 230 08:50 19.07.2019
4974 Clouds 33 1006 66 10000 4.1 230 08:28 19.07.2019
4975 Clouds 33 1007 62 10000 5.1 240 07:33 19.07.2019
4976 Clouds 33 1007 70 10000 5.1 230 06:37 19.07.2019
4977 Clouds 33 1007 70 10000 5.1 230 06:37 19.07.2019
4978 Clouds 30 1007 70 9000 2.1 180 03:53 19.07.2019
4979 Clouds 28 1007 88 9000 2.1 170 01:44 19.07.2019
4980 Clouds 27 1006 100 8000 4.1 250 00:54 19.07.2019
4981 Rain 27 1006 94 9000 4.1 240 23:59 18.07.2019
4982 Rain 26 1006 94 9000 4.1 240 23:40 18.07.2019
4983 Rain 26 1006 94 9000 4.1 240 23:40 18.07.2019
4984 Rain 26 1006 94 9000 4.1 240 23:22 18.07.2019
4985 Rain 26 1006 88 9000 4.1 220 22:44 18.07.2019
4986 Rain 26 1006 88 9000 4.1 220 22:20 18.07.2019
4987 Rain 26 1006 83 9000 3.1 240 21:57 18.07.2019
4988 Rain 26 1006 83 9000 3.1 240 21:38 18.07.2019
4989 Rain 26 1006 83 9000 3.1 240 21:18 18.07.2019
4990 Clouds 28 1008 83 10000 2.1 220 20:45 18.07.2019
4991 Rain 27 1008 83 10000 2.1 220 20:23 18.07.2019
4992 Clouds 28 1007 83 10000 2.1 230 19:49 18.07.2019
4993 Clouds 27 1007 83 10000 2.1 230 19:27 18.07.2019
4994 Clouds 27 1008 83 10000 2.1 220 18:51 18.07.2019
4995 Clouds 27 1008 83 10000 2.1 220 18:22 18.07.2019
4996 Clouds 27 1008 83 10000 3.1 230 17:56 18.07.2019
4997 Clouds 27 1008 83 10000 3.1 230 17:56 18.07.2019
4998 Clouds 28 1008 83 10000 3.1 230 17:37 18.07.2019
4999 Clouds 27 1008 83 10000 3.1 230 17:18 18.07.2019
5000 Clouds 27 1008 88 10000 3.1 210 16:43 18.07.2019
5001 Clouds 28 1008 88 10000 3.1 210 16:24 18.07.2019
5002 Clouds 27 1007 88 10000 4.1 210 15:55 18.07.2019
5003 Clouds 27 1007 88 10000 4.1 210 15:36 18.07.2019
5004 Clouds 27 1007 83 9000 5.1 240 14:55 18.07.2019
5005 Clouds 27 1007 83 9000 5.1 240 14:37 18.07.2019
5006 Rain 27 1005 88 9000 2.1 230 13:57 18.07.2019
5007 Rain 27 1005 88 9000 2.1 230 13:36 18.07.2019
5008 Rain 26 1001 94 4000 7.2 230 13:18 18.07.2019
5009 Rain 26 1001 94 4000 7.2 230 12:42 18.07.2019
5010 Rain 27 1004 88 10000 2.1 230 12:18 18.07.2019
5011 Rain 27 1004 88 10000 2.1 230 11:50 18.07.2019
5012 Rain 28 1004 88 10000 2.1 230 11:27 18.07.2019
5013 Rain 28 1004 88 10000 2.1 230 11:27 18.07.2019
5014 Rain 28 1003 78 10000 5.1 250 10:52 18.07.2019
5015 Rain 29 1003 78 10000 5.1 250 10:18 18.07.2019
5016 Clouds 30 1003 74 10000 5.1 240 09:44 18.07.2019
5017 Clouds 30 1003 74 10000 5.1 240 09:21 18.07.2019
5018 Rain 28 1003 83 9000 5.1 250 08:41 18.07.2019
5019 Rain 28 1004 83 9000 4.1 230 08:18 18.07.2019
5020 Rain 29 1004 83 9000 4.1 230 07:37 18.07.2019
5021 Clouds 30 1004 79 10000 3.1 250 06:59 18.07.2019
5022 Clouds 31 1004 79 10000 3.1 250 06:34 18.07.2019
5023 Rain 28 1004 94 8000 3.1 240 04:19 18.07.2019
5024 Rain 27 1003 100 7000 5.1 220 02:52 18.07.2019
5025 Rain 26 1003 100 6000 6.2 240 01:37 18.07.2019
5026 Clouds 27 1002 94 8000 4.1 220 00:24 18.07.2019
5027 Clouds 28 1002 94 8000 4.1 220 23:45 17.07.2019
5028 Rain 26 1002 94 8000 4.1 220 23:18 17.07.2019
5029 Rain 27 1002 88 8000 4.1 210 22:42 17.07.2019
5030 Clouds 27 1002 88 8000 4.1 210 22:23 17.07.2019
5031 Clouds 27 1002 88 8000 4.1 210 22:23 17.07.2019
5032 Rain 27 1003 88 8000 4.1 220 21:58 17.07.2019
5033 Rain 27 1003 88 8000 4.1 220 21:39 17.07.2019
5034 Rain 27 1003 88 8000 4.1 220 21:20 17.07.2019
5035 Rain 27 1003 88 8000 5.1 230 20:56 17.07.2019
5036 Rain 28 1003 88 8000 5.1 230 20:38 17.07.2019
5037 Rain 27 1003 94 8000 3.1 240 20:19 17.07.2019
5038 Rain 26 1003 94 8000 3.1 240 19:42 17.07.2019
5039 Rain 26 1003 94 8000 3.1 240 19:20 17.07.2019
5040 Rain 26 1003 94 10000 3.1 220 18:46 17.07.2019
5041 Rain 26 1003 88 10000 3.1 210 18:21 17.07.2019
5042 Rain 26 1003 88 10000 3.1 210 18:21 17.07.2019
5043 Clouds 27 1003 88 10000 3.1 210 17:59 17.07.2019
5044 Rain 26 1003 88 10000 3.1 210 17:41 17.07.2019
5045 Rain 26 1003 88 10000 3.1 210 17:22 17.07.2019
5046 Clouds 27 1003 78 10000 2.1 240 16:41 17.07.2019
5047 Clouds 27 1003 78 10000 2.1 240 16:22 17.07.2019
5048 Clouds 27 1003 78 10000 3.1 250 15:51 17.07.2019
5049 Clouds 27 1003 78 10000 3.1 250 15:31 17.07.2019
5050 Clouds 27 1003 88 9000 4.1 240 14:57 17.07.2019
5051 Clouds 27 1003 88 9000 4.1 240 14:38 17.07.2019
5052 Clouds 27 1002 88 10000 3.1 230 14:20 17.07.2019
5053 Clouds 28 1002 88 10000 3.1 230 13:49 17.07.2019
5054 Clouds 27 1002 88 10000 3.1 230 13:31 17.07.2019
5055 Clouds 27 1001 83 9000 7.2 260 12:55 17.07.2019
5056 Clouds 27 1001 83 9000 7.2 260 12:36 17.07.2019
5057 Rain 28 1001 78 9000 7.2 240 12:18 17.07.2019
5058 Rain 27 1001 78 9000 7.2 240 11:40 17.07.2019
5059 Rain 27 1001 78 9000 7.2 240 11:40 17.07.2019
5060 Clouds 28 1001 78 10000 5.1 230 11:19 17.07.2019
5061 Clouds 28 1001 78 10000 5.1 230 10:43 17.07.2019
5062 Clouds 28 1001 78 10000 5.1 230 10:21 17.07.2019
5063 Rain 28 1001 88 10000 6.2 260 09:45 17.07.2019
5064 Rain 28 1001 88 10000 6.2 260 09:27 17.07.2019
5065 Rain 28 1001 88 10000 6.2 260 09:27 17.07.2019
5066 Rain 28 1002 88 9000 5.1 240 08:44 17.07.2019
5067 Rain 28 1002 88 9000 5.1 240 08:23 17.07.2019
5068 Rain 28 1002 100 9000 4.1 250 07:55 17.07.2019
5069 Rain 27 1002 100 9000 4.1 250 07:36 17.07.2019
5070 Rain 27 1002 100 8000 7.2 250 07:18 17.07.2019
5071 Rain 28 1002 78 9000 5.1 220 06:41 17.07.2019
5072 Rain 28 1002 78 9000 5.1 220 06:22 17.07.2019
5073 Rain 28 1002 78 9000 5.1 230 05:33 17.07.2019
5074 Rain 28 1002 78 9000 5.1 240 04:56 17.07.2019
5075 Rain 28 1002 88 9000 4.1 260 03:50 17.07.2019
5076 Rain 26 1002 94 8000 3.1 230 02:32 17.07.2019
5077 Rain 26 1002 94 8000 4.1 240 01:41 17.07.2019
5078 Rain 25 1000 92 0 3.13 167 01:20 17.07.2019
5079 Rain 26 1000 93 0 4.92 185 00:38 17.07.2019
5080 Rain 25 1001 100 8000 5.1 240 00:19 17.07.2019
5081 Rain 25 1001 100 8000 5.1 240 23:42 16.07.2019
5082 Rain 25 1001 100 8000 5.1 240 23:22 16.07.2019
5083 Rain 26 1001 88 8000 5.1 230 22:43 16.07.2019
5084 Rain 27 1001 88 8000 5.1 230 22:24 16.07.2019
5085 Rain 26 1001 100 8000 5.1 230 21:56 16.07.2019
5086 Rain 25 1001 100 8000 5.1 230 21:36 16.07.2019
5087 Rain 25 1001 94 8000 5.1 240 21:18 16.07.2019
5088 Rain 25 1001 94 8000 5.1 240 20:41 16.07.2019
5089 Rain 25 1001 94 8000 5.1 240 20:22 16.07.2019
5090 Rain 26 1002 100 7000 5.7 240 19:54 16.07.2019
5091 Rain 25 1002 100 7000 5.7 240 19:30 16.07.2019
5092 Clouds 25 1003 100 0 6.2 250 18:59 16.07.2019
5093 Clouds 25 1003 100 0 6.2 250 18:40 16.07.2019
5094 Rain 25 1003 100 9000 4.6 240 18:20 16.07.2019
5095 Rain 26 1003 100 4000 8.2 310 17:44 16.07.2019
5096 Rain 27 1003 100 4000 8.2 310 17:26 16.07.2019
5097 Rain 27 1004 83 8000 8.2 250 16:49 16.07.2019
5098 Rain 27 1004 83 8000 8.2 250 16:25 16.07.2019
5099 Clouds 29 1003 79 10000 8.2 250 15:57 16.07.2019
5100 Rain 28 1003 79 10000 8.2 250 15:38 16.07.2019
5101 Rain 28 1003 78 9000 7.2 250 15:19 16.07.2019
5102 Rain 28 1003 78 9000 7.2 250 14:46 16.07.2019
5103 Rain 27 1003 78 9000 7.2 250 14:28 16.07.2019
5104 Rain 28 1003 78 10000 7.2 240 13:57 16.07.2019
5105 Rain 28 1003 78 10000 7.2 240 13:57 16.07.2019
5106 Clouds 28 1003 78 10000 7.2 240 13:37 16.07.2019
5107 Clouds 28 1002 83 10000 7.2 250 13:18 16.07.2019
5108 Clouds 28 1002 83 10000 7.2 250 12:42 16.07.2019
5109 Clouds 28 1002 79 10000 6.2 250 12:19 16.07.2019
5110 Clouds 29 1002 79 10000 6.2 250 11:45 16.07.2019
5111 Clouds 29 1002 79 10000 6.2 250 11:25 16.07.2019
5112 Rain 29 1003 74 9000 5.1 210 10:57 16.07.2019
5113 Rain 29 1003 74 9000 5.1 210 10:39 16.07.2019
5114 Clouds 29 1003 79 10000 5.1 250 10:19 16.07.2019
5115 Clouds 29 1003 79 10000 5.1 250 09:43 16.07.2019
5116 Clouds 29 1003 79 10000 5.1 250 09:20 16.07.2019
5117 Clouds 29 1003 79 9000 3.1 260 08:46 16.07.2019
5118 Clouds 29 1003 79 9000 3.1 260 08:27 16.07.2019
5119 Rain 29 1004 74 9000 3.1 230 07:51 16.07.2019
5120 Rain 29 1004 74 9000 3.1 230 07:32 16.07.2019
5121 Clouds 29 1004 74 9000 4.1 260 06:58 16.07.2019
5122 Clouds 29 1004 74 9000 4.1 260 06:35 16.07.2019
5123 Clouds 28 1005 83 10000 3.1 250 05:48 16.07.2019
5124 Clouds 28 1005 83 10000 3.1 250 05:25 16.07.2019
5125 Clouds 29 1005 83 10000 4.1 240 04:26 16.07.2019
5126 Rain 27 1006 88 9000 4.1 250 03:34 16.07.2019
5127 Rain 26 1006 94 8000 3.1 240 02:41 16.07.2019
5128 Rain 26 1006 100 7000 2.1 220 02:18 16.07.2019
5129 Rain 25 1005 100 7000 2.1 220 00:59 16.07.2019
5130 Rain 25 1005 100 7000 2.1 220 00:22 16.07.2019
5131 Rain 25 1005 94 8000 2.1 210 23:55 15.07.2019
5132 Rain 25 1005 94 8000 2.1 210 23:37 15.07.2019
5133 Rain 25 1005 94 8000 2.1 200 22:56 15.07.2019
5134 Rain 25 1005 94 8000 2.1 200 22:37 15.07.2019
5135 Rain 25 1005 94 7000 2.1 220 22:19 15.07.2019
5136 Rain 25 1005 94 7000 2.1 220 21:42 15.07.2019
5137 Rain 25 1005 94 7000 2.1 220 21:21 15.07.2019
5138 Rain 26 1005 88 9000 3.1 200 20:58 15.07.2019
5139 Clouds 25 1005 88 9000 3.1 200 20:39 15.07.2019
5140 Clouds 27 1005 88 9000 3.1 200 20:21 15.07.2019
5141 Clouds 27 1006 83 10000 1 200 19:44 15.07.2019
5142 Clouds 26 1006 83 10000 1 200 19:22 15.07.2019
5143 Clouds 27 1007 88 10000 1 210 18:57 15.07.2019
5144 Clouds 27 1007 88 10000 1 210 18:38 15.07.2019
5145 Clouds 27 1007 78 9000 1 200 18:19 15.07.2019
5146 Clouds 28 1007 78 9000 1 200 17:45 15.07.2019
5147 Clouds 27 1007 78 9000 1 200 17:26 15.07.2019
5148 Clouds 27 1007 78 9000 1 220 16:59 15.07.2019
5149 Clouds 28 1007 78 9000 1 220 16:39 15.07.2019
5150 Clouds 28 1007 78 9000 1 220 16:20 15.07.2019
5151 Clouds 28 1007 78 9000 1 230 15:55 15.07.2019
5152 Clouds 28 1007 78 9000 1 230 15:37 15.07.2019
5153 Rain 28 1007 83 8000 1 240 15:19 15.07.2019
5154 Rain 27 1007 83 8000 1 240 14:43 15.07.2019
5155 Rain 28 1007 83 8000 1 240 14:23 15.07.2019
5156 Rain 28 1006 78 8000 2.1 210 13:51 15.07.2019
5157 Rain 28 1006 78 8000 2.1 210 13:22 15.07.2019
5158 Rain 28 1005 74 8000 2.1 240 12:58 15.07.2019
5159 Rain 28 1005 74 8000 2.1 240 12:40 15.07.2019
5160 Rain 28 1008 78 8000 1 250 12:20 15.07.2019
5161 Rain 28 1008 78 8000 1 250 11:41 15.07.2019
5162 Rain 28 1008 78 8000 1 250 11:22 15.07.2019
5163 Rain 28 1006 78 7000 2.1 260 10:45 15.07.2019
5164 Rain 28 1006 78 7000 2.1 260 10:26 15.07.2019
5165 Rain 28 1006 94 5000 5.1 290 09:47 15.07.2019
5166 Rain 28 1006 94 5000 5.1 290 09:25 15.07.2019
5167 Rain 29 1006 74 7000 2.1 260 08:49 15.07.2019
5168 Rain 30 1006 74 7000 2.1 260 08:27 15.07.2019
5169 Clouds 30 1007 74 8000 2.1 220 07:58 15.07.2019
5170 Clouds 30 1007 74 8000 2.1 220 07:36 15.07.2019
5171 Rain 30 1007 74 9000 1 120 06:51 15.07.2019
5172 Rain 30 1007 74 9000 1 120 06:32 15.07.2019
5173 Clouds 29 1007 79 9000 1 90 05:44 15.07.2019
5174 Clouds 29 1008 79 10000 1 80 05:19 15.07.2019
5175 Clouds 29 1008 79 10000 1 80 04:41 15.07.2019
5176 Clouds 28 1008 83 10000 1 90 03:30 15.07.2019
5177 Clouds 27 1008 88 10000 1 80 02:26 15.07.2019
5178 Clouds 26 1006 88 10000 1 80 01:38 15.07.2019
5179 Clouds 27 1006 88 10000 0.5 0 00:54 15.07.2019
5180 Clouds 26 1006 88 10000 0.5 0 00:29 15.07.2019
5181 Clouds 27 1006 88 10000 0.5 0 00:00 15.07.2019
5182 Clouds 25 1006 88 10000 0.5 0 23:41 14.07.2019
5183 Clouds 25 1006 88 10000 0.5 0 23:21 14.07.2019
5184 Rain 27 1006 100 5000 2.1 280 22:58 14.07.2019
5185 Rain 27 1006 100 5000 2.1 280 22:39 14.07.2019
5186 Rain 26 1006 100 5000 2.1 280 22:21 14.07.2019
5187 Rain 26 1006 100 10000 2.6 200 21:46 14.07.2019
5188 Clouds 27 1007 83 10000 2.1 330 21:19 14.07.2019
5189 Clouds 26 1007 83 10000 2.1 330 20:59 14.07.2019
5190 Clouds 27 1007 83 10000 2.1 330 20:38 14.07.2019
5191 Clouds 27 1007 83 10000 2.1 330 20:38 14.07.2019
5192 Clouds 27 1007 83 10000 2.1 330 20:38 14.07.2019
5193 Clouds 27 1007 83 10000 2.1 330 20:38 14.07.2019
5194 Clouds 26 1007 83 10000 2.1 320 20:20 14.07.2019
5195 Clouds 27 1007 83 10000 2.1 320 19:55 14.07.2019
5196 Clouds 26 1007 83 10000 2.1 320 19:36 14.07.2019
5197 Clouds 26 1007 78 10000 1.5 0 19:18 14.07.2019
5198 Clouds 26 1007 78 10000 1.5 0 18:40 14.07.2019
5199 Clouds 26 1008 78 10000 2.6 10 18:22 14.07.2019
5200 Clouds 27 1008 78 10000 2.6 10 17:57 14.07.2019
5201 Clouds 26 1008 78 10000 2.6 10 17:23 14.07.2019
5202 Clouds 26 1010 88 10000 2.6 240 16:53 14.07.2019
5203 Clouds 27 1010 88 10000 2.6 240 16:26 14.07.2019
5204 Clouds 27 1008 83 10000 3.1 20 15:57 14.07.2019
5205 Clouds 27 1008 83 10000 3.1 20 15:37 14.07.2019
5206 Clouds 27 1008 88 10000 2.1 250 14:58 14.07.2019
5207 Clouds 27 1008 88 10000 2.1 250 14:37 14.07.2019
5208 Rain 27 1007 94 8000 2.6 0 14:19 14.07.2019
5209 Thunderstorm 26 1007 88 9000 4.1 60 13:45 14.07.2019
5210 Thunderstorm 26 1007 88 9000 4.1 60 13:22 14.07.2019
5211 Rain 27 1007 88 9000 3.1 70 12:55 14.07.2019
5212 Rain 28 1006 79 9000 1.5 120 12:36 14.07.2019
5213 Rain 28 1006 89 9000 3.6 250 12:18 14.07.2019
5214 Rain 29 1006 89 9000 3.6 250 11:43 14.07.2019
5215 Rain 29 1005 84 8000 5.7 260 11:20 14.07.2019
5216 Thunderstorm 30 1005 74 9000 6.7 260 10:42 14.07.2019
5217 Thunderstorm 30 1005 74 9000 6.7 260 10:20 14.07.2019
5218 Clouds 31 1005 66 10000 7.2 250 09:44 14.07.2019
5219 Clouds 32 1005 66 10000 7.2 250 09:25 14.07.2019
5220 Clouds 32 1006 66 10000 7.2 270 08:45 14.07.2019
5221 Clouds 32 1006 66 10000 7.2 270 08:22 14.07.2019
5222 Clouds 31 1007 63 10000 6.2 240 07:41 14.07.2019
5223 Clouds 31 1007 75 10000 5.1 260 06:59 14.07.2019
5224 Clouds 32 1008 66 10000 3.1 260 05:45 14.07.2019
5225 Clouds 31 1008 70 10000 2.41 247.223 03:49 14.07.2019
5226 Clouds 31 1008 70 10000 2.41 247.223 03:30 14.07.2019
5227 Clouds 29 1008 79 10000 1.28 312.912 02:41 14.07.2019
5228 Clouds 29 1008 79 10000 1.28 312.912 02:22 14.07.2019
5229 Clouds 29 1007 79 10000 0.77 321.596 01:34 14.07.2019
5230 Clouds 28 1007 78 10000 0.77 321.596 00:57 14.07.2019
5231 Clouds 28 1007 78 10000 0.77 321.596 00:39 14.07.2019
5232 Clouds 28 1007 78 10000 1.73 324.624 00:19 14.07.2019
5233 Clouds 28 1007 78 10000 1.73 324.624 23:45 13.07.2019
5234 Clouds 28 1007 78 10000 1.73 324.624 23:25 13.07.2019
5235 Clouds 27 1007 78 10000 2.1 50 22:55 13.07.2019
5236 Clouds 28 1007 78 10000 2.1 50 22:37 13.07.2019
5237 Clouds 27 1008 78 10000 2.1 90 22:18 13.07.2019
5238 Clouds 27 1008 78 10000 2.1 90 21:42 13.07.2019
5239 Clouds 27 1008 78 10000 1.5 80 21:19 13.07.2019
5240 Clouds 27 1008 78 10000 1.5 80 20:42 13.07.2019
5241 Clouds 27 1008 78 10000 1.5 80 20:24 13.07.2019
5242 Clouds 27 1008 88 10000 1.5 100 19:45 13.07.2019
5243 Clouds 27 1008 88 10000 1.5 100 19:26 13.07.2019
5244 Clouds 26 1009 88 10000 1.5 80 18:44 13.07.2019
5245 Rain 26 1010 100 10000 1.5 0 18:21 13.07.2019
5246 Rain 25 1010 100 10000 1.5 0 17:39 13.07.2019
5247 Thunderstorm 24 1011 100 7000 2.1 40 17:20 13.07.2019
5248 Thunderstorm 26 1011 100 7000 2.1 40 16:56 13.07.2019
5249 Rain 25 1010 83 3000 4.1 50 16:37 13.07.2019
5250 Clouds 29 1009 79 10000 2.6 200 16:19 13.07.2019
5251 Clouds 30 1009 79 10000 2.6 200 15:42 13.07.2019
5252 Clouds 30 1009 79 10000 2.6 200 15:20 13.07.2019
5253 Clouds 30 1009 74 10000 2.6 230 14:42 13.07.2019
5254 Clouds 30 1008 74 9000 4.6 240 14:22 13.07.2019
5255 Clouds 30 1008 74 9000 4.6 240 13:46 13.07.2019
5256 Clouds 30 1008 74 9000 4.6 240 13:24 13.07.2019
5257 Clouds 31 1007 70 10000 5.1 240 12:56 13.07.2019
5258 Clouds 31 1007 70 10000 5.1 240 12:36 13.07.2019
5259 Clouds 31 1006 70 10000 7.2 250 12:18 13.07.2019
5260 Clouds 31 1006 70 10000 7.2 250 11:39 13.07.2019
5261 Clouds 32 1006 62 10000 4.1 290 11:19 13.07.2019
5262 Clouds 33 1006 62 10000 4.1 290 10:42 13.07.2019
5263 Clouds 33 1006 62 10000 5.1 270 10:23 13.07.2019
5264 Clouds 32 1006 62 10000 5.1 270 09:52 13.07.2019
5265 Clouds 32 1006 62 10000 5.1 270 09:30 13.07.2019
5266 Clouds 33 1006 59 10000 4.6 280 08:57 13.07.2019
5267 Clouds 33 1006 59 10000 4.6 280 08:28 13.07.2019
5268 Clouds 33 1007 66 10000 5.1 300 07:55 13.07.2019
5269 Clouds 32 1007 66 10000 5.1 300 07:29 13.07.2019
5270 Clouds 31 1008 66 10000 4.6 280 06:32 13.07.2019
5271 Clouds 31 1009 66 10000 4.6 270 05:51 13.07.2019
5272 Clouds 31 1010 66 10000 4.1 290 04:42 13.07.2019
5273 Clouds 31 1010 66 10000 4.1 290 04:21 13.07.2019
5274 Clouds 31 1010 70 10000 3.6 300 03:43 13.07.2019
5275 Clouds 30 1010 70 10000 3.6 300 03:25 13.07.2019
5276 Clouds 29 1010 74 9000 2.1 40 01:54 13.07.2019
5277 Clouds 29 1010 74 9000 2.1 40 01:36 13.07.2019
5278 Clouds 28 1010 74 9000 1.5 40 01:18 13.07.2019
5279 Clouds 27 1010 74 9000 1.5 40 00:42 13.07.2019
5280 Clouds 27 1010 83 7000 1 0 00:18 13.07.2019
5281 Clouds 28 1010 83 7000 1 0 23:37 12.07.2019
5282 Haze 26 1009 83 5000 2.1 20 22:59 12.07.2019
5283 Haze 28 1009 83 5000 2.1 20 22:41 12.07.2019
5284 Haze 28 1009 83 5000 2.1 20 22:22 12.07.2019
5285 Clouds 28 1010 83 6000 3.1 10 21:42 12.07.2019
5286 Clouds 28 1010 83 6000 3.1 10 21:21 12.07.2019
5287 Clouds 28 1010 94 8000 1.5 300 20:52 12.07.2019
5288 Clouds 28 1010 94 8000 1.5 300 20:23 12.07.2019
5289 Clouds 29 1010 79 10000 0.5 0 19:45 12.07.2019
5290 Clouds 28 1010 79 10000 0.5 0 19:26 12.07.2019
5291 Clouds 27 1011 83 10000 1.5 220 18:58 12.07.2019
5292 Clouds 27 1011 83 10000 1.5 220 18:37 12.07.2019
5293 Clouds 28 1011 79 10000 1 0 18:19 12.07.2019
5294 Clouds 28 1011 79 10000 1 0 17:46 12.07.2019
5295 Clouds 28 1011 79 10000 1 0 17:27 12.07.2019
5296 Clouds 29 1011 74 10000 1 0 16:40 12.07.2019
5297 Clouds 29 1011 74 10000 1 0 16:20 12.07.2019
5298 Clouds 29 1011 70 10000 1.5 190 15:41 12.07.2019
5299 Clouds 29 1011 70 10000 1.5 190 15:21 12.07.2019
5300 Clouds 30 1010 70 10000 1 0 14:55 12.07.2019
5301 Clouds 29 1010 70 10000 1 0 14:37 12.07.2019
5302 Clouds 29 1010 66 10000 1 0 14:19 12.07.2019
5303 Clouds 29 1010 66 10000 1 0 13:38 12.07.2019
5304 Clouds 28 1009 66 10000 2.1 340 12:57 12.07.2019
5305 Clouds 28 1009 66 10000 2.1 340 12:57 12.07.2019
5306 Clouds 28 1009 66 10000 2.1 340 12:38 12.07.2019
5307 Thunderstorm 30 1009 58 9000 3.6 240 12:19 12.07.2019
5308 Thunderstorm 30 1009 58 9000 3.6 240 11:44 12.07.2019
5309 Thunderstorm 30 1009 58 9000 3.6 240 11:20 12.07.2019
5310 Rain 32 1008 56 9000 3.1 260 10:44 12.07.2019
5311 Rain 32 1008 56 9000 3.1 260 10:24 12.07.2019
5312 Clouds 33 1008 59 9000 3.1 270 09:54 12.07.2019
5313 Clouds 33 1008 59 9000 3.1 270 09:30 12.07.2019
5314 Clouds 34 1009 63 9000 4.1 310 08:58 12.07.2019
5315 Clouds 34 1009 63 9000 4.1 310 08:39 12.07.2019
5316 Clouds 33 1009 63 9000 3.1 270 08:18 12.07.2019
5317 Clouds 33 1009 63 9000 3.1 270 07:40 12.07.2019
5318 Clouds 33 1010 66 8000 2.1 260 07:22 12.07.2019
5319 Clouds 33 1010 66 8000 2.1 260 06:29 12.07.2019
5320 Clouds 32 1011 70 6000 3.1 270 05:46 12.07.2019
5321 Clouds 31 1012 66 10000 1 0 03:22 12.07.2019
5322 Clouds 29 1012 83 8000 2.1 90 01:41 12.07.2019
5323 Clouds 28 1012 88 9000 1 100 00:58 12.07.2019
5324 Clouds 28 1012 83 10000 1 160 00:20 12.07.2019
5325 Clouds 27 1012 83 10000 1 160 23:47 11.07.2019
5326 Clouds 28 1012 83 10000 1 160 23:26 11.07.2019
5327 Clouds 28 1012 83 10000 1 170 22:52 11.07.2019
5328 Clouds 28 1012 83 10000 1 170 22:27 11.07.2019
5329 Clouds 28 1012 83 10000 1 140 21:59 11.07.2019
5330 Clear 29 1009 56 0 1.79 0 21:40 11.07.2019
5331 Clouds 28 1012 83 10000 2.1 270 21:18 11.07.2019
5332 Clouds 28 1012 83 10000 2.1 270 20:42 11.07.2019
5333 Clouds 28 1012 83 10000 2.1 270 20:24 11.07.2019
5334 Clouds 29 1013 79 10000 2.1 260 19:58 11.07.2019
5335 Clouds 29 1013 79 10000 2.1 260 19:39 11.07.2019
5336 Clouds 29 1013 74 10000 2.1 270 19:21 11.07.2019
5337 Clouds 29 1013 74 10000 2.1 270 18:42 11.07.2019
5338 Clouds 29 1013 74 10000 2.1 270 18:24 11.07.2019
5339 Clouds 29 1014 74 10000 3.1 270 17:49 11.07.2019
5340 Clouds 29 1014 74 10000 3.1 270 17:31 11.07.2019
5341 Clouds 29 1013 79 10000 3.1 260 16:55 11.07.2019
5342 Clouds 29 1013 79 10000 3.1 260 16:37 11.07.2019
5343 Clouds 29 1013 74 10000 3.1 270 16:18 11.07.2019
5344 Clouds 29 1013 74 10000 3.1 270 15:40 11.07.2019
5345 Clouds 29 1013 74 10000 3.1 270 15:21 11.07.2019
5346 Clouds 29 1013 83 10000 3.1 270 14:45 11.07.2019
5347 Clouds 29 1013 83 10000 3.1 270 14:25 11.07.2019
5348 Clouds 29 1013 83 10000 3.1 270 14:25 11.07.2019
5349 Clouds 30 1013 70 10000 4.1 260 13:56 11.07.2019
5350 Clouds 30 1013 70 10000 4.1 260 13:37 11.07.2019
5351 Clouds 31 1012 62 10000 4.1 250 13:18 11.07.2019
5352 Clouds 31 1012 62 10000 4.1 250 12:38 11.07.2019
5353 Rain 31 1011 70 10000 5.1 270 12:19 11.07.2019
5354 Rain 31 1011 70 10000 5.1 270 11:45 11.07.2019
5355 Rain 31 1011 70 10000 5.1 270 11:24 11.07.2019
5356 Rain 32 1010 63 10000 5.1 270 10:51 11.07.2019
5357 Clouds 32 1011 66 10000 5.1 270 10:20 11.07.2019
5358 Clouds 33 1011 66 10000 5.1 270 09:50 11.07.2019
5359 Clouds 33 1011 66 10000 5.1 270 09:31 11.07.2019
5360 Clouds 34 1011 56 10000 4.1 270 08:57 11.07.2019
5361 Clouds 34 1011 56 10000 4.1 270 08:37 11.07.2019
5362 Clouds 33 1011 59 10000 3.1 300 08:19 11.07.2019
5363 Clouds 34 1011 59 10000 3.1 300 07:42 11.07.2019
5364 Clouds 33 1012 59 10000 3.1 260 06:49 11.07.2019
5365 Clouds 32 1012 66 10000 3.1 250 06:18 11.07.2019
5366 Clouds 33 1012 66 10000 3.1 250 05:31 11.07.2019
5367 Clouds 33 1013 70 10000 1 60 04:56 11.07.2019
5368 Clouds 31 1014 79 10000 2.1 250 02:43 11.07.2019
5369 Clouds 29 1013 83 10000 2.1 250 01:53 11.07.2019
5370 Clouds 27 1013 83 9000 2.1 270 00:32 11.07.2019
5371 Clouds 27 1012 88 10000 1 250 23:49 10.07.2019
5372 Clouds 27 1012 88 10000 1 250 23:21 10.07.2019
5373 Clouds 28 1011 83 10000 2.1 260 22:53 10.07.2019
5374 Clouds 28 1011 83 10000 2.1 260 22:22 10.07.2019
5375 Rain 27 1011 83 8000 3.1 260 21:48 10.07.2019
5376 Rain 27 1011 83 8000 3.1 260 21:48 10.07.2019
5377 Rain 28 1011 83 8000 3.1 260 21:29 10.07.2019
5378 Rain 27 1011 78 9000 3.1 260 20:59 10.07.2019
5379 Rain 28 1011 78 9000 3.1 260 20:40 10.07.2019
5380 Clouds 29 1012 79 10000 3.1 270 20:20 10.07.2019
5381 Clouds 29 1012 79 10000 3.1 270 19:54 10.07.2019
5382 Clouds 29 1012 79 10000 3.1 270 19:22 10.07.2019
5383 Clouds 29 1012 79 10000 3.1 270 19:22 10.07.2019
5384 Clouds 29 1012 79 10000 3.1 270 19:22 10.07.2019
5385 Clouds 29 1012 79 10000 3.1 270 19:22 10.07.2019
5386 Clouds 29 1013 74 10000 3.1 250 18:59 10.07.2019
5387 Clouds 29 1013 74 10000 3.1 250 18:41 10.07.2019
5388 Clouds 29 1013 74 10000 3.1 250 18:22 10.07.2019
5389 Clouds 29 1013 74 10000 4.1 260 17:43 10.07.2019
5390 Clouds 29 1013 74 10000 4.1 260 17:23 10.07.2019
5391 Clouds 29 1012 70 10000 5.1 270 16:39 10.07.2019
5392 Clouds 29 1012 74 10000 5.1 270 16:19 10.07.2019
5393 Clouds 29 1012 74 10000 5.1 270 15:47 10.07.2019
5394 Clouds 29 1012 74 10000 5.1 270 15:23 10.07.2019
5395 Clouds 29 1011 74 10000 5.1 260 14:46 10.07.2019
5396 Clouds 30 1011 74 10000 5.1 260 14:25 10.07.2019
5397 Clouds 30 1011 74 10000 6.2 270 13:53 10.07.2019
5398 Clouds 30 1010 70 10000 6.2 270 13:19 10.07.2019
5399 Clouds 30 1010 70 10000 6.2 270 12:58 10.07.2019
5400 Clouds 30 1010 70 10000 6.2 270 12:39 10.07.2019
5401 Clouds 30 1010 70 10000 5.1 40 12:19 10.07.2019
5402 Clouds 30 1010 70 10000 5.1 40 11:47 10.07.2019
5403 Clouds 30 1010 70 10000 5.1 40 11:21 10.07.2019
5404 Clouds 31 1010 63 10000 1 240 10:50 10.07.2019
5405 Clouds 32 1010 63 10000 1 240 10:23 10.07.2019
5406 Clouds 33 1010 63 10000 3.1 250 09:44 10.07.2019
5407 Clouds 33 1010 63 10000 3.1 250 09:21 10.07.2019
5408 Clouds 33 1010 63 10000 5.1 260 08:55 10.07.2019
5409 Clouds 33 1010 63 10000 5.1 260 08:36 10.07.2019
5410 Clouds 33 1010 63 10000 4.1 240 08:18 10.07.2019
5411 Clouds 32 1010 63 10000 4.1 240 07:42 10.07.2019
5412 Clouds 33 1010 59 10000 5.1 250 07:20 10.07.2019
5413 Clouds 32 1011 66 10000 6.2 250 05:59 10.07.2019
5414 Clouds 32 1011 66 10000 6.2 250 05:39 10.07.2019
5415 Clouds 32 1011 66 10000 5.1 270 04:28 10.07.2019
5416 Clouds 28 1010 83 10000 1 240 00:48 10.07.2019
5417 Clouds 28 1010 83 10000 1 240 00:29 10.07.2019
5418 Clouds 28 1010 88 10000 3.1 240 23:42 09.07.2019
5419 Clouds 28 1010 88 10000 3.1 240 23:21 09.07.2019
5420 Clouds 28 1010 83 10000 1 240 22:42 09.07.2019
5421 Clouds 28 1010 83 10000 1 240 22:24 09.07.2019
5422 Clouds 28 1010 83 10000 1 260 21:58 09.07.2019
5423 Clouds 28 1010 83 10000 1 260 21:39 09.07.2019
5424 Clouds 28 1010 83 10000 1 260 21:21 09.07.2019
5425 Clouds 28 1010 83 10000 2.1 250 20:43 09.07.2019
5426 Clouds 28 1010 83 10000 2.1 250 20:24 09.07.2019
5427 Clouds 28 1011 83 10000 2.1 240 19:42 09.07.2019
5428 Clouds 28 1011 83 10000 2.1 240 19:23 09.07.2019
5429 Clouds 29 1011 79 10000 2.1 260 18:47 09.07.2019
5430 Clouds 29 1011 79 10000 2.1 260 18:25 09.07.2019
5431 Clouds 29 1012 79 10000 2.1 250 17:57 09.07.2019
5432 Clouds 29 1012 79 10000 2.1 250 17:37 09.07.2019
5433 Clouds 29 1011 79 10000 2.1 240 17:19 09.07.2019
5434 Clouds 29 1011 79 10000 2.1 240 16:47 09.07.2019
5435 Clouds 29 1011 79 10000 2.1 240 16:24 09.07.2019
5436 Clouds 29 1011 74 10000 5.7 260 15:50 09.07.2019
5437 Clouds 29 1011 74 10000 5.7 260 15:31 09.07.2019
5438 Clouds 30 1010 74 10000 5.7 250 14:57 09.07.2019
5439 Clouds 30 1010 74 10000 5.7 250 14:39 09.07.2019
5440 Clouds 30 1010 70 10000 6.7 260 14:18 09.07.2019
5441 Clouds 30 1010 70 10000 6.7 260 14:18 09.07.2019
5442 Clouds 30 1010 70 10000 6.7 260 13:43 09.07.2019
5443 Clouds 30 1010 70 10000 6.7 260 13:22 09.07.2019
5444 Clouds 30 1010 74 10000 7.7 250 12:40 09.07.2019
5445 Clouds 30 1010 74 10000 7.7 250 12:40 09.07.2019
5446 Clouds 30 1010 74 10000 7.7 250 12:40 09.07.2019
5447 Clouds 30 1010 74 10000 7.7 250 12:22 09.07.2019
5448 Clouds 31 1009 70 10000 8.2 260 11:57 09.07.2019
5449 Clouds 31 1009 70 10000 8.2 260 11:38 09.07.2019
5450 Clouds 32 1009 70 10000 8.2 260 11:20 09.07.2019
5451 Clouds 32 1008 66 10000 8.2 250 10:49 09.07.2019
5452 Clouds 32 1008 66 10000 8.2 250 10:30 09.07.2019
5453 Clouds 32 1009 63 10000 8.2 250 09:41 09.07.2019
5454 Clouds 32 1009 63 10000 8.2 250 09:21 09.07.2019
5455 Clouds 33 1009 63 10000 5.1 240 08:45 09.07.2019
5456 Clouds 33 1009 63 10000 5.1 240 08:23 09.07.2019
5457 Clouds 31 1011 74 10000 1 230 03:57 05.07.2019
5458 Clouds 30 1011 74 10000 1 230 03:37 05.07.2019
5459 Clouds 30 1011 79 10000 2.1 260 03:18 05.07.2019
5460 Clouds 30 1011 79 10000 2.1 260 02:37 05.07.2019
5461 Clouds 29 1010 74 10000 2.1 220 01:38 05.07.2019
5462 Clouds 28 1010 83 10000 1 250 01:18 05.07.2019
5463 Clouds 28 1010 83 10000 1 250 00:40 05.07.2019
5464 Rain 28 1009 56 0 1.79 0 23:51 04.07.2019
5465 Clouds 28 1010 78 10000 2.1 220 23:21 04.07.2019
5466 Clouds 28 1010 78 10000 2.1 220 22:44 04.07.2019
5467 Clouds 28 1010 78 10000 2.1 220 22:24 04.07.2019
5468 Clouds 28 1010 78 10000 2.1 240 21:57 04.07.2019
5469 Clouds 28 1010 78 10000 2.1 240 21:39 04.07.2019
5470 Clouds 28 1010 78 10000 2.1 240 21:20 04.07.2019
5471 Clouds 28 1010 74 10000 2.1 230 20:40 04.07.2019
5472 Clouds 28 1011 74 10000 2.1 250 20:22 04.07.2019
5473 Clouds 29 1011 74 10000 2.1 250 19:56 04.07.2019
5474 Clouds 29 1011 74 10000 2.1 250 19:38 04.07.2019
5475 Clouds 28 1012 79 10000 1 230 19:19 04.07.2019
5476 Clouds 28 1012 79 10000 1 230 18:42 04.07.2019
5477 Clouds 29 1012 79 10000 1 230 18:24 04.07.2019
5478 Clouds 29 1012 74 10000 2.1 230 17:46 04.07.2019
5479 Clouds 29 1011 78 10000 2.1 230 17:19 04.07.2019
5480 Clouds 29 1011 74 10000 3.1 230 15:58 04.07.2019
5481 Clouds 29 1011 74 10000 3.1 230 15:40 04.07.2019
5482 Clouds 29 1011 74 10000 3.1 230 15:22 04.07.2019
5483 Clouds 29 1010 74 10000 4.1 230 14:55 04.07.2019
5484 Clouds 29 1010 74 10000 4.1 230 14:36 04.07.2019
5485 Clouds 30 1010 70 10000 6.2 250 14:18 04.07.2019
5486 Clouds 30 1010 70 10000 6.2 250 13:42 04.07.2019
5487 Clouds 30 1010 70 10000 6.2 250 13:23 04.07.2019
5488 Clouds 30 1009 66 10000 6.7 250 12:55 04.07.2019
5489 Clouds 31 1009 66 10000 6.7 250 12:36 04.07.2019
5490 Clouds 31 1009 62 10000 6.2 260 12:18 04.07.2019
5491 Clouds 32 1009 62 10000 6.2 260 11:39 04.07.2019
5492 Clouds 32 1009 59 10000 5.1 270 11:19 04.07.2019
5493 Clouds 32 1009 59 10000 5.1 270 10:40 04.07.2019
5494 Clouds 32 1009 59 10000 5.1 270 10:20 04.07.2019
5495 Clouds 33 1009 56 10000 4.1 280 09:41 04.07.2019
5496 Clouds 33 1009 56 10000 4.1 280 09:41 04.07.2019
5497 Clouds 34 1009 56 10000 4.1 280 09:23 04.07.2019
5498 Clouds 34 1009 47 10000 3.1 270 08:56 04.07.2019
5499 Clouds 34 1009 47 10000 3.1 270 08:23 04.07.2019
5500 Clouds 34 1010 47 10000 2.6 300 07:44 04.07.2019
5501 Clouds 34 1010 47 10000 2.6 300 07:22 04.07.2019
5502 Clouds 34 1010 47 10000 2.6 300 07:22 04.07.2019
5503 Clouds 35 1011 53 10000 3.1 240 06:45 04.07.2019
5504 Clouds 35 1012 56 10000 2.1 230 05:51 04.07.2019
5505 Clouds 34 1012 56 10000 2.1 230 05:32 04.07.2019
5506 Clouds 31 1012 74 10000 2.1 120 02:43 04.07.2019
5507 Clouds 29 1012 78 9000 2.1 130 01:41 04.07.2019
5508 Clouds 29 1011 83 10000 2.1 120 01:21 04.07.2019
5509 Clouds 27 1011 78 10000 2.1 140 23:56 03.07.2019
5510 Clouds 27 1011 78 10000 2.1 140 23:37 03.07.2019
5511 Clouds 27 1011 83 10000 2.1 250 23:18 03.07.2019
5512 Clouds 28 1011 83 10000 2.1 250 22:42 03.07.2019
5513 Clouds 28 1011 83 10000 2.1 250 22:24 03.07.2019
5514 Clouds 28 1012 74 10000 2.1 270 21:59 03.07.2019
5515 Clouds 28 1012 74 10000 2.1 270 21:39 03.07.2019
5516 Thunderstorm 28 1012 74 10000 2.1 270 21:20 03.07.2019
5517 Thunderstorm 28 1012 74 10000 2.1 270 20:43 03.07.2019
5518 Thunderstorm 28 1012 74 10000 2.1 270 20:23 03.07.2019
5519 Clouds 29 1012 74 10000 1 250 19:50 03.07.2019
5520 Clouds 29 1012 74 10000 1 250 19:50 03.07.2019
5521 Clouds 29 1012 74 10000 1 250 19:32 03.07.2019
5522 Clouds 29 1012 70 10000 1 260 18:48 03.07.2019
5523 Clouds 29 1012 70 10000 1 260 18:29 03.07.2019
5524 Clouds 29 1012 66 10000 3.1 270 17:57 03.07.2019
5525 Clouds 29 1012 66 10000 3.1 270 17:37 03.07.2019
5526 Clouds 29 1012 66 10000 3.1 260 17:18 03.07.2019
5527 Clouds 29 1012 66 10000 3.1 260 16:43 03.07.2019
5528 Clouds 29 1012 66 10000 3.1 260 16:21 03.07.2019
5529 Clouds 29 1011 66 10000 2.6 280 15:49 03.07.2019
5530 Clouds 29 1011 66 10000 2.6 280 15:31 03.07.2019
5531 Clouds 30 1011 66 10000 2.1 290 14:56 03.07.2019
5532 Clouds 30 1011 66 10000 2.1 290 14:37 03.07.2019
5533 Clouds 30 1010 58 10000 4.1 280 14:18 03.07.2019
5534 Clouds 30 1010 58 10000 4.1 280 13:35 03.07.2019
5535 Clouds 30 1009 55 10000 6.2 270 12:54 03.07.2019
5536 Clouds 31 1008 52 10000 6.2 280 12:21 03.07.2019
5537 Clouds 32 1008 52 10000 6.2 280 11:58 03.07.2019
5538 Clouds 32 1008 52 10000 6.2 280 11:40 03.07.2019
5539 Clouds 33 1008 52 10000 6.2 280 11:21 03.07.2019
5540 Clouds 34 1008 49 10000 5.1 290 10:42 03.07.2019
5541 Clouds 33 1008 49 10000 5.1 290 10:23 03.07.2019
5542 Clouds 34 1009 59 10000 5.1 280 09:43 03.07.2019
5543 Clouds 33 1009 59 10000 5.1 280 09:21 03.07.2019
5544 Clouds 33 1009 56 10000 2.1 240 08:54 03.07.2019
5545 Clouds 33 1009 56 10000 2.1 240 08:33 03.07.2019
5546 Clouds 33 1010 66 10000 2.1 230 07:57 03.07.2019
5547 Clouds 33 1010 66 10000 2.1 230 07:37 03.07.2019
5548 Clouds 32 1011 63 10000 6.2 120 06:55 03.07.2019
5549 Clouds 33 1011 63 10000 6.2 100 05:56 03.07.2019
5550 Clouds 33 1011 63 10000 6.2 100 05:24 03.07.2019
5551 Clouds 31 1012 74 10000 3.1 120 03:50 03.07.2019
5552 Clouds 30 1011 79 10000 2.1 110 02:43 03.07.2019
5553 Clouds 28 1011 83 10000 4.1 120 01:23 03.07.2019
5554 Clouds 28 1010 83 10000 2.1 200 00:58 03.07.2019
5555 Clouds 27 1010 83 10000 2.1 200 00:36 03.07.2019
5556 Clouds 26 1010 83 10000 2.1 180 23:49 02.07.2019
5557 Clouds 27 1010 83 10000 1 180 23:21 02.07.2019
5558 Clouds 27 1010 83 10000 1 180 22:59 02.07.2019
5559 Clouds 27 1010 83 10000 1 180 22:41 02.07.2019
5560 Clouds 27 1010 83 10000 1 180 22:22 02.07.2019
5561 Clouds 27 1010 83 10000 1 180 22:22 02.07.2019
5562 Clouds 27 1010 83 10000 1 200 21:57 02.07.2019
5563 Clouds 27 1010 83 10000 1 200 21:38 02.07.2019
5564 Clouds 27 1010 83 10000 1 200 21:18 02.07.2019
5565 Clouds 27 1010 78 10000 2.1 210 20:41 02.07.2019
5566 Clouds 27 1010 78 10000 2.1 210 20:23 02.07.2019
5567 Clouds 27 1011 78 10000 2.1 190 19:57 02.07.2019
5568 Clouds 27 1011 78 10000 2.1 190 19:38 02.07.2019
5569 Clouds 28 1011 78 10000 2.1 200 19:20 02.07.2019
5570 Clouds 27 1011 78 10000 2.1 200 18:45 02.07.2019
5571 Clouds 27 1011 78 10000 2.1 200 18:18 02.07.2019
5572 Clouds 28 1011 78 10000 1 180 17:40 02.07.2019
5573 Clouds 28 1011 78 9000 1 0 17:20 02.07.2019
5574 Clouds 28 1011 78 9000 1 0 16:46 02.07.2019
5575 Clouds 28 1011 78 9000 1 0 16:46 02.07.2019
5576 Clouds 28 1011 78 9000 1 0 16:28 02.07.2019
5577 Clouds 27 1010 94 9000 1 0 15:44 02.07.2019
5578 Clouds 27 1010 94 9000 1 0 15:24 02.07.2019
5579 Rain 28 1010 74 9000 1.5 200 14:50 02.07.2019
5580 Rain 28 1010 74 9000 1.5 200 14:32 02.07.2019
5581 Clouds 29 1009 70 10000 2.6 240 13:46 02.07.2019
5582 Clouds 29 1009 70 10000 2.6 240 13:21 02.07.2019
5583 Clouds 29 1008 70 10000 3.6 230 12:59 02.07.2019
5584 Clouds 29 1008 70 10000 3.6 230 12:40 02.07.2019
5585 Rain 29 1009 70 10000 4.1 230 12:18 02.07.2019
5586 Rain 30 1009 70 10000 4.1 230 11:42 02.07.2019
5587 Rain 30 1008 66 10000 4.6 240 11:21 02.07.2019
5588 Rain 30 1008 66 10000 4.6 240 10:45 02.07.2019
5589 Rain 30 1008 66 10000 4.6 240 10:24 02.07.2019
5590 Rain 30 1009 62 10000 4.1 230 09:45 02.07.2019
5591 Rain 31 1008 66 10000 3.1 180 09:22 02.07.2019
5592 Rain 31 1008 66 10000 3.1 180 08:42 02.07.2019
5593 Rain 31 1008 66 10000 3.1 180 08:42 02.07.2019
5594 Rain 31 1008 66 10000 3.1 180 08:42 02.07.2019
5595 Rain 31 1009 70 10000 3.1 150 08:21 02.07.2019
5596 Rain 31 1009 70 10000 3.1 150 07:53 02.07.2019
5597 Rain 30 1009 70 10000 3.1 150 07:21 02.07.2019
5598 Clouds 30 1009 70 10000 3.1 120 06:50 02.07.2019
5599 Clouds 30 1009 70 10000 3.1 120 06:26 02.07.2019
5600 Clouds 30 1009 70 10000 3.1 120 06:26 02.07.2019
5601 Clouds 29 1010 83 10000 4.1 120 04:57 02.07.2019
5602 Rain 27 1008 88 9000 1 250 02:19 02.07.2019
5603 Rain 25 1007 94 7000 1 210 23:50 01.07.2019
5604 Rain 27 1007 94 7000 1 210 23:22 01.07.2019
5605 Rain 25 1007 100 7000 1 190 22:46 01.07.2019
5606 Rain 25 1007 100 7000 1 190 22:27 01.07.2019
5607 Rain 25 1007 100 7000 1 200 21:48 01.07.2019
5608 Rain 25 1007 100 7000 1 200 21:48 01.07.2019
5609 Rain 25 1007 100 7000 1 200 21:26 01.07.2019
5610 Rain 26 1008 100 7000 2.1 180 20:52 01.07.2019
5611 Rain 25 1008 100 7000 2.1 200 20:22 01.07.2019
5612 Rain 25 1008 100 7000 2.1 200 19:59 01.07.2019
5613 Rain 25 1008 100 7000 2.1 200 19:40 01.07.2019
5614 Rain 26 1008 100 7000 2.1 200 19:22 01.07.2019
5615 Rain 26 1009 100 6000 3.1 200 18:53 01.07.2019
5616 Rain 26 1009 100 6000 3.1 200 18:31 01.07.2019
5617 Rain 25 1009 100 6000 3.1 190 17:59 01.07.2019
5618 Rain 26 1009 100 6000 3.1 190 17:41 01.07.2019
5619 Rain 27 1009 100 6000 3.1 190 17:21 01.07.2019
5620 Rain 26 1009 100 6000 3.1 170 16:47 01.07.2019
5621 Rain 27 1009 100 6000 3.1 170 16:25 01.07.2019
5622 Rain 25 1008 100 7000 3.1 200 15:54 01.07.2019
5623 Rain 26 1008 100 7000 3.1 200 15:36 01.07.2019
5624 Rain 25 1008 100 7000 3.1 200 15:18 01.07.2019
5625 Rain 27 1007 83 9000 2.1 200 14:42 01.07.2019
5626 Rain 27 1007 83 9000 2.1 200 14:19 01.07.2019
5627 Clouds 28 1006 88 10000 2.1 200 13:40 01.07.2019
5628 Clouds 28 1006 88 10000 2.1 200 13:22 01.07.2019
5629 Clouds 27 1006 78 0 3.1 220 12:44 01.07.2019
5630 Rain 27 1006 78 0 3.1 220 12:23 01.07.2019
5631 Rain 27 1005 74 9000 4.1 220 11:58 01.07.2019
5632 Rain 28 1005 74 9000 4.1 220 11:38 01.07.2019
5633 Rain 28 1005 74 9000 4.1 220 11:18 01.07.2019
5634 Rain 28 1005 74 9000 3.1 230 10:45 01.07.2019
5635 Rain 28 1005 74 9000 3.1 230 10:21 01.07.2019
5636 Rain 28 1005 79 10000 2.1 230 09:45 01.07.2019
5637 Rain 28 1005 79 10000 2.1 230 09:26 01.07.2019
5638 Rain 27 1005 83 10000 3.1 220 08:58 01.07.2019
5639 Rain 27 1005 83 10000 3.1 220 08:35 01.07.2019
5640 Rain 27 1006 88 10000 4.1 240 07:35 01.07.2019
5641 Rain 27 1007 88 9000 1 250 06:51 01.07.2019
5642 Rain 26 1007 94 9000 1 260 04:45 01.07.2019
5643 Rain 26 1005 88 9000 7.49 213.223 01:20 01.07.2019
5644 Rain 27 1004 88 10000 7.49 213.223 00:42 01.07.2019
5645 Rain 26 1004 88 10000 6.75 224.555 00:21 01.07.2019
5646 Clouds 27 1004 83 10000 2.1 210 23:25 30.06.2019
5647 Clouds 26 1005 88 10000 2.1 210 22:58 30.06.2019
5648 Clouds 26 1005 88 10000 2.1 210 22:37 30.06.2019
5649 Clouds 26 1005 88 10000 2.1 210 22:18 30.06.2019
5650 Rain 27 1005 100 8000 6.2 220 21:41 30.06.2019
5651 Rain 25 1005 100 8000 6.2 220 21:18 30.06.2019
5652 Rain 27 1005 100 1000 7.2 230 20:42 30.06.2019
5653 Rain 27 1005 100 1000 7.2 230 20:23 30.06.2019
5654 Clouds 28 1005 88 10000 1 0 19:52 30.06.2019
5655 Clouds 28 1005 88 10000 1 0 19:26 30.06.2019
5656 Rain 28 1006 88 10000 1 0 18:55 30.06.2019
5657 Rain 28 1006 88 10000 1 0 18:25 30.06.2019
5658 Rain 28 1006 88 8000 3.1 230 17:55 30.06.2019
5659 Rain 26 1006 88 8000 3.1 230 17:36 30.06.2019
5660 Rain 27 1006 78 0 2.1 220 17:18 30.06.2019
5661 Clouds 28 1006 78 0 2.1 220 16:43 30.06.2019
5662 Clouds 28 1006 78 0 2.1 220 16:25 30.06.2019
5663 Rain 27 1006 94 7000 1 180 15:37 30.06.2019
5664 Clouds 27 1006 94 7000 1 180 15:18 30.06.2019
5665 Rain 27 1005 83 9000 4.1 230 14:49 30.06.2019
5666 Rain 28 1005 83 9000 4.1 230 14:29 30.06.2019
5667 Clouds 28 1005 74 10000 4.1 230 13:46 30.06.2019
5668 Clouds 29 1005 74 10000 4.1 230 13:24 30.06.2019
5669 Clouds 29 1004 74 10000 5.1 230 12:49 30.06.2019
5670 Clouds 29 1004 74 10000 5.1 230 12:25 30.06.2019
5671 Clouds 29 1004 70 10000 7.2 240 11:55 30.06.2019
5672 Rain 29 1004 70 10000 7.2 240 11:37 30.06.2019
5673 Clouds 29 1004 70 10000 7.2 240 11:18 30.06.2019
5674 Clouds 30 1003 66 10000 7.7 240 10:40 30.06.2019
5675 Clouds 30 1003 66 10000 7.7 240 10:19 30.06.2019
5676 Rain 29 1004 88 8000 6.2 220 09:44 30.06.2019
5677 Rain 29 1004 88 8000 6.2 220 09:23 30.06.2019
5678 Clouds 31 1003 66 10000 5.1 230 08:59 30.06.2019
5679 Clouds 32 1003 66 10000 5.1 230 08:32 30.06.2019
5680 Clouds 31 1004 70 10000 4.1 200 07:59 30.06.2019
5681 Clouds 31 1004 70 10000 4.1 200 07:29 30.06.2019
5682 Clouds 31 1005 74 10000 4.1 250 06:51 30.06.2019
5683 Clouds 31 1006 74 10000 4.1 260 05:34 30.06.2019
5684 Clouds 29 1006 83 10000 4.1 240 02:53 30.06.2019
5685 Rain 27 1006 88 9000 4.1 230 01:30 30.06.2019
5686 Clouds 27 1006 83 9000 1.5 210 00:32 30.06.2019
5687 Rain 27 1005 94 9000 2.1 200 23:55 29.06.2019
5688 Rain 26 1005 94 9000 2.1 200 23:25 29.06.2019
5689 Clouds 26 1005 88 10000 1 0 22:57 29.06.2019
5690 Clouds 26 1005 88 10000 1 0 22:38 29.06.2019
5691 Clouds 26 1005 88 10000 1 0 22:19 29.06.2019
5692 Clouds 25 1005 88 10000 1 200 21:42 29.06.2019
5693 Clouds 25 1005 88 10000 1 200 21:22 29.06.2019
5694 Clouds 26 1006 94 10000 2.1 230 20:41 29.06.2019
5695 Clouds 26 1006 94 10000 2.1 230 20:23 29.06.2019
5696 Clouds 26 1006 94 10000 2.1 220 19:48 29.06.2019
5697 Clouds 26 1006 94 10000 2.1 220 19:24 29.06.2019
5698 Clouds 26 1006 88 10000 1.78 259.669 18:51 29.06.2019
5699 Clouds 26 1006 88 10000 4.3 272.345 18:26 29.06.2019
5700 Rain 25 1007 88 9000 3.1 240 17:42 29.06.2019
5701 Rain 25 1007 88 9000 3.1 240 17:23 29.06.2019
5702 Clouds 26 1007 94 9000 2.1 210 16:58 29.06.2019
5703 Clouds 26 1007 94 9000 2.1 210 16:36 29.06.2019
5704 Rain 25 1007 100 8000 4.1 230 15:50 29.06.2019
5705 Rain 25 1007 100 8000 4.1 230 15:30 29.06.2019
5706 Rain 27 1006 88 9000 5.1 240 14:44 29.06.2019
5707 Rain 27 1006 88 9000 5.1 240 14:25 29.06.2019
5708 Rain 25 1006 94 8000 3.1 230 13:47 29.06.2019
5709 Rain 25 1006 94 8000 3.1 230 13:26 29.06.2019
5710 Rain 26 1006 94 8000 2.6 210 12:52 29.06.2019
5711 Rain 26 1006 94 8000 2.6 210 12:34 29.06.2019
5712 Rain 26 1006 94 8000 3.1 230 11:54 29.06.2019
5713 Rain 26 1006 94 8000 3.1 230 11:34 29.06.2019
5714 Rain 27 1006 88 8000 4.1 230 10:57 29.06.2019
5715 Rain 27 1006 88 8000 4.1 230 10:39 29.06.2019
5716 Rain 27 1006 88 8000 4.1 230 10:20 29.06.2019
5717 Rain 27 1006 78 9000 3.6 220 09:45 29.06.2019
5718 Rain 27 1006 83 9000 6.2 270 08:51 29.06.2019
5719 Rain 27 1006 83 9000 6.2 270 08:22 29.06.2019
5720 Rain 26 1007 94 5000 5.1 270 07:44 29.06.2019
5721 Rain 27 1007 79 6000 6.2 270 06:47 29.06.2019
5722 Thunderstorm 28 1007 79 6000 6.2 270 06:24 29.06.2019
5723 Rain 27 1007 79 10000 2.1 240 02:51 29.06.2019
5724 Clouds 28 1006 78 10000 1 60 01:22 29.06.2019
5725 Clouds 26 1006 88 10000 1 230 00:29 29.06.2019
5726 Clouds 26 1005 88 10000 3.1 230 23:36 28.06.2019
5727 Clouds 26 1005 88 10000 3.1 230 23:18 28.06.2019
5728 Clouds 27 1005 94 10000 3.1 240 22:44 28.06.2019
5729 Clouds 27 1005 88 10000 4.1 240 21:53 28.06.2019
5730 Clouds 26 1005 88 10000 4.1 240 21:26 28.06.2019
5731 Rain 26 1005 88 10000 1.5 220 20:49 28.06.2019
5732 Clouds 27 1005 88 10000 1.5 220 20:29 28.06.2019
5733 -273 0 0 0 0 0 19:57 28.06.2019
5734 Clouds 26 1005 88 10000 1.5 220 19:37 28.06.2019
5735 Clouds 25 1005 88 10000 1.5 220 19:18 28.06.2019
5736 Clouds 25 1006 88 10000 1 0 18:38 28.06.2019
5737 Clouds 27 1006 88 10000 1 0 18:20 28.06.2019
5738 Clouds 27 1007 88 10000 1 0 17:33 28.06.2019
5739 Clouds 26 1009 94 9000 1 0 16:54 28.06.2019
5740 Rain 25 1009 94 9000 1 0 16:29 28.06.2019
5741 Rain 25 1008 88 8000 3.1 240 15:48 28.06.2019
5742 Rain 26 1008 88 8000 3.1 240 15:26 28.06.2019
5743 Rain 26 1008 94 7000 8.2 230 14:56 28.06.2019
5744 Rain 26 1008 94 7000 8.2 230 14:56 28.06.2019
5745 Rain 26 1008 94 7000 8.2 230 14:37 28.06.2019
5746 Rain 25 1008 94 7000 8.2 230 14:18 28.06.2019
5747 Rain 26 1007 94 8000 6.2 240 13:44 28.06.2019
5748 Rain 26 1007 94 8000 6.2 240 13:21 28.06.2019
5749 Rain 28 1006 74 9000 2.1 240 12:48 28.06.2019
5750 Rain 28 1006 74 9000 2.1 240 12:24 28.06.2019
5751 Rain 28 1005 70 10000 2.6 240 11:27 28.06.2019
5752 Clouds 28 1005 70 10000 4.1 250 10:47 28.06.2019
5753 Clouds 28 1005 70 10000 4.1 250 10:23 28.06.2019
5754 Clouds 28 1005 70 10000 4.1 250 10:23 28.06.2019
5755 Clouds 27 1005 83 9000 2.1 240 09:49 28.06.2019
5756 Clouds 28 1005 83 9000 2.1 240 09:30 28.06.2019
5757 Rain 28 1006 79 9000 6.2 260 08:49 28.06.2019
5758 Rain 28 1006 79 9000 6.2 260 08:27 28.06.2019
5759 Rain 28 1006 74 9000 4.1 270 07:53 28.06.2019
5760 Clouds 28 1006 70 10000 4.1 220 07:35 28.06.2019
5761 Clouds 30 1006 66 10000 6.2 250 06:33 28.06.2019
5762 Rain 27 1007 83 8000 1.5 220 01:42 28.06.2019
5763 Clouds 27 1006 88 9000 2.1 210 00:44 28.06.2019
5764 Rain 27 1006 88 9000 2.1 230 23:55 27.06.2019
5765 Rain 26 1006 88 9000 2.1 230 23:37 27.06.2019
5766 Rain 26 1006 88 9000 2.1 230 23:18 27.06.2019
5767 Clouds 27 1004 88 10000 1 200 22:41 27.06.2019
5768 Clouds 26 1004 88 10000 1 200 22:22 27.06.2019
5769 Clouds 26 1005 88 10000 2.1 210 21:49 27.06.2019
5770 Clouds 27 1005 88 10000 2.1 210 21:31 27.06.2019
5771 Clouds 27 1005 88 10000 2.1 210 21:31 27.06.2019
5772 Clouds 26 1005 88 10000 1 210 20:57 27.06.2019
5773 Clouds 26 1005 88 10000 1 210 20:39 27.06.2019
5774 Clouds 27 1005 88 10000 1 210 20:19 27.06.2019
5775 Clouds 27 1006 88 10000 2.1 240 19:44 27.06.2019
5776 Clouds 27 1006 88 10000 2.1 240 19:25 27.06.2019
5777 Clouds 27 1007 83 10000 2.1 230 18:43 27.06.2019
5778 Clouds 27 1007 83 10000 2.1 230 18:21 27.06.2019
5779 Clouds 27 1009 56 0 1.79 0 17:45 27.06.2019
5780 Clouds 27 1007 88 9000 3.1 220 17:22 27.06.2019
5781 Clouds 27 1007 88 9000 3.1 220 17:22 27.06.2019
5782 Clouds 27 1007 88 9000 3.1 220 17:22 27.06.2019
5783 Clouds 27 1007 88 9000 3.1 220 16:40 27.06.2019
5784 Clouds 27 1007 88 9000 3.1 220 16:20 27.06.2019
5785 Clouds 26 1007 88 9000 2.1 200 15:56 27.06.2019
5786 Clouds 27 1007 88 9000 2.1 200 15:36 27.06.2019
5787 Clouds 26 1006 94 8000 3.1 210 14:59 27.06.2019
5788 Clouds 26 1006 94 8000 3.1 210 14:39 27.06.2019
5789 Clouds 26 1006 94 8000 3.1 210 14:39 27.06.2019
5790 Clouds 26 1006 94 8000 3.1 210 14:19 27.06.2019
5791 Rain 27 1006 94 8000 4.1 220 13:43 27.06.2019
5792 Rain 27 1006 94 8000 4.1 220 13:25 27.06.2019
5793 Rain 26 1006 94 8000 6.2 230 12:49 27.06.2019
5794 Rain 26 1006 94 8000 6.2 230 12:49 27.06.2019
5795 Rain 26 1006 94 8000 6.2 230 12:28 27.06.2019
5796 Rain 28 1005 78 9000 6.7 240 11:47 27.06.2019
5797 Rain 28 1005 78 9000 6.7 240 11:24 27.06.2019
5798 Clouds 28 1005 74 9000 6.2 250 10:58 27.06.2019
5799 Clouds 29 1005 74 9000 6.2 250 10:40 27.06.2019
5800 Clouds 29 1005 74 9000 6.2 250 10:19 27.06.2019
5801 Rain 28 1005 78 9000 5.1 230 09:38 27.06.2019
5802 Rain 28 1005 78 9000 5.1 230 09:20 27.06.2019
5803 Rain 27 1006 94 8000 4.1 260 08:48 27.06.2019
5804 Rain 27 1006 94 8000 4.1 260 08:48 27.06.2019
5805 Rain 27 1006 94 8000 4.1 260 08:27 27.06.2019
5806 Rain 27 1007 94 9000 3.1 240 07:45 27.06.2019
5807 Clouds 28 1007 74 9000 7.2 250 06:57 27.06.2019
5808 Clouds 28 1007 74 9000 7.2 250 06:30 27.06.2019
5809 Clouds 31 1007 70 10000 2.1 120 03:51 27.06.2019
5810 Clouds 29 1007 66 10000 2.1 230 02:42 27.06.2019
5811 Clouds 28 1007 78 10000 4.98 212.381 01:26 27.06.2019
5812 Clouds 26 1006 88 10000 2.1 220 00:49 27.06.2019
5813 Clouds 27 1006 88 10000 2.1 220 00:26 27.06.2019
5814 Clouds 26 1006 88 10000 2.1 240 23:48 26.06.2019
5815 Clouds 27 1006 88 10000 2.1 240 23:23 26.06.2019
5816 Clouds 27 1006 88 10000 2.1 240 23:23 26.06.2019
5817 Clouds 26 1006 83 10000 3.1 260 22:57 26.06.2019
5818 Clouds 27 1006 83 10000 3.1 260 22:38 26.06.2019
5819 Rain 26 1006 83 10000 3.1 260 22:18 26.06.2019
5820 Rain 28 1009 56 0 1.79 0 21:41 26.06.2019
5821 Rain 28 1009 56 0 1.79 0 21:20 26.06.2019
5822 Rain 28 1009 56 0 1.79 0 20:51 26.06.2019
5823 Rain 26 1007 88 0 1.85 240.274 20:32 26.06.2019
5824 Rain 26 1005 93 0 1.79 145 20:00 26.06.2019
5825 Rain 26 1005 92 0 2.24 150 19:40 26.06.2019
5826 Clouds 28 1008 78 10000 2.1 240 19:22 26.06.2019
5827 Clouds 28 1008 78 10000 2.1 240 18:45 26.06.2019
5828 Clouds 28 1008 78 10000 2.1 240 18:22 26.06.2019
5829 Clouds 28 1008 78 10000 1 220 17:54 26.06.2019
5830 Rain 27 1008 78 10000 1 220 17:27 26.06.2019
5831 Clouds 28 1008 78 9000 1.5 210 16:52 26.06.2019
5832 Clouds 28 1008 78 9000 1.5 210 16:30 26.06.2019
5833 Clouds 28 1008 78 9000 0.5 0 15:58 26.06.2019
5834 Clouds 28 1008 78 9000 0.5 0 15:29 26.06.2019
5835 Rain 27 1007 78 10000 1.5 220 14:57 26.06.2019
5836 Rain 28 1007 78 10000 1.5 220 14:37 26.06.2019
5837 Rain 27 1007 78 10000 1.5 220 14:18 26.06.2019
5838 Rain 28 1007 78 10000 1.5 240 13:39 26.06.2019
5839 Clouds 28 1007 78 10000 1.5 240 13:18 26.06.2019
5840 Clouds 28 1006 78 9000 2.1 230 12:40 26.06.2019
5841 Clouds 28 1006 78 9000 2.1 230 12:20 26.06.2019
5842 Clouds 28 1006 78 9000 2.1 230 12:20 26.06.2019
5843 Rain 28 1005 78 9000 4.1 240 11:38 26.06.2019
5844 Rain 28 1005 78 9000 4.1 240 11:18 26.06.2019
5845 Rain 28 1005 83 9000 7.7 250 10:39 26.06.2019
5846 Rain 28 1005 83 9000 7.7 250 10:20 26.06.2019
5847 Rain 29 1005 74 9000 9.3 250 09:36 26.06.2019
5848 Rain 29 1005 74 9000 9.3 250 09:36 26.06.2019
5849 Rain 30 1005 74 9000 9.3 250 09:18 26.06.2019
5850 Clouds 32 1005 66 10000 6.2 260 08:23 26.06.2019
5851 Clouds 32 1007 66 10000 5.1 250 07:59 26.06.2019
5852 Clouds 32 1007 66 10000 5.1 250 07:41 26.06.2019
5853 Clouds 32 1007 63 10000 5.1 260 06:33 26.06.2019
5854 Clouds 30 1008 70 10000 2.1 240 03:33 26.06.2019
5855 Rain 27 1007 88 10000 1.5 270 00:41 26.06.2019
5856 Rain 27 1007 83 9000 2.1 280 23:58 25.06.2019
5857 Rain 27 1007 83 9000 2.1 280 23:39 25.06.2019
5858 Rain 28 1007 83 9000 2.1 280 23:20 25.06.2019
5859 Rain 28 1007 88 9000 2.1 230 22:42 25.06.2019
5860 Rain 27 1007 88 9000 2.1 230 22:23 25.06.2019
5861 Rain 27 1007 88 9000 1 0 21:46 25.06.2019
5862 Rain 27 1007 88 9000 1 0 21:27 25.06.2019
5863 -273 0 0 0 0 0 20:57 25.06.2019
5864 Clouds 27 1008 88 9000 2.6 240 20:36 25.06.2019
5865 Clouds 27 1008 88 9000 2.6 240 20:18 25.06.2019
5866 Clouds 28 1009 94 9000 1.5 120 19:43 25.06.2019
5867 Clouds 28 1009 94 9000 1.5 120 19:21 25.06.2019
5868 Clouds 28 1010 83 9000 1 0 18:42 25.06.2019
5869 Clouds 28 1010 83 9000 1 0 18:24 25.06.2019
5870 -273 0 0 0 0 0 17:46 25.06.2019
5871 -273 0 0 0 0 0 17:26 25.06.2019
5872 -273 0 0 0 0 0 17:26 25.06.2019
5873 -273 0 0 0 0 0 17:26 25.06.2019
5874 Rain 27 1010 94 9000 3.1 120 16:44 25.06.2019
5875 Rain 27 1010 94 9000 3.1 120 16:26 25.06.2019
5876 Rain 26 1009 94 9000 2.1 150 15:59 25.06.2019
5877 Rain 26 1009 94 9000 2.1 150 15:38 25.06.2019
5878 Rain 26 1009 94 9000 2.1 150 15:18 25.06.2019
5879 Rain 27 1009 94 9000 3.1 190 14:45 25.06.2019
5880 Rain 27 1009 94 9000 3.1 190 14:26 25.06.2019
5881 Thunderstorm 27 1009 88 3000 9.3 90 13:42 25.06.2019
5882 Thunderstorm 27 1009 88 3000 9.3 90 13:42 25.06.2019
5883 Thunderstorm 28 1009 88 3000 9.3 90 13:21 25.06.2019
5884 Clouds 29 1008 74 9000 7.2 250 12:42 25.06.2019
5885 Clouds 30 1008 74 9000 7.2 250 12:24 25.06.2019
5886 Clouds 30 1008 74 9000 7.2 250 12:24 25.06.2019
5887 Clouds 31 1007 66 10000 6.2 240 11:44 25.06.2019
5888 Clouds 31 1007 66 10000 6.2 240 11:23 25.06.2019
5889 Clouds 31 1007 66 10000 6.2 240 11:23 25.06.2019
5890 Clouds 33 1007 63 10000 6.2 230 10:55 25.06.2019
5891 Clouds 33 1007 63 10000 6.2 230 10:36 25.06.2019
5892 Clouds 33 1007 63 10000 6.2 240 10:18 25.06.2019
5893 Clouds 33 1007 63 10000 6.2 240 09:39 25.06.2019
5894 Clouds 33 1007 63 10000 6.2 240 09:21 25.06.2019
5895 Clouds 33 1007 63 10000 6.2 250 08:50 25.06.2019
5896 Clouds 33 1007 63 10000 6.2 250 08:30 25.06.2019
5897 Clouds 33 1008 63 10000 1 260 07:43 25.06.2019
5898 Clouds 33 1008 63 10000 1 260 07:23 25.06.2019
5899 Clouds 33 1009 70 10000 1 270 06:42 25.06.2019
5900 Clouds 32 1010 66 10000 1 260 04:31 25.06.2019
5901 Clouds 29 1011 83 10000 1 250 02:35 25.06.2019
5902 Rain 26 1009 88 9000 2.1 160 00:38 25.06.2019
5903 Clouds 25 1009 94 10000 3.08 253.674 00:18 25.06.2019
5904 Clouds 25 1009 94 10000 3.08 253.674 23:48 24.06.2019
5905 Clouds 27 1009 94 10000 3.08 253.674 23:30 24.06.2019
5906 Clouds 27 1009 94 9000 1 0 22:45 24.06.2019
5907 Clouds 27 1009 94 9000 1 0 22:19 24.06.2019
5908 Rain 26 1009 100 3000 3.1 320 21:42 24.06.2019
5909 Rain 27 1009 100 3000 3.1 320 21:20 24.06.2019
5910 Rain 24 1010 100 1000 7.2 0 20:59 24.06.2019
5911 Thunderstorm 26 1010 100 1000 7.2 0 20:40 24.06.2019
5912 Thunderstorm 26 1010 100 1000 7.2 0 20:21 24.06.2019
5913 Thunderstorm 27 1010 83 10000 3.1 220 19:46 24.06.2019
5914 Thunderstorm 29 1010 83 10000 3.1 220 19:24 24.06.2019
5915 Thunderstorm 29 1010 83 10000 3.1 220 19:24 24.06.2019
5916 Rain 28 1010 79 10000 2.1 250 18:48 24.06.2019
5917 Clouds 29 1010 79 10000 2.1 250 18:30 24.06.2019
5918 Clouds 29 1010 79 10000 2.1 250 17:57 24.06.2019
5919 Clouds 29 1010 79 10000 2.1 250 17:36 24.06.2019
5920 Clouds 29 1010 79 10000 2.1 250 17:36 24.06.2019
5921 Clouds 29 1010 79 10000 3.1 230 16:55 24.06.2019
5922 Clouds 29 1010 79 10000 3.1 230 16:36 24.06.2019
5923 Clouds 29 1010 79 10000 3.1 230 16:18 24.06.2019
5924 Clouds 29 1010 74 10000 3.6 240 15:38 24.06.2019
5925 Clouds 29 1010 74 10000 3.6 240 15:19 24.06.2019
5926 Clouds 29 1010 79 10000 4.1 240 14:34 24.06.2019
5927 Clouds 30 1008 79 10000 6.2 250 13:51 24.06.2019
5928 Clouds 30 1008 79 10000 6.2 250 13:29 24.06.2019
5929 Clouds 30 1008 74 10000 7.2 260 12:45 24.06.2019
5930 Clouds 30 1008 74 10000 7.2 260 12:22 24.06.2019
5931 Clouds 31 1007 70 10000 6.2 250 11:56 24.06.2019
5932 Clouds 31 1007 70 10000 6.2 250 11:38 24.06.2019
5933 Clouds 32 1007 70 10000 6.2 250 11:18 24.06.2019
5934 Clouds 32 1007 66 10000 5.1 260 10:42 24.06.2019
5935 Clouds 32 1007 66 10000 5.1 260 10:20 24.06.2019
5936 Clouds 32 1007 63 10000 5.1 260 09:48 24.06.2019
5937 Clouds 32 1007 63 10000 5.1 260 09:20 24.06.2019
5938 Clouds 33 1008 66 10000 4.1 280 08:51 24.06.2019
5939 Clouds 33 1008 66 10000 4.1 280 08:22 24.06.2019
5940 Clouds 33 1009 70 10000 6.2 270 07:44 24.06.2019
5941 Clouds 32 1009 70 10000 6.2 270 07:24 24.06.2019
5942 Rain 32 1010 66 10000 6.2 280 06:27 24.06.2019
5943 Clouds 31 1010 70 10000 5.1 290 05:56 24.06.2019
5944 Rain 30 1010 70 10000 2.1 260 04:59 24.06.2019
5945 Rain 30 1010 70 10000 2.1 260 04:21 24.06.2019
5946 Clouds 29 1011 79 10000 1 240 02:53 24.06.2019
5947 Clouds 28 1010 83 10000 1 140 01:58 24.06.2019
5948 Clouds 27 1010 83 10000 1 140 01:40 24.06.2019
5949 Clouds 27 1010 83 10000 1 140 01:21 24.06.2019
5950 Clouds 27 1009 94 10000 0.54 248.199 00:38 24.06.2019
5951 Clouds 27 1009 94 10000 1 0 00:18 24.06.2019
5952 Clouds 27 1009 94 10000 1 0 23:42 23.06.2019
5953 Clouds 27 1009 94 10000 1 0 23:21 23.06.2019
5954 Clouds 27 1009 94 10000 1 0 22:42 23.06.2019
5955 Clouds 27 1009 94 10000 1 0 22:20 23.06.2019
5956 Clouds 27 1008 88 10000 1 0 21:43 23.06.2019
5957 Clouds 27 1008 88 10000 1 0 21:25 23.06.2019
5958 Clouds 26 1008 88 10000 1.5 260 20:57 23.06.2019
5959 Clouds 27 1008 88 10000 1.5 260 20:38 23.06.2019
5960 Clouds 27 1008 88 10000 1.5 260 20:19 23.06.2019
5961 Rain 24 1009 94 1500 5.1 250 19:43 23.06.2019
5962 Rain 24 1009 94 1500 5.1 250 19:20 23.06.2019
5963 Rain 25 1010 94 7000 4.6 0 18:44 23.06.2019
5964 Thunderstorm 27 1010 94 7000 4.6 0 18:20 23.06.2019
5965 Thunderstorm 28 1010 83 10000 5.1 0 17:44 23.06.2019
5966 Thunderstorm 28 1010 83 10000 5.1 0 17:24 23.06.2019
5967 Clouds 30 1009 79 10000 3.1 230 16:46 23.06.2019
5968 Clouds 30 1009 79 10000 3.1 230 16:25 23.06.2019
5969 Clouds 31 1009 74 10000 4.1 230 15:55 23.06.2019
5970 Clouds 30 1009 74 10000 4.1 230 15:37 23.06.2019
5971 Clouds 30 1009 74 10000 4.1 230 15:18 23.06.2019
5972 Clouds 30 1008 74 10000 5.1 230 14:38 23.06.2019
5973 Clouds 30 1008 74 10000 5.1 230 14:20 23.06.2019
5974 Clouds 30 1009 79 10000 1.5 230 13:43 23.06.2019
5975 Clouds 30 1009 79 10000 1.5 230 13:21 23.06.2019
5976 Clouds 31 1007 70 10000 7.2 250 12:59 23.06.2019
5977 Clouds 31 1007 70 10000 7.2 250 12:40 23.06.2019
5978 Clouds 31 1007 70 10000 7.2 250 12:19 23.06.2019
5979 Clouds 31 1007 70 10000 7.2 250 12:19 23.06.2019
5980 Clouds 31 1006 70 10000 8.2 250 11:46 23.06.2019
5981 Clouds 31 1006 70 10000 8.2 250 11:27 23.06.2019
5982 Clouds 32 1006 66 10000 7.7 250 10:49 23.06.2019
5983 Clouds 33 1006 66 10000 7.7 250 10:21 23.06.2019
5984 Clouds 32 1006 63 10000 6.2 250 09:58 23.06.2019
5985 Clouds 32 1006 63 10000 6.2 250 09:22 23.06.2019
5986 Clouds 33 1006 59 10000 4.1 280 08:47 23.06.2019
5987 Clouds 33 1006 59 10000 4.1 280 08:28 23.06.2019
5988 Clouds 33 1007 59 10000 5.1 260 07:57 23.06.2019
5989 Clouds 33 1007 59 10000 5.1 260 07:39 23.06.2019
5990 Clouds 33 1007 59 10000 5.1 260 07:18 23.06.2019
5991 Rain 32 1009 56 0 1.79 0 06:46 23.06.2019
5992 Clouds 34 1008 59 10000 4.1 270 05:42 23.06.2019
5993 Clouds 31 1009 74 10000 1 60 02:32 23.06.2019
5994 Clouds 31 1007 79 8000 1 50 01:39 23.06.2019
5995 Clouds 29 1007 83 8000 1 0 00:58 23.06.2019
5996 Clouds 29 1007 83 8000 1 0 00:27 23.06.2019
5997 Clouds 28 1007 83 8000 3.1 120 23:43 22.06.2019
5998 Clouds 29 1007 83 8000 3.1 120 23:25 22.06.2019
5999 Clouds 28 1007 88 7000 1 0 22:46 22.06.2019
6000 Clouds 28 1007 88 7000 1 0 22:25 22.06.2019
6001 Clouds 29 1007 83 7000 1 0 21:43 22.06.2019
6002 Clouds 29 1007 83 7000 1 0 21:20 22.06.2019
6003 Clouds 29 1007 88 9000 1 0 20:56 22.06.2019
6004 Clouds 28 1007 88 9000 1 0 20:38 22.06.2019
6005 Clouds 29 1007 88 9000 1 0 20:19 22.06.2019
6006 Clouds 29 1007 83 9000 1 0 19:40 22.06.2019
6007 Clouds 29 1007 83 9000 1 0 19:19 22.06.2019
6008 Rain 29 1008 83 9000 1.5 274.349 18:42 22.06.2019
6009 Rain 29 1008 83 9000 2.05 283.143 18:22 22.06.2019
6010 Clouds 29 1008 83 9000 1 0 17:43 22.06.2019
6011 Clouds 29 1008 83 9000 1 0 17:25 22.06.2019
6012 Clouds 29 1008 83 9000 1 0 16:42 22.06.2019
6013 Clouds 29 1008 83 9000 1 0 16:22 22.06.2019
6014 Clouds 29 1008 83 9000 1 280 15:43 22.06.2019
6015 Clouds 29 1008 83 9000 1 280 15:25 22.06.2019
6016 Clouds 29 1008 79 9000 2.1 260 14:51 22.06.2019
6017 Clouds 29 1008 79 9000 2.1 260 14:31 22.06.2019
6018 Rain 29 1007 79 9000 4.1 100 13:56 22.06.2019
6019 Rain 29 1007 79 9000 4.1 100 13:38 22.06.2019
6020 Rain 29 1007 79 9000 4.1 100 13:38 22.06.2019
6021 Thunderstorm 30 1006 70 9000 7.2 250 13:18 22.06.2019
6022 Thunderstorm 30 1006 70 9000 7.2 250 12:42 22.06.2019
6023 Rain 31 1005 75 9000 7.2 260 12:18 22.06.2019
6024 Rain 31 1005 75 9000 7.2 260 11:40 22.06.2019
6025 Rain 33 1005 63 10000 6.2 260 10:58 22.06.2019
6026 Rain 34 1005 63 10000 6.2 260 10:22 22.06.2019
6027 Clouds 34 1005 63 10000 4.6 280 09:56 22.06.2019
6028 Clouds 35 1005 63 10000 4.6 280 09:28 22.06.2019
6029 Clouds 35 1005 56 10000 4.1 280 08:46 22.06.2019
6030 Clouds 35 1005 56 10000 4.1 280 08:28 22.06.2019
6031 Clouds 35 1008 56 10000 4.1 280 07:44 22.06.2019
6032 Clouds 35 1008 56 10000 4.1 290 07:18 22.06.2019
6033 Clouds 35 1008 56 10000 4.1 290 06:33 22.06.2019
6034 Clouds 31 1009 70 9000 2.1 240 03:21 22.06.2019
6035 Clouds 31 1009 74 9000 3.1 260 02:18 22.06.2019
6036 Clouds 29 1007 83 9000 1 160 00:47 22.06.2019
6037 Clouds 28 1007 83 9000 1 160 00:23 22.06.2019
6038 Clouds 29 1007 83 10000 2.1 170 23:49 21.06.2019
6039 Clouds 29 1007 83 10000 2.1 170 23:22 21.06.2019
6040 Clouds 29 1007 83 10000 3.1 190 22:54 21.06.2019
6041 Clouds 29 1007 83 10000 3.1 190 22:27 21.06.2019
6042 Clouds 29 1007 83 10000 2.1 160 21:56 21.06.2019
6043 Clouds 29 1007 83 10000 2.1 160 21:37 21.06.2019
6044 Clouds 29 1007 83 10000 2.1 160 21:18 21.06.2019
6045 Clouds 29 1007 79 10000 1 0 20:45 21.06.2019
6046 Clouds 29 1007 79 10000 1 0 20:22 21.06.2019
6047 Clouds 29 1008 79 9000 1.5 150 19:38 21.06.2019
6048 Clouds 29 1009 74 8000 1.5 160 18:55 21.06.2019
6049 Clouds 29 1009 74 8000 1.5 160 18:34 21.06.2019
6050 Rain 29 1009 79 8000 2.1 170 17:48 21.06.2019
6051 Rain 30 1009 79 8000 2.1 170 17:30 21.06.2019
6052 Clouds 30 1009 79 10000 2.1 190 16:42 21.06.2019
6053 Clouds 30 1009 79 10000 2.1 190 16:23 21.06.2019
6054 Clouds 30 1009 74 10000 1.5 200 15:45 21.06.2019
6055 Clouds 30 1009 74 10000 1.5 200 15:24 21.06.2019
6056 Clouds 30 1008 74 10000 2.1 220 14:53 21.06.2019
6057 Clouds 30 1008 74 10000 2.1 220 14:31 21.06.2019
6058 Clouds 30 1008 74 10000 3.1 230 13:58 21.06.2019
6059 Clouds 30 1008 74 10000 3.1 230 13:36 21.06.2019
6060 Clouds 30 1008 74 10000 3.1 230 13:18 21.06.2019
6061 Clouds 31 1008 70 10000 4.1 230 12:40 21.06.2019
6062 Clouds 31 1007 70 9000 4.1 240 12:18 21.06.2019
6063 Clouds 31 1007 70 9000 4.1 240 11:47 21.06.2019
6064 Clouds 31 1007 70 9000 4.1 240 11:26 21.06.2019
6065 Rain 30 1007 79 10000 6.2 250 10:51 21.06.2019
6066 Thunderstorm 32 1007 59 10000 6.2 250 10:22 21.06.2019
6067 Clouds 33 1006 66 10000 6.2 250 09:59 21.06.2019
6068 Clouds 33 1006 66 10000 6.2 250 09:40 21.06.2019
6069 Clouds 34 1006 66 10000 6.2 250 09:19 21.06.2019
6070 Clouds 35 1007 53 10000 6.2 260 08:43 21.06.2019
6071 Clouds 35 1007 53 10000 6.2 260 08:23 21.06.2019
6072 Clouds 35 1007 53 10000 6.2 190 07:51 21.06.2019
6073 Clouds 35 1007 53 10000 6.2 190 07:29 21.06.2019
6074 Clouds 36 1008 56 10000 1 150 06:53 21.06.2019
6075 Clouds 34 1008 56 10000 1 150 06:21 21.06.2019
6076 Clouds 34 1008 56 10000 2.1 60 05:25 21.06.2019
6077 Clouds 33 1009 59 10000 1 90 04:26 21.06.2019
6078 Clouds 33 1010 62 10000 1 100 03:33 21.06.2019
6079 Clouds 32 1009 66 10000 3.1 120 02:48 21.06.2019
6080 Clouds 31 1009 74 10000 2.1 120 01:48 21.06.2019
6081 Clouds 29 1009 83 10000 1 110 00:55 21.06.2019
6082 Clouds 28 1009 83 10000 1 110 00:19 21.06.2019
6083 Clouds 29 1009 83 10000 2.1 90 23:44 20.06.2019
6084 Clouds 29 1009 83 10000 2.1 90 23:21 20.06.2019
6085 Clouds 29 1009 83 10000 0.99 108.838 22:46 20.06.2019
6086 Clouds 29 1009 83 10000 0.99 108.838 22:27 20.06.2019
6087 Clouds 29 1009 83 10000 0.99 108.838 21:58 20.06.2019
6088 Clouds 28 1009 83 10000 0.99 108.838 21:39 20.06.2019
6089 Clouds 29 1009 83 10000 0.66 143.497 21:19 20.06.2019
6090 Clouds 29 1009 79 10000 1 180 20:46 20.06.2019
6091 Clouds 29 1009 79 10000 1 180 20:26 20.06.2019
6092 Clouds 29 1009 74 10000 1 160 19:55 20.06.2019
6093 Clouds 29 1009 74 10000 1 160 19:37 20.06.2019
6094 Clouds 29 1010 74 10000 1 150 19:18 20.06.2019
6095 Clouds 29 1010 74 10000 1 150 18:42 20.06.2019
6096 Clouds 29 1010 74 10000 1 150 18:23 20.06.2019
6097 Clouds 29 1010 70 10000 2.1 170 17:51 20.06.2019
6098 Clouds 29 1010 70 10000 2.1 170 17:51 20.06.2019
6099 Clouds 29 1010 70 10000 2.1 170 17:32 20.06.2019
6100 Clouds 29 1009 79 10000 2.1 150 16:49 20.06.2019
6101 Clouds 29 1009 79 10000 2.1 150 16:21 20.06.2019
6102 Clouds 28 1009 74 10000 2.1 160 15:59 20.06.2019
6103 Clouds 29 1009 74 10000 2.1 160 15:40 20.06.2019
6104 Clouds 29 1009 74 10000 2.1 160 15:22 20.06.2019
6105 Clouds 28 1009 78 10000 3.1 180 14:46 20.06.2019
6106 Clouds 28 1009 78 10000 3.1 180 14:23 20.06.2019
6107 Clouds 27 1008 88 10000 3.1 190 13:41 20.06.2019
6108 Clouds 28 1008 88 10000 3.1 190 13:20 20.06.2019
6109 Thunderstorm 29 1008 70 9000 4.1 220 12:49 20.06.2019
6110 Thunderstorm 29 1008 70 9000 4.1 220 12:24 20.06.2019
6111 Rain 30 1007 66 9000 7.2 230 11:49 20.06.2019
6112 Thunderstorm 32 1007 59 9000 6.2 260 11:30 20.06.2019
6113 Thunderstorm 33 1006 63 10000 5.1 280 10:58 20.06.2019
6114 Thunderstorm 34 1006 63 10000 5.1 280 10:39 20.06.2019
6115 Thunderstorm 34 1006 63 10000 5.1 280 10:20 20.06.2019
6116 Clouds 35 1006 56 10000 4.6 270 09:40 20.06.2019
6117 Clouds 35 1006 56 10000 4.6 270 09:22 20.06.2019
6118 Clouds 35 1007 47 10000 1.96 240.063 08:46 20.06.2019
6119 Clouds 37 1007 47 10000 1.96 240.063 08:27 20.06.2019
6120 Clouds 36 1007 47 10000 2.1 110 07:54 20.06.2019
6121 Clouds 36 1007 47 10000 2.1 110 07:30 20.06.2019
6122 Clouds 35 1008 53 10000 3.1 120 06:30 20.06.2019
6123 Clouds 35 1009 59 10000 2.1 70 05:41 20.06.2019
6124 Clouds 33 1010 62 10000 2.1 120 03:32 20.06.2019
6125 Clouds 29 1008 74 10000 2.1 120 00:34 20.06.2019
6126 Clouds 29 1008 74 10000 2.1 90 23:58 19.06.2019
6127 Clouds 29 1008 74 10000 2.1 90 23:39 19.06.2019
6128 Clouds 29 1008 74 10000 2.1 90 23:21 19.06.2019
6129 Clouds 29 1009 74 10000 3.1 110 22:47 19.06.2019
6130 Clouds 29 1009 74 10000 3.1 110 22:47 19.06.2019
6131 Clouds 29 1008 70 10000 4.1 90 22:18 19.06.2019
6132 Clouds 29 1008 70 10000 4.1 90 21:46 19.06.2019
6133 Clouds 30 1008 70 10000 4.1 90 21:25 19.06.2019
6134 Clouds 29 1008 70 10000 3.1 120 20:56 19.06.2019
6135 Clouds 30 1008 70 10000 3.1 120 20:37 19.06.2019
6136 Clouds 30 1008 70 10000 3.1 120 20:37 19.06.2019
6137 Clouds 30 1008 70 10000 3.1 120 20:19 19.06.2019
6138 Clouds 30 1009 70 10000 3.1 90 19:41 19.06.2019
6139 Clouds 30 1009 70 10000 3.1 90 19:20 19.06.2019
6140 Clouds 30 1009 70 10000 3.1 110 18:48 19.06.2019
6141 Clouds 30 1009 70 10000 3.1 110 18:21 19.06.2019
6142 Clouds 30 1009 70 10000 3.1 100 17:38 19.06.2019
6143 Clouds 30 1009 70 10000 3.1 100 17:18 19.06.2019
6144 Clouds 30 1009 70 10000 2.1 70 16:40 19.06.2019
6145 Clouds 30 1009 70 10000 2.1 70 16:21 19.06.2019
6146 -273 0 0 0 0 0 15:54 19.06.2019
6147 -273 0 0 0 0 0 15:28 19.06.2019
6148 Clouds 31 1008 66 10000 1.32 287.556 14:57 19.06.2019
6149 Clouds 31 1008 66 10000 1.32 287.556 14:57 19.06.2019
6150 Clouds 31 1008 66 10000 1.32 287.556 14:38 19.06.2019
6151 Clouds 31 1008 66 10000 1.32 287.556 14:20 19.06.2019
6152 Clouds 31 1007 62 10000 3.1 90 13:43 19.06.2019
6153 Clouds 31 1007 62 10000 3.1 90 13:24 19.06.2019
6154 Clouds 32 1007 56 10000 1 70 12:44 19.06.2019
6155 Clouds 32 1007 56 10000 1 70 12:22 19.06.2019
6156 Clouds 33 1006 56 10000 1 90 11:56 19.06.2019
6157 Clouds 33 1006 56 10000 1 90 11:37 19.06.2019
6158 Clouds 33 1006 63 10000 2.1 110 11:19 19.06.2019
6159 Clouds 33 1006 63 10000 2.1 110 10:43 19.06.2019
6160 Clouds 33 1006 63 10000 2.1 110 10:24 19.06.2019
6161 Clouds 33 1007 63 10000 4.1 100 09:42 19.06.2019
6162 Clouds 33 1007 63 10000 4.1 100 09:21 19.06.2019
6163 Clouds 35 1007 53 10000 3.1 120 08:50 19.06.2019
6164 Clouds 34 1007 53 10000 3.1 120 08:29 19.06.2019
6165 Clouds 33 1008 56 10000 6.2 90 07:48 19.06.2019
6166 Clouds 33 1008 56 10000 6.2 90 07:29 19.06.2019
6167 Clouds 32 1009 59 10000 6.2 110 06:53 19.06.2019
6168 Clouds 32 1009 59 10000 6.2 110 06:29 19.06.2019
6169 Rain 32 1010 63 10000 2.1 120 05:49 19.06.2019
6170 Clouds 32 1010 66 10000 3.1 120 04:41 19.06.2019
6171 Clouds 31 1010 70 10000 2.1 90 03:36 19.06.2019
6172 Clouds 31 1010 70 10000 2.1 90 02:28 19.06.2019
6173 Clouds 29 1010 70 10000 2.1 130 01:27 19.06.2019
6174 Clouds 29 1009 74 10000 3.1 120 00:43 19.06.2019
6175 Clouds 29 1009 74 10000 3.1 120 00:20 19.06.2019
6176 Clouds 28 1009 74 10000 2.1 140 23:53 18.06.2019
6177 Clouds 28 1009 74 10000 2.1 140 23:28 18.06.2019
6178 Clouds 29 1009 74 10000 2.1 120 22:49 18.06.2019
6179 Clouds 29 1009 74 10000 2.1 120 22:25 18.06.2019
6180 Clouds 29 1010 74 10000 3.1 100 21:58 18.06.2019
6181 Clouds 29 1010 74 10000 3.1 100 21:39 18.06.2019
6182 Clouds 29 1010 74 10000 3.1 100 21:21 18.06.2019
6183 Clouds 29 1010 70 10000 4.1 140 20:44 18.06.2019
6184 Clouds 29 1010 70 10000 4.1 140 20:25 18.06.2019
6185 Clouds 29 1010 70 10000 3.1 120 19:47 18.06.2019
6186 Clouds 30 1010 70 10000 3.1 120 19:25 18.06.2019
6187 Clouds 30 1011 70 10000 4.1 110 18:59 18.06.2019
6188 Clouds 30 1011 70 10000 4.1 110 18:39 18.06.2019
6189 Clouds 30 1011 70 10000 4.1 110 18:21 18.06.2019
6190 Clouds 30 1011 70 10000 4.1 130 17:39 18.06.2019
6191 Clouds 30 1011 70 10000 4.1 130 17:20 18.06.2019
6192 Clouds 30 1010 70 10000 4.1 120 16:46 18.06.2019
6193 Clouds 30 1010 70 10000 4.1 120 16:27 18.06.2019
6194 Clouds 30 1010 66 10000 4.1 110 15:55 18.06.2019
6195 Clouds 30 1010 66 10000 4.1 110 15:36 18.06.2019
6196 Clouds 30 1010 66 10000 4.1 110 15:18 18.06.2019
6197 Clouds 30 1009 66 10000 4.1 120 14:42 18.06.2019
6198 Clouds 30 1009 66 10000 4.1 120 14:21 18.06.2019
6199 Clouds 31 1009 62 10000 5.1 130 13:53 18.06.2019
6200 Clouds 31 1009 62 10000 5.1 130 13:32 18.06.2019
6201 Clouds 31 1008 59 10000 4.1 140 12:56 18.06.2019
6202 Clouds 32 1008 59 10000 4.1 140 12:36 18.06.2019
6203 Clouds 32 1008 59 10000 5.7 150 12:18 18.06.2019
6204 Clouds 33 1008 59 10000 5.7 150 11:42 18.06.2019
6205 Clouds 32 1008 59 10000 5.7 150 11:21 18.06.2019
6206 Clouds 33 1008 56 10000 5.1 140 10:56 18.06.2019
6207 Clouds 33 1008 56 10000 5.1 140 10:36 18.06.2019
6208 Clouds 34 1008 56 10000 5.1 140 10:18 18.06.2019
6209 Clouds 35 1008 50 10000 5.1 130 09:37 18.06.2019
6210 Clouds 35 1008 50 10000 5.1 130 09:18 18.06.2019
6211 Clouds 36 1008 50 10000 5.1 120 08:42 18.06.2019
6212 Clouds 35 1008 50 10000 5.1 120 08:21 18.06.2019
6213 Clouds 36 1009 53 10000 6.2 140 07:37 18.06.2019
6214 Clouds 34 1010 59 10000 6.2 120 07:18 18.06.2019
6215 Clouds 34 1010 59 10000 3.1 110 05:38 18.06.2019
6216 Clouds 33 1011 63 10000 3.1 120 04:23 18.06.2019
6217 Clouds 32 1011 70 10000 6.2 100 02:51 18.06.2019
6218 Clouds 31 1011 79 10000 3.8 83.508 01:52 18.06.2019
6219 Clouds 30 1011 79 10000 3.89 86.685 01:24 18.06.2019
6220 Clouds 29 1010 83 10000 3.89 86.685 00:41 18.06.2019
6221 Clouds 29 1010 83 10000 4.05 84.412 00:23 18.06.2019
6222 Clouds 28 1010 88 10000 4.05 84.412 23:40 17.06.2019
6223 Clouds 28 1010 88 10000 4.05 84.412 23:19 17.06.2019
6224 Clouds 29 1010 83 10000 4.05 84.412 22:42 17.06.2019
6225 Clouds 29 1010 83 10000 4.05 84.412 22:22 17.06.2019
6226 Clouds 28 1010 83 9000 4.05 84.412 21:58 17.06.2019
6227 Clouds 29 1010 83 9000 4.05 84.412 21:40 17.06.2019
6228 Clouds 29 1010 83 9000 3.04 92.978 21:20 17.06.2019
6229 Clouds 29 1010 83 8000 3.04 92.978 20:36 17.06.2019
6230 Clouds 29 1010 83 10000 3.92 107.119 20:18 17.06.2019
6231 Clouds 29 1010 83 10000 3.92 107.119 19:41 17.06.2019
6232 Clouds 29 1010 83 10000 3.92 107.119 19:22 17.06.2019
6233 -273 0 0 0 0 0 18:57 17.06.2019
6234 Clouds 29 1010 83 9000 3.92 107.119 18:37 17.06.2019
6235 Clouds 28 1011 83 10000 1.54 157.055 18:18 17.06.2019
6236 Clouds 28 1011 83 10000 1.54 157.055 17:42 17.06.2019
6237 Clouds 28 1011 83 10000 1.54 157.055 17:24 17.06.2019
6238 Clouds 28 1011 83 10000 1.54 157.055 16:45 17.06.2019
6239 Clouds 28 1011 83 10000 1.54 157.055 16:27 17.06.2019
6240 Clouds 28 1011 83 10000 1 240 15:56 17.06.2019
6241 Clouds 28 1011 83 10000 1 240 15:37 17.06.2019
6242 Clouds 27 1010 88 10000 4.1 220 15:18 17.06.2019
6243 Clouds 28 1010 88 10000 4.1 220 14:47 17.06.2019
6244 Clouds 28 1010 88 10000 4.1 220 14:26 17.06.2019
6245 Clouds 29 1010 79 10000 3.1 230 13:50 17.06.2019
6246 Clouds 30 1010 79 10000 3.1 230 13:23 17.06.2019
6247 Clouds 30 1009 74 10000 5.1 260 12:50 17.06.2019
6248 Clouds 31 1009 74 10000 5.1 260 12:31 17.06.2019
6249 Clouds 32 1009 75 10000 5.7 250 11:48 17.06.2019
6250 Clouds 32 1009 75 10000 5.7 250 11:26 17.06.2019
6251 Clouds 32 1008 66 10000 5.1 240 10:58 17.06.2019
6252 Clouds 33 1008 66 10000 5.1 240 10:40 17.06.2019
6253 Clouds 34 1008 53 10000 5.1 120 10:21 17.06.2019
6254 Clouds 34 1008 53 10000 5.1 120 09:51 17.06.2019
6255 -273 0 0 0 0 0 09:27 17.06.2019
6256 Clouds 35 1009 56 10000 6.2 90 08:41 17.06.2019
6257 Clouds 35 1009 56 10000 6.2 90 08:23 17.06.2019
6258 Clouds 35 1009 56 10000 6.2 110 07:42 17.06.2019
6259 Clouds 35 1010 59 10000 6.2 100 07:23 17.06.2019
6260 Clouds 35 1010 59 10000 6.2 100 06:35 17.06.2019
6261 Clouds 34 1010 59 10000 5.1 90 05:45 17.06.2019
6262 Clouds 33 1010 66 10000 4.1 80 04:39 17.06.2019
6263 Clouds 33 1010 66 10000 5.1 60 03:45 17.06.2019
6264 Clouds 31 1010 74 10000 4.1 90 02:58 17.06.2019
6265 Clouds 31 1010 74 10000 4.1 90 02:40 17.06.2019
6266 Clouds 30 1009 83 10000 3.1 90 01:43 17.06.2019
6267 Clouds 29 1009 83 10000 4.1 100 01:18 17.06.2019
6268 Clouds 28 1009 83 10000 4.1 100 00:41 17.06.2019
6269 Clouds 28 1009 83 10000 1.68 196.399 00:21 17.06.2019
6270 Clouds 28 1009 83 10000 1.68 196.399 23:41 16.06.2019
6271 Clouds 28 1009 83 10000 2.1 250 23:22 16.06.2019
6272 Clouds 28 1009 83 10000 2.1 250 22:55 16.06.2019
6273 Clouds 28 1009 83 10000 2.1 250 22:36 16.06.2019
6274 Clouds 28 1009 83 10000 1.68 196.399 22:18 16.06.2019
6275 Clouds 28 1009 83 10000 1.68 196.399 21:41 16.06.2019
6276 Clouds 28 1009 83 10000 3.09 221.167 21:22 16.06.2019
6277 Clouds 28 1010 83 10000 1 0 20:58 16.06.2019
6278 Clouds 28 1010 83 10000 1 0 20:37 16.06.2019
6279 Clouds 28 1010 83 10000 2.1 230 20:18 16.06.2019
6280 Clouds 28 1010 83 10000 2.1 230 19:41 16.06.2019
6281 Clouds 29 1010 79 10000 1.5 220 19:22 16.06.2019
6282 Clouds 29 1010 79 10000 1.5 220 18:58 16.06.2019
6283 Clouds 29 1010 79 10000 1.5 220 18:39 16.06.2019
6284 Clouds 29 1010 79 10000 0.5 0 18:20 16.06.2019
6285 Clouds 29 1010 79 10000 0.5 0 17:46 16.06.2019
6286 Clouds 29 1010 74 10000 1 220 17:22 16.06.2019
6287 Clouds 29 1010 74 10000 1 220 16:57 16.06.2019
6288 Clouds 29 1010 74 10000 1 220 16:57 16.06.2019
6289 Clouds 29 1010 74 10000 1 220 16:39 16.06.2019
6290 Clouds 29 1010 74 10000 1 220 16:20 16.06.2019
6291 Clouds 29 1010 74 10000 1 220 15:42 16.06.2019
6292 Clouds 29 1010 74 10000 1 220 15:24 16.06.2019
6293 Clouds 29 1009 70 10000 2.1 230 14:44 16.06.2019
6294 Clouds 29 1009 70 10000 2.1 230 14:23 16.06.2019
6295 Clouds 29 1009 74 10000 2.6 220 13:52 16.06.2019
6296 Clouds 30 1009 74 10000 2.6 220 13:27 16.06.2019
6297 Clouds 30 1008 70 10000 4.1 220 12:58 16.06.2019
6298 Clouds 30 1008 70 10000 4.1 220 12:38 16.06.2019
6299 Clouds 31 1008 74 10000 5.1 270 12:19 16.06.2019
6300 Clouds 31 1008 74 10000 5.1 270 11:45 16.06.2019
6301 Rain 29 1008 88 9000 3.1 220 11:20 16.06.2019
6302 Rain 29 1008 88 9000 3.1 220 10:45 16.06.2019
6303 Thunderstorm 30 1007 70 9000 6.2 260 10:21 16.06.2019
6304 Thunderstorm 30 1007 70 9000 6.2 260 09:48 16.06.2019
6305 Thunderstorm 30 1007 70 9000 6.2 260 09:26 16.06.2019
6306 Clouds 33 1008 56 10000 5.1 280 08:59 16.06.2019
6307 Clouds 32 1008 56 10000 5.1 280 08:38 16.06.2019
6308 Clouds 33 1008 56 10000 4.1 270 08:18 16.06.2019
6309 Clouds 34 1008 56 10000 4.1 270 07:43 16.06.2019
6310 Rain 33 1008 70 9000 5.1 260 06:57 16.06.2019
6311 Rain 32 1008 70 9000 5.1 260 06:37 16.06.2019
6312 Clouds 32 1008 66 10000 5.1 270 05:43 16.06.2019
6313 Clouds 31 1008 63 10000 4.1 270 04:36 16.06.2019
6314 Clouds 31 1008 66 10000 3.1 250 03:54 16.06.2019
6315 Clouds 32 1008 66 10000 3.1 250 03:31 16.06.2019
6316 Clouds 31 1007 79 10000 2.1 200 02:18 16.06.2019
6317 Clouds 30 1007 79 10000 2.1 200 01:41 16.06.2019
6318 Clouds 30 1007 79 10000 2.1 200 01:23 16.06.2019
6319 Clouds 28 1007 83 10000 3.1 120 00:40 16.06.2019
6320 Clouds 28 1007 83 10000 2.1 90 00:19 16.06.2019
6321 Clouds 28 1007 83 10000 2.1 90 23:42 15.06.2019
6322 Clouds 28 1007 83 10000 3.1 70 23:22 15.06.2019
6323 Clouds 27 1007 83 10000 3.1 70 22:49 15.06.2019
6324 Clouds 28 1007 83 10000 3.1 70 22:26 15.06.2019
6325 Clouds 27 1007 88 10000 2.1 90 21:45 15.06.2019
6326 Clouds 27 1007 88 10000 2.1 90 21:27 15.06.2019
6327 Clouds 27 1007 78 10000 0.5 0 20:56 15.06.2019
6328 Clouds 27 1007 78 10000 0.5 0 20:36 15.06.2019
6329 Clouds 28 1008 83 10000 1 0 20:18 15.06.2019
6330 Clouds 28 1008 83 10000 1 0 19:40 15.06.2019
6331 Clouds 28 1009 83 10000 2.66 230.299 19:22 15.06.2019
6332 Clouds 27 1009 83 10000 2.66 230.299 18:37 15.06.2019
6333 Clouds 28 1009 78 10000 1.5 120 18:19 15.06.2019
6334 Clouds 27 1009 78 10000 1.5 120 17:43 15.06.2019
6335 Clouds 27 1009 88 10000 1 0 17:21 15.06.2019
6336 Clouds 27 1009 88 10000 1 0 16:45 15.06.2019
6337 Clouds 27 1009 88 10000 2.1 230 16:19 15.06.2019
6338 Clouds 27 1009 88 10000 2.1 230 15:42 15.06.2019
6339 Clouds 27 1009 88 10000 2.1 230 15:23 15.06.2019
6340 Rain 27 1007 78 9000 3.1 240 14:42 15.06.2019
6341 Clouds 27 1007 74 10000 2.6 260 14:18 15.06.2019
6342 Clouds 27 1007 74 10000 2.6 260 13:55 15.06.2019
6343 Clouds 27 1007 74 10000 2.6 260 13:36 15.06.2019
6344 Rain 27 1007 78 9000 6.2 260 13:18 15.06.2019
6345 Rain 27 1007 78 9000 6.2 260 12:42 15.06.2019
6346 Rain 27 1007 83 9000 7.7 250 12:23 15.06.2019
6347 Rain 27 1007 83 9000 7.7 250 11:48 15.06.2019
6348 Rain 27 1007 83 9000 7.7 250 11:29 15.06.2019
6349 Rain 30 1006 66 10000 5.1 270 10:46 15.06.2019
6350 Rain 31 1006 66 10000 5.1 270 10:25 15.06.2019
6351 Clouds 32 1006 63 10000 4.1 260 09:48 15.06.2019
6352 Clouds 32 1006 63 10000 4.1 260 09:27 15.06.2019
6353 Clouds 33 1007 59 10000 5.1 280 08:55 15.06.2019
6354 Clouds 33 1007 59 10000 5.1 280 08:37 15.06.2019
6355 Clouds 33 1008 59 10000 4.1 290 08:18 15.06.2019
6356 Clouds 33 1008 59 10000 4.1 290 08:18 15.06.2019
6357 Clouds 33 1008 59 10000 4.1 290 07:26 15.06.2019
6358 Clouds 33 1008 66 10000 4.1 280 06:48 15.06.2019
6359 Clouds 32 1008 66 10000 4.1 280 06:25 15.06.2019
6360 Clouds 32 1009 66 10000 5.1 280 05:39 15.06.2019
6361 Clouds 32 1009 66 10000 5.1 280 05:39 15.06.2019
6362 Clouds 31 1009 66 10000 4.1 260 04:52 15.06.2019
6363 -273 0 0 0 0 0 04:19 15.06.2019
6364 Clouds 31 1007 74 10000 2.1 210 03:22 15.06.2019
6365 Clouds 31 1007 74 10000 2.1 210 02:31 15.06.2019
6366 -273 0 0 0 0 0 01:57 15.06.2019
6367 Clouds 28 1008 88 10000 3.1 250 01:20 15.06.2019
6368 Clouds 28 1008 88 10000 3.1 250 00:40 15.06.2019
6369 Clouds 27 1008 88 10000 4.4 232.961 00:20 15.06.2019
6370 Clouds 27 1008 88 10000 4.8 233.835 23:42 14.06.2019
6371 Clouds 27 1008 88 10000 4.1 250 23:18 14.06.2019
6372 Clouds 27 1008 88 10000 4.1 250 22:41 14.06.2019
6373 Rain 27 1008 83 9000 6.2 260 22:21 14.06.2019
6374 Rain 27 1008 83 9000 6.2 260 21:48 14.06.2019
6375 -273 0 0 0 0 0 21:27 14.06.2019
6376 Clouds 28 1008 83 10000 2.1 240 20:44 14.06.2019
6377 Rain 27 1009 83 10000 3.1 240 20:19 14.06.2019
6378 Clouds 27 1009 83 10000 3.1 240 19:57 14.06.2019
6379 Clouds 28 1009 83 10000 3.1 240 19:37 14.06.2019
6380 Clouds 27 1009 83 10000 3.1 230 19:18 14.06.2019
6381 Clouds 28 1009 83 10000 3.1 230 18:45 14.06.2019
6382 Clouds 28 1009 83 10000 3.1 230 18:26 14.06.2019
6383 Clouds 27 1010 78 10000 3.1 240 17:58 14.06.2019
6384 Clouds 27 1010 78 10000 3.1 240 17:39 14.06.2019
6385 Clouds 27 1009 83 10000 4.6 230 17:20 14.06.2019
6386 Clouds 28 1009 83 10000 4.6 230 16:46 14.06.2019
6387 Clouds 29 1009 79 10000 5.1 220 16:22 14.06.2019
6388 Clouds 29 1009 79 10000 5.1 220 16:22 14.06.2019
6389 Clouds 28 1009 79 10000 5.1 220 15:57 14.06.2019
6390 Clouds 28 1009 79 10000 5.1 220 15:38 14.06.2019
6391 Rain 28 1008 79 10000 3.1 240 15:18 14.06.2019
6392 Rain 28 1008 79 10000 3.1 240 14:41 14.06.2019
6393 Clouds 29 1008 79 10000 5.1 250 14:22 14.06.2019
6394 Clouds 29 1008 79 10000 5.1 250 13:45 14.06.2019
6395 Clouds 29 1008 79 10000 5.1 250 13:45 14.06.2019
6396 Clouds 29 1008 79 10000 5.1 250 13:26 14.06.2019
6397 Rain 29 1007 79 10000 6.7 250 12:49 14.06.2019
6398 Rain 30 1007 79 10000 6.7 250 12:27 14.06.2019
6399 Clouds 30 1006 70 10000 7.7 240 11:59 14.06.2019
6400 Clouds 31 1006 70 10000 7.7 240 11:41 14.06.2019
6401 Clouds 31 1007 66 10000 7.2 260 11:22 14.06.2019
6402 Clouds 32 1007 66 10000 7.2 260 10:45 14.06.2019
6403 Clouds 32 1007 70 10000 7.2 250 10:20 14.06.2019
6404 Clouds 32 1007 70 10000 7.2 250 09:48 14.06.2019
6405 Clouds 32 1007 70 10000 7.2 250 09:25 14.06.2019
6406 Clouds 32 1007 70 10000 7.2 250 09:25 14.06.2019
6407 Clouds 33 1007 56 10000 9.3 260 08:47 14.06.2019
6408 Clouds 34 1007 53 10000 4.1 270 08:19 14.06.2019
6409 Clouds 34 1007 53 10000 4.1 270 07:51 14.06.2019
6410 Clouds 33 1008 63 10000 8.2 280 07:22 14.06.2019
6411 Clouds 33 1008 63 10000 8.2 280 06:39 14.06.2019
6412 Clouds 32 1008 70 10000 6.2 250 05:58 14.06.2019
6413 Clouds 32 1008 70 10000 6.2 250 05:26 14.06.2019
6414 Clouds 31 1008 79 10000 6.2 260 04:46 14.06.2019
6415 Clouds 31 1009 74 10000 6.2 230 03:56 14.06.2019
6416 Rain 30 1009 74 10000 6.2 230 03:26 14.06.2019
6417 Rain 31 1009 74 10000 3.1 260 02:56 14.06.2019
6418 Clouds 31 1009 74 10000 3.1 260 02:27 14.06.2019
6419 Clouds 31 1009 74 10000 3.1 260 02:27 14.06.2019
6420 Clouds 31 1009 74 10000 3.1 260 02:27 14.06.2019
6421 Clouds 29 1007 78 10000 0.5 30 00:59 14.06.2019
6422 Clouds 28 1007 78 10000 0.5 30 00:24 14.06.2019
6423 Rain 28 1007 94 9000 5.1 290 23:59 13.06.2019
6424 Rain 28 1007 94 9000 5.1 290 23:41 13.06.2019
6425 Clouds 28 1007 83 10000 1 350 23:22 13.06.2019
6426 Clouds 28 1007 83 10000 1 350 22:40 13.06.2019
6427 Clouds 27 1007 88 10000 1 360 22:22 13.06.2019
6428 Clouds 27 1007 88 10000 1 360 22:22 13.06.2019
6429 Clouds 27 1007 88 10000 1 360 21:40 13.06.2019
6430 Thunderstorm 28 1007 88 8000 5.1 300 21:20 13.06.2019
6431 Thunderstorm 28 1007 88 8000 5.1 300 20:58 13.06.2019
6432 Thunderstorm 28 1007 88 8000 5.1 300 20:39 13.06.2019
6433 Thunderstorm 29 1008 83 10000 1 350 20:19 13.06.2019
6434 Thunderstorm 29 1008 83 10000 1 350 19:42 13.06.2019
6435 Clouds 29 979 83 10000 2.1 340 19:22 13.06.2019
6436 Clouds 29 979 83 10000 2.1 340 18:58 13.06.2019
6437 Clouds 29 979 83 10000 2.1 340 18:40 13.06.2019
6438 Clouds 29 1009 79 10000 3.1 290 18:21 13.06.2019
6439 Clouds 29 1009 79 10000 3.1 290 17:43 13.06.2019
6440 Clouds 29 1009 79 10000 2.1 270 17:20 13.06.2019
6441 Clouds 29 1009 79 10000 2.1 270 16:53 13.06.2019
6442 Clouds 29 1008 81 0 1.34 354 16:22 13.06.2019
6443 Clouds 29 1011 82 0 2.41 261.366 15:59 13.06.2019
6444 Clouds 29 1009 56 0 1.79 0 15:39 13.06.2019
6445 Rain 29 1009 56 0 1.79 0 15:19 13.06.2019
6446 Rain 29 1009 56 0 1.79 0 14:47 13.06.2019
6447 Rain 29 1010 78 0 3.09 252.627 14:27 13.06.2019
6448 Rain 29 1009 56 0 1.79 0 13:47 13.06.2019
6449 Rain 29 1007 81 0 2.24 310 13:22 13.06.2019
6450 Rain 29 1010 78 0 3.09 252.627 12:58 13.06.2019
6451 Rain 30 1007 79 0 0.45 331 12:38 13.06.2019
6452 Rain 30 1009 76 0 3.71 238.181 12:19 13.06.2019
6453 Rain 30 1007 78 0 0.45 284 11:43 13.06.2019
6454 Rain 31 1006 77 0 1.79 295 11:24 13.06.2019
6455 Rain 31 1006 76 0 2.68 321 10:47 13.06.2019
6456 Rain 31 1008 72 0 3.71 238.181 10:28 13.06.2019
6457 Rain 31 1009 74 0 3.71 238.181 09:50 13.06.2019
6458 Rain 31 1009 74 0 3.71 238.181 09:50 13.06.2019
6459 Clouds 32 1006 75 0 0.89 337 09:25 13.06.2019
6460 Clouds 32 1006 73 0 1.79 350 08:51 13.06.2019
6461 Clouds 33 1008 63 10000 8.2 260 08:30 13.06.2019
6462 Clouds 33 1008 63 10000 8.2 260 07:59 13.06.2019
6463 Clouds 33 1008 63 10000 8.2 260 07:31 13.06.2019
6464 Clouds 34 1009 56 10000 6.2 250 06:53 13.06.2019
6465 Clouds 33 1009 56 10000 6.2 250 06:26 13.06.2019
6466 Clouds 33 1009 59 10000 6.2 270 05:58 13.06.2019
6467 Clouds 33 1009 59 10000 6.2 270 05:38 13.06.2019
6468 Clouds 33 1009 63 10000 6.2 220 05:18 13.06.2019
6469 Clouds 32 1009 70 10000 2.1 260 03:45 13.06.2019
6470 Clouds 31 1008 79 10000 2.68 226.586 01:55 13.06.2019
6471 Clouds 29 1007 88 10000 2.68 226.586 00:30 13.06.2019
6472 Clouds 28 1007 88 10000 1 240 23:26 12.06.2019
6473 Clouds 28 1008 88 10000 2.1 260 22:59 12.06.2019
6474 Clouds 28 1008 88 10000 2.1 260 22:40 12.06.2019
6475 Clouds 29 1008 83 10000 2.1 240 22:21 12.06.2019
6476 Clouds 29 1008 83 10000 2.1 240 21:43 12.06.2019
6477 Clouds 29 1008 83 10000 2.1 240 21:25 12.06.2019
6478 Clouds 29 1009 83 10000 2.1 260 20:48 12.06.2019
6479 Clouds 29 1009 83 10000 2.1 260 20:29 12.06.2019
6480 Clouds 29 1009 79 10000 2.1 250 19:57 12.06.2019
6481 Clouds 29 1009 79 10000 2.1 250 19:38 12.06.2019
6482 Clouds 29 1009 79 10000 2.1 260 19:19 12.06.2019
6483 Clouds 29 1009 79 10000 2.1 260 18:44 12.06.2019
6484 Clouds 29 1009 79 10000 2.1 260 18:26 12.06.2019
6485 Clouds 29 1009 79 10000 4.1 260 17:47 12.06.2019
6486 Clouds 29 1009 79 10000 4.1 260 17:23 12.06.2019
6487 Clouds 30 1009 74 50 4.1 250 16:44 12.06.2019
6488 Clouds 29 1009 74 50 4.1 250 16:25 12.06.2019
6489 Clouds 29 1009 79 10000 4.6 260 15:58 12.06.2019
6490 Clouds 30 1009 79 10000 4.6 260 15:34 12.06.2019
6491 Clouds 30 1009 79 10000 4.1 260 14:58 12.06.2019
6492 Clouds 30 1009 79 10000 4.1 260 14:34 12.06.2019
6493 Clouds 30 1008 79 10000 4.1 260 13:58 12.06.2019
6494 Clouds 30 1008 79 10000 4.1 260 13:39 12.06.2019
6495 Clouds 30 1007 74 10000 6.2 250 13:19 12.06.2019
6496 Clouds 30 1007 74 10000 6.2 250 12:44 12.06.2019
6497 Clouds 31 1007 66 10000 5.1 260 12:21 12.06.2019
6498 Clouds 31 1007 66 10000 5.1 260 11:58 12.06.2019
6499 Clouds 32 1007 66 10000 5.1 260 11:38 12.06.2019
6500 Clouds 32 1007 63 10000 7.2 260 11:20 12.06.2019
6501 Clouds 33 1007 63 10000 7.2 260 10:44 12.06.2019
6502 Clouds 33 1007 63 10000 6.2 270 10:19 12.06.2019
6503 Clouds 33 1007 63 10000 6.2 270 09:41 12.06.2019
6504 Clouds 34 1008 56 10000 5.1 270 09:22 12.06.2019
6505 Clouds 34 1008 56 10000 5.1 270 08:37 12.06.2019
6506 Clouds 33 1008 59 10000 3.1 260 08:18 12.06.2019
6507 Clouds 34 1008 59 10000 3.1 260 07:25 12.06.2019
6508 Clouds 33 1009 66 10000 3.1 270 06:40 12.06.2019
6509 Clouds 32 1009 63 10000 2.1 260 05:25 12.06.2019
6510 Clouds 31 1010 70 10000 1 190 03:41 12.06.2019
6511 Clouds 28 1009 83 9000 2.37 228.529 00:47 12.06.2019
6512 Clouds 27 1009 83 9000 1 340 00:20 12.06.2019
6513 Clouds 27 1009 83 9000 1 340 23:43 11.06.2019
6514 Clouds 27 1009 83 9000 1 340 23:24 11.06.2019
6515 Clouds 27 1009 78 10000 2.1 300 22:43 11.06.2019
6516 Rain 27 1009 78 8000 3.1 290 22:18 11.06.2019
6517 Rain 27 1009 78 8000 3.1 290 21:56 11.06.2019
6518 Rain 28 1009 78 8000 3.1 290 21:37 11.06.2019
6519 Clouds 28 1010 74 10000 5.1 290 21:19 11.06.2019
6520 Clouds 28 1010 74 10000 5.1 290 20:46 11.06.2019
6521 Clouds 28 1010 78 10000 6.2 290 20:22 11.06.2019
6522 Clouds 28 1010 78 10000 6.2 290 19:51 11.06.2019
6523 Clouds 28 1010 78 10000 6.2 290 19:29 11.06.2019
6524 Rain 29 1010 79 8000 6.2 250 18:53 11.06.2019
6525 Rain 29 1010 79 8000 6.2 250 18:20 11.06.2019
6526 Rain 29 1010 79 8000 6.2 250 18:20 11.06.2019
6527 Rain 29 1010 79 8000 6.2 250 18:20 11.06.2019
6528 Clouds 29 1010 79 10000 4.1 260 17:41 11.06.2019
6529 Rain 28 1012 88 10000 2.1 200 17:20 11.06.2019
6530 Rain 28 1012 88 10000 2.1 200 16:43 11.06.2019
6531 Clouds 29 1010 74 10000 5.1 250 16:24 11.06.2019
6532 Clouds 30 1010 74 10000 5.1 250 15:44 11.06.2019
6533 Clouds 30 1010 74 10000 5.1 250 15:25 11.06.2019
6534 Clouds 30 1009 74 10000 5.1 240 14:56 11.06.2019
6535 Clouds 30 1009 74 10000 5.1 240 14:38 11.06.2019
6536 Clouds 30 1008 74 10000 6.2 250 14:19 11.06.2019
6537 Clouds 30 1008 74 10000 6.2 250 13:42 11.06.2019
6538 Clouds 30 1007 74 10000 6.2 260 13:21 11.06.2019
6539 Clouds 31 1007 74 10000 6.2 260 12:42 11.06.2019
6540 Clouds 31 1007 70 10000 3.87 230.054 12:22 11.06.2019
6541 Clouds 31 1007 70 10000 3.87 230.054 11:54 11.06.2019
6542 Clouds 31 1007 70 10000 3.87 230.054 11:32 11.06.2019
6543 Clouds 31 1007 70 10000 3.87 230.054 11:32 11.06.2019
6544 Clouds 32 1006 63 10000 8.2 260 10:51 11.06.2019
6545 Clouds 32 1006 63 10000 8.2 260 10:27 11.06.2019
6546 Clouds 32 1006 63 10000 8.2 260 10:27 11.06.2019
6547 Clouds 33 1006 63 10000 7.2 250 09:51 11.06.2019
6548 Clouds 33 1006 63 10000 7.2 250 09:26 11.06.2019
6549 Clouds 33 1007 59 10000 6.2 260 08:58 11.06.2019
6550 Clouds 33 1007 59 10000 6.2 260 08:40 11.06.2019
6551 Clouds 33 1007 59 10000 5.1 250 08:19 11.06.2019
6552 Clouds 33 1007 59 10000 5.1 250 07:33 11.06.2019
6553 Clouds 33 1008 59 10000 3.1 250 06:52 11.06.2019
6554 Clouds 33 1008 59 10000 2.1 270 05:21 11.06.2019
6555 Clouds 32 1008 59 10000 2.1 270 04:36 11.06.2019
6556 Clouds 31 1008 74 10000 2.1 140 02:26 11.06.2019
6557 Clouds 28 1007 83 10000 2.1 90 00:50 11.06.2019
6558 Clouds 28 1007 83 10000 2.1 90 00:24 11.06.2019
6559 Clouds 28 1007 88 10000 4.1 50 23:44 10.06.2019
6560 Clouds 28 1007 83 10000 2.1 240 23:21 10.06.2019
6561 Clouds 28 1007 83 10000 2.1 240 22:43 10.06.2019
6562 Clouds 28 1007 83 10000 2.1 240 22:25 10.06.2019
6563 Clouds 28 1009 83 10000 3.1 230 21:56 10.06.2019
6564 Clouds 28 1009 83 10000 3.1 230 21:38 10.06.2019
6565 Clouds 29 1009 79 10000 1 230 21:19 10.06.2019
6566 Clouds 28 1009 79 10000 1 230 20:41 10.06.2019
6567 Clouds 28 1009 79 10000 1 240 20:21 10.06.2019
6568 Clouds 28 1009 79 10000 1 240 19:44 10.06.2019
6569 Clouds 28 1009 79 10000 1 220 19:22 10.06.2019
6570 Clouds 29 1009 79 10000 1 220 18:56 10.06.2019
6571 Clouds 29 1009 79 10000 1 220 18:38 10.06.2019
6572 Clouds 29 1009 79 10000 2.34 232.46 18:19 10.06.2019
6573 Clouds 29 1009 79 10000 2.34 232.46 18:19 10.06.2019
6574 Clouds 29 1009 79 10000 2.34 232.46 17:43 10.06.2019
6575 Clouds 29 1009 79 10000 2.34 232.46 17:23 10.06.2019
6576 Clouds 29 1009 79 10000 2.34 232.46 16:48 10.06.2019
6577 Clouds 29 1009 79 10000 2.34 232.46 16:30 10.06.2019
6578 Clouds 29 1009 79 10000 1 220 15:57 10.06.2019
6579 Clouds 29 1009 79 10000 1 220 15:38 10.06.2019
6580 Thunderstorm 29 1008 83 0 2.6 220 15:19 10.06.2019
6581 Thunderstorm 29 1008 83 0 2.6 220 14:41 10.06.2019
6582 Clouds 29 1007 79 10000 2.1 230 14:22 10.06.2019
6583 Clouds 29 1007 79 10000 2.1 230 13:45 10.06.2019
6584 Clouds 29 1007 79 10000 2.1 230 13:24 10.06.2019
6585 Thunderstorm 29 1007 83 0 2.65 235.23 12:48 10.06.2019
6586 Thunderstorm 29 1007 83 0 2.65 235.23 12:29 10.06.2019
6587 Rain 30 1006 79 10000 1 220 11:52 10.06.2019
6588 Clouds 29 1006 79 10000 1 220 11:30 10.06.2019
6589 Clouds 29 1006 83 10000 1 0 10:58 10.06.2019
6590 Clouds 29 1006 83 10000 1 0 10:38 10.06.2019
6591 Clouds 29 1006 88 10000 3.51 233.46 10:18 10.06.2019
6592 Clouds 28 1006 88 10000 3.51 233.46 09:48 10.06.2019
6593 Clouds 28 1006 88 10000 3.51 233.46 09:29 10.06.2019
6594 Thunderstorm 28 1006 83 9000 1 360 08:48 10.06.2019
6595 Thunderstorm 28 1006 83 9000 1 360 08:26 10.06.2019
6596 Thunderstorm 29 1007 74 9000 5.1 340 07:27 10.06.2019
6597 Clouds 32 1008 66 10000 3.1 280 04:42 10.06.2019
6598 Clouds 31 1007 79 9000 2.1 210 02:19 10.06.2019
6599 Clouds 30 1007 79 9000 2.1 210 01:32 10.06.2019
6600 Clouds 29 1007 88 9000 2.1 260 00:59 10.06.2019
6601 Clouds 28 1007 88 9000 2.1 260 00:36 10.06.2019
6602 Clouds 28 1007 94 9000 0.44 177.641 23:46 09.06.2019
6603 Clouds 29 1007 83 10000 0.44 177.641 23:21 09.06.2019
6604 Clouds 29 1007 83 10000 0.44 177.641 22:45 09.06.2019
6605 Clouds 29 1007 83 10000 0.44 177.641 22:26 09.06.2019
6606 Clouds 28 1007 83 9000 2.1 60 21:46 09.06.2019
6607 Clouds 28 1007 83 9000 2.1 60 21:28 09.06.2019
6608 Clouds 28 1007 88 9000 1.5 60 20:58 09.06.2019
6609 Clouds 28 1007 88 9000 1.5 60 20:40 09.06.2019
6610 Clouds 28 1009 88 10000 2.1 70 20:21 09.06.2019
6611 Clouds 28 1009 88 10000 2.1 70 19:42 09.06.2019
6612 Clouds 28 1010 88 9000 1 0 19:18 09.06.2019
6613 Clouds 28 1010 88 9000 1 0 18:43 09.06.2019
6614 Clouds 28 1010 88 9000 1 0 18:24 09.06.2019
6615 Rain 28 1010 88 7000 0.5 0 17:50 09.06.2019
6616 Rain 27 1010 88 7000 0.5 0 17:30 09.06.2019
6617 Rain 28 1010 88 9000 1 230 16:57 09.06.2019
6618 Rain 28 1010 88 9000 1 230 16:38 09.06.2019
6619 Rain 28 1010 100 7000 1 130 16:19 09.06.2019
6620 Thunderstorm 28 1010 100 7000 1 130 15:48 09.06.2019
6621 Thunderstorm 28 1010 100 7000 1 130 15:28 09.06.2019
6622 Thunderstorm 28 1009 83 8000 2.03 255.875 14:48 09.06.2019
6623 Thunderstorm 28 1009 83 8000 2.03 255.875 14:29 09.06.2019
6624 Thunderstorm 29 1008 70 7000 3.1 90 13:56 09.06.2019
6625 Thunderstorm 29 1008 70 7000 3.1 90 13:37 09.06.2019
6626 Clouds 32 1007 70 10000 4.1 240 12:46 09.06.2019
6627 Clouds 32 1007 70 10000 4.1 240 12:27 09.06.2019
6628 Clouds 33 1007 66 10000 6.2 250 11:48 09.06.2019
6629 Clouds 33 1007 66 10000 6.2 250 11:29 09.06.2019
6630 Clouds 33 1007 66 10000 6.7 250 10:47 09.06.2019
6631 Clouds 33 1007 66 10000 6.7 250 10:25 09.06.2019
6632 Clouds 33 1007 63 10000 6.2 240 09:56 09.06.2019
6633 Clouds 33 1007 63 10000 6.2 240 09:37 09.06.2019
6634 Clouds 36 1007 56 10000 3.1 80 09:18 09.06.2019
6635 Clouds 36 1007 56 10000 3.1 80 08:42 09.06.2019
6636 Clouds 36 1008 56 10000 1 0 07:50 09.06.2019
6637 Clouds 35 1008 50 10000 3.1 80 06:33 09.06.2019
6638 Clouds 35 1008 56 10000 3.1 130 05:47 09.06.2019
6639 Clouds 32 1010 70 10000 4.1 120 02:55 09.06.2019
6640 Clouds 31 1009 70 10000 1.5 90 01:36 09.06.2019
6641 Clouds 31 1009 70 10000 1.5 90 01:36 09.06.2019
6642 Clouds 30 1009 74 10000 2.1 90 01:18 09.06.2019
6643 Clouds 30 1009 74 10000 2.1 90 01:18 09.06.2019
6644 Clouds 29 1009 74 10000 2.1 110 00:22 09.06.2019
6645 Clouds 28 1009 74 10000 2.1 110 23:40 08.06.2019
6646 Clouds 29 1009 74 10000 2.1 100 23:22 08.06.2019
6647 Clouds 29 1009 74 10000 2.1 100 22:44 08.06.2019
6648 Clouds 29 1009 74 10000 2.1 100 22:25 08.06.2019
6649 Clouds 30 1009 70 10000 3.1 90 21:54 08.06.2019
6650 Clouds 30 1009 70 10000 3.1 90 21:35 08.06.2019
6651 Clouds 30 1009 70 10000 3.1 90 21:35 08.06.2019
6652 Clouds 30 1009 70 10000 3.1 90 21:35 08.06.2019
6653 Clouds 29 1009 74 10000 2.1 100 20:59 08.06.2019
6654 Clouds 29 1009 74 10000 2.1 100 20:40 08.06.2019
6655 Clouds 29 1009 70 10000 2.1 110 20:21 08.06.2019
6656 Clouds 30 1009 70 10000 2.1 110 19:42 08.06.2019
6657 Clouds 30 1009 70 10000 2.1 110 19:42 08.06.2019
6658 Clouds 30 1010 70 10000 3.1 120 19:22 08.06.2019
6659 Clouds 30 1010 70 10000 3.1 120 18:58 08.06.2019
6660 Clouds 29 1010 70 10000 3.1 120 18:39 08.06.2019
6661 Clouds 30 1010 74 10000 4.1 130 18:18 08.06.2019
6662 Clouds 30 1010 74 10000 4.1 130 17:41 08.06.2019
6663 Thunderstorm 29 1011 74 7000 4.1 70 17:19 08.06.2019
6664 Thunderstorm 29 1011 74 7000 4.1 70 16:45 08.06.2019
6665 Clouds 30 1010 66 10000 4.1 110 16:21 08.06.2019
6666 Clouds 31 1010 66 10000 4.1 110 15:40 08.06.2019
6667 Clouds 31 1010 66 10000 4.1 110 15:40 08.06.2019
6668 -273 0 0 0 0 0 15:40 08.06.2019
6669 Clouds 31 1009 70 10000 4.1 100 14:58 08.06.2019
6670 Clouds 31 1009 70 10000 4.1 100 14:40 08.06.2019
6671 Clouds 31 1009 62 10000 4.1 110 14:21 08.06.2019
6672 Clouds 31 1009 62 10000 4.1 110 13:37 08.06.2019
6673 Rain 33 1008 52 10000 3.6 100 12:47 08.06.2019
6674 Rain 32 1008 52 10000 3.6 100 12:24 08.06.2019
6675 Rain 32 1007 56 10000 4.1 110 11:44 08.06.2019
6676 Rain 32 1007 56 10000 4.1 110 11:23 08.06.2019
6677 Clouds 34 1007 50 10000 4.1 110 10:45 08.06.2019
6678 Clouds 34 1007 50 10000 4.1 110 10:23 08.06.2019
6679 Clouds 35 1008 47 10000 3.1 120 09:50 08.06.2019
6680 Clouds 36 1008 47 10000 3.1 120 09:24 08.06.2019
6681 Clouds 35 1008 50 10000 5.1 120 08:31 08.06.2019
6682 Clouds 35 1009 50 10000 5.1 120 07:49 08.06.2019
6683 Clouds 34 1010 50 10000 6.2 100 06:50 08.06.2019
6684 Clouds 34 1011 52 10000 2.29 92.301 05:48 08.06.2019
6685 Clouds 32 1012 66 10000 4.1 110 03:31 08.06.2019
6686 Clouds 31 1011 79 10000 1.5 90 01:27 08.06.2019
6687 Clouds<